<?xml version="1.0" encoding="UTF-8" standalone="no" ?>
<gpx xmlns="http://www.topografix.com/GPX/1/1" xmlns:xsi="http://www.w3.org/2001/XMLSchema-instance" xsi:schemaLocation="http://www.topografix.com/GPX/1/1 http://www.topografix.com/GPX/1/1/gpx.xsd" version="1.1" creator="VisuGPX - https://www.visugpx.com">
  <metadata>
    <name>Tour d'Europe: étape 822</name>
    <desc><![CDATA[Étape 822]]></desc>
  </metadata>
  <trk>
    <name><![CDATA[Tour d'Europe: étape 822]]></name>
    <trkseg>
      <trkpt lat="47.18755" lon="16.20731">
        <ele>318.701893</ele>
        <time>2022-09-28T08:06:05.319Z</time>
      </trkpt>
      <trkpt lat="47.18743" lon="16.20731">
        <ele>318.701893</ele>
        <time>2022-09-28T08:06:06.696Z</time>
      </trkpt>
      <trkpt lat="47.18757" lon="16.20719">
        <ele>318.701893</ele>
        <time>2022-09-28T08:15:26.718Z</time>
      </trkpt>
      <trkpt lat="47.18753" lon="16.20707">
        <ele>318.701893</ele>
        <time>2022-09-28T08:15:29.701Z</time>
      </trkpt>
      <trkpt lat="47.18744" lon="16.20692">
        <ele>318.701893</ele>
        <time>2022-09-28T08:15:32.713Z</time>
      </trkpt>
      <trkpt lat="47.18738" lon="16.20682">
        <ele>318.701893</ele>
        <time>2022-09-28T08:15:34.690Z</time>
      </trkpt>
      <trkpt lat="47.18729" lon="16.20671">
        <ele>318.701893</ele>
        <time>2022-09-28T08:15:36.709Z</time>
      </trkpt>
      <trkpt lat="47.1872" lon="16.20661">
        <ele>318.701893</ele>
        <time>2022-09-28T08:15:38.678Z</time>
      </trkpt>
      <trkpt lat="47.18713" lon="16.20649">
        <ele>318.455606</ele>
        <time>2022-09-28T08:15:40.692Z</time>
      </trkpt>
      <trkpt lat="47.18707" lon="16.20637">
        <ele>317.727555</ele>
        <time>2022-09-28T08:15:42.702Z</time>
      </trkpt>
      <trkpt lat="47.18702" lon="16.20622">
        <ele>316.956826</ele>
        <time>2022-09-28T08:15:44.678Z</time>
      </trkpt>
      <trkpt lat="47.18697" lon="16.20608">
        <ele>316.191539</ele>
        <time>2022-09-28T08:15:46.685Z</time>
      </trkpt>
      <trkpt lat="47.18692" lon="16.20595">
        <ele>315.454795</ele>
        <time>2022-09-28T08:15:48.677Z</time>
      </trkpt>
      <trkpt lat="47.18687" lon="16.2058">
        <ele>314.684064</ele>
        <time>2022-09-28T08:15:50.679Z</time>
      </trkpt>
      <trkpt lat="47.18685" lon="16.20567">
        <ele>314.030955</ele>
        <time>2022-09-28T08:15:52.685Z</time>
      </trkpt>
      <trkpt lat="47.18683" lon="16.20549">
        <ele>313.135523</ele>
        <time>2022-09-28T08:15:55.682Z</time>
      </trkpt>
      <trkpt lat="47.18675" lon="16.20537">
        <ele>312.319363</ele>
        <time>2022-09-28T08:15:58.731Z</time>
      </trkpt>
      <trkpt lat="47.18666" lon="16.20535">
        <ele>311.658343</ele>
        <time>2022-09-28T08:16:00.694Z</time>
      </trkpt>
      <trkpt lat="47.18657" lon="16.20538">
        <ele>311.011602</ele>
        <time>2022-09-28T08:16:02.718Z</time>
      </trkpt>
      <trkpt lat="47.18645" lon="16.20541">
        <ele>310.164881</ele>
        <time>2022-09-28T08:16:05.669Z</time>
      </trkpt>
      <trkpt lat="47.18633" lon="16.20543">
        <ele>309.30338</ele>
        <time>2022-09-28T08:16:08.679Z</time>
      </trkpt>
      <trkpt lat="47.18621" lon="16.20544">
        <ele>308.494503</ele>
        <time>2022-09-28T08:16:11.657Z</time>
      </trkpt>
      <trkpt lat="47.1861" lon="16.20546">
        <ele>307.70318</ele>
        <time>2022-09-28T08:16:14.694Z</time>
      </trkpt>
      <trkpt lat="47.18598" lon="16.20548">
        <ele>306.837119</ele>
        <time>2022-09-28T08:16:17.685Z</time>
      </trkpt>
      <trkpt lat="47.18586" lon="16.2055">
        <ele>305.991734</ele>
        <time>2022-09-28T08:16:20.718Z</time>
      </trkpt>
      <trkpt lat="47.18574" lon="16.20551">
        <ele>306.062136</ele>
        <time>2022-09-28T08:16:23.687Z</time>
      </trkpt>
      <trkpt lat="47.18561" lon="16.20552">
        <ele>306.140838</ele>
        <time>2022-09-28T08:16:26.706Z</time>
      </trkpt>
      <trkpt lat="47.18548" lon="16.20553">
        <ele>306.220248</ele>
        <time>2022-09-28T08:16:29.679Z</time>
      </trkpt>
      <trkpt lat="47.18535" lon="16.20555">
        <ele>306.30167</ele>
        <time>2022-09-28T08:16:32.685Z</time>
      </trkpt>
      <trkpt lat="47.18522" lon="16.20558">
        <ele>306.383494</ele>
        <time>2022-09-28T08:16:35.678Z</time>
      </trkpt>
      <trkpt lat="47.18513" lon="16.20561">
        <ele>306.44028</ele>
        <time>2022-09-28T08:16:37.711Z</time>
      </trkpt>
      <trkpt lat="47.185" lon="16.20565">
        <ele>306.523201</ele>
        <time>2022-09-28T08:16:40.678Z</time>
      </trkpt>
      <trkpt lat="47.18487" lon="16.20569">
        <ele>306.602402</ele>
        <time>2022-09-28T08:16:43.666Z</time>
      </trkpt>
      <trkpt lat="47.18475" lon="16.20573">
        <ele>306.6784</ele>
        <time>2022-09-28T08:16:46.661Z</time>
      </trkpt>
      <trkpt lat="47.18463" lon="16.20577">
        <ele>306.756772</ele>
        <time>2022-09-28T08:16:49.684Z</time>
      </trkpt>
      <trkpt lat="47.18454" lon="16.20581">
        <ele>306.812614</ele>
        <time>2022-09-28T08:16:51.668Z</time>
      </trkpt>
      <trkpt lat="47.18442" lon="16.20587">
        <ele>306.894106</ele>
        <time>2022-09-28T08:16:54.721Z</time>
      </trkpt>
      <trkpt lat="47.1843" lon="16.20593">
        <ele>306.972991</ele>
        <time>2022-09-28T08:16:57.688Z</time>
      </trkpt>
      <trkpt lat="47.18418" lon="16.206">
        <ele>307.051763</ele>
        <time>2022-09-28T08:17:00.675Z</time>
      </trkpt>
      <trkpt lat="47.18406" lon="16.20606">
        <ele>307.162449</ele>
        <time>2022-09-28T08:17:03.680Z</time>
      </trkpt>
      <trkpt lat="47.18396" lon="16.20613">
        <ele>307.315387</ele>
        <time>2022-09-28T08:17:06.678Z</time>
      </trkpt>
      <trkpt lat="47.18386" lon="16.2062">
        <ele>307.460008</ele>
        <time>2022-09-28T08:17:09.692Z</time>
      </trkpt>
      <trkpt lat="47.18376" lon="16.20627">
        <ele>307.605619</ele>
        <time>2022-09-28T08:17:12.670Z</time>
      </trkpt>
      <trkpt lat="47.18366" lon="16.20634">
        <ele>307.743202</ele>
        <time>2022-09-28T08:17:15.682Z</time>
      </trkpt>
      <trkpt lat="47.18358" lon="16.2064">
        <ele>307.870563</ele>
        <time>2022-09-28T08:17:18.685Z</time>
      </trkpt>
      <trkpt lat="47.18349" lon="16.20646">
        <ele>308.001824</ele>
        <time>2022-09-28T08:17:21.694Z</time>
      </trkpt>
      <trkpt lat="47.18338" lon="16.20652">
        <ele>308.144172</ele>
        <time>2022-09-28T08:17:24.685Z</time>
      </trkpt>
      <trkpt lat="47.18329" lon="16.20658">
        <ele>308.285112</ele>
        <time>2022-09-28T08:17:27.714Z</time>
      </trkpt>
      <trkpt lat="47.18319" lon="16.20665">
        <ele>308.430148</ele>
        <time>2022-09-28T08:17:30.689Z</time>
      </trkpt>
      <trkpt lat="47.18308" lon="16.20672">
        <ele>308.584205</ele>
        <time>2022-09-28T08:17:33.677Z</time>
      </trkpt>
      <trkpt lat="47.18298" lon="16.20682">
        <ele>308.744565</ele>
        <time>2022-09-28T08:17:36.671Z</time>
      </trkpt>
      <trkpt lat="47.18288" lon="16.20691">
        <ele>308.900968</ele>
        <time>2022-09-28T08:17:39.679Z</time>
      </trkpt>
      <trkpt lat="47.18276" lon="16.20699">
        <ele>309.063684</ele>
        <time>2022-09-28T08:17:42.687Z</time>
      </trkpt>
      <trkpt lat="47.18266" lon="16.20708">
        <ele>309.222575</ele>
        <time>2022-09-28T08:17:45.685Z</time>
      </trkpt>
      <trkpt lat="47.18256" lon="16.20717">
        <ele>309.376949</ele>
        <time>2022-09-28T08:17:48.683Z</time>
      </trkpt>
      <trkpt lat="47.18245" lon="16.20724">
        <ele>309.427534</ele>
        <time>2022-09-28T08:17:51.687Z</time>
      </trkpt>
      <trkpt lat="47.18235" lon="16.20732">
        <ele>309.35996</ele>
        <time>2022-09-28T08:17:54.686Z</time>
      </trkpt>
      <trkpt lat="47.18226" lon="16.20739">
        <ele>309.295168</ele>
        <time>2022-09-28T08:17:57.678Z</time>
      </trkpt>
      <trkpt lat="47.18215" lon="16.20746">
        <ele>309.228809</ele>
        <time>2022-09-28T08:18:00.694Z</time>
      </trkpt>
      <trkpt lat="47.18205" lon="16.20754">
        <ele>309.162451</ele>
        <time>2022-09-28T08:18:03.713Z</time>
      </trkpt>
      <trkpt lat="47.18195" lon="16.20761">
        <ele>309.093285</ele>
        <time>2022-09-28T08:18:06.682Z</time>
      </trkpt>
      <trkpt lat="47.18185" lon="16.20769">
        <ele>309.026588</ele>
        <time>2022-09-28T08:18:09.683Z</time>
      </trkpt>
      <trkpt lat="47.18175" lon="16.20776">
        <ele>308.962701</ele>
        <time>2022-09-28T08:18:12.681Z</time>
      </trkpt>
      <trkpt lat="47.18165" lon="16.20783">
        <ele>308.895802</ele>
        <time>2022-09-28T08:18:15.660Z</time>
      </trkpt>
      <trkpt lat="47.18155" lon="16.2079">
        <ele>308.829296</ele>
        <time>2022-09-28T08:18:18.686Z</time>
      </trkpt>
      <trkpt lat="47.18146" lon="16.20798">
        <ele>308.765542</ele>
        <time>2022-09-28T08:18:21.682Z</time>
      </trkpt>
      <trkpt lat="47.18136" lon="16.20806">
        <ele>308.701191</ele>
        <time>2022-09-28T08:18:24.681Z</time>
      </trkpt>
      <trkpt lat="47.18128" lon="16.20814">
        <ele>308.644813</ele>
        <time>2022-09-28T08:18:27.685Z</time>
      </trkpt>
      <trkpt lat="47.18119" lon="16.20821">
        <ele>308.583394</ele>
        <time>2022-09-28T08:18:30.682Z</time>
      </trkpt>
      <trkpt lat="47.1811" lon="16.20829">
        <ele>308.518271</ele>
        <time>2022-09-28T08:18:33.688Z</time>
      </trkpt>
      <trkpt lat="47.18099" lon="16.20836">
        <ele>308.447303</ele>
        <time>2022-09-28T08:18:36.702Z</time>
      </trkpt>
      <trkpt lat="47.18087" lon="16.20845">
        <ele>308.327529</ele>
        <time>2022-09-28T08:18:39.690Z</time>
      </trkpt>
      <trkpt lat="47.18078" lon="16.20852">
        <ele>308.159755</ele>
        <time>2022-09-28T08:18:41.682Z</time>
      </trkpt>
      <trkpt lat="47.18068" lon="16.20859">
        <ele>307.976414</ele>
        <time>2022-09-28T08:18:43.714Z</time>
      </trkpt>
      <trkpt lat="47.18057" lon="16.20867">
        <ele>307.779591</ele>
        <time>2022-09-28T08:18:45.722Z</time>
      </trkpt>
      <trkpt lat="47.18045" lon="16.20876">
        <ele>307.566647</ele>
        <time>2022-09-28T08:18:47.667Z</time>
      </trkpt>
      <trkpt lat="47.18034" lon="16.20887">
        <ele>307.348197</ele>
        <time>2022-09-28T08:18:49.653Z</time>
      </trkpt>
      <trkpt lat="47.18023" lon="16.209">
        <ele>307.130509</ele>
        <time>2022-09-28T08:18:51.669Z</time>
      </trkpt>
      <trkpt lat="47.18014" lon="16.20913">
        <ele>306.921955</ele>
        <time>2022-09-28T08:18:53.664Z</time>
      </trkpt>
      <trkpt lat="47.18008" lon="16.2093">
        <ele>306.713414</ele>
        <time>2022-09-28T08:18:55.679Z</time>
      </trkpt>
      <trkpt lat="47.18003" lon="16.20946">
        <ele>306.513479</ele>
        <time>2022-09-28T08:18:57.706Z</time>
      </trkpt>
      <trkpt lat="47.17997" lon="16.20961">
        <ele>306.329506</ele>
        <time>2022-09-28T08:18:59.678Z</time>
      </trkpt>
      <trkpt lat="47.17992" lon="16.20974">
        <ele>306.162167</ele>
        <time>2022-09-28T08:19:01.679Z</time>
      </trkpt>
      <trkpt lat="47.17987" lon="16.20987">
        <ele>305.994508</ele>
        <time>2022-09-28T08:19:03.682Z</time>
      </trkpt>
      <trkpt lat="47.1798" lon="16.20997">
        <ele>305.837203</ele>
        <time>2022-09-28T08:19:05.676Z</time>
      </trkpt>
      <trkpt lat="47.17972" lon="16.21004">
        <ele>305.684375</ele>
        <time>2022-09-28T08:19:07.674Z</time>
      </trkpt>
      <trkpt lat="47.17963" lon="16.21008">
        <ele>305.529588</ele>
        <time>2022-09-28T08:19:09.686Z</time>
      </trkpt>
      <trkpt lat="47.17953" lon="16.2101">
        <ele>305.456014</ele>
        <time>2022-09-28T08:19:11.662Z</time>
      </trkpt>
      <trkpt lat="47.1794" lon="16.21012">
        <ele>305.407418</ele>
        <time>2022-09-28T08:19:14.696Z</time>
      </trkpt>
      <trkpt lat="47.17928" lon="16.21014">
        <ele>305.361134</ele>
        <time>2022-09-28T08:19:17.733Z</time>
      </trkpt>
      <trkpt lat="47.17916" lon="16.21018">
        <ele>305.314979</ele>
        <time>2022-09-28T08:19:20.771Z</time>
      </trkpt>
      <trkpt lat="47.17904" lon="16.21025">
        <ele>305.269132</ele>
        <time>2022-09-28T08:19:23.677Z</time>
      </trkpt>
      <trkpt lat="47.17893" lon="16.21033">
        <ele>305.223784</ele>
        <time>2022-09-28T08:19:26.665Z</time>
      </trkpt>
      <trkpt lat="47.17884" lon="16.21044">
        <ele>305.179102</ele>
        <time>2022-09-28T08:19:29.677Z</time>
      </trkpt>
      <trkpt lat="47.17872" lon="16.21055">
        <ele>305.126902</ele>
        <time>2022-09-28T08:19:32.672Z</time>
      </trkpt>
      <trkpt lat="47.17863" lon="16.21064">
        <ele>305.086101</ele>
        <time>2022-09-28T08:19:34.689Z</time>
      </trkpt>
      <trkpt lat="47.17852" lon="16.21072">
        <ele>305.042094</ele>
        <time>2022-09-28T08:19:36.682Z</time>
      </trkpt>
      <trkpt lat="47.17841" lon="16.21079">
        <ele>304.994696</ele>
        <time>2022-09-28T08:19:38.679Z</time>
      </trkpt>
      <trkpt lat="47.1783" lon="16.21086">
        <ele>304.950249</ele>
        <time>2022-09-28T08:19:40.675Z</time>
      </trkpt>
      <trkpt lat="47.1782" lon="16.21094">
        <ele>304.908572</ele>
        <time>2022-09-28T08:19:42.688Z</time>
      </trkpt>
      <trkpt lat="47.17812" lon="16.21103">
        <ele>304.87079</ele>
        <time>2022-09-28T08:19:44.712Z</time>
      </trkpt>
      <trkpt lat="47.17804" lon="16.2111">
        <ele>304.83746</ele>
        <time>2022-09-28T08:19:46.689Z</time>
      </trkpt>
      <trkpt lat="47.17793" lon="16.2112">
        <ele>305.040801</ele>
        <time>2022-09-28T08:19:49.716Z</time>
      </trkpt>
      <trkpt lat="47.17783" lon="16.21128">
        <ele>305.492396</ele>
        <time>2022-09-28T08:19:52.715Z</time>
      </trkpt>
      <trkpt lat="47.17773" lon="16.21134">
        <ele>305.913328</ele>
        <time>2022-09-28T08:19:55.666Z</time>
      </trkpt>
      <trkpt lat="47.17764" lon="16.21137">
        <ele>306.269198</ele>
        <time>2022-09-28T08:19:58.669Z</time>
      </trkpt>
      <trkpt lat="47.17754" lon="16.2114">
        <ele>306.664971</ele>
        <time>2022-09-28T08:20:02.682Z</time>
      </trkpt>
      <trkpt lat="47.17745" lon="16.21142">
        <ele>307.036163</ele>
        <time>2022-09-28T08:20:06.677Z</time>
      </trkpt>
      <trkpt lat="47.17736" lon="16.21143">
        <ele>307.407652</ele>
        <time>2022-09-28T08:20:10.691Z</time>
      </trkpt>
      <trkpt lat="47.17726" lon="16.21144">
        <ele>307.765539</ele>
        <time>2022-09-28T08:20:14.702Z</time>
      </trkpt>
      <trkpt lat="47.17717" lon="16.21144">
        <ele>308.122948</ele>
        <time>2022-09-28T08:20:18.674Z</time>
      </trkpt>
      <trkpt lat="47.17708" lon="16.21147">
        <ele>308.48499</ele>
        <time>2022-09-28T08:20:22.694Z</time>
      </trkpt>
      <trkpt lat="47.17697" lon="16.21148">
        <ele>308.921743</ele>
        <time>2022-09-28T08:20:27.681Z</time>
      </trkpt>
      <trkpt lat="47.17686" lon="16.21148">
        <ele>309.342348</ele>
        <time>2022-09-28T08:20:32.712Z</time>
      </trkpt>
      <trkpt lat="47.17676" lon="16.21148">
        <ele>309.762488</ele>
        <time>2022-09-28T08:20:37.682Z</time>
      </trkpt>
      <trkpt lat="47.17667" lon="16.21148">
        <ele>310.115852</ele>
        <time>2022-09-28T08:20:41.675Z</time>
      </trkpt>
      <trkpt lat="47.17656" lon="16.21149">
        <ele>310.532297</ele>
        <time>2022-09-28T08:20:46.690Z</time>
      </trkpt>
      <trkpt lat="47.17647" lon="16.21149">
        <ele>310.889637</ele>
        <time>2022-09-28T08:20:50.678Z</time>
      </trkpt>
      <trkpt lat="47.17637" lon="16.21149">
        <ele>311.278302</ele>
        <time>2022-09-28T08:20:54.685Z</time>
      </trkpt>
      <trkpt lat="47.17627" lon="16.2115">
        <ele>311.676826</ele>
        <time>2022-09-28T08:20:58.730Z</time>
      </trkpt>
      <trkpt lat="47.17617" lon="16.21151">
        <ele>311.749508</ele>
        <time>2022-09-28T08:21:02.673Z</time>
      </trkpt>
      <trkpt lat="47.17607" lon="16.21152">
        <ele>311.460834</ele>
        <time>2022-09-28T08:21:07.672Z</time>
      </trkpt>
      <trkpt lat="47.17596" lon="16.21153">
        <ele>311.17202</ele>
        <time>2022-09-28T08:21:12.660Z</time>
      </trkpt>
      <trkpt lat="47.17586" lon="16.21156">
        <ele>310.907035</ele>
        <time>2022-09-28T08:21:16.673Z</time>
      </trkpt>
      <trkpt lat="47.17576" lon="16.21158">
        <ele>310.651501</ele>
        <time>2022-09-28T08:21:19.686Z</time>
      </trkpt>
      <trkpt lat="47.17565" lon="16.21161">
        <ele>310.355365</ele>
        <time>2022-09-28T08:21:22.718Z</time>
      </trkpt>
      <trkpt lat="47.17553" lon="16.21165">
        <ele>310.032621</ele>
        <time>2022-09-28T08:21:25.668Z</time>
      </trkpt>
      <trkpt lat="47.17544" lon="16.21168">
        <ele>309.786329</ele>
        <time>2022-09-28T08:21:27.701Z</time>
      </trkpt>
      <trkpt lat="47.17534" lon="16.21172">
        <ele>309.520757</ele>
        <time>2022-09-28T08:21:29.683Z</time>
      </trkpt>
      <trkpt lat="47.17524" lon="16.21177">
        <ele>309.233161</ele>
        <time>2022-09-28T08:21:31.680Z</time>
      </trkpt>
      <trkpt lat="47.17514" lon="16.21184">
        <ele>308.927756</ele>
        <time>2022-09-28T08:21:33.692Z</time>
      </trkpt>
      <trkpt lat="47.17502" lon="16.21192">
        <ele>308.583133</ele>
        <time>2022-09-28T08:21:35.687Z</time>
      </trkpt>
      <trkpt lat="47.17489" lon="16.21202">
        <ele>308.1957</ele>
        <time>2022-09-28T08:21:37.681Z</time>
      </trkpt>
      <trkpt lat="47.17475" lon="16.21214">
        <ele>307.786889</ele>
        <time>2022-09-28T08:21:39.688Z</time>
      </trkpt>
      <trkpt lat="47.17461" lon="16.21225">
        <ele>307.345682</ele>
        <time>2022-09-28T08:21:41.671Z</time>
      </trkpt>
      <trkpt lat="47.17445" lon="16.21235">
        <ele>306.911159</ele>
        <time>2022-09-28T08:21:43.684Z</time>
      </trkpt>
      <trkpt lat="47.17429" lon="16.21242">
        <ele>306.517709</ele>
        <time>2022-09-28T08:21:45.713Z</time>
      </trkpt>
      <trkpt lat="47.17414" lon="16.21248">
        <ele>306.140413</ele>
        <time>2022-09-28T08:21:47.669Z</time>
      </trkpt>
      <trkpt lat="47.17399" lon="16.2125">
        <ele>305.778702</ele>
        <time>2022-09-28T08:21:49.679Z</time>
      </trkpt>
      <trkpt lat="47.17386" lon="16.21252">
        <ele>305.440266</ele>
        <time>2022-09-28T08:21:51.681Z</time>
      </trkpt>
      <trkpt lat="47.17373" lon="16.21254">
        <ele>305.132321</ele>
        <time>2022-09-28T08:21:53.684Z</time>
      </trkpt>
      <trkpt lat="47.17361" lon="16.21257">
        <ele>304.83902</ele>
        <time>2022-09-28T08:21:55.720Z</time>
      </trkpt>
      <trkpt lat="47.1735" lon="16.2126">
        <ele>304.562607</ele>
        <time>2022-09-28T08:21:57.681Z</time>
      </trkpt>
      <trkpt lat="47.17339" lon="16.21263">
        <ele>304.301842</ele>
        <time>2022-09-28T08:21:59.676Z</time>
      </trkpt>
      <trkpt lat="47.17329" lon="16.21267">
        <ele>304.034475</ele>
        <time>2022-09-28T08:22:01.664Z</time>
      </trkpt>
      <trkpt lat="47.17318" lon="16.21271">
        <ele>303.770988</ele>
        <time>2022-09-28T08:22:03.664Z</time>
      </trkpt>
      <trkpt lat="47.17307" lon="16.21275">
        <ele>303.502389</ele>
        <time>2022-09-28T08:22:05.672Z</time>
      </trkpt>
      <trkpt lat="47.17296" lon="16.21279">
        <ele>303.229917</ele>
        <time>2022-09-28T08:22:07.718Z</time>
      </trkpt>
      <trkpt lat="47.17285" lon="16.21284">
        <ele>302.951518</ele>
        <time>2022-09-28T08:22:09.671Z</time>
      </trkpt>
      <trkpt lat="47.17274" lon="16.21288">
        <ele>302.708147</ele>
        <time>2022-09-28T08:22:11.654Z</time>
      </trkpt>
      <trkpt lat="47.17264" lon="16.21293">
        <ele>302.55115</ele>
        <time>2022-09-28T08:22:13.695Z</time>
      </trkpt>
      <trkpt lat="47.17253" lon="16.21297">
        <ele>302.395539</ele>
        <time>2022-09-28T08:22:15.677Z</time>
      </trkpt>
      <trkpt lat="47.17242" lon="16.21301">
        <ele>302.233108</ele>
        <time>2022-09-28T08:22:17.679Z</time>
      </trkpt>
      <trkpt lat="47.17231" lon="16.21306">
        <ele>302.067655</ele>
        <time>2022-09-28T08:22:19.672Z</time>
      </trkpt>
      <trkpt lat="47.1722" lon="16.2131">
        <ele>301.899966</ele>
        <time>2022-09-28T08:22:21.676Z</time>
      </trkpt>
      <trkpt lat="47.17209" lon="16.21316">
        <ele>301.73144</ele>
        <time>2022-09-28T08:22:23.674Z</time>
      </trkpt>
      <trkpt lat="47.17197" lon="16.21322">
        <ele>301.551957</ele>
        <time>2022-09-28T08:22:25.680Z</time>
      </trkpt>
      <trkpt lat="47.17186" lon="16.21329">
        <ele>301.378289</ele>
        <time>2022-09-28T08:22:27.678Z</time>
      </trkpt>
      <trkpt lat="47.17174" lon="16.21338">
        <ele>301.187896</ele>
        <time>2022-09-28T08:22:29.679Z</time>
      </trkpt>
      <trkpt lat="47.17162" lon="16.21348">
        <ele>300.993313</ele>
        <time>2022-09-28T08:22:31.668Z</time>
      </trkpt>
      <trkpt lat="47.17151" lon="16.21359">
        <ele>300.805842</ele>
        <time>2022-09-28T08:22:33.686Z</time>
      </trkpt>
      <trkpt lat="47.17141" lon="16.21369">
        <ele>300.630978</ele>
        <time>2022-09-28T08:22:35.680Z</time>
      </trkpt>
      <trkpt lat="47.17132" lon="16.21379">
        <ele>300.464237</ele>
        <time>2022-09-28T08:22:37.670Z</time>
      </trkpt>
      <trkpt lat="47.17122" lon="16.21389">
        <ele>300.299202</ele>
        <time>2022-09-28T08:22:39.682Z</time>
      </trkpt>
      <trkpt lat="47.17113" lon="16.21399">
        <ele>300.140373</ele>
        <time>2022-09-28T08:22:41.673Z</time>
      </trkpt>
      <trkpt lat="47.17104" lon="16.21407">
        <ele>300.004284</ele>
        <time>2022-09-28T08:22:43.685Z</time>
      </trkpt>
      <trkpt lat="47.17096" lon="16.21415">
        <ele>299.881049</ele>
        <time>2022-09-28T08:22:45.687Z</time>
      </trkpt>
      <trkpt lat="47.17085" lon="16.21424">
        <ele>299.726079</ele>
        <time>2022-09-28T08:22:48.685Z</time>
      </trkpt>
      <trkpt lat="47.17073" lon="16.2143">
        <ele>299.571849</ele>
        <time>2022-09-28T08:22:51.685Z</time>
      </trkpt>
      <trkpt lat="47.17061" lon="16.21436">
        <ele>299.418191</ele>
        <time>2022-09-28T08:22:54.682Z</time>
      </trkpt>
      <trkpt lat="47.1705" lon="16.2144">
        <ele>299.274745</ele>
        <time>2022-09-28T08:22:57.717Z</time>
      </trkpt>
      <trkpt lat="47.17039" lon="16.21443">
        <ele>299.127564</ele>
        <time>2022-09-28T08:23:00.687Z</time>
      </trkpt>
      <trkpt lat="47.17027" lon="16.21446">
        <ele>298.981614</ele>
        <time>2022-09-28T08:23:03.689Z</time>
      </trkpt>
      <trkpt lat="47.17016" lon="16.21448">
        <ele>298.837821</ele>
        <time>2022-09-28T08:23:06.693Z</time>
      </trkpt>
      <trkpt lat="47.17004" lon="16.2145">
        <ele>298.695381</ele>
        <time>2022-09-28T08:23:09.684Z</time>
      </trkpt>
      <trkpt lat="47.16993" lon="16.21452">
        <ele>298.553253</ele>
        <time>2022-09-28T08:23:12.678Z</time>
      </trkpt>
      <trkpt lat="47.16982" lon="16.21453">
        <ele>298.414169</ele>
        <time>2022-09-28T08:23:15.692Z</time>
      </trkpt>
      <trkpt lat="47.1697" lon="16.21454">
        <ele>298.26522</ele>
        <time>2022-09-28T08:23:18.664Z</time>
      </trkpt>
      <trkpt lat="47.16959" lon="16.21455">
        <ele>298.122721</ele>
        <time>2022-09-28T08:23:21.690Z</time>
      </trkpt>
      <trkpt lat="47.16947" lon="16.21455">
        <ele>297.974014</ele>
        <time>2022-09-28T08:23:24.686Z</time>
      </trkpt>
      <trkpt lat="47.16935" lon="16.21454">
        <ele>298.104476</ele>
        <time>2022-09-28T08:23:27.688Z</time>
      </trkpt>
      <trkpt lat="47.16923" lon="16.21455">
        <ele>298.329235</ele>
        <time>2022-09-28T08:23:30.688Z</time>
      </trkpt>
      <trkpt lat="47.16912" lon="16.21454">
        <ele>298.546377</ele>
        <time>2022-09-28T08:23:33.659Z</time>
      </trkpt>
      <trkpt lat="47.16901" lon="16.21454">
        <ele>298.758043</ele>
        <time>2022-09-28T08:23:36.714Z</time>
      </trkpt>
      <trkpt lat="47.16889" lon="16.21453">
        <ele>298.975185</ele>
        <time>2022-09-28T08:23:39.703Z</time>
      </trkpt>
      <trkpt lat="47.16878" lon="16.21453">
        <ele>299.194312</ele>
        <time>2022-09-28T08:23:42.691Z</time>
      </trkpt>
      <trkpt lat="47.16866" lon="16.21452">
        <ele>299.413805</ele>
        <time>2022-09-28T08:23:45.687Z</time>
      </trkpt>
      <trkpt lat="47.16854" lon="16.21451">
        <ele>299.638852</ele>
        <time>2022-09-28T08:23:48.684Z</time>
      </trkpt>
      <trkpt lat="47.16843" lon="16.21449">
        <ele>299.854949</ele>
        <time>2022-09-28T08:23:51.687Z</time>
      </trkpt>
      <trkpt lat="47.16832" lon="16.21448">
        <ele>300.069035</ele>
        <time>2022-09-28T08:23:54.666Z</time>
      </trkpt>
      <trkpt lat="47.16821" lon="16.21447">
        <ele>300.275319</ele>
        <time>2022-09-28T08:23:57.676Z</time>
      </trkpt>
      <trkpt lat="47.1681" lon="16.21446">
        <ele>300.477711</ele>
        <time>2022-09-28T08:24:00.681Z</time>
      </trkpt>
      <trkpt lat="47.168" lon="16.21445">
        <ele>300.682096</ele>
        <time>2022-09-28T08:24:03.681Z</time>
      </trkpt>
      <trkpt lat="47.16789" lon="16.21443">
        <ele>300.886814</ele>
        <time>2022-09-28T08:24:06.684Z</time>
      </trkpt>
      <trkpt lat="47.16778" lon="16.21442">
        <ele>301.096466</ele>
        <time>2022-09-28T08:24:09.715Z</time>
      </trkpt>
      <trkpt lat="47.16768" lon="16.21442">
        <ele>301.290892</ele>
        <time>2022-09-28T08:24:12.679Z</time>
      </trkpt>
      <trkpt lat="47.16758" lon="16.21442">
        <ele>301.424408</ele>
        <time>2022-09-28T08:24:15.720Z</time>
      </trkpt>
      <trkpt lat="47.16747" lon="16.21442">
        <ele>301.542691</ele>
        <time>2022-09-28T08:24:19.692Z</time>
      </trkpt>
      <trkpt lat="47.16735" lon="16.21443">
        <ele>301.659917</ele>
        <time>2022-09-28T08:24:23.690Z</time>
      </trkpt>
      <trkpt lat="47.16725" lon="16.21443">
        <ele>301.77198</ele>
        <time>2022-09-28T08:24:27.690Z</time>
      </trkpt>
      <trkpt lat="47.16714" lon="16.21444">
        <ele>301.88195</ele>
        <time>2022-09-28T08:24:31.685Z</time>
      </trkpt>
      <trkpt lat="47.16704" lon="16.21445">
        <ele>301.987925</ele>
        <time>2022-09-28T08:24:35.671Z</time>
      </trkpt>
      <trkpt lat="47.16693" lon="16.21446">
        <ele>302.100201</ele>
        <time>2022-09-28T08:24:39.689Z</time>
      </trkpt>
      <trkpt lat="47.16682" lon="16.21448">
        <ele>302.21893</ele>
        <time>2022-09-28T08:24:43.740Z</time>
      </trkpt>
      <trkpt lat="47.16673" lon="16.21451">
        <ele>302.314191</ele>
        <time>2022-09-28T08:24:46.675Z</time>
      </trkpt>
      <trkpt lat="47.16663" lon="16.21454">
        <ele>302.41135</ele>
        <time>2022-09-28T08:24:49.686Z</time>
      </trkpt>
      <trkpt lat="47.16654" lon="16.21459">
        <ele>302.519681</ele>
        <time>2022-09-28T08:24:52.690Z</time>
      </trkpt>
      <trkpt lat="47.16643" lon="16.21464">
        <ele>302.630429</ele>
        <time>2022-09-28T08:24:55.680Z</time>
      </trkpt>
      <trkpt lat="47.16633" lon="16.2147">
        <ele>302.748998</ele>
        <time>2022-09-28T08:24:58.673Z</time>
      </trkpt>
      <trkpt lat="47.16622" lon="16.21477">
        <ele>302.872919</ele>
        <time>2022-09-28T08:25:01.680Z</time>
      </trkpt>
      <trkpt lat="47.1661" lon="16.21485">
        <ele>303.006396</ele>
        <time>2022-09-28T08:25:04.660Z</time>
      </trkpt>
      <trkpt lat="47.16599" lon="16.21495">
        <ele>303.14375</ele>
        <time>2022-09-28T08:25:07.683Z</time>
      </trkpt>
      <trkpt lat="47.16587" lon="16.21505">
        <ele>303.070596</ele>
        <time>2022-09-28T08:25:10.673Z</time>
      </trkpt>
      <trkpt lat="47.16579" lon="16.21512">
        <ele>302.802931</ele>
        <time>2022-09-28T08:25:12.685Z</time>
      </trkpt>
      <trkpt lat="47.16568" lon="16.21522">
        <ele>302.416435</ele>
        <time>2022-09-28T08:25:15.681Z</time>
      </trkpt>
      <trkpt lat="47.1656" lon="16.21529">
        <ele>302.147804</ele>
        <time>2022-09-28T08:25:17.685Z</time>
      </trkpt>
      <trkpt lat="47.16551" lon="16.21537">
        <ele>301.834927</ele>
        <time>2022-09-28T08:25:19.675Z</time>
      </trkpt>
      <trkpt lat="47.16541" lon="16.21546">
        <ele>301.482287</ele>
        <time>2022-09-28T08:25:21.689Z</time>
      </trkpt>
      <trkpt lat="47.16528" lon="16.21556">
        <ele>301.075704</ele>
        <time>2022-09-28T08:25:23.668Z</time>
      </trkpt>
      <trkpt lat="47.16516" lon="16.21567">
        <ele>300.636993</ele>
        <time>2022-09-28T08:25:25.683Z</time>
      </trkpt>
      <trkpt lat="47.16503" lon="16.2158">
        <ele>300.186743</ele>
        <time>2022-09-28T08:25:27.715Z</time>
      </trkpt>
      <trkpt lat="47.16492" lon="16.21596">
        <ele>299.735076</ele>
        <time>2022-09-28T08:25:29.753Z</time>
      </trkpt>
      <trkpt lat="47.16482" lon="16.21613">
        <ele>299.281549</ele>
        <time>2022-09-28T08:25:31.673Z</time>
      </trkpt>
      <trkpt lat="47.16472" lon="16.21632">
        <ele>298.821895</ele>
        <time>2022-09-28T08:25:33.672Z</time>
      </trkpt>
      <trkpt lat="47.16463" lon="16.2165">
        <ele>298.365104</ele>
        <time>2022-09-28T08:25:35.690Z</time>
      </trkpt>
      <trkpt lat="47.16453" lon="16.21667">
        <ele>297.939656</ele>
        <time>2022-09-28T08:25:37.673Z</time>
      </trkpt>
      <trkpt lat="47.16441" lon="16.2168">
        <ele>297.634429</ele>
        <time>2022-09-28T08:25:39.682Z</time>
      </trkpt>
      <trkpt lat="47.16428" lon="16.21691">
        <ele>297.337369</ele>
        <time>2022-09-28T08:25:41.682Z</time>
      </trkpt>
      <trkpt lat="47.16415" lon="16.21698">
        <ele>297.062377</ele>
        <time>2022-09-28T08:25:43.679Z</time>
      </trkpt>
      <trkpt lat="47.16403" lon="16.21703">
        <ele>296.802547</ele>
        <time>2022-09-28T08:25:45.695Z</time>
      </trkpt>
      <trkpt lat="47.1639" lon="16.21703">
        <ele>296.527386</ele>
        <time>2022-09-28T08:25:47.694Z</time>
      </trkpt>
      <trkpt lat="47.16376" lon="16.21705">
        <ele>296.255325</ele>
        <time>2022-09-28T08:25:49.674Z</time>
      </trkpt>
      <trkpt lat="47.16364" lon="16.21707">
        <ele>295.994504</ele>
        <time>2022-09-28T08:25:51.683Z</time>
      </trkpt>
      <trkpt lat="47.16353" lon="16.21708">
        <ele>295.772199</ele>
        <time>2022-09-28T08:25:53.773Z</time>
      </trkpt>
      <trkpt lat="47.16336" lon="16.21709">
        <ele>295.442185</ele>
        <time>2022-09-28T08:25:56.690Z</time>
      </trkpt>
      <trkpt lat="47.16326" lon="16.21707">
        <ele>295.235888</ele>
        <time>2022-09-28T08:25:58.677Z</time>
      </trkpt>
      <trkpt lat="47.16316" lon="16.21707">
        <ele>295.031891</ele>
        <time>2022-09-28T08:26:00.684Z</time>
      </trkpt>
      <trkpt lat="47.16306" lon="16.21704">
        <ele>294.819467</ele>
        <time>2022-09-28T08:26:02.693Z</time>
      </trkpt>
      <trkpt lat="47.16293" lon="16.21698">
        <ele>294.545557</ele>
        <time>2022-09-28T08:26:05.688Z</time>
      </trkpt>
      <trkpt lat="47.16284" lon="16.21692">
        <ele>294.343784</ele>
        <time>2022-09-28T08:26:07.690Z</time>
      </trkpt>
      <trkpt lat="47.16275" lon="16.21687">
        <ele>294.288886</ele>
        <time>2022-09-28T08:26:09.691Z</time>
      </trkpt>
      <trkpt lat="47.16266" lon="16.21681">
        <ele>294.259216</ele>
        <time>2022-09-28T08:26:11.696Z</time>
      </trkpt>
      <trkpt lat="47.16254" lon="16.21673">
        <ele>294.219845</ele>
        <time>2022-09-28T08:26:14.685Z</time>
      </trkpt>
      <trkpt lat="47.16243" lon="16.21668">
        <ele>294.184866</ele>
        <time>2022-09-28T08:26:17.705Z</time>
      </trkpt>
      <trkpt lat="47.16233" lon="16.21664">
        <ele>294.156224</ele>
        <time>2022-09-28T08:26:20.677Z</time>
      </trkpt>
      <trkpt lat="47.16223" lon="16.2166">
        <ele>294.125312</ele>
        <time>2022-09-28T08:26:23.718Z</time>
      </trkpt>
      <trkpt lat="47.16213" lon="16.21656">
        <ele>294.092561</ele>
        <time>2022-09-28T08:26:26.684Z</time>
      </trkpt>
      <trkpt lat="47.16201" lon="16.21653">
        <ele>294.057192</ele>
        <time>2022-09-28T08:26:29.700Z</time>
      </trkpt>
      <trkpt lat="47.16191" lon="16.21649">
        <ele>294.025897</ele>
        <time>2022-09-28T08:26:32.683Z</time>
      </trkpt>
      <trkpt lat="47.16181" lon="16.21645">
        <ele>293.996243</ele>
        <time>2022-09-28T08:26:35.714Z</time>
      </trkpt>
      <trkpt lat="47.1617" lon="16.2164">
        <ele>293.961038</ele>
        <time>2022-09-28T08:26:39.672Z</time>
      </trkpt>
      <trkpt lat="47.16161" lon="16.21636">
        <ele>293.933704</ele>
        <time>2022-09-28T08:26:42.692Z</time>
      </trkpt>
      <trkpt lat="47.16152" lon="16.21634">
        <ele>293.904359</ele>
        <time>2022-09-28T08:26:45.686Z</time>
      </trkpt>
      <trkpt lat="47.16141" lon="16.21631">
        <ele>293.873769</ele>
        <time>2022-09-28T08:26:48.688Z</time>
      </trkpt>
      <trkpt lat="47.16131" lon="16.2163">
        <ele>293.841957</ele>
        <time>2022-09-28T08:26:51.682Z</time>
      </trkpt>
      <trkpt lat="47.1612" lon="16.21629">
        <ele>293.808504</ele>
        <time>2022-09-28T08:26:54.689Z</time>
      </trkpt>
      <trkpt lat="47.16108" lon="16.21628">
        <ele>293.805876</ele>
        <time>2022-09-28T08:26:57.734Z</time>
      </trkpt>
      <trkpt lat="47.16096" lon="16.21628">
        <ele>294.07385</ele>
        <time>2022-09-28T08:27:00.681Z</time>
      </trkpt>
      <trkpt lat="47.16084" lon="16.21629">
        <ele>294.337849</ele>
        <time>2022-09-28T08:27:03.727Z</time>
      </trkpt>
      <trkpt lat="47.16072" lon="16.21632">
        <ele>294.608012</ele>
        <time>2022-09-28T08:27:06.682Z</time>
      </trkpt>
      <trkpt lat="47.16059" lon="16.21636">
        <ele>294.882239</ele>
        <time>2022-09-28T08:27:09.693Z</time>
      </trkpt>
      <trkpt lat="47.1605" lon="16.21639">
        <ele>295.083842</ele>
        <time>2022-09-28T08:27:11.661Z</time>
      </trkpt>
      <trkpt lat="47.16041" lon="16.21642">
        <ele>295.291492</ele>
        <time>2022-09-28T08:27:13.688Z</time>
      </trkpt>
      <trkpt lat="47.16032" lon="16.21647">
        <ele>295.504347</ele>
        <time>2022-09-28T08:27:15.713Z</time>
      </trkpt>
      <trkpt lat="47.16023" lon="16.21652">
        <ele>295.720832</ele>
        <time>2022-09-28T08:27:17.692Z</time>
      </trkpt>
      <trkpt lat="47.16014" lon="16.21657">
        <ele>295.931626</ele>
        <time>2022-09-28T08:27:19.686Z</time>
      </trkpt>
      <trkpt lat="47.16005" lon="16.21662">
        <ele>296.136266</ele>
        <time>2022-09-28T08:27:21.678Z</time>
      </trkpt>
      <trkpt lat="47.15996" lon="16.21666">
        <ele>296.342502</ele>
        <time>2022-09-28T08:27:23.686Z</time>
      </trkpt>
      <trkpt lat="47.15987" lon="16.21669">
        <ele>296.541976</ele>
        <time>2022-09-28T08:27:25.732Z</time>
      </trkpt>
      <trkpt lat="47.15979" lon="16.21672">
        <ele>296.741087</ele>
        <time>2022-09-28T08:27:27.720Z</time>
      </trkpt>
      <trkpt lat="47.15966" lon="16.21678">
        <ele>297.031052</ele>
        <time>2022-09-28T08:27:30.694Z</time>
      </trkpt>
      <trkpt lat="47.15953" lon="16.21682">
        <ele>297.319114</ele>
        <time>2022-09-28T08:27:33.679Z</time>
      </trkpt>
      <trkpt lat="47.15944" lon="16.21683">
        <ele>297.519795</ele>
        <time>2022-09-28T08:27:35.684Z</time>
      </trkpt>
      <trkpt lat="47.15935" lon="16.21685">
        <ele>297.719297</ele>
        <time>2022-09-28T08:27:37.707Z</time>
      </trkpt>
      <trkpt lat="47.15921" lon="16.21689">
        <ele>297.476721</ele>
        <time>2022-09-28T08:27:40.681Z</time>
      </trkpt>
      <trkpt lat="47.15912" lon="16.21693">
        <ele>297.286179</ele>
        <time>2022-09-28T08:27:42.675Z</time>
      </trkpt>
      <trkpt lat="47.15901" lon="16.21698">
        <ele>297.084118</ele>
        <time>2022-09-28T08:27:44.689Z</time>
      </trkpt>
      <trkpt lat="47.15891" lon="16.21703">
        <ele>296.881348</ele>
        <time>2022-09-28T08:27:46.686Z</time>
      </trkpt>
      <trkpt lat="47.15881" lon="16.21711">
        <ele>296.66865</ele>
        <time>2022-09-28T08:27:48.711Z</time>
      </trkpt>
      <trkpt lat="47.15872" lon="16.21719">
        <ele>296.469061</ele>
        <time>2022-09-28T08:27:50.702Z</time>
      </trkpt>
      <trkpt lat="47.15862" lon="16.21726">
        <ele>296.259623</ele>
        <time>2022-09-28T08:27:52.691Z</time>
      </trkpt>
      <trkpt lat="47.15852" lon="16.21735">
        <ele>296.039367</ele>
        <time>2022-09-28T08:27:54.711Z</time>
      </trkpt>
      <trkpt lat="47.15842" lon="16.21743">
        <ele>295.827502</ele>
        <time>2022-09-28T08:27:56.699Z</time>
      </trkpt>
      <trkpt lat="47.15831" lon="16.21751">
        <ele>295.611319</ele>
        <time>2022-09-28T08:27:58.698Z</time>
      </trkpt>
      <trkpt lat="47.15822" lon="16.21759">
        <ele>295.401283</ele>
        <time>2022-09-28T08:28:00.686Z</time>
      </trkpt>
      <trkpt lat="47.15812" lon="16.21766">
        <ele>295.20414</ele>
        <time>2022-09-28T08:28:02.714Z</time>
      </trkpt>
      <trkpt lat="47.15803" lon="16.21773">
        <ele>295.008233</ele>
        <time>2022-09-28T08:28:04.685Z</time>
      </trkpt>
      <trkpt lat="47.15794" lon="16.21779">
        <ele>294.820158</ele>
        <time>2022-09-28T08:28:06.685Z</time>
      </trkpt>
      <trkpt lat="47.15785" lon="16.21785">
        <ele>294.634833</ele>
        <time>2022-09-28T08:28:08.670Z</time>
      </trkpt>
      <trkpt lat="47.15775" lon="16.21792">
        <ele>294.437717</ele>
        <time>2022-09-28T08:28:10.680Z</time>
      </trkpt>
      <trkpt lat="47.15766" lon="16.21798">
        <ele>294.526258</ele>
        <time>2022-09-28T08:28:12.679Z</time>
      </trkpt>
      <trkpt lat="47.15758" lon="16.21802">
        <ele>294.776372</ele>
        <time>2022-09-28T08:28:14.694Z</time>
      </trkpt>
      <trkpt lat="47.15745" lon="16.21808">
        <ele>295.144661</ele>
        <time>2022-09-28T08:28:17.690Z</time>
      </trkpt>
      <trkpt lat="47.15735" lon="16.21811">
        <ele>295.403086</ele>
        <time>2022-09-28T08:28:19.683Z</time>
      </trkpt>
      <trkpt lat="47.15723" lon="16.21816">
        <ele>295.746232</ele>
        <time>2022-09-28T08:28:22.789Z</time>
      </trkpt>
      <trkpt lat="47.15714" lon="16.21819">
        <ele>295.994744</ele>
        <time>2022-09-28T08:28:24.685Z</time>
      </trkpt>
      <trkpt lat="47.15704" lon="16.21825">
        <ele>296.295419</ele>
        <time>2022-09-28T08:28:26.676Z</time>
      </trkpt>
      <trkpt lat="47.15695" lon="16.21828">
        <ele>296.558065</ele>
        <time>2022-09-28T08:28:28.689Z</time>
      </trkpt>
      <trkpt lat="47.15682" lon="16.21831">
        <ele>296.910852</ele>
        <time>2022-09-28T08:28:31.688Z</time>
      </trkpt>
      <trkpt lat="47.15671" lon="16.21835">
        <ele>297.231775</ele>
        <time>2022-09-28T08:28:34.710Z</time>
      </trkpt>
      <trkpt lat="47.1566" lon="16.21835">
        <ele>297.523621</ele>
        <time>2022-09-28T08:28:37.681Z</time>
      </trkpt>
      <trkpt lat="47.15648" lon="16.21837">
        <ele>297.835335</ele>
        <time>2022-09-28T08:28:40.688Z</time>
      </trkpt>
      <trkpt lat="47.15637" lon="16.2184">
        <ele>298.139993</ele>
        <time>2022-09-28T08:28:43.682Z</time>
      </trkpt>
      <trkpt lat="47.15628" lon="16.21843">
        <ele>298.391571</ele>
        <time>2022-09-28T08:28:46.690Z</time>
      </trkpt>
      <trkpt lat="47.15618" lon="16.21846">
        <ele>298.67323</ele>
        <time>2022-09-28T08:28:49.694Z</time>
      </trkpt>
      <trkpt lat="47.15608" lon="16.2185">
        <ele>298.975539</ele>
        <time>2022-09-28T08:28:52.684Z</time>
      </trkpt>
      <trkpt lat="47.15596" lon="16.21852">
        <ele>299.275958</ele>
        <time>2022-09-28T08:28:55.708Z</time>
      </trkpt>
      <trkpt lat="47.15586" lon="16.21856">
        <ele>299.440696</ele>
        <time>2022-09-28T08:28:58.659Z</time>
      </trkpt>
      <trkpt lat="47.15574" lon="16.2186">
        <ele>299.629023</ele>
        <time>2022-09-28T08:29:01.677Z</time>
      </trkpt>
      <trkpt lat="47.15564" lon="16.21863">
        <ele>299.770069</ele>
        <time>2022-09-28T08:29:03.682Z</time>
      </trkpt>
      <trkpt lat="47.15553" lon="16.21868">
        <ele>299.951413</ele>
        <time>2022-09-28T08:29:06.701Z</time>
      </trkpt>
      <trkpt lat="47.15543" lon="16.21871">
        <ele>300.096847</ele>
        <time>2022-09-28T08:29:08.677Z</time>
      </trkpt>
      <trkpt lat="47.15534" lon="16.21875">
        <ele>300.241831</ele>
        <time>2022-09-28T08:29:10.696Z</time>
      </trkpt>
      <trkpt lat="47.15525" lon="16.21879">
        <ele>300.380442</ele>
        <time>2022-09-28T08:29:12.704Z</time>
      </trkpt>
      <trkpt lat="47.15513" lon="16.21884">
        <ele>300.580555</ele>
        <time>2022-09-28T08:29:15.680Z</time>
      </trkpt>
      <trkpt lat="47.155" lon="16.2189">
        <ele>300.772394</ele>
        <time>2022-09-28T08:29:18.719Z</time>
      </trkpt>
      <trkpt lat="47.1549" lon="16.21895">
        <ele>300.937864</ele>
        <time>2022-09-28T08:29:21.693Z</time>
      </trkpt>
      <trkpt lat="47.15481" lon="16.21899">
        <ele>301.085708</ele>
        <time>2022-09-28T08:29:24.680Z</time>
      </trkpt>
      <trkpt lat="47.15468" lon="16.21906">
        <ele>301.281381</ele>
        <time>2022-09-28T08:29:27.688Z</time>
      </trkpt>
      <trkpt lat="47.15459" lon="16.21909">
        <ele>301.422974</ele>
        <time>2022-09-28T08:29:29.709Z</time>
      </trkpt>
      <trkpt lat="47.15447" lon="16.21914">
        <ele>301.615935</ele>
        <time>2022-09-28T08:29:32.695Z</time>
      </trkpt>
      <trkpt lat="47.15437" lon="16.21916">
        <ele>301.763482</ele>
        <time>2022-09-28T08:29:34.676Z</time>
      </trkpt>
      <trkpt lat="47.15428" lon="16.21918">
        <ele>301.903748</ele>
        <time>2022-09-28T08:29:36.700Z</time>
      </trkpt>
      <trkpt lat="47.15418" lon="16.21919">
        <ele>301.774992</ele>
        <time>2022-09-28T08:29:38.686Z</time>
      </trkpt>
      <trkpt lat="47.15408" lon="16.2192">
        <ele>301.386389</ele>
        <time>2022-09-28T08:29:40.709Z</time>
      </trkpt>
      <trkpt lat="47.15398" lon="16.21922">
        <ele>301.033703</ele>
        <time>2022-09-28T08:29:42.674Z</time>
      </trkpt>
      <trkpt lat="47.1539" lon="16.21925">
        <ele>300.68996</ele>
        <time>2022-09-28T08:29:44.689Z</time>
      </trkpt>
      <trkpt lat="47.15381" lon="16.21928">
        <ele>300.348358</ele>
        <time>2022-09-28T08:29:46.686Z</time>
      </trkpt>
      <trkpt lat="47.15372" lon="16.21931">
        <ele>300.005723</ele>
        <time>2022-09-28T08:29:48.682Z</time>
      </trkpt>
      <trkpt lat="47.15359" lon="16.21935">
        <ele>299.524901</ele>
        <time>2022-09-28T08:29:51.721Z</time>
      </trkpt>
      <trkpt lat="47.15347" lon="16.2194">
        <ele>299.032501</ele>
        <time>2022-09-28T08:29:54.668Z</time>
      </trkpt>
      <trkpt lat="47.15334" lon="16.21945">
        <ele>298.541187</ele>
        <time>2022-09-28T08:29:57.689Z</time>
      </trkpt>
      <trkpt lat="47.15325" lon="16.21948">
        <ele>298.197444</ele>
        <time>2022-09-28T08:29:59.689Z</time>
      </trkpt>
      <trkpt lat="47.15316" lon="16.21953">
        <ele>297.827303</ele>
        <time>2022-09-28T08:30:01.678Z</time>
      </trkpt>
      <trkpt lat="47.15307" lon="16.2196">
        <ele>297.433991</ele>
        <time>2022-09-28T08:30:03.672Z</time>
      </trkpt>
      <trkpt lat="47.15297" lon="16.21965">
        <ele>297.032056</ele>
        <time>2022-09-28T08:30:05.717Z</time>
      </trkpt>
      <trkpt lat="47.15286" lon="16.21971">
        <ele>296.614222</ele>
        <time>2022-09-28T08:30:07.696Z</time>
      </trkpt>
      <trkpt lat="47.15276" lon="16.21977">
        <ele>296.187539</ele>
        <time>2022-09-28T08:30:09.683Z</time>
      </trkpt>
      <trkpt lat="47.15265" lon="16.21983">
        <ele>295.752868</ele>
        <time>2022-09-28T08:30:11.693Z</time>
      </trkpt>
      <trkpt lat="47.15254" lon="16.21988">
        <ele>295.333218</ele>
        <time>2022-09-28T08:30:13.682Z</time>
      </trkpt>
      <trkpt lat="47.15244" lon="16.21993">
        <ele>295.037244</ele>
        <time>2022-09-28T08:30:15.669Z</time>
      </trkpt>
      <trkpt lat="47.15234" lon="16.21997">
        <ele>294.799666</ele>
        <time>2022-09-28T08:30:17.685Z</time>
      </trkpt>
      <trkpt lat="47.15224" lon="16.22">
        <ele>294.572501</ele>
        <time>2022-09-28T08:30:19.718Z</time>
      </trkpt>
      <trkpt lat="47.15215" lon="16.22002">
        <ele>294.350154</ele>
        <time>2022-09-28T08:30:21.680Z</time>
      </trkpt>
      <trkpt lat="47.15205" lon="16.22004">
        <ele>294.121673</ele>
        <time>2022-09-28T08:30:23.709Z</time>
      </trkpt>
      <trkpt lat="47.15195" lon="16.22006">
        <ele>293.903017</ele>
        <time>2022-09-28T08:30:25.678Z</time>
      </trkpt>
      <trkpt lat="47.15182" lon="16.22009">
        <ele>293.601628</ele>
        <time>2022-09-28T08:30:28.685Z</time>
      </trkpt>
      <trkpt lat="47.1517" lon="16.2201">
        <ele>293.31702</ele>
        <time>2022-09-28T08:30:31.673Z</time>
      </trkpt>
      <trkpt lat="47.15158" lon="16.22012">
        <ele>293.043253</ele>
        <time>2022-09-28T08:30:34.669Z</time>
      </trkpt>
      <trkpt lat="47.15145" lon="16.22014">
        <ele>292.73973</ele>
        <time>2022-09-28T08:30:37.682Z</time>
      </trkpt>
      <trkpt lat="47.15135" lon="16.22014">
        <ele>292.522123</ele>
        <time>2022-09-28T08:30:39.669Z</time>
      </trkpt>
      <trkpt lat="47.15125" lon="16.22015">
        <ele>292.29319</ele>
        <time>2022-09-28T08:30:41.682Z</time>
      </trkpt>
      <trkpt lat="47.15115" lon="16.22016">
        <ele>292.060716</ele>
        <time>2022-09-28T08:30:43.683Z</time>
      </trkpt>
      <trkpt lat="47.15105" lon="16.22018">
        <ele>291.821855</ele>
        <time>2022-09-28T08:30:45.686Z</time>
      </trkpt>
      <trkpt lat="47.15094" lon="16.22019">
        <ele>291.578155</ele>
        <time>2022-09-28T08:30:47.680Z</time>
      </trkpt>
      <trkpt lat="47.15084" lon="16.22023">
        <ele>291.338458</ele>
        <time>2022-09-28T08:30:49.693Z</time>
      </trkpt>
      <trkpt lat="47.15073" lon="16.22025">
        <ele>291.093251</ele>
        <time>2022-09-28T08:30:51.684Z</time>
      </trkpt>
      <trkpt lat="47.15062" lon="16.22027">
        <ele>291.136728</ele>
        <time>2022-09-28T08:30:53.697Z</time>
      </trkpt>
      <trkpt lat="47.15051" lon="16.22029">
        <ele>291.187084</ele>
        <time>2022-09-28T08:30:55.684Z</time>
      </trkpt>
      <trkpt lat="47.1504" lon="16.2203">
        <ele>291.235894</ele>
        <time>2022-09-28T08:30:57.711Z</time>
      </trkpt>
      <trkpt lat="47.1503" lon="16.22031">
        <ele>291.282662</ele>
        <time>2022-09-28T08:30:59.669Z</time>
      </trkpt>
      <trkpt lat="47.1502" lon="16.22034">
        <ele>291.32734</ele>
        <time>2022-09-28T08:31:01.707Z</time>
      </trkpt>
      <trkpt lat="47.1501" lon="16.22037">
        <ele>291.37158</ele>
        <time>2022-09-28T08:31:03.668Z</time>
      </trkpt>
      <trkpt lat="47.15001" lon="16.22039">
        <ele>291.414661</ele>
        <time>2022-09-28T08:31:05.683Z</time>
      </trkpt>
      <trkpt lat="47.14991" lon="16.22042">
        <ele>291.460048</ele>
        <time>2022-09-28T08:31:07.692Z</time>
      </trkpt>
      <trkpt lat="47.14981" lon="16.22044">
        <ele>291.505114</ele>
        <time>2022-09-28T08:31:09.670Z</time>
      </trkpt>
      <trkpt lat="47.1497" lon="16.22045">
        <ele>291.551293</ele>
        <time>2022-09-28T08:31:11.679Z</time>
      </trkpt>
      <trkpt lat="47.1496" lon="16.22048">
        <ele>291.598785</ele>
        <time>2022-09-28T08:31:13.681Z</time>
      </trkpt>
      <trkpt lat="47.1495" lon="16.2205">
        <ele>291.645219</ele>
        <time>2022-09-28T08:31:15.686Z</time>
      </trkpt>
      <trkpt lat="47.14939" lon="16.2205">
        <ele>291.692598</ele>
        <time>2022-09-28T08:31:17.689Z</time>
      </trkpt>
      <trkpt lat="47.14928" lon="16.22049">
        <ele>291.740436</ele>
        <time>2022-09-28T08:31:19.745Z</time>
      </trkpt>
      <trkpt lat="47.14918" lon="16.2205">
        <ele>291.786921</ele>
        <time>2022-09-28T08:31:21.692Z</time>
      </trkpt>
      <trkpt lat="47.14908" lon="16.22051">
        <ele>291.830899</ele>
        <time>2022-09-28T08:31:23.698Z</time>
      </trkpt>
      <trkpt lat="47.14898" lon="16.22053">
        <ele>291.874596</ele>
        <time>2022-09-28T08:31:25.681Z</time>
      </trkpt>
      <trkpt lat="47.14889" lon="16.22055">
        <ele>291.9084</ele>
        <time>2022-09-28T08:31:27.686Z</time>
      </trkpt>
      <trkpt lat="47.14879" lon="16.22056">
        <ele>291.936626</ele>
        <time>2022-09-28T08:31:29.680Z</time>
      </trkpt>
      <trkpt lat="47.14869" lon="16.22057">
        <ele>291.965287</ele>
        <time>2022-09-28T08:31:31.700Z</time>
      </trkpt>
      <trkpt lat="47.14859" lon="16.22058">
        <ele>291.99367</ele>
        <time>2022-09-28T08:31:33.704Z</time>
      </trkpt>
      <trkpt lat="47.14849" lon="16.22059">
        <ele>292.023219</ele>
        <time>2022-09-28T08:31:35.684Z</time>
      </trkpt>
      <trkpt lat="47.14839" lon="16.2206">
        <ele>292.053069</ele>
        <time>2022-09-28T08:31:37.685Z</time>
      </trkpt>
      <trkpt lat="47.14829" lon="16.22061">
        <ele>292.082919</ele>
        <time>2022-09-28T08:31:39.697Z</time>
      </trkpt>
      <trkpt lat="47.14819" lon="16.22063">
        <ele>292.111243</ele>
        <time>2022-09-28T08:31:41.694Z</time>
      </trkpt>
      <trkpt lat="47.14809" lon="16.22065">
        <ele>292.140151</ele>
        <time>2022-09-28T08:31:43.676Z</time>
      </trkpt>
      <trkpt lat="47.14799" lon="16.22068">
        <ele>292.169232</ele>
        <time>2022-09-28T08:31:45.689Z</time>
      </trkpt>
      <trkpt lat="47.14789" lon="16.2207">
        <ele>292.198157</ele>
        <time>2022-09-28T08:31:47.670Z</time>
      </trkpt>
      <trkpt lat="47.1478" lon="16.22072">
        <ele>292.226455</ele>
        <time>2022-09-28T08:31:49.696Z</time>
      </trkpt>
      <trkpt lat="47.1477" lon="16.22074">
        <ele>292.255613</ele>
        <time>2022-09-28T08:31:51.697Z</time>
      </trkpt>
      <trkpt lat="47.1476" lon="16.22076">
        <ele>292.283806</ele>
        <time>2022-09-28T08:31:53.676Z</time>
      </trkpt>
      <trkpt lat="47.1475" lon="16.22079">
        <ele>292.312187</ele>
        <time>2022-09-28T08:31:55.675Z</time>
      </trkpt>
      <trkpt lat="47.14741" lon="16.22082">
        <ele>292.340045</ele>
        <time>2022-09-28T08:31:57.692Z</time>
      </trkpt>
      <trkpt lat="47.14731" lon="16.22085">
        <ele>292.368366</ele>
        <time>2022-09-28T08:31:59.689Z</time>
      </trkpt>
      <trkpt lat="47.14722" lon="16.2209">
        <ele>292.397077</ele>
        <time>2022-09-28T08:32:01.684Z</time>
      </trkpt>
      <trkpt lat="47.14713" lon="16.22094">
        <ele>292.445738</ele>
        <time>2022-09-28T08:32:03.693Z</time>
      </trkpt>
      <trkpt lat="47.14704" lon="16.22096">
        <ele>292.515561</ele>
        <time>2022-09-28T08:32:05.675Z</time>
      </trkpt>
      <trkpt lat="47.14695" lon="16.22099">
        <ele>292.586244</ele>
        <time>2022-09-28T08:32:07.693Z</time>
      </trkpt>
      <trkpt lat="47.14686" lon="16.22103">
        <ele>292.656897</ele>
        <time>2022-09-28T08:32:09.712Z</time>
      </trkpt>
      <trkpt lat="47.14677" lon="16.22106">
        <ele>292.726942</ele>
        <time>2022-09-28T08:32:11.677Z</time>
      </trkpt>
      <trkpt lat="47.14665" lon="16.22112">
        <ele>292.828968</ele>
        <time>2022-09-28T08:32:14.691Z</time>
      </trkpt>
      <trkpt lat="47.14652" lon="16.22115">
        <ele>292.926456</ele>
        <time>2022-09-28T08:32:17.694Z</time>
      </trkpt>
      <trkpt lat="47.14641" lon="16.22121">
        <ele>293.013899</ele>
        <time>2022-09-28T08:32:20.727Z</time>
      </trkpt>
      <trkpt lat="47.14631" lon="16.22126">
        <ele>293.099179</ele>
        <time>2022-09-28T08:32:23.703Z</time>
      </trkpt>
      <trkpt lat="47.1462" lon="16.22132">
        <ele>293.186264</ele>
        <time>2022-09-28T08:32:26.725Z</time>
      </trkpt>
      <trkpt lat="47.1461" lon="16.22139">
        <ele>293.276741</ele>
        <time>2022-09-28T08:32:29.680Z</time>
      </trkpt>
      <trkpt lat="47.14599" lon="16.22146">
        <ele>293.364688</ele>
        <time>2022-09-28T08:32:32.682Z</time>
      </trkpt>
      <trkpt lat="47.14588" lon="16.22154">
        <ele>293.457642</ele>
        <time>2022-09-28T08:32:35.685Z</time>
      </trkpt>
      <trkpt lat="47.14578" lon="16.22162">
        <ele>293.551481</ele>
        <time>2022-09-28T08:32:38.680Z</time>
      </trkpt>
      <trkpt lat="47.14566" lon="16.22171">
        <ele>293.647164</ele>
        <time>2022-09-28T08:32:41.670Z</time>
      </trkpt>
      <trkpt lat="47.14554" lon="16.22179">
        <ele>293.748401</ele>
        <time>2022-09-28T08:32:44.682Z</time>
      </trkpt>
      <trkpt lat="47.14546" lon="16.22184">
        <ele>293.743417</ele>
        <time>2022-09-28T08:32:46.683Z</time>
      </trkpt>
      <trkpt lat="47.14537" lon="16.2219">
        <ele>293.605408</ele>
        <time>2022-09-28T08:32:48.717Z</time>
      </trkpt>
      <trkpt lat="47.14528" lon="16.22195">
        <ele>293.458331</ele>
        <time>2022-09-28T08:32:50.687Z</time>
      </trkpt>
      <trkpt lat="47.14518" lon="16.22202">
        <ele>293.304293</ele>
        <time>2022-09-28T08:32:52.694Z</time>
      </trkpt>
      <trkpt lat="47.14507" lon="16.22209">
        <ele>293.139831</ele>
        <time>2022-09-28T08:32:54.681Z</time>
      </trkpt>
      <trkpt lat="47.14497" lon="16.22217">
        <ele>292.966921</ele>
        <time>2022-09-28T08:32:56.692Z</time>
      </trkpt>
      <trkpt lat="47.14486" lon="16.22225">
        <ele>292.789141</ele>
        <time>2022-09-28T08:32:58.696Z</time>
      </trkpt>
      <trkpt lat="47.14474" lon="16.22235">
        <ele>292.605715</ele>
        <time>2022-09-28T08:33:00.684Z</time>
      </trkpt>
      <trkpt lat="47.14463" lon="16.22243">
        <ele>292.420697</ele>
        <time>2022-09-28T08:33:02.688Z</time>
      </trkpt>
      <trkpt lat="47.14451" lon="16.22253">
        <ele>292.228438</ele>
        <time>2022-09-28T08:33:04.672Z</time>
      </trkpt>
      <trkpt lat="47.1444" lon="16.22264">
        <ele>292.033879</ele>
        <time>2022-09-28T08:33:06.695Z</time>
      </trkpt>
      <trkpt lat="47.14429" lon="16.22277">
        <ele>291.829406</ele>
        <time>2022-09-28T08:33:08.698Z</time>
      </trkpt>
      <trkpt lat="47.14418" lon="16.2229">
        <ele>291.628834</ele>
        <time>2022-09-28T08:33:10.699Z</time>
      </trkpt>
      <trkpt lat="47.14407" lon="16.22302">
        <ele>291.435044</ele>
        <time>2022-09-28T08:33:12.692Z</time>
      </trkpt>
      <trkpt lat="47.14398" lon="16.22315">
        <ele>291.251391</ele>
        <time>2022-09-28T08:33:14.678Z</time>
      </trkpt>
      <trkpt lat="47.14388" lon="16.22327">
        <ele>290.788751</ele>
        <time>2022-09-28T08:33:16.677Z</time>
      </trkpt>
      <trkpt lat="47.14378" lon="16.22339">
        <ele>290.24037</ele>
        <time>2022-09-28T08:33:18.686Z</time>
      </trkpt>
      <trkpt lat="47.14369" lon="16.22351">
        <ele>289.709009</ele>
        <time>2022-09-28T08:33:20.693Z</time>
      </trkpt>
      <trkpt lat="47.14359" lon="16.22364">
        <ele>289.156957</ele>
        <time>2022-09-28T08:33:22.686Z</time>
      </trkpt>
      <trkpt lat="47.14349" lon="16.22374">
        <ele>288.653063</ele>
        <time>2022-09-28T08:33:24.689Z</time>
      </trkpt>
      <trkpt lat="47.14339" lon="16.22382">
        <ele>288.165752</ele>
        <time>2022-09-28T08:33:26.689Z</time>
      </trkpt>
      <trkpt lat="47.14329" lon="16.22389">
        <ele>287.704937</ele>
        <time>2022-09-28T08:33:28.688Z</time>
      </trkpt>
      <trkpt lat="47.14318" lon="16.22395">
        <ele>287.217287</ele>
        <time>2022-09-28T08:33:30.664Z</time>
      </trkpt>
      <trkpt lat="47.14306" lon="16.22399">
        <ele>286.712693</ele>
        <time>2022-09-28T08:33:32.755Z</time>
      </trkpt>
      <trkpt lat="47.14295" lon="16.22401">
        <ele>286.240379</ele>
        <time>2022-09-28T08:33:34.687Z</time>
      </trkpt>
      <trkpt lat="47.14286" lon="16.22402">
        <ele>285.839784</ele>
        <time>2022-09-28T08:33:36.679Z</time>
      </trkpt>
      <trkpt lat="47.14277" lon="16.22404">
        <ele>285.461522</ele>
        <time>2022-09-28T08:33:38.671Z</time>
      </trkpt>
      <trkpt lat="47.14267" lon="16.22405">
        <ele>285.05738</ele>
        <time>2022-09-28T08:33:40.690Z</time>
      </trkpt>
      <trkpt lat="47.14254" lon="16.22405">
        <ele>284.489567</ele>
        <time>2022-09-28T08:33:43.742Z</time>
      </trkpt>
      <trkpt lat="47.14244" lon="16.22404">
        <ele>284.081333</ele>
        <time>2022-09-28T08:33:45.692Z</time>
      </trkpt>
      <trkpt lat="47.14235" lon="16.22404">
        <ele>283.693999</ele>
        <time>2022-09-28T08:33:47.695Z</time>
      </trkpt>
      <trkpt lat="47.14225" lon="16.22404">
        <ele>283.76972</ele>
        <time>2022-09-28T08:33:49.701Z</time>
      </trkpt>
      <trkpt lat="47.14216" lon="16.22404">
        <ele>283.903495</ele>
        <time>2022-09-28T08:33:51.693Z</time>
      </trkpt>
      <trkpt lat="47.14207" lon="16.22404">
        <ele>284.03727</ele>
        <time>2022-09-28T08:33:53.700Z</time>
      </trkpt>
      <trkpt lat="47.14198" lon="16.22404">
        <ele>284.172484</ele>
        <time>2022-09-28T08:33:55.671Z</time>
      </trkpt>
      <trkpt lat="47.14188" lon="16.22404">
        <ele>284.310638</ele>
        <time>2022-09-28T08:33:57.713Z</time>
      </trkpt>
      <trkpt lat="47.14179" lon="16.22405">
        <ele>284.44173</ele>
        <time>2022-09-28T08:33:59.669Z</time>
      </trkpt>
      <trkpt lat="47.14169" lon="16.22405">
        <ele>284.587125</ele>
        <time>2022-09-28T08:34:01.689Z</time>
      </trkpt>
      <trkpt lat="47.14159" lon="16.22406">
        <ele>284.728376</ele>
        <time>2022-09-28T08:34:03.696Z</time>
      </trkpt>
      <trkpt lat="47.1415" lon="16.22407">
        <ele>284.872887</ele>
        <time>2022-09-28T08:34:05.677Z</time>
      </trkpt>
      <trkpt lat="47.14139" lon="16.22408">
        <ele>285.021516</ele>
        <time>2022-09-28T08:34:07.678Z</time>
      </trkpt>
      <trkpt lat="47.14129" lon="16.22409">
        <ele>285.172804</ele>
        <time>2022-09-28T08:34:09.688Z</time>
      </trkpt>
      <trkpt lat="47.14119" lon="16.2241">
        <ele>285.318411</ele>
        <time>2022-09-28T08:34:11.683Z</time>
      </trkpt>
      <trkpt lat="47.14109" lon="16.22411">
        <ele>285.458337</ele>
        <time>2022-09-28T08:34:13.682Z</time>
      </trkpt>
      <trkpt lat="47.14097" lon="16.22414">
        <ele>285.646946</ele>
        <time>2022-09-28T08:34:16.714Z</time>
      </trkpt>
      <trkpt lat="47.14087" lon="16.22416">
        <ele>285.792519</ele>
        <time>2022-09-28T08:34:18.677Z</time>
      </trkpt>
      <trkpt lat="47.14077" lon="16.22419">
        <ele>285.928919</ele>
        <time>2022-09-28T08:34:20.665Z</time>
      </trkpt>
      <trkpt lat="47.14068" lon="16.22422">
        <ele>286.075882</ele>
        <time>2022-09-28T08:34:22.688Z</time>
      </trkpt>
      <trkpt lat="47.14058" lon="16.22424">
        <ele>286.221455</ele>
        <time>2022-09-28T08:34:24.676Z</time>
      </trkpt>
      <trkpt lat="47.14047" lon="16.22426">
        <ele>286.257726</ele>
        <time>2022-09-28T08:34:26.680Z</time>
      </trkpt>
      <trkpt lat="47.14038" lon="16.22428">
        <ele>286.248401</ele>
        <time>2022-09-28T08:34:28.688Z</time>
      </trkpt>
      <trkpt lat="47.14029" lon="16.2243">
        <ele>286.239355</ele>
        <time>2022-09-28T08:34:30.684Z</time>
      </trkpt>
      <trkpt lat="47.14019" lon="16.22432">
        <ele>286.229829</ele>
        <time>2022-09-28T08:34:32.691Z</time>
      </trkpt>
      <trkpt lat="47.14009" lon="16.22435">
        <ele>286.220135</ele>
        <time>2022-09-28T08:34:34.686Z</time>
      </trkpt>
      <trkpt lat="47.13999" lon="16.22437">
        <ele>286.210049</ele>
        <time>2022-09-28T08:34:36.681Z</time>
      </trkpt>
      <trkpt lat="47.13988" lon="16.22439">
        <ele>286.200098</ele>
        <time>2022-09-28T08:34:38.690Z</time>
      </trkpt>
      <trkpt lat="47.13978" lon="16.22441">
        <ele>286.189995</ele>
        <time>2022-09-28T08:34:40.692Z</time>
      </trkpt>
      <trkpt lat="47.13967" lon="16.22443">
        <ele>286.1797</ele>
        <time>2022-09-28T08:34:42.690Z</time>
      </trkpt>
      <trkpt lat="47.13957" lon="16.22444">
        <ele>286.169327</ele>
        <time>2022-09-28T08:34:44.717Z</time>
      </trkpt>
      <trkpt lat="47.13946" lon="16.22446">
        <ele>286.159217</ele>
        <time>2022-09-28T08:34:46.681Z</time>
      </trkpt>
      <trkpt lat="47.13937" lon="16.22448">
        <ele>286.149839</ele>
        <time>2022-09-28T08:34:48.689Z</time>
      </trkpt>
      <trkpt lat="47.13927" lon="16.2245">
        <ele>286.140185</ele>
        <time>2022-09-28T08:34:50.678Z</time>
      </trkpt>
      <trkpt lat="47.13917" lon="16.22452">
        <ele>286.130575</ele>
        <time>2022-09-28T08:34:52.684Z</time>
      </trkpt>
      <trkpt lat="47.13907" lon="16.22455">
        <ele>286.120763</ele>
        <time>2022-09-28T08:34:54.668Z</time>
      </trkpt>
      <trkpt lat="47.13897" lon="16.22457">
        <ele>286.110845</ele>
        <time>2022-09-28T08:34:56.693Z</time>
      </trkpt>
      <trkpt lat="47.13887" lon="16.2246">
        <ele>286.100737</ele>
        <time>2022-09-28T08:34:58.680Z</time>
      </trkpt>
      <trkpt lat="47.13876" lon="16.22462">
        <ele>286.078562</ele>
        <time>2022-09-28T08:35:00.685Z</time>
      </trkpt>
      <trkpt lat="47.13865" lon="16.22465">
        <ele>285.907239</ele>
        <time>2022-09-28T08:35:02.700Z</time>
      </trkpt>
      <trkpt lat="47.13856" lon="16.22469">
        <ele>285.744432</ele>
        <time>2022-09-28T08:35:04.708Z</time>
      </trkpt>
      <trkpt lat="47.13846" lon="16.22472">
        <ele>285.578277</ele>
        <time>2022-09-28T08:35:06.738Z</time>
      </trkpt>
      <trkpt lat="47.13836" lon="16.22475">
        <ele>285.420357</ele>
        <time>2022-09-28T08:35:08.696Z</time>
      </trkpt>
      <trkpt lat="47.13826" lon="16.22478">
        <ele>285.266336</ele>
        <time>2022-09-28T08:35:10.692Z</time>
      </trkpt>
      <trkpt lat="47.13817" lon="16.2248">
        <ele>285.112954</ele>
        <time>2022-09-28T08:35:12.696Z</time>
      </trkpt>
      <trkpt lat="47.13807" lon="16.22482">
        <ele>284.949224</ele>
        <time>2022-09-28T08:35:14.677Z</time>
      </trkpt>
      <trkpt lat="47.13797" lon="16.22485">
        <ele>284.783576</ele>
        <time>2022-09-28T08:35:16.710Z</time>
      </trkpt>
      <trkpt lat="47.13787" lon="16.22487">
        <ele>284.619682</ele>
        <time>2022-09-28T08:35:18.691Z</time>
      </trkpt>
      <trkpt lat="47.13776" lon="16.22489">
        <ele>284.452778</ele>
        <time>2022-09-28T08:35:20.696Z</time>
      </trkpt>
      <trkpt lat="47.13766" lon="16.22492">
        <ele>284.289537</ele>
        <time>2022-09-28T08:35:22.696Z</time>
      </trkpt>
      <trkpt lat="47.13756" lon="16.22495">
        <ele>284.121762</ele>
        <time>2022-09-28T08:35:24.691Z</time>
      </trkpt>
      <trkpt lat="47.13746" lon="16.22498">
        <ele>283.958313</ele>
        <time>2022-09-28T08:35:26.688Z</time>
      </trkpt>
      <trkpt lat="47.13736" lon="16.22501">
        <ele>283.79622</ele>
        <time>2022-09-28T08:35:28.720Z</time>
      </trkpt>
      <trkpt lat="47.13726" lon="16.22504">
        <ele>283.633903</ele>
        <time>2022-09-28T08:35:30.693Z</time>
      </trkpt>
      <trkpt lat="47.13717" lon="16.22507">
        <ele>283.474722</ele>
        <time>2022-09-28T08:35:32.689Z</time>
      </trkpt>
      <trkpt lat="47.13706" lon="16.2251">
        <ele>283.308329</ele>
        <time>2022-09-28T08:35:34.695Z</time>
      </trkpt>
      <trkpt lat="47.13697" lon="16.22513">
        <ele>283.183801</ele>
        <time>2022-09-28T08:35:36.705Z</time>
      </trkpt>
      <trkpt lat="47.13687" lon="16.22515">
        <ele>283.121886</ele>
        <time>2022-09-28T08:35:38.704Z</time>
      </trkpt>
      <trkpt lat="47.13678" lon="16.22518">
        <ele>283.05761</ele>
        <time>2022-09-28T08:35:40.714Z</time>
      </trkpt>
      <trkpt lat="47.13669" lon="16.22522">
        <ele>282.997357</ele>
        <time>2022-09-28T08:35:42.688Z</time>
      </trkpt>
      <trkpt lat="47.1366" lon="16.22527">
        <ele>282.933696</ele>
        <time>2022-09-28T08:35:44.678Z</time>
      </trkpt>
      <trkpt lat="47.13651" lon="16.22534">
        <ele>282.865626</ele>
        <time>2022-09-28T08:35:46.690Z</time>
      </trkpt>
      <trkpt lat="47.13641" lon="16.22539">
        <ele>282.796879</ele>
        <time>2022-09-28T08:35:48.696Z</time>
      </trkpt>
      <trkpt lat="47.13631" lon="16.22545">
        <ele>282.729512</ele>
        <time>2022-09-28T08:35:50.683Z</time>
      </trkpt>
      <trkpt lat="47.13622" lon="16.22551">
        <ele>282.663827</ele>
        <time>2022-09-28T08:35:52.669Z</time>
      </trkpt>
      <trkpt lat="47.13613" lon="16.22557">
        <ele>282.597236</ele>
        <time>2022-09-28T08:35:54.682Z</time>
      </trkpt>
      <trkpt lat="47.13603" lon="16.22563">
        <ele>282.528983</ele>
        <time>2022-09-28T08:35:56.707Z</time>
      </trkpt>
      <trkpt lat="47.13594" lon="16.22569">
        <ele>282.461269</ele>
        <time>2022-09-28T08:35:58.702Z</time>
      </trkpt>
      <trkpt lat="47.13584" lon="16.22575">
        <ele>282.39131</ele>
        <time>2022-09-28T08:36:00.700Z</time>
      </trkpt>
      <trkpt lat="47.13575" lon="16.22582">
        <ele>282.325625</ele>
        <time>2022-09-28T08:36:02.724Z</time>
      </trkpt>
      <trkpt lat="47.13566" lon="16.22588">
        <ele>282.259345</ele>
        <time>2022-09-28T08:36:04.690Z</time>
      </trkpt>
      <trkpt lat="47.13556" lon="16.22594">
        <ele>282.189897</ele>
        <time>2022-09-28T08:36:06.693Z</time>
      </trkpt>
      <trkpt lat="47.13547" lon="16.22601">
        <ele>282.121676</ele>
        <time>2022-09-28T08:36:08.750Z</time>
      </trkpt>
      <trkpt lat="47.13537" lon="16.22608">
        <ele>282.053627</ele>
        <time>2022-09-28T08:36:10.663Z</time>
      </trkpt>
      <trkpt lat="47.13528" lon="16.22614">
        <ele>281.986626</ele>
        <time>2022-09-28T08:36:12.660Z</time>
      </trkpt>
      <trkpt lat="47.13519" lon="16.2262">
        <ele>281.921937</ele>
        <time>2022-09-28T08:36:14.641Z</time>
      </trkpt>
      <trkpt lat="47.13509" lon="16.22626">
        <ele>281.853595</ele>
        <time>2022-09-28T08:36:16.677Z</time>
      </trkpt>
      <trkpt lat="47.135" lon="16.22633">
        <ele>281.78407</ele>
        <time>2022-09-28T08:36:18.693Z</time>
      </trkpt>
      <trkpt lat="47.13491" lon="16.22641">
        <ele>281.715537</ele>
        <time>2022-09-28T08:36:20.695Z</time>
      </trkpt>
      <trkpt lat="47.13482" lon="16.22647">
        <ele>281.648978</ele>
        <time>2022-09-28T08:36:22.691Z</time>
      </trkpt>
      <trkpt lat="47.13473" lon="16.22654">
        <ele>281.583787</ele>
        <time>2022-09-28T08:36:24.697Z</time>
      </trkpt>
      <trkpt lat="47.13464" lon="16.2266">
        <ele>281.518974</ele>
        <time>2022-09-28T08:36:26.679Z</time>
      </trkpt>
      <trkpt lat="47.13455" lon="16.22665">
        <ele>281.454886</ele>
        <time>2022-09-28T08:36:28.701Z</time>
      </trkpt>
      <trkpt lat="47.13446" lon="16.22671">
        <ele>281.391398</ele>
        <time>2022-09-28T08:36:30.711Z</time>
      </trkpt>
      <trkpt lat="47.13437" lon="16.22676">
        <ele>281.329205</ele>
        <time>2022-09-28T08:36:32.679Z</time>
      </trkpt>
      <trkpt lat="47.13428" lon="16.22682">
        <ele>281.264577</ele>
        <time>2022-09-28T08:36:34.654Z</time>
      </trkpt>
      <trkpt lat="47.13419" lon="16.22689">
        <ele>281.198216</ele>
        <time>2022-09-28T08:36:36.693Z</time>
      </trkpt>
      <trkpt lat="47.1341" lon="16.22695">
        <ele>281.133809</ele>
        <time>2022-09-28T08:36:38.687Z</time>
      </trkpt>
      <trkpt lat="47.13401" lon="16.22702">
        <ele>281.070772</ele>
        <time>2022-09-28T08:36:40.673Z</time>
      </trkpt>
      <trkpt lat="47.13393" lon="16.22707">
        <ele>281.011768</ele>
        <time>2022-09-28T08:36:42.670Z</time>
      </trkpt>
      <trkpt lat="47.13381" lon="16.22714">
        <ele>280.924852</ele>
        <time>2022-09-28T08:36:45.759Z</time>
      </trkpt>
      <trkpt lat="47.13369" lon="16.2272">
        <ele>280.878569</ele>
        <time>2022-09-28T08:36:48.692Z</time>
      </trkpt>
      <trkpt lat="47.13359" lon="16.22729">
        <ele>281.059733</ele>
        <time>2022-09-28T08:36:51.671Z</time>
      </trkpt>
      <trkpt lat="47.13349" lon="16.22736">
        <ele>281.231419</ele>
        <time>2022-09-28T08:36:54.694Z</time>
      </trkpt>
      <trkpt lat="47.1334" lon="16.22736">
        <ele>281.377931</ele>
        <time>2022-09-28T08:37:06.714Z</time>
      </trkpt>
      <trkpt lat="47.13334" lon="16.22725">
        <ele>281.531202</ele>
        <time>2022-09-28T08:37:10.682Z</time>
      </trkpt>
      <trkpt lat="47.1333" lon="16.22712">
        <ele>281.6841</ele>
        <time>2022-09-28T08:37:14.683Z</time>
      </trkpt>
      <trkpt lat="47.13327" lon="16.22698">
        <ele>281.840669</ele>
        <time>2022-09-28T08:37:17.755Z</time>
      </trkpt>
      <trkpt lat="47.13326" lon="16.22685">
        <ele>281.988609</ele>
        <time>2022-09-28T08:37:20.686Z</time>
      </trkpt>
      <trkpt lat="47.13324" lon="16.22668">
        <ele>282.173886</ele>
        <time>2022-09-28T08:37:24.696Z</time>
      </trkpt>
      <trkpt lat="47.13321" lon="16.22652">
        <ele>282.350729</ele>
        <time>2022-09-28T08:37:28.698Z</time>
      </trkpt>
      <trkpt lat="47.1331" lon="16.22644">
        <ele>282.539459</ele>
        <time>2022-09-28T08:37:32.675Z</time>
      </trkpt>
      <trkpt lat="47.133" lon="16.22642">
        <ele>282.70078</ele>
        <time>2022-09-28T08:37:35.690Z</time>
      </trkpt>
      <trkpt lat="47.13291" lon="16.22637">
        <ele>282.86339</ele>
        <time>2022-09-28T08:37:38.684Z</time>
      </trkpt>
      <trkpt lat="47.1328" lon="16.22632">
        <ele>283.035634</ele>
        <time>2022-09-28T08:37:41.699Z</time>
      </trkpt>
      <trkpt lat="47.1327" lon="16.22631">
        <ele>283.197152</ele>
        <time>2022-09-28T08:37:44.684Z</time>
      </trkpt>
      <trkpt lat="47.1326" lon="16.22628">
        <ele>283.365488</ele>
        <time>2022-09-28T08:37:47.696Z</time>
      </trkpt>
      <trkpt lat="47.1325" lon="16.22625">
        <ele>283.531772</ele>
        <time>2022-09-28T08:37:50.698Z</time>
      </trkpt>
      <trkpt lat="47.13239" lon="16.2262">
        <ele>283.712028</ele>
        <time>2022-09-28T08:37:53.673Z</time>
      </trkpt>
      <trkpt lat="47.13228" lon="16.22616">
        <ele>283.606211</ele>
        <time>2022-09-28T08:37:56.682Z</time>
      </trkpt>
      <trkpt lat="47.13218" lon="16.22619">
        <ele>283.503952</ele>
        <time>2022-09-28T08:37:59.678Z</time>
      </trkpt>
      <trkpt lat="47.13215" lon="16.22636">
        <ele>283.378864</ele>
        <time>2022-09-28T08:38:02.689Z</time>
      </trkpt>
      <trkpt lat="47.13215" lon="16.2265">
        <ele>283.283782</ele>
        <time>2022-09-28T08:38:04.726Z</time>
      </trkpt>
      <trkpt lat="47.13214" lon="16.22664">
        <ele>283.187482</ele>
        <time>2022-09-28T08:38:06.714Z</time>
      </trkpt>
      <trkpt lat="47.13212" lon="16.22677">
        <ele>283.092885</ele>
        <time>2022-09-28T08:38:08.717Z</time>
      </trkpt>
      <trkpt lat="47.1321" lon="16.2269">
        <ele>283.000608</ele>
        <time>2022-09-28T08:38:10.693Z</time>
      </trkpt>
      <trkpt lat="47.13207" lon="16.22704">
        <ele>282.903238</ele>
        <time>2022-09-28T08:38:12.718Z</time>
      </trkpt>
      <trkpt lat="47.13205" lon="16.22717">
        <ele>282.807566</ele>
        <time>2022-09-28T08:38:14.676Z</time>
      </trkpt>
      <trkpt lat="47.13204" lon="16.22736">
        <ele>282.677184</ele>
        <time>2022-09-28T08:38:17.691Z</time>
      </trkpt>
      <trkpt lat="47.13202" lon="16.22755">
        <ele>282.545429</ele>
        <time>2022-09-28T08:38:20.691Z</time>
      </trkpt>
      <trkpt lat="47.132" lon="16.22773">
        <ele>282.419449</ele>
        <time>2022-09-28T08:38:23.689Z</time>
      </trkpt>
      <trkpt lat="47.13198" lon="16.22792">
        <ele>282.286019</ele>
        <time>2022-09-28T08:38:26.687Z</time>
      </trkpt>
      <trkpt lat="47.13196" lon="16.22805">
        <ele>282.192104</ele>
        <time>2022-09-28T08:38:28.699Z</time>
      </trkpt>
      <trkpt lat="47.13194" lon="16.22824">
        <ele>282.056082</ele>
        <time>2022-09-28T08:38:31.698Z</time>
      </trkpt>
      <trkpt lat="47.13193" lon="16.22844">
        <ele>281.921382</ele>
        <time>2022-09-28T08:38:34.689Z</time>
      </trkpt>
      <trkpt lat="47.13191" lon="16.22862">
        <ele>281.654721</ele>
        <time>2022-09-28T08:38:37.702Z</time>
      </trkpt>
      <trkpt lat="47.13189" lon="16.2288">
        <ele>281.32981</ele>
        <time>2022-09-28T08:38:40.726Z</time>
      </trkpt>
      <trkpt lat="47.13187" lon="16.22899">
        <ele>280.99916</ele>
        <time>2022-09-28T08:38:43.686Z</time>
      </trkpt>
      <trkpt lat="47.13186" lon="16.22918">
        <ele>280.67146</ele>
        <time>2022-09-28T08:38:46.660Z</time>
      </trkpt>
      <trkpt lat="47.13184" lon="16.22936">
        <ele>280.35123</ele>
        <time>2022-09-28T08:38:49.693Z</time>
      </trkpt>
      <trkpt lat="47.13182" lon="16.22955">
        <ele>280.013869</ele>
        <time>2022-09-28T08:38:52.721Z</time>
      </trkpt>
      <trkpt lat="47.1318" lon="16.22974">
        <ele>279.674531</ele>
        <time>2022-09-28T08:38:55.703Z</time>
      </trkpt>
      <trkpt lat="47.13178" lon="16.22992">
        <ele>279.346653</ele>
        <time>2022-09-28T08:38:58.688Z</time>
      </trkpt>
      <trkpt lat="47.13176" lon="16.23011">
        <ele>279.014595</ele>
        <time>2022-09-28T08:39:01.761Z</time>
      </trkpt>
      <trkpt lat="47.13175" lon="16.2303">
        <ele>278.687418</ele>
        <time>2022-09-28T08:39:04.680Z</time>
      </trkpt>
      <trkpt lat="47.13172" lon="16.23048">
        <ele>278.364371</ele>
        <time>2022-09-28T08:39:07.697Z</time>
      </trkpt>
      <trkpt lat="47.1317" lon="16.23066">
        <ele>278.030246</ele>
        <time>2022-09-28T08:39:10.687Z</time>
      </trkpt>
      <trkpt lat="47.13168" lon="16.23086">
        <ele>277.690733</ele>
        <time>2022-09-28T08:39:13.688Z</time>
      </trkpt>
      <trkpt lat="47.13166" lon="16.23099">
        <ele>277.454787</ele>
        <time>2022-09-28T08:39:15.681Z</time>
      </trkpt>
      <trkpt lat="47.13164" lon="16.23117">
        <ele>277.283934</ele>
        <time>2022-09-28T08:39:18.690Z</time>
      </trkpt>
      <trkpt lat="47.13163" lon="16.23135">
        <ele>277.375215</ele>
        <time>2022-09-28T08:39:21.689Z</time>
      </trkpt>
      <trkpt lat="47.13163" lon="16.23153">
        <ele>277.468903</ele>
        <time>2022-09-28T08:39:24.686Z</time>
      </trkpt>
      <trkpt lat="47.13162" lon="16.2317">
        <ele>277.558944</ele>
        <time>2022-09-28T08:39:27.676Z</time>
      </trkpt>
      <trkpt lat="47.13161" lon="16.23188">
        <ele>277.651382</ele>
        <time>2022-09-28T08:39:30.690Z</time>
      </trkpt>
      <trkpt lat="47.13159" lon="16.23206">
        <ele>277.744071</ele>
        <time>2022-09-28T08:39:33.694Z</time>
      </trkpt>
      <trkpt lat="47.13151" lon="16.23216">
        <ele>277.82281</ele>
        <time>2022-09-28T08:39:36.693Z</time>
      </trkpt>
      <trkpt lat="47.1314" lon="16.23217">
        <ele>277.911092</ele>
        <time>2022-09-28T08:39:39.722Z</time>
      </trkpt>
      <trkpt lat="47.13128" lon="16.2322">
        <ele>278.003996</ele>
        <time>2022-09-28T08:39:42.727Z</time>
      </trkpt>
      <trkpt lat="47.13116" lon="16.23226">
        <ele>278.097499</ele>
        <time>2022-09-28T08:39:45.676Z</time>
      </trkpt>
      <trkpt lat="47.13104" lon="16.2323">
        <ele>278.192642</ele>
        <time>2022-09-28T08:39:48.697Z</time>
      </trkpt>
      <trkpt lat="47.13091" lon="16.23235">
        <ele>278.289992</ele>
        <time>2022-09-28T08:39:51.722Z</time>
      </trkpt>
      <trkpt lat="47.13079" lon="16.2324">
        <ele>278.385005</ele>
        <time>2022-09-28T08:39:54.780Z</time>
      </trkpt>
      <trkpt lat="47.13067" lon="16.23244">
        <ele>278.477182</ele>
        <time>2022-09-28T08:39:57.690Z</time>
      </trkpt>
      <trkpt lat="47.13056" lon="16.23247">
        <ele>278.568906</ele>
        <time>2022-09-28T08:40:00.683Z</time>
      </trkpt>
      <trkpt lat="47.13044" lon="16.23251">
        <ele>278.588379</ele>
        <time>2022-09-28T08:40:03.682Z</time>
      </trkpt>
      <trkpt lat="47.13033" lon="16.23255">
        <ele>278.529988</ele>
        <time>2022-09-28T08:40:06.687Z</time>
      </trkpt>
      <trkpt lat="47.13022" lon="16.23258">
        <ele>278.472793</ele>
        <time>2022-09-28T08:40:09.693Z</time>
      </trkpt>
      <trkpt lat="47.13011" lon="16.23263">
        <ele>278.414883</ele>
        <time>2022-09-28T08:40:12.682Z</time>
      </trkpt>
      <trkpt lat="47.12999" lon="16.23267">
        <ele>278.356825</ele>
        <time>2022-09-28T08:40:15.737Z</time>
      </trkpt>
      <trkpt lat="47.12988" lon="16.23271">
        <ele>278.29723</ele>
        <time>2022-09-28T08:40:18.689Z</time>
      </trkpt>
      <trkpt lat="47.12976" lon="16.23275">
        <ele>278.238839</ele>
        <time>2022-09-28T08:40:21.681Z</time>
      </trkpt>
      <trkpt lat="47.12965" lon="16.23278">
        <ele>278.181423</ele>
        <time>2022-09-28T08:40:24.690Z</time>
      </trkpt>
      <trkpt lat="47.12956" lon="16.23291">
        <ele>278.119103</ele>
        <time>2022-09-28T08:40:27.721Z</time>
      </trkpt>
      <trkpt lat="47.12959" lon="16.23311">
        <ele>278.048399</ele>
        <time>2022-09-28T08:40:30.688Z</time>
      </trkpt>
      <trkpt lat="47.12962" lon="16.23327">
        <ele>277.992456</ele>
        <time>2022-09-28T08:40:32.698Z</time>
      </trkpt>
      <trkpt lat="47.12965" lon="16.23343">
        <ele>277.938534</ele>
        <time>2022-09-28T08:40:34.675Z</time>
      </trkpt>
      <trkpt lat="47.12966" lon="16.23359">
        <ele>277.881625</ele>
        <time>2022-09-28T08:40:36.668Z</time>
      </trkpt>
      <trkpt lat="47.12969" lon="16.23373">
        <ele>277.832019</ele>
        <time>2022-09-28T08:40:38.728Z</time>
      </trkpt>
      <trkpt lat="47.1297" lon="16.23388">
        <ele>277.781427</ele>
        <time>2022-09-28T08:40:40.676Z</time>
      </trkpt>
      <trkpt lat="47.12971" lon="16.23403">
        <ele>277.731113</ele>
        <time>2022-09-28T08:40:42.690Z</time>
      </trkpt>
      <trkpt lat="47.12973" lon="16.23418">
        <ele>277.648846</ele>
        <time>2022-09-28T08:40:44.678Z</time>
      </trkpt>
      <trkpt lat="47.12974" lon="16.23432">
        <ele>277.556645</ele>
        <time>2022-09-28T08:40:46.688Z</time>
      </trkpt>
      <trkpt lat="47.12976" lon="16.23445">
        <ele>277.467081</ele>
        <time>2022-09-28T08:40:48.683Z</time>
      </trkpt>
      <trkpt lat="47.12977" lon="16.23459">
        <ele>277.380729</ele>
        <time>2022-09-28T08:40:50.690Z</time>
      </trkpt>
      <trkpt lat="47.12979" lon="16.23478">
        <ele>277.259748</ele>
        <time>2022-09-28T08:40:53.694Z</time>
      </trkpt>
      <trkpt lat="47.1298" lon="16.23496">
        <ele>277.140299</ele>
        <time>2022-09-28T08:40:56.694Z</time>
      </trkpt>
      <trkpt lat="47.12981" lon="16.23514">
        <ele>277.024611</ele>
        <time>2022-09-28T08:40:59.699Z</time>
      </trkpt>
      <trkpt lat="47.12981" lon="16.23532">
        <ele>276.911771</ele>
        <time>2022-09-28T08:41:02.719Z</time>
      </trkpt>
      <trkpt lat="47.12982" lon="16.23549">
        <ele>276.800887</ele>
        <time>2022-09-28T08:41:05.692Z</time>
      </trkpt>
      <trkpt lat="47.12982" lon="16.23567">
        <ele>276.687443</ele>
        <time>2022-09-28T08:41:08.701Z</time>
      </trkpt>
      <trkpt lat="47.12983" lon="16.23586">
        <ele>276.563636</ele>
        <time>2022-09-28T08:41:11.721Z</time>
      </trkpt>
      <trkpt lat="47.12983" lon="16.23606">
        <ele>276.438082</ele>
        <time>2022-09-28T08:41:14.691Z</time>
      </trkpt>
      <trkpt lat="47.12982" lon="16.23625">
        <ele>276.313582</ele>
        <time>2022-09-28T08:41:17.694Z</time>
      </trkpt>
      <trkpt lat="47.12982" lon="16.23645">
        <ele>276.18867</ele>
        <time>2022-09-28T08:41:20.687Z</time>
      </trkpt>
      <trkpt lat="47.12981" lon="16.23664">
        <ele>276.063629</ele>
        <time>2022-09-28T08:41:23.702Z</time>
      </trkpt>
      <trkpt lat="47.1298" lon="16.23683">
        <ele>276.094755</ele>
        <time>2022-09-28T08:41:26.691Z</time>
      </trkpt>
      <trkpt lat="47.12979" lon="16.23702">
        <ele>276.195431</ele>
        <time>2022-09-28T08:41:29.688Z</time>
      </trkpt>
      <trkpt lat="47.12977" lon="16.2372">
        <ele>276.297815</ele>
        <time>2022-09-28T08:41:32.678Z</time>
      </trkpt>
      <trkpt lat="47.12976" lon="16.2374">
        <ele>276.402281</ele>
        <time>2022-09-28T08:41:35.682Z</time>
      </trkpt>
      <trkpt lat="47.12974" lon="16.23753">
        <ele>276.478467</ele>
        <time>2022-09-28T08:41:37.684Z</time>
      </trkpt>
      <trkpt lat="47.12972" lon="16.23772">
        <ele>276.58403</ele>
        <time>2022-09-28T08:41:40.687Z</time>
      </trkpt>
      <trkpt lat="47.12971" lon="16.23786">
        <ele>276.656405</ele>
        <time>2022-09-28T08:41:42.676Z</time>
      </trkpt>
      <trkpt lat="47.1297" lon="16.23799">
        <ele>276.732021</ele>
        <time>2022-09-28T08:41:44.715Z</time>
      </trkpt>
      <trkpt lat="47.12968" lon="16.23813">
        <ele>276.805391</ele>
        <time>2022-09-28T08:41:46.689Z</time>
      </trkpt>
      <trkpt lat="47.12966" lon="16.23832">
        <ele>276.9111</ele>
        <time>2022-09-28T08:41:49.689Z</time>
      </trkpt>
      <trkpt lat="47.12965" lon="16.23846">
        <ele>276.98692</ele>
        <time>2022-09-28T08:41:51.683Z</time>
      </trkpt>
      <trkpt lat="47.12963" lon="16.2386">
        <ele>277.063546</ele>
        <time>2022-09-28T08:41:53.704Z</time>
      </trkpt>
      <trkpt lat="47.1296" lon="16.23879">
        <ele>277.17235</ele>
        <time>2022-09-28T08:41:56.682Z</time>
      </trkpt>
      <trkpt lat="47.12958" lon="16.23893">
        <ele>277.248493</ele>
        <time>2022-09-28T08:41:58.694Z</time>
      </trkpt>
      <trkpt lat="47.12954" lon="16.23911">
        <ele>277.352259</ele>
        <time>2022-09-28T08:42:01.694Z</time>
      </trkpt>
      <trkpt lat="47.12951" lon="16.2393">
        <ele>277.458592</ele>
        <time>2022-09-28T08:42:04.686Z</time>
      </trkpt>
      <trkpt lat="47.12949" lon="16.23943">
        <ele>277.506095</ele>
        <time>2022-09-28T08:42:06.706Z</time>
      </trkpt>
      <trkpt lat="47.12945" lon="16.23961">
        <ele>277.572763</ele>
        <time>2022-09-28T08:42:09.692Z</time>
      </trkpt>
      <trkpt lat="47.12941" lon="16.2398">
        <ele>277.638049</ele>
        <time>2022-09-28T08:42:12.696Z</time>
      </trkpt>
      <trkpt lat="47.12938" lon="16.23998">
        <ele>277.705275</ele>
        <time>2022-09-28T08:42:15.680Z</time>
      </trkpt>
      <trkpt lat="47.12935" lon="16.24011">
        <ele>277.75185</ele>
        <time>2022-09-28T08:42:17.736Z</time>
      </trkpt>
      <trkpt lat="47.1293" lon="16.24027">
        <ele>277.809952</ele>
        <time>2022-09-28T08:42:20.697Z</time>
      </trkpt>
      <trkpt lat="47.12926" lon="16.24043">
        <ele>277.869617</ele>
        <time>2022-09-28T08:42:23.700Z</time>
      </trkpt>
      <trkpt lat="47.12923" lon="16.24058">
        <ele>277.924522</ele>
        <time>2022-09-28T08:42:26.681Z</time>
      </trkpt>
      <trkpt lat="47.12919" lon="16.24072">
        <ele>277.978482</ele>
        <time>2022-09-28T08:42:29.684Z</time>
      </trkpt>
      <trkpt lat="47.12914" lon="16.24089">
        <ele>278.039276</ele>
        <time>2022-09-28T08:42:32.679Z</time>
      </trkpt>
      <trkpt lat="47.1291" lon="16.24106">
        <ele>278.102299</ele>
        <time>2022-09-28T08:42:35.693Z</time>
      </trkpt>
      <trkpt lat="47.12905" lon="16.24119">
        <ele>278.154881</ele>
        <time>2022-09-28T08:42:38.690Z</time>
      </trkpt>
      <trkpt lat="47.129" lon="16.24132">
        <ele>278.20468</ele>
        <time>2022-09-28T08:42:41.690Z</time>
      </trkpt>
      <trkpt lat="47.12897" lon="16.24147">
        <ele>278.260241</ele>
        <time>2022-09-28T08:42:44.721Z</time>
      </trkpt>
      <trkpt lat="47.12892" lon="16.24164">
        <ele>278.323716</ele>
        <time>2022-09-28T08:42:47.684Z</time>
      </trkpt>
      <trkpt lat="47.12886" lon="16.2418">
        <ele>278.382884</ele>
        <time>2022-09-28T08:42:50.720Z</time>
      </trkpt>
      <trkpt lat="47.12882" lon="16.24193">
        <ele>278.42561</ele>
        <time>2022-09-28T08:42:53.685Z</time>
      </trkpt>
      <trkpt lat="47.12878" lon="16.24206">
        <ele>278.467893</ele>
        <time>2022-09-28T08:42:56.699Z</time>
      </trkpt>
      <trkpt lat="47.12874" lon="16.2422">
        <ele>278.512074</ele>
        <time>2022-09-28T08:42:59.696Z</time>
      </trkpt>
      <trkpt lat="47.12869" lon="16.24235">
        <ele>278.56244</ele>
        <time>2022-09-28T08:43:02.691Z</time>
      </trkpt>
      <trkpt lat="47.12864" lon="16.24251">
        <ele>278.612679</ele>
        <time>2022-09-28T08:43:05.689Z</time>
      </trkpt>
      <trkpt lat="47.12859" lon="16.24266">
        <ele>278.662426</ele>
        <time>2022-09-28T08:43:08.679Z</time>
      </trkpt>
      <trkpt lat="47.12855" lon="16.24282">
        <ele>278.711634</ele>
        <time>2022-09-28T08:43:11.689Z</time>
      </trkpt>
      <trkpt lat="47.12849" lon="16.24297">
        <ele>278.763112</ele>
        <time>2022-09-28T08:43:14.690Z</time>
      </trkpt>
      <trkpt lat="47.12844" lon="16.24313">
        <ele>278.813307</ele>
        <time>2022-09-28T08:43:17.681Z</time>
      </trkpt>
      <trkpt lat="47.1284" lon="16.24331">
        <ele>278.870377</ele>
        <time>2022-09-28T08:43:20.710Z</time>
      </trkpt>
      <trkpt lat="47.12834" lon="16.24348">
        <ele>278.923428</ele>
        <time>2022-09-28T08:43:23.717Z</time>
      </trkpt>
      <trkpt lat="47.12829" lon="16.24363">
        <ele>278.973212</ele>
        <time>2022-09-28T08:43:26.687Z</time>
      </trkpt>
      <trkpt lat="47.12823" lon="16.24379">
        <ele>279.028832</ele>
        <time>2022-09-28T08:43:29.717Z</time>
      </trkpt>
      <trkpt lat="47.12818" lon="16.24395">
        <ele>279.078133</ele>
        <time>2022-09-28T08:43:32.685Z</time>
      </trkpt>
      <trkpt lat="47.12812" lon="16.2441">
        <ele>279.130784</ele>
        <time>2022-09-28T08:43:35.699Z</time>
      </trkpt>
      <trkpt lat="47.12807" lon="16.24426">
        <ele>279.140196</ele>
        <time>2022-09-28T08:43:38.690Z</time>
      </trkpt>
      <trkpt lat="47.12802" lon="16.2444">
        <ele>279.128616</ele>
        <time>2022-09-28T08:43:41.680Z</time>
      </trkpt>
      <trkpt lat="47.12797" lon="16.24455">
        <ele>279.116443</ele>
        <time>2022-09-28T08:43:44.684Z</time>
      </trkpt>
      <trkpt lat="47.12791" lon="16.2447">
        <ele>279.104023</ele>
        <time>2022-09-28T08:43:47.697Z</time>
      </trkpt>
      <trkpt lat="47.12786" lon="16.24485">
        <ele>279.09169</ele>
        <time>2022-09-28T08:43:50.733Z</time>
      </trkpt>
      <trkpt lat="47.1278" lon="16.24501">
        <ele>279.078909</ele>
        <time>2022-09-28T08:43:53.699Z</time>
      </trkpt>
      <trkpt lat="47.12774" lon="16.24516">
        <ele>279.066509</ele>
        <time>2022-09-28T08:43:56.686Z</time>
      </trkpt>
      <trkpt lat="47.12768" lon="16.24531">
        <ele>279.053817</ele>
        <time>2022-09-28T08:43:59.685Z</time>
      </trkpt>
      <trkpt lat="47.12764" lon="16.24543">
        <ele>279.044351</ele>
        <time>2022-09-28T08:44:01.694Z</time>
      </trkpt>
      <trkpt lat="47.1276" lon="16.24555">
        <ele>279.034559</ele>
        <time>2022-09-28T08:44:03.678Z</time>
      </trkpt>
      <trkpt lat="47.12753" lon="16.24572">
        <ele>279.020522</ele>
        <time>2022-09-28T08:44:06.688Z</time>
      </trkpt>
      <trkpt lat="47.12747" lon="16.24589">
        <ele>279.006736</ele>
        <time>2022-09-28T08:44:09.698Z</time>
      </trkpt>
      <trkpt lat="47.1274" lon="16.24607">
        <ele>278.991991</ele>
        <time>2022-09-28T08:44:12.694Z</time>
      </trkpt>
      <trkpt lat="47.12733" lon="16.24623">
        <ele>278.978015</ele>
        <time>2022-09-28T08:44:15.684Z</time>
      </trkpt>
      <trkpt lat="47.12726" lon="16.24638">
        <ele>278.964992</ele>
        <time>2022-09-28T08:44:18.679Z</time>
      </trkpt>
      <trkpt lat="47.12721" lon="16.24649">
        <ele>278.917752</ele>
        <time>2022-09-28T08:44:20.700Z</time>
      </trkpt>
      <trkpt lat="47.12714" lon="16.24666">
        <ele>278.706212</ele>
        <time>2022-09-28T08:44:23.688Z</time>
      </trkpt>
      <trkpt lat="47.12709" lon="16.24678">
        <ele>278.56086</ele>
        <time>2022-09-28T08:44:25.680Z</time>
      </trkpt>
      <trkpt lat="47.12702" lon="16.24694">
        <ele>278.359106</ele>
        <time>2022-09-28T08:44:28.694Z</time>
      </trkpt>
      <trkpt lat="47.12694" lon="16.24709">
        <ele>278.153694</ele>
        <time>2022-09-28T08:44:31.696Z</time>
      </trkpt>
      <trkpt lat="47.12688" lon="16.24725">
        <ele>277.952335</ele>
        <time>2022-09-28T08:44:34.693Z</time>
      </trkpt>
      <trkpt lat="47.12681" lon="16.24741">
        <ele>277.758588</ele>
        <time>2022-09-28T08:44:37.684Z</time>
      </trkpt>
      <trkpt lat="47.12674" lon="16.24757">
        <ele>277.549861</ele>
        <time>2022-09-28T08:44:40.678Z</time>
      </trkpt>
      <trkpt lat="47.12669" lon="16.24768">
        <ele>277.409343</ele>
        <time>2022-09-28T08:44:42.683Z</time>
      </trkpt>
      <trkpt lat="47.12662" lon="16.24784">
        <ele>277.211211</ele>
        <time>2022-09-28T08:44:45.682Z</time>
      </trkpt>
      <trkpt lat="47.12655" lon="16.24798">
        <ele>277.025365</ele>
        <time>2022-09-28T08:44:48.696Z</time>
      </trkpt>
      <trkpt lat="47.12649" lon="16.24814">
        <ele>276.827805</ele>
        <time>2022-09-28T08:44:51.699Z</time>
      </trkpt>
      <trkpt lat="47.12642" lon="16.24829">
        <ele>276.63561</ele>
        <time>2022-09-28T08:44:54.686Z</time>
      </trkpt>
      <trkpt lat="47.12635" lon="16.24845">
        <ele>276.43483</ele>
        <time>2022-09-28T08:44:57.694Z</time>
      </trkpt>
      <trkpt lat="47.12628" lon="16.24862">
        <ele>276.225097</ele>
        <time>2022-09-28T08:45:00.695Z</time>
      </trkpt>
      <trkpt lat="47.12621" lon="16.24878">
        <ele>276.106881</ele>
        <time>2022-09-28T08:45:03.720Z</time>
      </trkpt>
      <trkpt lat="47.12616" lon="16.2489">
        <ele>276.060874</ele>
        <time>2022-09-28T08:45:05.688Z</time>
      </trkpt>
      <trkpt lat="47.12611" lon="16.24902">
        <ele>276.014651</ele>
        <time>2022-09-28T08:45:07.687Z</time>
      </trkpt>
      <trkpt lat="47.12603" lon="16.24918">
        <ele>275.949612</ele>
        <time>2022-09-28T08:45:10.686Z</time>
      </trkpt>
      <trkpt lat="47.12596" lon="16.24934">
        <ele>275.885932</ele>
        <time>2022-09-28T08:45:13.686Z</time>
      </trkpt>
      <trkpt lat="47.12588" lon="16.24949">
        <ele>275.82586</ele>
        <time>2022-09-28T08:45:16.669Z</time>
      </trkpt>
      <trkpt lat="47.1258" lon="16.24961">
        <ele>275.769524</ele>
        <time>2022-09-28T08:45:19.694Z</time>
      </trkpt>
      <trkpt lat="47.12573" lon="16.24977">
        <ele>275.706911</ele>
        <time>2022-09-28T08:45:22.690Z</time>
      </trkpt>
      <trkpt lat="47.12565" lon="16.24992">
        <ele>275.645844</ele>
        <time>2022-09-28T08:45:25.695Z</time>
      </trkpt>
      <trkpt lat="47.12557" lon="16.25007">
        <ele>275.585251</ele>
        <time>2022-09-28T08:45:28.684Z</time>
      </trkpt>
      <trkpt lat="47.12549" lon="16.25021">
        <ele>275.526891</ele>
        <time>2022-09-28T08:45:31.674Z</time>
      </trkpt>
      <trkpt lat="47.12541" lon="16.25036">
        <ele>275.463338</ele>
        <time>2022-09-28T08:45:34.679Z</time>
      </trkpt>
      <trkpt lat="47.12533" lon="16.2505">
        <ele>275.404531</ele>
        <time>2022-09-28T08:45:37.732Z</time>
      </trkpt>
      <trkpt lat="47.12526" lon="16.25064">
        <ele>275.346476</ele>
        <time>2022-09-28T08:45:40.684Z</time>
      </trkpt>
      <trkpt lat="47.12518" lon="16.25079">
        <ele>275.286403</ele>
        <time>2022-09-28T08:45:43.691Z</time>
      </trkpt>
      <trkpt lat="47.1251" lon="16.25092">
        <ele>275.208645</ele>
        <time>2022-09-28T08:45:46.691Z</time>
      </trkpt>
      <trkpt lat="47.12503" lon="16.25106">
        <ele>275.13211</ele>
        <time>2022-09-28T08:45:49.679Z</time>
      </trkpt>
      <trkpt lat="47.12496" lon="16.25119">
        <ele>275.056151</ele>
        <time>2022-09-28T08:45:52.697Z</time>
      </trkpt>
      <trkpt lat="47.12489" lon="16.25133">
        <ele>274.980756</ele>
        <time>2022-09-28T08:45:55.690Z</time>
      </trkpt>
      <trkpt lat="47.12481" lon="16.25146">
        <ele>274.904042</ele>
        <time>2022-09-28T08:45:58.723Z</time>
      </trkpt>
      <trkpt lat="47.12473" lon="16.25161">
        <ele>274.823355</ele>
        <time>2022-09-28T08:46:01.692Z</time>
      </trkpt>
      <trkpt lat="47.12466" lon="16.25174">
        <ele>274.747577</ele>
        <time>2022-09-28T08:46:04.682Z</time>
      </trkpt>
      <trkpt lat="47.12458" lon="16.25187">
        <ele>274.667666</ele>
        <time>2022-09-28T08:46:07.697Z</time>
      </trkpt>
      <trkpt lat="47.1245" lon="16.25201">
        <ele>274.589362</ele>
        <time>2022-09-28T08:46:10.678Z</time>
      </trkpt>
      <trkpt lat="47.12442" lon="16.25213">
        <ele>274.514629</ele>
        <time>2022-09-28T08:46:13.692Z</time>
      </trkpt>
      <trkpt lat="47.12434" lon="16.25227">
        <ele>274.433798</ele>
        <time>2022-09-28T08:46:16.700Z</time>
      </trkpt>
      <trkpt lat="47.12425" lon="16.2524">
        <ele>274.351335</ele>
        <time>2022-09-28T08:46:19.692Z</time>
      </trkpt>
      <trkpt lat="47.12415" lon="16.25253">
        <ele>274.268711</ele>
        <time>2022-09-28T08:46:22.685Z</time>
      </trkpt>
      <trkpt lat="47.12408" lon="16.25266">
        <ele>274.193354</ele>
        <time>2022-09-28T08:46:25.679Z</time>
      </trkpt>
      <trkpt lat="47.12399" lon="16.25279">
        <ele>274.116108</ele>
        <time>2022-09-28T08:46:28.695Z</time>
      </trkpt>
      <trkpt lat="47.12392" lon="16.25292">
        <ele>274.175099</ele>
        <time>2022-09-28T08:46:31.726Z</time>
      </trkpt>
      <trkpt lat="47.12384" lon="16.25306">
        <ele>274.235924</ele>
        <time>2022-09-28T08:46:34.678Z</time>
      </trkpt>
      <trkpt lat="47.12376" lon="16.25319">
        <ele>274.299712</ele>
        <time>2022-09-28T08:46:37.672Z</time>
      </trkpt>
      <trkpt lat="47.12367" lon="16.25329">
        <ele>274.358449</ele>
        <time>2022-09-28T08:46:40.695Z</time>
      </trkpt>
      <trkpt lat="47.12358" lon="16.25339">
        <ele>274.415141</ele>
        <time>2022-09-28T08:46:43.688Z</time>
      </trkpt>
      <trkpt lat="47.12349" lon="16.25347">
        <ele>274.466964</ele>
        <time>2022-09-28T08:46:46.680Z</time>
      </trkpt>
      <trkpt lat="47.12342" lon="16.25358">
        <ele>274.518249</ele>
        <time>2022-09-28T08:46:50.691Z</time>
      </trkpt>
      <trkpt lat="47.12346" lon="16.25372">
        <ele>274.572064</ele>
        <time>2022-09-28T08:46:54.667Z</time>
      </trkpt>
      <trkpt lat="47.12354" lon="16.25384">
        <ele>274.628334</ele>
        <time>2022-09-28T08:46:57.730Z</time>
      </trkpt>
      <trkpt lat="47.12361" lon="16.25395">
        <ele>274.678958</ele>
        <time>2022-09-28T08:47:00.747Z</time>
      </trkpt>
      <trkpt lat="47.12368" lon="16.25408">
        <ele>274.737738</ele>
        <time>2022-09-28T08:47:03.681Z</time>
      </trkpt>
      <trkpt lat="47.12375" lon="16.25423">
        <ele>274.800834</ele>
        <time>2022-09-28T08:47:06.674Z</time>
      </trkpt>
      <trkpt lat="47.12383" lon="16.25438">
        <ele>274.865669</ele>
        <time>2022-09-28T08:47:09.701Z</time>
      </trkpt>
      <trkpt lat="47.1239" lon="16.25453">
        <ele>274.930474</ele>
        <time>2022-09-28T08:47:12.692Z</time>
      </trkpt>
      <trkpt lat="47.12397" lon="16.25469">
        <ele>274.99557</ele>
        <time>2022-09-28T08:47:15.720Z</time>
      </trkpt>
      <trkpt lat="47.12404" lon="16.25484">
        <ele>275.041463</ele>
        <time>2022-09-28T08:47:18.681Z</time>
      </trkpt>
      <trkpt lat="47.12411" lon="16.25501">
        <ele>275.064182</ele>
        <time>2022-09-28T08:47:21.685Z</time>
      </trkpt>
      <trkpt lat="47.12417" lon="16.25517">
        <ele>275.086312</ele>
        <time>2022-09-28T08:47:24.685Z</time>
      </trkpt>
      <trkpt lat="47.12424" lon="16.25532">
        <ele>275.108422</ele>
        <time>2022-09-28T08:47:27.688Z</time>
      </trkpt>
      <trkpt lat="47.12431" lon="16.25548">
        <ele>275.13043</ele>
        <time>2022-09-28T08:47:30.699Z</time>
      </trkpt>
      <trkpt lat="47.12437" lon="16.25565">
        <ele>275.153172</ele>
        <time>2022-09-28T08:47:33.692Z</time>
      </trkpt>
      <trkpt lat="47.12442" lon="16.25583">
        <ele>275.176173</ele>
        <time>2022-09-28T08:47:36.692Z</time>
      </trkpt>
      <trkpt lat="47.12445" lon="16.25595">
        <ele>275.191986</ele>
        <time>2022-09-28T08:47:38.686Z</time>
      </trkpt>
      <trkpt lat="47.12447" lon="16.25608">
        <ele>275.208056</ele>
        <time>2022-09-28T08:47:40.682Z</time>
      </trkpt>
      <trkpt lat="47.12449" lon="16.25621">
        <ele>275.224229</ele>
        <time>2022-09-28T08:47:42.688Z</time>
      </trkpt>
      <trkpt lat="47.1245" lon="16.25635">
        <ele>275.240768</ele>
        <time>2022-09-28T08:47:44.696Z</time>
      </trkpt>
      <trkpt lat="47.1245" lon="16.25655">
        <ele>275.264151</ele>
        <time>2022-09-28T08:47:47.705Z</time>
      </trkpt>
      <trkpt lat="47.1245" lon="16.25668">
        <ele>275.2799</ele>
        <time>2022-09-28T08:47:49.706Z</time>
      </trkpt>
      <trkpt lat="47.12451" lon="16.25687">
        <ele>275.30323</ele>
        <time>2022-09-28T08:47:52.681Z</time>
      </trkpt>
      <trkpt lat="47.12454" lon="16.25706">
        <ele>275.32596</ele>
        <time>2022-09-28T08:47:55.692Z</time>
      </trkpt>
      <trkpt lat="47.12461" lon="16.25722">
        <ele>275.341823</ele>
        <time>2022-09-28T08:47:58.697Z</time>
      </trkpt>
      <trkpt lat="47.12467" lon="16.25732">
        <ele>275.310076</ele>
        <time>2022-09-28T08:48:00.701Z</time>
      </trkpt>
      <trkpt lat="47.12475" lon="16.25746">
        <ele>275.267656</ele>
        <time>2022-09-28T08:48:03.723Z</time>
      </trkpt>
      <trkpt lat="47.12482" lon="16.25756">
        <ele>275.235464</ele>
        <time>2022-09-28T08:48:05.733Z</time>
      </trkpt>
      <trkpt lat="47.12493" lon="16.25766">
        <ele>275.189806</ele>
        <time>2022-09-28T08:48:08.689Z</time>
      </trkpt>
      <trkpt lat="47.12502" lon="16.25771">
        <ele>275.15545</ele>
        <time>2022-09-28T08:48:10.706Z</time>
      </trkpt>
      <trkpt lat="47.12514" lon="16.25774">
        <ele>275.111204</ele>
        <time>2022-09-28T08:48:13.699Z</time>
      </trkpt>
      <trkpt lat="47.12528" lon="16.25774">
        <ele>275.065091</ele>
        <time>2022-09-28T08:48:16.753Z</time>
      </trkpt>
      <trkpt lat="47.1254" lon="16.25772">
        <ele>275.020171</ele>
        <time>2022-09-28T08:48:19.693Z</time>
      </trkpt>
      <trkpt lat="47.12552" lon="16.25769">
        <ele>274.980178</ele>
        <time>2022-09-28T08:48:22.687Z</time>
      </trkpt>
      <trkpt lat="47.12563" lon="16.25769">
        <ele>274.940702</ele>
        <time>2022-09-28T08:48:25.701Z</time>
      </trkpt>
      <trkpt lat="47.12573" lon="16.2577">
        <ele>274.904343</ele>
        <time>2022-09-28T08:48:28.685Z</time>
      </trkpt>
      <trkpt lat="47.12584" lon="16.2577">
        <ele>274.867306</ele>
        <time>2022-09-28T08:48:31.694Z</time>
      </trkpt>
      <trkpt lat="47.12595" lon="16.2577">
        <ele>274.830269</ele>
        <time>2022-09-28T08:48:34.702Z</time>
      </trkpt>
      <trkpt lat="47.12605" lon="16.2577">
        <ele>274.793938</ele>
        <time>2022-09-28T08:48:37.693Z</time>
      </trkpt>
      <trkpt lat="47.12615" lon="16.2577">
        <ele>274.758642</ele>
        <time>2022-09-28T08:48:40.697Z</time>
      </trkpt>
      <trkpt lat="47.12626" lon="16.2577">
        <ele>274.721251</ele>
        <time>2022-09-28T08:48:43.700Z</time>
      </trkpt>
      <trkpt lat="47.12636" lon="16.2577">
        <ele>274.828985</ele>
        <time>2022-09-28T08:48:46.696Z</time>
      </trkpt>
      <trkpt lat="47.12647" lon="16.2577">
        <ele>274.953317</ele>
        <time>2022-09-28T08:48:49.729Z</time>
      </trkpt>
      <trkpt lat="47.12659" lon="16.2577">
        <ele>275.0879</ele>
        <time>2022-09-28T08:48:52.676Z</time>
      </trkpt>
      <trkpt lat="47.1267" lon="16.2577">
        <ele>275.219055</ele>
        <time>2022-09-28T08:48:55.697Z</time>
      </trkpt>
      <trkpt lat="47.12681" lon="16.2577">
        <ele>275.344508</ele>
        <time>2022-09-28T08:48:58.688Z</time>
      </trkpt>
      <trkpt lat="47.12693" lon="16.25769">
        <ele>275.481471</ele>
        <time>2022-09-28T08:49:01.694Z</time>
      </trkpt>
      <trkpt lat="47.12705" lon="16.25769">
        <ele>275.618434</ele>
        <time>2022-09-28T08:49:04.679Z</time>
      </trkpt>
      <trkpt lat="47.12717" lon="16.25769">
        <ele>275.74739</ele>
        <time>2022-09-28T08:49:07.690Z</time>
      </trkpt>
      <trkpt lat="47.12727" lon="16.2577">
        <ele>275.86267</ele>
        <time>2022-09-28T08:49:10.692Z</time>
      </trkpt>
      <trkpt lat="47.12737" lon="16.25771">
        <ele>275.980393</ele>
        <time>2022-09-28T08:49:13.693Z</time>
      </trkpt>
      <trkpt lat="47.12748" lon="16.25771">
        <ele>276.107022</ele>
        <time>2022-09-28T08:49:16.682Z</time>
      </trkpt>
      <trkpt lat="47.12759" lon="16.25771">
        <ele>276.227933</ele>
        <time>2022-09-28T08:49:19.713Z</time>
      </trkpt>
      <trkpt lat="47.12769" lon="16.25771">
        <ele>276.348825</ele>
        <time>2022-09-28T08:49:22.700Z</time>
      </trkpt>
      <trkpt lat="47.12781" lon="16.25769">
        <ele>276.479228</ele>
        <time>2022-09-28T08:49:25.705Z</time>
      </trkpt>
      <trkpt lat="47.12792" lon="16.25768">
        <ele>276.611796</ele>
        <time>2022-09-28T08:49:28.680Z</time>
      </trkpt>
      <trkpt lat="47.12803" lon="16.25768">
        <ele>276.728133</ele>
        <time>2022-09-28T08:49:31.690Z</time>
      </trkpt>
      <trkpt lat="47.12813" lon="16.25769">
        <ele>276.985076</ele>
        <time>2022-09-28T08:49:35.681Z</time>
      </trkpt>
      <trkpt lat="47.12822" lon="16.25768">
        <ele>277.278368</ele>
        <time>2022-09-28T08:49:39.685Z</time>
      </trkpt>
      <trkpt lat="47.12831" lon="16.2577">
        <ele>277.573168</ele>
        <time>2022-09-28T08:49:44.689Z</time>
      </trkpt>
      <trkpt lat="47.12841" lon="16.25771">
        <ele>277.874542</ele>
        <time>2022-09-28T08:49:50.799Z</time>
      </trkpt>
      <trkpt lat="47.1285" lon="16.25774">
        <ele>278.184004</ele>
        <time>2022-09-28T08:49:57.691Z</time>
      </trkpt>
      <trkpt lat="47.12852" lon="16.25788">
        <ele>278.49017</ele>
        <time>2022-09-28T08:50:03.694Z</time>
      </trkpt>
      <trkpt lat="47.12846" lon="16.25799">
        <ele>278.783581</ele>
        <time>2022-09-28T08:50:06.764Z</time>
      </trkpt>
      <trkpt lat="47.1284" lon="16.25811">
        <ele>279.118606</ele>
        <time>2022-09-28T08:50:09.702Z</time>
      </trkpt>
      <trkpt lat="47.12834" lon="16.25827">
        <ele>279.503137</ele>
        <time>2022-09-28T08:50:13.686Z</time>
      </trkpt>
      <trkpt lat="47.12829" lon="16.2584">
        <ele>279.825959</ele>
        <time>2022-09-28T08:50:16.697Z</time>
      </trkpt>
      <trkpt lat="47.12824" lon="16.25853">
        <ele>280.144201</ele>
        <time>2022-09-28T08:50:19.673Z</time>
      </trkpt>
      <trkpt lat="47.12819" lon="16.25866">
        <ele>280.488883</ele>
        <time>2022-09-28T08:50:22.716Z</time>
      </trkpt>
      <trkpt lat="47.12813" lon="16.25881">
        <ele>280.847062</ele>
        <time>2022-09-28T08:50:25.693Z</time>
      </trkpt>
      <trkpt lat="47.12808" lon="16.25895">
        <ele>281.202227</ele>
        <time>2022-09-28T08:50:28.686Z</time>
      </trkpt>
      <trkpt lat="47.12803" lon="16.25909">
        <ele>281.539107</ele>
        <time>2022-09-28T08:50:31.688Z</time>
      </trkpt>
      <trkpt lat="47.12798" lon="16.25923">
        <ele>281.891007</ele>
        <time>2022-09-28T08:50:34.687Z</time>
      </trkpt>
      <trkpt lat="47.12793" lon="16.25938">
        <ele>282.248554</ele>
        <time>2022-09-28T08:50:37.692Z</time>
      </trkpt>
      <trkpt lat="47.12787" lon="16.25955">
        <ele>282.49175</ele>
        <time>2022-09-28T08:50:40.681Z</time>
      </trkpt>
      <trkpt lat="47.12782" lon="16.25971">
        <ele>282.474339</ele>
        <time>2022-09-28T08:50:43.714Z</time>
      </trkpt>
      <trkpt lat="47.12776" lon="16.25986">
        <ele>282.458073</ele>
        <time>2022-09-28T08:50:46.700Z</time>
      </trkpt>
      <trkpt lat="47.1277" lon="16.26002">
        <ele>282.441065</ele>
        <time>2022-09-28T08:50:49.696Z</time>
      </trkpt>
      <trkpt lat="47.12764" lon="16.26018">
        <ele>282.423359</ele>
        <time>2022-09-28T08:50:52.696Z</time>
      </trkpt>
      <trkpt lat="47.12757" lon="16.26033">
        <ele>282.406601</ele>
        <time>2022-09-28T08:50:55.727Z</time>
      </trkpt>
      <trkpt lat="47.1275" lon="16.26048">
        <ele>282.389233</ele>
        <time>2022-09-28T08:50:58.675Z</time>
      </trkpt>
      <trkpt lat="47.12743" lon="16.26064">
        <ele>282.371788</ele>
        <time>2022-09-28T08:51:01.723Z</time>
      </trkpt>
      <trkpt lat="47.12737" lon="16.26079">
        <ele>282.354942</ele>
        <time>2022-09-28T08:51:04.706Z</time>
      </trkpt>
      <trkpt lat="47.1273" lon="16.26095">
        <ele>282.337529</ele>
        <time>2022-09-28T08:51:07.719Z</time>
      </trkpt>
      <trkpt lat="47.12724" lon="16.26112">
        <ele>282.319115</ele>
        <time>2022-09-28T08:51:10.718Z</time>
      </trkpt>
      <trkpt lat="47.12718" lon="16.26129">
        <ele>282.301325</ele>
        <time>2022-09-28T08:51:13.725Z</time>
      </trkpt>
      <trkpt lat="47.12711" lon="16.26145">
        <ele>282.283038</ele>
        <time>2022-09-28T08:51:16.687Z</time>
      </trkpt>
      <trkpt lat="47.12707" lon="16.26158">
        <ele>282.269883</ele>
        <time>2022-09-28T08:51:18.686Z</time>
      </trkpt>
      <trkpt lat="47.12704" lon="16.26172">
        <ele>282.255969</ele>
        <time>2022-09-28T08:51:20.680Z</time>
      </trkpt>
      <trkpt lat="47.12698" lon="16.26189">
        <ele>282.302464</ele>
        <time>2022-09-28T08:51:23.700Z</time>
      </trkpt>
      <trkpt lat="47.12691" lon="16.26205">
        <ele>282.394015</ele>
        <time>2022-09-28T08:51:26.694Z</time>
      </trkpt>
      <trkpt lat="47.12684" lon="16.26223">
        <ele>282.490822</ele>
        <time>2022-09-28T08:51:29.780Z</time>
      </trkpt>
      <trkpt lat="47.12679" lon="16.26235">
        <ele>282.555577</ele>
        <time>2022-09-28T08:51:31.739Z</time>
      </trkpt>
      <trkpt lat="47.12675" lon="16.26247">
        <ele>282.619424</ele>
        <time>2022-09-28T08:51:33.690Z</time>
      </trkpt>
      <trkpt lat="47.1267" lon="16.26259">
        <ele>282.688383</ele>
        <time>2022-09-28T08:51:35.736Z</time>
      </trkpt>
      <trkpt lat="47.12665" lon="16.26271">
        <ele>282.753386</ele>
        <time>2022-09-28T08:51:37.692Z</time>
      </trkpt>
      <trkpt lat="47.12662" lon="16.26289">
        <ele>282.843208</ele>
        <time>2022-09-28T08:51:40.684Z</time>
      </trkpt>
      <trkpt lat="47.12672" lon="16.26303">
        <ele>282.93361</ele>
        <time>2022-09-28T08:51:43.693Z</time>
      </trkpt>
      <trkpt lat="47.12682" lon="16.26315">
        <ele>283.028884</ele>
        <time>2022-09-28T08:51:46.808Z</time>
      </trkpt>
      <trkpt lat="47.12687" lon="16.26326">
        <ele>283.09124</ele>
        <time>2022-09-28T08:51:48.701Z</time>
      </trkpt>
      <trkpt lat="47.12688" lon="16.2634">
        <ele>283.155655</ele>
        <time>2022-09-28T08:51:50.680Z</time>
      </trkpt>
      <trkpt lat="47.12688" lon="16.26354">
        <ele>283.222366</ele>
        <time>2022-09-28T08:51:52.671Z</time>
      </trkpt>
      <trkpt lat="47.12688" lon="16.26368">
        <ele>283.290152</ele>
        <time>2022-09-28T08:51:54.688Z</time>
      </trkpt>
      <trkpt lat="47.12686" lon="16.26382">
        <ele>283.355974</ele>
        <time>2022-09-28T08:51:56.700Z</time>
      </trkpt>
      <trkpt lat="47.12687" lon="16.26396">
        <ele>283.421754</ele>
        <time>2022-09-28T08:51:58.687Z</time>
      </trkpt>
      <trkpt lat="47.12688" lon="16.26409">
        <ele>283.484204</ele>
        <time>2022-09-28T08:52:00.675Z</time>
      </trkpt>
      <trkpt lat="47.12689" lon="16.26423">
        <ele>283.537901</ele>
        <time>2022-09-28T08:52:02.697Z</time>
      </trkpt>
      <trkpt lat="47.12691" lon="16.26437">
        <ele>283.587332</ele>
        <time>2022-09-28T08:52:04.693Z</time>
      </trkpt>
      <trkpt lat="47.12694" lon="16.26451">
        <ele>283.637669</ele>
        <time>2022-09-28T08:52:06.702Z</time>
      </trkpt>
      <trkpt lat="47.12697" lon="16.26465">
        <ele>283.688779</ele>
        <time>2022-09-28T08:52:08.733Z</time>
      </trkpt>
      <trkpt lat="47.12701" lon="16.26479">
        <ele>283.739695</ele>
        <time>2022-09-28T08:52:10.706Z</time>
      </trkpt>
      <trkpt lat="47.12705" lon="16.26492">
        <ele>283.791976</ele>
        <time>2022-09-28T08:52:12.697Z</time>
      </trkpt>
      <trkpt lat="47.1271" lon="16.26505">
        <ele>283.843697</ele>
        <time>2022-09-28T08:52:14.667Z</time>
      </trkpt>
      <trkpt lat="47.12714" lon="16.26518">
        <ele>283.894567</ele>
        <time>2022-09-28T08:52:16.700Z</time>
      </trkpt>
      <trkpt lat="47.1272" lon="16.26531">
        <ele>283.946025</ele>
        <time>2022-09-28T08:52:18.694Z</time>
      </trkpt>
      <trkpt lat="47.12725" lon="16.26544">
        <ele>283.996107</ele>
        <time>2022-09-28T08:52:20.700Z</time>
      </trkpt>
      <trkpt lat="47.12729" lon="16.26557">
        <ele>284.045977</ele>
        <time>2022-09-28T08:52:22.705Z</time>
      </trkpt>
      <trkpt lat="47.12733" lon="16.26569">
        <ele>284.094033</ele>
        <time>2022-09-28T08:52:24.691Z</time>
      </trkpt>
      <trkpt lat="47.12737" lon="16.26581">
        <ele>284.142404</ele>
        <time>2022-09-28T08:52:26.687Z</time>
      </trkpt>
      <trkpt lat="47.12742" lon="16.26593">
        <ele>284.190103</ele>
        <time>2022-09-28T08:52:28.694Z</time>
      </trkpt>
      <trkpt lat="47.12745" lon="16.26606">
        <ele>284.236708</ele>
        <time>2022-09-28T08:52:30.689Z</time>
      </trkpt>
      <trkpt lat="47.12748" lon="16.26621">
        <ele>284.292277</ele>
        <time>2022-09-28T08:52:33.681Z</time>
      </trkpt>
      <trkpt lat="47.12751" lon="16.26635">
        <ele>284.340927</ele>
        <time>2022-09-28T08:52:36.700Z</time>
      </trkpt>
      <trkpt lat="47.12753" lon="16.26652">
        <ele>284.400862</ele>
        <time>2022-09-28T08:52:40.705Z</time>
      </trkpt>
      <trkpt lat="47.12755" lon="16.26667">
        <ele>285.051233</ele>
        <time>2022-09-28T08:52:44.681Z</time>
      </trkpt>
      <trkpt lat="47.12757" lon="16.26682">
        <ele>285.93005</ele>
        <time>2022-09-28T08:52:49.691Z</time>
      </trkpt>
      <trkpt lat="47.12759" lon="16.26696">
        <ele>286.740701</ele>
        <time>2022-09-28T08:52:54.689Z</time>
      </trkpt>
      <trkpt lat="47.1276" lon="16.2671">
        <ele>287.554301</ele>
        <time>2022-09-28T08:52:59.685Z</time>
      </trkpt>
      <trkpt lat="47.12761" lon="16.26724">
        <ele>288.328942</ele>
        <time>2022-09-28T08:53:04.726Z</time>
      </trkpt>
      <trkpt lat="47.12761" lon="16.26738">
        <ele>289.143021</ele>
        <time>2022-09-28T08:53:10.692Z</time>
      </trkpt>
      <trkpt lat="47.1276" lon="16.26751">
        <ele>289.930318</ele>
        <time>2022-09-28T08:53:16.695Z</time>
      </trkpt>
      <trkpt lat="47.12759" lon="16.26765">
        <ele>290.711096</ele>
        <time>2022-09-28T08:53:22.693Z</time>
      </trkpt>
      <trkpt lat="47.12758" lon="16.2678">
        <ele>291.579046</ele>
        <time>2022-09-28T08:53:29.700Z</time>
      </trkpt>
      <trkpt lat="47.12754" lon="16.26794">
        <ele>292.436615</ele>
        <time>2022-09-28T08:53:36.719Z</time>
      </trkpt>
      <trkpt lat="47.12752" lon="16.26808">
        <ele>293.27408</ele>
        <time>2022-09-28T08:53:44.676Z</time>
      </trkpt>
      <trkpt lat="47.12748" lon="16.26822">
        <ele>294.118192</ele>
        <time>2022-09-28T08:53:54.692Z</time>
      </trkpt>
      <trkpt lat="47.12744" lon="16.26835">
        <ele>294.94722</ele>
        <time>2022-09-28T08:54:04.776Z</time>
      </trkpt>
      <trkpt lat="47.1274" lon="16.26848">
        <ele>295.780834</ele>
        <time>2022-09-28T08:54:11.685Z</time>
      </trkpt>
      <trkpt lat="47.12736" lon="16.26862">
        <ele>296.602497</ele>
        <time>2022-09-28T08:54:20.680Z</time>
      </trkpt>
      <trkpt lat="47.12735" lon="16.26876">
        <ele>297.438937</ele>
        <time>2022-09-28T08:54:27.705Z</time>
      </trkpt>
      <trkpt lat="47.12738" lon="16.26889">
        <ele>298.245118</ele>
        <time>2022-09-28T08:54:32.693Z</time>
      </trkpt>
      <trkpt lat="47.12744" lon="16.26901">
        <ele>299.093528</ele>
        <time>2022-09-28T08:54:37.722Z</time>
      </trkpt>
      <trkpt lat="47.1275" lon="16.26913">
        <ele>299.590277</ele>
        <time>2022-09-28T08:54:43.702Z</time>
      </trkpt>
      <trkpt lat="47.12755" lon="16.26926">
        <ele>299.626857</ele>
        <time>2022-09-28T08:54:47.689Z</time>
      </trkpt>
      <trkpt lat="47.12762" lon="16.26936">
        <ele>299.664429</ele>
        <time>2022-09-28T08:54:51.687Z</time>
      </trkpt>
      <trkpt lat="47.12769" lon="16.26945">
        <ele>299.699084</ele>
        <time>2022-09-28T08:54:55.731Z</time>
      </trkpt>
      <trkpt lat="47.12776" lon="16.26957">
        <ele>299.738998</ele>
        <time>2022-09-28T08:54:59.721Z</time>
      </trkpt>
      <trkpt lat="47.12782" lon="16.26968">
        <ele>299.776423</ele>
        <time>2022-09-28T08:55:02.693Z</time>
      </trkpt>
      <trkpt lat="47.12787" lon="16.2698">
        <ele>299.813375</ele>
        <time>2022-09-28T08:55:05.684Z</time>
      </trkpt>
      <trkpt lat="47.12793" lon="16.26995">
        <ele>299.8557</ele>
        <time>2022-09-28T08:55:09.687Z</time>
      </trkpt>
      <trkpt lat="47.12798" lon="16.27009">
        <ele>299.898488</ele>
        <time>2022-09-28T08:55:13.721Z</time>
      </trkpt>
      <trkpt lat="47.12805" lon="16.27024">
        <ele>299.944362</ele>
        <time>2022-09-28T08:55:17.692Z</time>
      </trkpt>
      <trkpt lat="47.12812" lon="16.27035">
        <ele>299.983168</ele>
        <time>2022-09-28T08:55:20.713Z</time>
      </trkpt>
      <trkpt lat="47.12819" lon="16.27046">
        <ele>300.021595</ele>
        <time>2022-09-28T08:55:23.671Z</time>
      </trkpt>
      <trkpt lat="47.12827" lon="16.27057">
        <ele>300.061597</ele>
        <time>2022-09-28T08:55:26.683Z</time>
      </trkpt>
      <trkpt lat="47.12835" lon="16.27066">
        <ele>300.100853</ele>
        <time>2022-09-28T08:55:29.688Z</time>
      </trkpt>
      <trkpt lat="47.12844" lon="16.27073">
        <ele>300.13805</ele>
        <time>2022-09-28T08:55:32.708Z</time>
      </trkpt>
      <trkpt lat="47.12853" lon="16.27079">
        <ele>300.175597</ele>
        <time>2022-09-28T08:55:35.678Z</time>
      </trkpt>
      <trkpt lat="47.12864" lon="16.27082">
        <ele>300.219458</ele>
        <time>2022-09-28T08:55:39.709Z</time>
      </trkpt>
      <trkpt lat="47.12876" lon="16.27085">
        <ele>300.299917</ele>
        <time>2022-09-28T08:55:43.691Z</time>
      </trkpt>
      <trkpt lat="47.12885" lon="16.27086">
        <ele>300.431416</ele>
        <time>2022-09-28T08:55:46.699Z</time>
      </trkpt>
      <trkpt lat="47.12894" lon="16.27088">
        <ele>300.564171</ele>
        <time>2022-09-28T08:55:49.702Z</time>
      </trkpt>
      <trkpt lat="47.12904" lon="16.27091">
        <ele>300.706979</ele>
        <time>2022-09-28T08:55:52.699Z</time>
      </trkpt>
      <trkpt lat="47.12915" lon="16.27093">
        <ele>300.859417</ele>
        <time>2022-09-28T08:55:55.719Z</time>
      </trkpt>
      <trkpt lat="47.12925" lon="16.27095">
        <ele>301.005764</ele>
        <time>2022-09-28T08:55:58.722Z</time>
      </trkpt>
      <trkpt lat="47.12936" lon="16.27096">
        <ele>301.150396</ele>
        <time>2022-09-28T08:56:01.695Z</time>
      </trkpt>
      <trkpt lat="47.12945" lon="16.27098">
        <ele>301.289515</ele>
        <time>2022-09-28T08:56:04.690Z</time>
      </trkpt>
      <trkpt lat="47.12955" lon="16.27099">
        <ele>301.425238</ele>
        <time>2022-09-28T08:56:07.680Z</time>
      </trkpt>
      <trkpt lat="47.12965" lon="16.271">
        <ele>301.562755</ele>
        <time>2022-09-28T08:56:10.676Z</time>
      </trkpt>
      <trkpt lat="47.12976" lon="16.27103">
        <ele>301.728312</ele>
        <time>2022-09-28T08:56:14.677Z</time>
      </trkpt>
      <trkpt lat="47.12987" lon="16.27104">
        <ele>301.874256</ele>
        <time>2022-09-28T08:56:18.757Z</time>
      </trkpt>
      <trkpt lat="47.12997" lon="16.27106">
        <ele>302.020972</ele>
        <time>2022-09-28T08:56:23.672Z</time>
      </trkpt>
      <trkpt lat="47.13006" lon="16.27108">
        <ele>302.148663</ele>
        <time>2022-09-28T08:56:27.710Z</time>
      </trkpt>
      <trkpt lat="47.13016" lon="16.27108">
        <ele>302.284328</ele>
        <time>2022-09-28T08:56:32.685Z</time>
      </trkpt>
      <trkpt lat="47.13025" lon="16.27109">
        <ele>302.418419</ele>
        <time>2022-09-28T08:56:37.727Z</time>
      </trkpt>
      <trkpt lat="47.13034" lon="16.27108">
        <ele>302.545492</ele>
        <time>2022-09-28T08:56:43.695Z</time>
      </trkpt>
      <trkpt lat="47.13044" lon="16.2711">
        <ele>302.68872</ele>
        <time>2022-09-28T08:56:48.708Z</time>
      </trkpt>
      <trkpt lat="47.13053" lon="16.27109">
        <ele>302.807338</ele>
        <time>2022-09-28T08:56:52.702Z</time>
      </trkpt>
      <trkpt lat="47.13063" lon="16.27111">
        <ele>302.887583</ele>
        <time>2022-09-28T08:56:56.712Z</time>
      </trkpt>
      <trkpt lat="47.13073" lon="16.27111">
        <ele>302.974591</ele>
        <time>2022-09-28T08:57:01.694Z</time>
      </trkpt>
      <trkpt lat="47.13082" lon="16.27112">
        <ele>303.05465</ele>
        <time>2022-09-28T08:57:06.701Z</time>
      </trkpt>
      <trkpt lat="47.13092" lon="16.27114">
        <ele>303.148497</ele>
        <time>2022-09-28T08:57:12.698Z</time>
      </trkpt>
      <trkpt lat="47.13102" lon="16.27116">
        <ele>303.229626</ele>
        <time>2022-09-28T08:57:18.676Z</time>
      </trkpt>
      <trkpt lat="47.13111" lon="16.27115">
        <ele>303.311653</ele>
        <time>2022-09-28T08:57:23.665Z</time>
      </trkpt>
      <trkpt lat="47.13122" lon="16.27116">
        <ele>303.407693</ele>
        <time>2022-09-28T08:57:28.688Z</time>
      </trkpt>
      <trkpt lat="47.13133" lon="16.27118">
        <ele>303.504051</ele>
        <time>2022-09-28T08:57:34.704Z</time>
      </trkpt>
      <trkpt lat="47.13143" lon="16.2712">
        <ele>303.589543</ele>
        <time>2022-09-28T08:57:39.691Z</time>
      </trkpt>
      <trkpt lat="47.13153" lon="16.27121">
        <ele>303.681884</ele>
        <time>2022-09-28T08:57:45.687Z</time>
      </trkpt>
      <trkpt lat="47.13165" lon="16.27121">
        <ele>303.781946</ele>
        <time>2022-09-28T08:57:50.686Z</time>
      </trkpt>
      <trkpt lat="47.13174" lon="16.27123">
        <ele>303.864892</ele>
        <time>2022-09-28T08:57:54.697Z</time>
      </trkpt>
      <trkpt lat="47.13185" lon="16.27123">
        <ele>303.956205</ele>
        <time>2022-09-28T08:57:58.690Z</time>
      </trkpt>
      <trkpt lat="47.13196" lon="16.27124">
        <ele>304.055454</ele>
        <time>2022-09-28T08:58:02.673Z</time>
      </trkpt>
      <trkpt lat="47.13206" lon="16.27126">
        <ele>304.137165</ele>
        <time>2022-09-28T08:58:05.690Z</time>
      </trkpt>
      <trkpt lat="47.13216" lon="16.27126">
        <ele>304.225871</ele>
        <time>2022-09-28T08:58:08.686Z</time>
      </trkpt>
      <trkpt lat="47.13225" lon="16.27127">
        <ele>304.30607</ele>
        <time>2022-09-28T08:58:11.680Z</time>
      </trkpt>
      <trkpt lat="47.13236" lon="16.27128">
        <ele>304.377187</ele>
        <time>2022-09-28T08:58:15.722Z</time>
      </trkpt>
      <trkpt lat="47.13248" lon="16.27129">
        <ele>304.431167</ele>
        <time>2022-09-28T08:58:19.697Z</time>
      </trkpt>
      <trkpt lat="47.13257" lon="16.27129">
        <ele>304.474995</ele>
        <time>2022-09-28T08:58:22.685Z</time>
      </trkpt>
      <trkpt lat="47.13269" lon="16.27129">
        <ele>304.52927</ele>
        <time>2022-09-28T08:58:26.682Z</time>
      </trkpt>
      <trkpt lat="47.13279" lon="16.2713">
        <ele>304.575883</ele>
        <time>2022-09-28T08:58:29.687Z</time>
      </trkpt>
      <trkpt lat="47.1329" lon="16.27131">
        <ele>304.625609</ele>
        <time>2022-09-28T08:58:32.756Z</time>
      </trkpt>
      <trkpt lat="47.13302" lon="16.2713">
        <ele>304.678047</ele>
        <time>2022-09-28T08:58:35.688Z</time>
      </trkpt>
      <trkpt lat="47.13314" lon="16.2713">
        <ele>304.732317</ele>
        <time>2022-09-28T08:58:38.686Z</time>
      </trkpt>
      <trkpt lat="47.13325" lon="16.27131">
        <ele>304.786144</ele>
        <time>2022-09-28T08:58:41.686Z</time>
      </trkpt>
      <trkpt lat="47.13338" lon="16.27131">
        <ele>304.842686</ele>
        <time>2022-09-28T08:58:44.704Z</time>
      </trkpt>
      <trkpt lat="47.1335" lon="16.27131">
        <ele>304.899228</ele>
        <time>2022-09-28T08:58:47.707Z</time>
      </trkpt>
      <trkpt lat="47.13363" lon="16.2713">
        <ele>304.957158</ele>
        <time>2022-09-28T08:58:50.710Z</time>
      </trkpt>
      <trkpt lat="47.13375" lon="16.27129">
        <ele>305.014371</ele>
        <time>2022-09-28T08:58:53.722Z</time>
      </trkpt>
      <trkpt lat="47.13388" lon="16.27129">
        <ele>305.071845</ele>
        <time>2022-09-28T08:58:56.671Z</time>
      </trkpt>
      <trkpt lat="47.13401" lon="16.27129">
        <ele>305.130686</ele>
        <time>2022-09-28T08:58:59.686Z</time>
      </trkpt>
      <trkpt lat="47.13413" lon="16.27128">
        <ele>305.103309</ele>
        <time>2022-09-28T08:59:02.700Z</time>
      </trkpt>
      <trkpt lat="47.13425" lon="16.27128">
        <ele>304.747404</ele>
        <time>2022-09-28T08:59:05.721Z</time>
      </trkpt>
      <trkpt lat="47.13437" lon="16.27128">
        <ele>304.427614</ele>
        <time>2022-09-28T08:59:08.689Z</time>
      </trkpt>
      <trkpt lat="47.13449" lon="16.27129">
        <ele>304.082105</ele>
        <time>2022-09-28T08:59:11.689Z</time>
      </trkpt>
      <trkpt lat="47.13461" lon="16.2713">
        <ele>303.745423</ele>
        <time>2022-09-28T08:59:14.690Z</time>
      </trkpt>
      <trkpt lat="47.13474" lon="16.27132">
        <ele>303.40175</ele>
        <time>2022-09-28T08:59:17.708Z</time>
      </trkpt>
      <trkpt lat="47.13486" lon="16.27133">
        <ele>303.058431</ele>
        <time>2022-09-28T08:59:20.704Z</time>
      </trkpt>
      <trkpt lat="47.13498" lon="16.27136">
        <ele>302.715683</ele>
        <time>2022-09-28T08:59:23.705Z</time>
      </trkpt>
      <trkpt lat="47.1351" lon="16.27139">
        <ele>302.383355</ele>
        <time>2022-09-28T08:59:26.691Z</time>
      </trkpt>
      <trkpt lat="47.13521" lon="16.27142">
        <ele>302.069564</ele>
        <time>2022-09-28T08:59:29.685Z</time>
      </trkpt>
      <trkpt lat="47.13533" lon="16.27146">
        <ele>301.72555</ele>
        <time>2022-09-28T08:59:32.688Z</time>
      </trkpt>
      <trkpt lat="47.13542" lon="16.27148">
        <ele>301.471566</ele>
        <time>2022-09-28T08:59:34.706Z</time>
      </trkpt>
      <trkpt lat="47.13555" lon="16.27152">
        <ele>301.111594</ele>
        <time>2022-09-28T08:59:37.700Z</time>
      </trkpt>
      <trkpt lat="47.13567" lon="16.27156">
        <ele>300.75918</ele>
        <time>2022-09-28T08:59:40.694Z</time>
      </trkpt>
      <trkpt lat="47.13577" lon="16.2716">
        <ele>300.490805</ele>
        <time>2022-09-28T08:59:42.679Z</time>
      </trkpt>
      <trkpt lat="47.13586" lon="16.27164">
        <ele>300.211699</ele>
        <time>2022-09-28T08:59:44.692Z</time>
      </trkpt>
      <trkpt lat="47.13598" lon="16.2717">
        <ele>299.980189</ele>
        <time>2022-09-28T08:59:47.695Z</time>
      </trkpt>
      <trkpt lat="47.13608" lon="16.27173">
        <ele>299.809047</ele>
        <time>2022-09-28T08:59:49.722Z</time>
      </trkpt>
      <trkpt lat="47.13618" lon="16.27176">
        <ele>299.628634</ele>
        <time>2022-09-28T08:59:51.686Z</time>
      </trkpt>
      <trkpt lat="47.13629" lon="16.2718">
        <ele>299.436154</ele>
        <time>2022-09-28T08:59:53.777Z</time>
      </trkpt>
      <trkpt lat="47.1364" lon="16.27183">
        <ele>299.23567</ele>
        <time>2022-09-28T08:59:55.718Z</time>
      </trkpt>
      <trkpt lat="47.13652" lon="16.27186">
        <ele>299.027957</ele>
        <time>2022-09-28T08:59:57.691Z</time>
      </trkpt>
      <trkpt lat="47.13664" lon="16.2719">
        <ele>298.814702</ele>
        <time>2022-09-28T08:59:59.676Z</time>
      </trkpt>
      <trkpt lat="47.13677" lon="16.27195">
        <ele>298.582044</ele>
        <time>2022-09-28T09:00:01.692Z</time>
      </trkpt>
      <trkpt lat="47.13691" lon="16.272">
        <ele>298.339299</ele>
        <time>2022-09-28T09:00:03.688Z</time>
      </trkpt>
      <trkpt lat="47.13705" lon="16.27205">
        <ele>298.092105</ele>
        <time>2022-09-28T09:00:05.686Z</time>
      </trkpt>
      <trkpt lat="47.13719" lon="16.2721">
        <ele>297.846304</ele>
        <time>2022-09-28T09:00:07.684Z</time>
      </trkpt>
      <trkpt lat="47.13732" lon="16.27215">
        <ele>297.611909</ele>
        <time>2022-09-28T09:00:09.749Z</time>
      </trkpt>
      <trkpt lat="47.13743" lon="16.27221">
        <ele>297.396982</ele>
        <time>2022-09-28T09:00:11.756Z</time>
      </trkpt>
      <trkpt lat="47.13757" lon="16.27225">
        <ele>297.165118</ele>
        <time>2022-09-28T09:00:13.729Z</time>
      </trkpt>
      <trkpt lat="47.13771" lon="16.27232">
        <ele>297.217292</ele>
        <time>2022-09-28T09:00:15.692Z</time>
      </trkpt>
      <trkpt lat="47.13785" lon="16.27237">
        <ele>297.470934</ele>
        <time>2022-09-28T09:00:17.722Z</time>
      </trkpt>
      <trkpt lat="47.13801" lon="16.27232">
        <ele>297.749756</ele>
        <time>2022-09-28T09:00:19.739Z</time>
      </trkpt>
      <trkpt lat="47.13814" lon="16.27222">
        <ele>297.990873</ele>
        <time>2022-09-28T09:00:21.724Z</time>
      </trkpt>
      <trkpt lat="47.13826" lon="16.27218">
        <ele>298.20545</ele>
        <time>2022-09-28T09:00:23.735Z</time>
      </trkpt>
      <trkpt lat="47.13838" lon="16.27218">
        <ele>298.397945</ele>
        <time>2022-09-28T09:00:25.698Z</time>
      </trkpt>
      <trkpt lat="47.13846" lon="16.27223">
        <ele>298.555129</ele>
        <time>2022-09-28T09:00:27.724Z</time>
      </trkpt>
      <trkpt lat="47.13853" lon="16.27234">
        <ele>298.724806</ele>
        <time>2022-09-28T09:00:29.728Z</time>
      </trkpt>
      <trkpt lat="47.13854" lon="16.27247">
        <ele>298.878897</ele>
        <time>2022-09-28T09:00:31.695Z</time>
      </trkpt>
      <trkpt lat="47.13857" lon="16.27266">
        <ele>299.095447</ele>
        <time>2022-09-28T09:00:34.696Z</time>
      </trkpt>
      <trkpt lat="47.13862" lon="16.27277">
        <ele>299.254054</ele>
        <time>2022-09-28T09:00:36.713Z</time>
      </trkpt>
      <trkpt lat="47.1387" lon="16.27288">
        <ele>299.432121</ele>
        <time>2022-09-28T09:00:38.706Z</time>
      </trkpt>
      <trkpt lat="47.1388" lon="16.27297">
        <ele>299.626012</ele>
        <time>2022-09-28T09:00:40.694Z</time>
      </trkpt>
      <trkpt lat="47.1389" lon="16.27304">
        <ele>299.821152</ele>
        <time>2022-09-28T09:00:42.667Z</time>
      </trkpt>
      <trkpt lat="47.13902" lon="16.27311">
        <ele>300.033751</ele>
        <time>2022-09-28T09:00:44.689Z</time>
      </trkpt>
      <trkpt lat="47.13915" lon="16.27319">
        <ele>299.677745</ele>
        <time>2022-09-28T09:00:46.732Z</time>
      </trkpt>
      <trkpt lat="47.1393" lon="16.2733">
        <ele>299.004354</ele>
        <time>2022-09-28T09:00:48.693Z</time>
      </trkpt>
      <trkpt lat="47.13946" lon="16.27341">
        <ele>298.277797</ele>
        <time>2022-09-28T09:00:50.700Z</time>
      </trkpt>
      <trkpt lat="47.13961" lon="16.27352">
        <ele>297.557444</ele>
        <time>2022-09-28T09:00:52.697Z</time>
      </trkpt>
      <trkpt lat="47.13976" lon="16.27363">
        <ele>296.861825</ele>
        <time>2022-09-28T09:00:54.678Z</time>
      </trkpt>
      <trkpt lat="47.13992" lon="16.27374">
        <ele>296.156314</ele>
        <time>2022-09-28T09:00:56.697Z</time>
      </trkpt>
      <trkpt lat="47.14007" lon="16.27386">
        <ele>295.44091</ele>
        <time>2022-09-28T09:00:58.693Z</time>
      </trkpt>
      <trkpt lat="47.14022" lon="16.27398">
        <ele>294.732691</ele>
        <time>2022-09-28T09:01:00.697Z</time>
      </trkpt>
      <trkpt lat="47.14037" lon="16.2741">
        <ele>294.025329</ele>
        <time>2022-09-28T09:01:02.702Z</time>
      </trkpt>
      <trkpt lat="47.14052" lon="16.27425">
        <ele>293.304872</ele>
        <time>2022-09-28T09:01:04.687Z</time>
      </trkpt>
      <trkpt lat="47.14066" lon="16.27441">
        <ele>292.635357</ele>
        <time>2022-09-28T09:01:06.677Z</time>
      </trkpt>
      <trkpt lat="47.14078" lon="16.27458">
        <ele>292.362707</ele>
        <time>2022-09-28T09:01:08.722Z</time>
      </trkpt>
      <trkpt lat="47.1409" lon="16.27476">
        <ele>292.088894</ele>
        <time>2022-09-28T09:01:10.701Z</time>
      </trkpt>
      <trkpt lat="47.14102" lon="16.27494">
        <ele>291.823315</ele>
        <time>2022-09-28T09:01:12.698Z</time>
      </trkpt>
      <trkpt lat="47.14113" lon="16.27511">
        <ele>291.561633</ele>
        <time>2022-09-28T09:01:14.693Z</time>
      </trkpt>
      <trkpt lat="47.14124" lon="16.27528">
        <ele>291.302805</ele>
        <time>2022-09-28T09:01:16.697Z</time>
      </trkpt>
      <trkpt lat="47.14135" lon="16.27545">
        <ele>291.050113</ele>
        <time>2022-09-28T09:01:18.701Z</time>
      </trkpt>
      <trkpt lat="47.14145" lon="16.27562">
        <ele>290.809801</ele>
        <time>2022-09-28T09:01:20.685Z</time>
      </trkpt>
      <trkpt lat="47.14155" lon="16.27578">
        <ele>290.577499</ele>
        <time>2022-09-28T09:01:22.699Z</time>
      </trkpt>
      <trkpt lat="47.14164" lon="16.27593">
        <ele>290.354822</ele>
        <time>2022-09-28T09:01:24.680Z</time>
      </trkpt>
      <trkpt lat="47.14174" lon="16.27607">
        <ele>290.140763</ele>
        <time>2022-09-28T09:01:26.700Z</time>
      </trkpt>
      <trkpt lat="47.14183" lon="16.27623">
        <ele>289.918379</ele>
        <time>2022-09-28T09:01:28.688Z</time>
      </trkpt>
      <trkpt lat="47.14192" lon="16.27636">
        <ele>289.952534</ele>
        <time>2022-09-28T09:01:30.732Z</time>
      </trkpt>
      <trkpt lat="47.14201" lon="16.2765">
        <ele>290.231382</ele>
        <time>2022-09-28T09:01:32.697Z</time>
      </trkpt>
      <trkpt lat="47.14209" lon="16.27661">
        <ele>290.475735</ele>
        <time>2022-09-28T09:01:34.705Z</time>
      </trkpt>
      <trkpt lat="47.14216" lon="16.27672">
        <ele>290.708205</ele>
        <time>2022-09-28T09:01:36.697Z</time>
      </trkpt>
      <trkpt lat="47.14222" lon="16.27683">
        <ele>290.922065</ele>
        <time>2022-09-28T09:01:38.687Z</time>
      </trkpt>
      <trkpt lat="47.14229" lon="16.27693">
        <ele>291.132884</ele>
        <time>2022-09-28T09:01:40.696Z</time>
      </trkpt>
      <trkpt lat="47.14237" lon="16.27707">
        <ele>291.409772</ele>
        <time>2022-09-28T09:01:43.696Z</time>
      </trkpt>
      <trkpt lat="47.14245" lon="16.27719">
        <ele>291.662387</ele>
        <time>2022-09-28T09:01:46.698Z</time>
      </trkpt>
      <trkpt lat="47.14253" lon="16.27733">
        <ele>291.941492</ele>
        <time>2022-09-28T09:01:49.682Z</time>
      </trkpt>
      <trkpt lat="47.14262" lon="16.27747">
        <ele>292.222139</ele>
        <time>2022-09-28T09:01:52.698Z</time>
      </trkpt>
      <trkpt lat="47.1427" lon="16.27759">
        <ele>292.47977</ele>
        <time>2022-09-28T09:01:55.694Z</time>
      </trkpt>
      <trkpt lat="47.14278" lon="16.27771">
        <ele>292.74267</ele>
        <time>2022-09-28T09:01:58.722Z</time>
      </trkpt>
      <trkpt lat="47.14287" lon="16.27784">
        <ele>293.014048</ele>
        <time>2022-09-28T09:02:01.694Z</time>
      </trkpt>
      <trkpt lat="47.14296" lon="16.27796">
        <ele>293.282341</ele>
        <time>2022-09-28T09:02:04.691Z</time>
      </trkpt>
      <trkpt lat="47.14305" lon="16.27807">
        <ele>293.553065</ele>
        <time>2022-09-28T09:02:07.701Z</time>
      </trkpt>
      <trkpt lat="47.14316" lon="16.27818">
        <ele>293.820188</ele>
        <time>2022-09-28T09:02:10.698Z</time>
      </trkpt>
      <trkpt lat="47.14324" lon="16.27825">
        <ele>293.900074</ele>
        <time>2022-09-28T09:02:12.681Z</time>
      </trkpt>
      <trkpt lat="47.14335" lon="16.27836">
        <ele>294.017597</ele>
        <time>2022-09-28T09:02:15.692Z</time>
      </trkpt>
      <trkpt lat="47.14343" lon="16.27843">
        <ele>294.0999</ele>
        <time>2022-09-28T09:02:17.685Z</time>
      </trkpt>
      <trkpt lat="47.14351" lon="16.2785">
        <ele>294.182074</ele>
        <time>2022-09-28T09:02:19.710Z</time>
      </trkpt>
      <trkpt lat="47.14359" lon="16.27858">
        <ele>294.261236</ele>
        <time>2022-09-28T09:02:21.697Z</time>
      </trkpt>
      <trkpt lat="47.1437" lon="16.27867">
        <ele>294.37379</ele>
        <time>2022-09-28T09:02:24.683Z</time>
      </trkpt>
      <trkpt lat="47.14381" lon="16.27875">
        <ele>294.479933</ele>
        <time>2022-09-28T09:02:27.693Z</time>
      </trkpt>
      <trkpt lat="47.14391" lon="16.27882">
        <ele>294.580399</ele>
        <time>2022-09-28T09:02:30.702Z</time>
      </trkpt>
      <trkpt lat="47.14403" lon="16.2789">
        <ele>294.690901</ele>
        <time>2022-09-28T09:02:33.691Z</time>
      </trkpt>
      <trkpt lat="47.14414" lon="16.27897">
        <ele>294.795045</ele>
        <time>2022-09-28T09:02:36.702Z</time>
      </trkpt>
      <trkpt lat="47.14423" lon="16.27903">
        <ele>294.887244</ele>
        <time>2022-09-28T09:02:39.695Z</time>
      </trkpt>
      <trkpt lat="47.14433" lon="16.27908">
        <ele>294.975509</ele>
        <time>2022-09-28T09:02:42.748Z</time>
      </trkpt>
      <trkpt lat="47.14442" lon="16.27912">
        <ele>295.062124</ele>
        <time>2022-09-28T09:02:45.694Z</time>
      </trkpt>
      <trkpt lat="47.14452" lon="16.27914">
        <ele>295.144635</ele>
        <time>2022-09-28T09:02:48.696Z</time>
      </trkpt>
      <trkpt lat="47.14462" lon="16.27918">
        <ele>295.234349</ele>
        <time>2022-09-28T09:02:51.689Z</time>
      </trkpt>
      <trkpt lat="47.14472" lon="16.2792">
        <ele>295.326519</ele>
        <time>2022-09-28T09:02:54.705Z</time>
      </trkpt>
      <trkpt lat="47.14483" lon="16.27922">
        <ele>295.309137</ele>
        <time>2022-09-28T09:02:57.727Z</time>
      </trkpt>
      <trkpt lat="47.14495" lon="16.27926">
        <ele>295.171863</ele>
        <time>2022-09-28T09:03:00.701Z</time>
      </trkpt>
      <trkpt lat="47.14506" lon="16.2793">
        <ele>295.040273</ele>
        <time>2022-09-28T09:03:03.685Z</time>
      </trkpt>
      <trkpt lat="47.14517" lon="16.27933">
        <ele>294.915692</ele>
        <time>2022-09-28T09:03:06.702Z</time>
      </trkpt>
      <trkpt lat="47.14529" lon="16.27939">
        <ele>294.773154</ele>
        <time>2022-09-28T09:03:09.693Z</time>
      </trkpt>
      <trkpt lat="47.14541" lon="16.27943">
        <ele>294.63075</ele>
        <time>2022-09-28T09:03:12.705Z</time>
      </trkpt>
      <trkpt lat="47.14553" lon="16.27948">
        <ele>294.498885</ele>
        <time>2022-09-28T09:03:15.712Z</time>
      </trkpt>
      <trkpt lat="47.14563" lon="16.27953">
        <ele>294.375061</ele>
        <time>2022-09-28T09:03:18.692Z</time>
      </trkpt>
      <trkpt lat="47.14575" lon="16.27957">
        <ele>294.242005</ele>
        <time>2022-09-28T09:03:21.710Z</time>
      </trkpt>
      <trkpt lat="47.14585" lon="16.27962">
        <ele>294.113343</ele>
        <time>2022-09-28T09:03:24.703Z</time>
      </trkpt>
      <trkpt lat="47.14596" lon="16.27969">
        <ele>293.982408</ele>
        <time>2022-09-28T09:03:27.742Z</time>
      </trkpt>
      <trkpt lat="47.14607" lon="16.27976">
        <ele>293.84267</ele>
        <time>2022-09-28T09:03:30.691Z</time>
      </trkpt>
      <trkpt lat="47.14618" lon="16.27984">
        <ele>293.705408</ele>
        <time>2022-09-28T09:03:33.696Z</time>
      </trkpt>
      <trkpt lat="47.14629" lon="16.27992">
        <ele>293.56341</ele>
        <time>2022-09-28T09:03:36.698Z</time>
      </trkpt>
      <trkpt lat="47.14641" lon="16.28001">
        <ele>293.41291</ele>
        <time>2022-09-28T09:03:39.691Z</time>
      </trkpt>
      <trkpt lat="47.14653" lon="16.28011">
        <ele>293.637594</ele>
        <time>2022-09-28T09:03:42.725Z</time>
      </trkpt>
      <trkpt lat="47.14663" lon="16.2802">
        <ele>294.207652</ele>
        <time>2022-09-28T09:03:45.694Z</time>
      </trkpt>
      <trkpt lat="47.14675" lon="16.2803">
        <ele>294.806771</ele>
        <time>2022-09-28T09:03:48.701Z</time>
      </trkpt>
      <trkpt lat="47.14684" lon="16.28037">
        <ele>295.294993</ele>
        <time>2022-09-28T09:03:51.706Z</time>
      </trkpt>
      <trkpt lat="47.14695" lon="16.28044">
        <ele>295.805509</ele>
        <time>2022-09-28T09:03:54.693Z</time>
      </trkpt>
      <trkpt lat="47.14705" lon="16.28052">
        <ele>296.338675</ele>
        <time>2022-09-28T09:03:57.698Z</time>
      </trkpt>
      <trkpt lat="47.14716" lon="16.28058">
        <ele>296.879191</ele>
        <time>2022-09-28T09:04:00.728Z</time>
      </trkpt>
      <trkpt lat="47.14726" lon="16.28064">
        <ele>297.367685</ele>
        <time>2022-09-28T09:04:03.692Z</time>
      </trkpt>
      <trkpt lat="47.14735" lon="16.2807">
        <ele>297.815251</ele>
        <time>2022-09-28T09:04:06.701Z</time>
      </trkpt>
      <trkpt lat="47.14744" lon="16.28074">
        <ele>298.255727</ele>
        <time>2022-09-28T09:04:09.691Z</time>
      </trkpt>
      <trkpt lat="47.14754" lon="16.28078">
        <ele>298.707557</ele>
        <time>2022-09-28T09:04:12.699Z</time>
      </trkpt>
      <trkpt lat="47.14763" lon="16.28082">
        <ele>299.151583</ele>
        <time>2022-09-28T09:04:15.688Z</time>
      </trkpt>
      <trkpt lat="47.14773" lon="16.28086">
        <ele>299.614855</ele>
        <time>2022-09-28T09:04:18.702Z</time>
      </trkpt>
      <trkpt lat="47.14783" lon="16.28091">
        <ele>300.115687</ele>
        <time>2022-09-28T09:04:21.687Z</time>
      </trkpt>
      <trkpt lat="47.14795" lon="16.28095">
        <ele>300.671707</ele>
        <time>2022-09-28T09:04:24.700Z</time>
      </trkpt>
      <trkpt lat="47.14808" lon="16.28099">
        <ele>301.273108</ele>
        <time>2022-09-28T09:04:27.685Z</time>
      </trkpt>
      <trkpt lat="47.14821" lon="16.281">
        <ele>301.664083</ele>
        <time>2022-09-28T09:04:30.694Z</time>
      </trkpt>
      <trkpt lat="47.14834" lon="16.28101">
        <ele>301.920722</ele>
        <time>2022-09-28T09:04:33.697Z</time>
      </trkpt>
      <trkpt lat="47.14843" lon="16.28101">
        <ele>302.096667</ele>
        <time>2022-09-28T09:04:35.695Z</time>
      </trkpt>
      <trkpt lat="47.14852" lon="16.28102">
        <ele>302.270758</ele>
        <time>2022-09-28T09:04:37.703Z</time>
      </trkpt>
      <trkpt lat="47.14865" lon="16.28102">
        <ele>302.511703</ele>
        <time>2022-09-28T09:04:40.690Z</time>
      </trkpt>
      <trkpt lat="47.14877" lon="16.28099">
        <ele>302.741952</ele>
        <time>2022-09-28T09:04:43.688Z</time>
      </trkpt>
      <trkpt lat="47.14889" lon="16.28097">
        <ele>302.975428</ele>
        <time>2022-09-28T09:04:46.699Z</time>
      </trkpt>
      <trkpt lat="47.14902" lon="16.28093">
        <ele>303.230033</ele>
        <time>2022-09-28T09:04:49.681Z</time>
      </trkpt>
      <trkpt lat="47.14915" lon="16.2809">
        <ele>303.487955</ele>
        <time>2022-09-28T09:04:52.703Z</time>
      </trkpt>
      <trkpt lat="47.14925" lon="16.28087">
        <ele>303.664746</ele>
        <time>2022-09-28T09:04:54.769Z</time>
      </trkpt>
      <trkpt lat="47.14934" lon="16.28086">
        <ele>303.847318</ele>
        <time>2022-09-28T09:04:56.707Z</time>
      </trkpt>
      <trkpt lat="47.14944" lon="16.28085">
        <ele>304.031926</ele>
        <time>2022-09-28T09:04:58.669Z</time>
      </trkpt>
      <trkpt lat="47.14957" lon="16.28081">
        <ele>304.287749</ele>
        <time>2022-09-28T09:05:01.691Z</time>
      </trkpt>
      <trkpt lat="47.14966" lon="16.28079">
        <ele>304.467873</ele>
        <time>2022-09-28T09:05:03.705Z</time>
      </trkpt>
      <trkpt lat="47.14975" lon="16.28077">
        <ele>304.647998</ele>
        <time>2022-09-28T09:05:05.704Z</time>
      </trkpt>
      <trkpt lat="47.14985" lon="16.28074">
        <ele>304.828484</ele>
        <time>2022-09-28T09:05:07.691Z</time>
      </trkpt>
      <trkpt lat="47.14994" lon="16.28071">
        <ele>304.900326</ele>
        <time>2022-09-28T09:05:09.681Z</time>
      </trkpt>
      <trkpt lat="47.15003" lon="16.28069">
        <ele>304.580078</ele>
        <time>2022-09-28T09:05:11.690Z</time>
      </trkpt>
      <trkpt lat="47.15012" lon="16.28066">
        <ele>304.275015</ele>
        <time>2022-09-28T09:05:13.709Z</time>
      </trkpt>
      <trkpt lat="47.15022" lon="16.28066">
        <ele>303.963752</ele>
        <time>2022-09-28T09:05:15.661Z</time>
      </trkpt>
      <trkpt lat="47.15031" lon="16.28065">
        <ele>303.6416</ele>
        <time>2022-09-28T09:05:17.696Z</time>
      </trkpt>
      <trkpt lat="47.15042" lon="16.28064">
        <ele>303.266416</ele>
        <time>2022-09-28T09:05:19.709Z</time>
      </trkpt>
      <trkpt lat="47.15054" lon="16.28065">
        <ele>302.870917</ele>
        <time>2022-09-28T09:05:21.775Z</time>
      </trkpt>
      <trkpt lat="47.15066" lon="16.28068">
        <ele>302.478697</ele>
        <time>2022-09-28T09:05:23.694Z</time>
      </trkpt>
      <trkpt lat="47.15078" lon="16.28072">
        <ele>302.056931</ele>
        <time>2022-09-28T09:05:25.696Z</time>
      </trkpt>
      <trkpt lat="47.1509" lon="16.28076">
        <ele>301.653684</ele>
        <time>2022-09-28T09:05:27.754Z</time>
      </trkpt>
      <trkpt lat="47.151" lon="16.28081">
        <ele>301.294888</ele>
        <time>2022-09-28T09:05:29.698Z</time>
      </trkpt>
      <trkpt lat="47.1511" lon="16.28085">
        <ele>300.959986</ele>
        <time>2022-09-28T09:05:31.699Z</time>
      </trkpt>
      <trkpt lat="47.15119" lon="16.2809">
        <ele>300.634965</ele>
        <time>2022-09-28T09:05:33.679Z</time>
      </trkpt>
      <trkpt lat="47.15131" lon="16.28098">
        <ele>300.188857</ele>
        <time>2022-09-28T09:05:36.709Z</time>
      </trkpt>
      <trkpt lat="47.15142" lon="16.28106">
        <ele>299.766344</ele>
        <time>2022-09-28T09:05:39.693Z</time>
      </trkpt>
      <trkpt lat="47.15153" lon="16.28112">
        <ele>299.388491</ele>
        <time>2022-09-28T09:05:42.701Z</time>
      </trkpt>
      <trkpt lat="47.15162" lon="16.28119">
        <ele>299.037171</ele>
        <time>2022-09-28T09:05:45.686Z</time>
      </trkpt>
      <trkpt lat="47.15171" lon="16.28125">
        <ele>299.087203</ele>
        <time>2022-09-28T09:05:48.758Z</time>
      </trkpt>
      <trkpt lat="47.1518" lon="16.28131">
        <ele>299.257549</ele>
        <time>2022-09-28T09:05:51.701Z</time>
      </trkpt>
      <trkpt lat="47.15189" lon="16.28138">
        <ele>299.446103</ele>
        <time>2022-09-28T09:05:54.685Z</time>
      </trkpt>
      <trkpt lat="47.15199" lon="16.28144">
        <ele>299.630974</ele>
        <time>2022-09-28T09:05:57.702Z</time>
      </trkpt>
      <trkpt lat="47.15209" lon="16.28152">
        <ele>299.840952</ele>
        <time>2022-09-28T09:06:01.708Z</time>
      </trkpt>
      <trkpt lat="47.15219" lon="16.28159">
        <ele>300.045137</ele>
        <time>2022-09-28T09:06:05.697Z</time>
      </trkpt>
      <trkpt lat="47.15229" lon="16.28166">
        <ele>300.226721</ele>
        <time>2022-09-28T09:06:09.700Z</time>
      </trkpt>
      <trkpt lat="47.15237" lon="16.28172">
        <ele>300.403617</ele>
        <time>2022-09-28T09:06:13.699Z</time>
      </trkpt>
      <trkpt lat="47.15247" lon="16.28179">
        <ele>300.595405</ele>
        <time>2022-09-28T09:06:17.714Z</time>
      </trkpt>
      <trkpt lat="47.15256" lon="16.28186">
        <ele>300.776607</ele>
        <time>2022-09-28T09:06:21.712Z</time>
      </trkpt>
      <trkpt lat="47.15264" lon="16.28193">
        <ele>300.938613</ele>
        <time>2022-09-28T09:06:25.700Z</time>
      </trkpt>
      <trkpt lat="47.15272" lon="16.28201">
        <ele>301.116641</ele>
        <time>2022-09-28T09:06:29.690Z</time>
      </trkpt>
      <trkpt lat="47.1528" lon="16.28207">
        <ele>301.280801</ele>
        <time>2022-09-28T09:06:33.698Z</time>
      </trkpt>
      <trkpt lat="47.15289" lon="16.28216">
        <ele>301.479375</ele>
        <time>2022-09-28T09:06:38.694Z</time>
      </trkpt>
      <trkpt lat="47.15298" lon="16.28222">
        <ele>301.656723</ele>
        <time>2022-09-28T09:06:42.707Z</time>
      </trkpt>
      <trkpt lat="47.15306" lon="16.28232">
        <ele>301.839982</ele>
        <time>2022-09-28T09:06:46.691Z</time>
      </trkpt>
      <trkpt lat="47.15314" lon="16.28241">
        <ele>302.020935</ele>
        <time>2022-09-28T09:06:50.701Z</time>
      </trkpt>
      <trkpt lat="47.15323" lon="16.28249">
        <ele>302.147478</ele>
        <time>2022-09-28T09:06:54.766Z</time>
      </trkpt>
      <trkpt lat="47.15331" lon="16.28257">
        <ele>301.952415</ele>
        <time>2022-09-28T09:06:58.721Z</time>
      </trkpt>
      <trkpt lat="47.15339" lon="16.28263">
        <ele>301.756113</ele>
        <time>2022-09-28T09:07:02.707Z</time>
      </trkpt>
      <trkpt lat="47.15348" lon="16.28269">
        <ele>301.563318</ele>
        <time>2022-09-28T09:07:06.723Z</time>
      </trkpt>
      <trkpt lat="47.15357" lon="16.28274">
        <ele>301.36619</ele>
        <time>2022-09-28T09:07:10.696Z</time>
      </trkpt>
      <trkpt lat="47.15368" lon="16.28281">
        <ele>301.1345</ele>
        <time>2022-09-28T09:07:14.701Z</time>
      </trkpt>
      <trkpt lat="47.15378" lon="16.28288">
        <ele>300.903658</ele>
        <time>2022-09-28T09:07:18.746Z</time>
      </trkpt>
      <trkpt lat="47.15386" lon="16.28295">
        <ele>300.706848</ele>
        <time>2022-09-28T09:07:22.691Z</time>
      </trkpt>
      <trkpt lat="47.15395" lon="16.28301">
        <ele>300.518311</ele>
        <time>2022-09-28T09:07:25.694Z</time>
      </trkpt>
      <trkpt lat="47.15403" lon="16.28306">
        <ele>300.335874</ele>
        <time>2022-09-28T09:07:28.705Z</time>
      </trkpt>
      <trkpt lat="47.15414" lon="16.28311">
        <ele>300.106681</ele>
        <time>2022-09-28T09:07:32.691Z</time>
      </trkpt>
      <trkpt lat="47.15423" lon="16.28314">
        <ele>299.922223</ele>
        <time>2022-09-28T09:07:35.694Z</time>
      </trkpt>
      <trkpt lat="47.15432" lon="16.28315">
        <ele>299.732347</ele>
        <time>2022-09-28T09:07:38.695Z</time>
      </trkpt>
      <trkpt lat="47.15444" lon="16.28319">
        <ele>299.484439</ele>
        <time>2022-09-28T09:07:42.701Z</time>
      </trkpt>
      <trkpt lat="47.15454" lon="16.28322">
        <ele>299.274393</ele>
        <time>2022-09-28T09:07:45.732Z</time>
      </trkpt>
      <trkpt lat="47.15465" lon="16.28327">
        <ele>299.051812</ele>
        <time>2022-09-28T09:07:48.693Z</time>
      </trkpt>
      <trkpt lat="47.15475" lon="16.2833">
        <ele>298.833564</ele>
        <time>2022-09-28T09:07:51.726Z</time>
      </trkpt>
      <trkpt lat="47.15487" lon="16.28333">
        <ele>298.595846</ele>
        <time>2022-09-28T09:07:54.692Z</time>
      </trkpt>
      <trkpt lat="47.15499" lon="16.28338">
        <ele>298.546782</ele>
        <time>2022-09-28T09:07:57.731Z</time>
      </trkpt>
      <trkpt lat="47.15511" lon="16.28342">
        <ele>298.564454</ele>
        <time>2022-09-28T09:08:00.705Z</time>
      </trkpt>
      <trkpt lat="47.1552" lon="16.28346">
        <ele>298.577271</ele>
        <time>2022-09-28T09:08:02.687Z</time>
      </trkpt>
      <trkpt lat="47.15533" lon="16.2835">
        <ele>298.595556</ele>
        <time>2022-09-28T09:08:05.700Z</time>
      </trkpt>
      <trkpt lat="47.15542" lon="16.28354">
        <ele>298.60937</ele>
        <time>2022-09-28T09:08:07.721Z</time>
      </trkpt>
      <trkpt lat="47.15552" lon="16.2836">
        <ele>298.624318</ele>
        <time>2022-09-28T09:08:09.699Z</time>
      </trkpt>
      <trkpt lat="47.15562" lon="16.28365">
        <ele>298.639628</ele>
        <time>2022-09-28T09:08:11.692Z</time>
      </trkpt>
      <trkpt lat="47.15572" lon="16.28371">
        <ele>298.654381</ele>
        <time>2022-09-28T09:08:13.688Z</time>
      </trkpt>
      <trkpt lat="47.15582" lon="16.28376">
        <ele>298.66923</ele>
        <time>2022-09-28T09:08:15.691Z</time>
      </trkpt>
      <trkpt lat="47.15592" lon="16.28382">
        <ele>298.683756</ele>
        <time>2022-09-28T09:08:17.692Z</time>
      </trkpt>
      <trkpt lat="47.15602" lon="16.28387">
        <ele>298.698639</ele>
        <time>2022-09-28T09:08:19.709Z</time>
      </trkpt>
      <trkpt lat="47.15612" lon="16.28393">
        <ele>298.714543</ele>
        <time>2022-09-28T09:08:21.689Z</time>
      </trkpt>
      <trkpt lat="47.15623" lon="16.28398">
        <ele>298.730832</ele>
        <time>2022-09-28T09:08:23.687Z</time>
      </trkpt>
      <trkpt lat="47.15633" lon="16.28403">
        <ele>298.745715</ele>
        <time>2022-09-28T09:08:25.731Z</time>
      </trkpt>
      <trkpt lat="47.15643" lon="16.28408">
        <ele>298.75938</ele>
        <time>2022-09-28T09:08:27.681Z</time>
      </trkpt>
      <trkpt lat="47.15652" lon="16.28412">
        <ele>298.773814</ele>
        <time>2022-09-28T09:08:29.702Z</time>
      </trkpt>
      <trkpt lat="47.15662" lon="16.28417">
        <ele>298.851376</ele>
        <time>2022-09-28T09:08:31.700Z</time>
      </trkpt>
      <trkpt lat="47.15672" lon="16.28421">
        <ele>299.216724</ele>
        <time>2022-09-28T09:08:33.696Z</time>
      </trkpt>
      <trkpt lat="47.15681" lon="16.28425">
        <ele>299.5813</ele>
        <time>2022-09-28T09:08:35.694Z</time>
      </trkpt>
      <trkpt lat="47.15691" lon="16.28429">
        <ele>299.931784</ele>
        <time>2022-09-28T09:08:37.676Z</time>
      </trkpt>
      <trkpt lat="47.157" lon="16.28433">
        <ele>300.287907</ele>
        <time>2022-09-28T09:08:39.689Z</time>
      </trkpt>
      <trkpt lat="47.15709" lon="16.28437">
        <ele>300.621578</ele>
        <time>2022-09-28T09:08:41.691Z</time>
      </trkpt>
      <trkpt lat="47.1572" lon="16.28444">
        <ele>301.085503</ele>
        <time>2022-09-28T09:08:44.699Z</time>
      </trkpt>
      <trkpt lat="47.15731" lon="16.2845">
        <ele>301.505584</ele>
        <time>2022-09-28T09:08:47.689Z</time>
      </trkpt>
      <trkpt lat="47.15743" lon="16.28458">
        <ele>301.964091</ele>
        <time>2022-09-28T09:08:50.710Z</time>
      </trkpt>
      <trkpt lat="47.15751" lon="16.28464">
        <ele>302.295112</ele>
        <time>2022-09-28T09:08:52.729Z</time>
      </trkpt>
      <trkpt lat="47.15759" lon="16.28471">
        <ele>302.632115</ele>
        <time>2022-09-28T09:08:54.708Z</time>
      </trkpt>
      <trkpt lat="47.15769" lon="16.28481">
        <ele>303.102586</ele>
        <time>2022-09-28T09:08:57.693Z</time>
      </trkpt>
      <trkpt lat="47.1578" lon="16.28493">
        <ele>303.590742</ele>
        <time>2022-09-28T09:09:00.695Z</time>
      </trkpt>
      <trkpt lat="47.1579" lon="16.28505">
        <ele>304.05596</ele>
        <time>2022-09-28T09:09:03.696Z</time>
      </trkpt>
      <trkpt lat="47.15799" lon="16.28518">
        <ele>304.510823</ele>
        <time>2022-09-28T09:09:06.680Z</time>
      </trkpt>
      <trkpt lat="47.15807" lon="16.28531">
        <ele>304.961529</ele>
        <time>2022-09-28T09:09:09.698Z</time>
      </trkpt>
      <trkpt lat="47.15816" lon="16.28544">
        <ele>305.410549</ele>
        <time>2022-09-28T09:09:12.698Z</time>
      </trkpt>
      <trkpt lat="47.15824" lon="16.28559">
        <ele>305.816575</ele>
        <time>2022-09-28T09:09:15.705Z</time>
      </trkpt>
      <trkpt lat="47.15831" lon="16.28572">
        <ele>306.196369</ele>
        <time>2022-09-28T09:09:18.697Z</time>
      </trkpt>
      <trkpt lat="47.15839" lon="16.28585">
        <ele>306.564606</ele>
        <time>2022-09-28T09:09:21.706Z</time>
      </trkpt>
      <trkpt lat="47.15847" lon="16.286">
        <ele>306.977258</ele>
        <time>2022-09-28T09:09:24.699Z</time>
      </trkpt>
      <trkpt lat="47.15854" lon="16.28616">
        <ele>307.384123</ele>
        <time>2022-09-28T09:09:27.701Z</time>
      </trkpt>
      <trkpt lat="47.15862" lon="16.28631">
        <ele>307.793556</ele>
        <time>2022-09-28T09:09:30.734Z</time>
      </trkpt>
      <trkpt lat="47.1587" lon="16.28644">
        <ele>308.175795</ele>
        <time>2022-09-28T09:09:33.764Z</time>
      </trkpt>
      <trkpt lat="47.15878" lon="16.28657">
        <ele>308.561092</ele>
        <time>2022-09-28T09:09:36.702Z</time>
      </trkpt>
      <trkpt lat="47.15885" lon="16.2867">
        <ele>308.930532</ele>
        <time>2022-09-28T09:09:39.704Z</time>
      </trkpt>
      <trkpt lat="47.15892" lon="16.28684">
        <ele>309.299688</ele>
        <time>2022-09-28T09:09:42.709Z</time>
      </trkpt>
      <trkpt lat="47.15899" lon="16.28699">
        <ele>309.688909</ele>
        <time>2022-09-28T09:09:45.683Z</time>
      </trkpt>
      <trkpt lat="47.15907" lon="16.28713">
        <ele>310.091859</ele>
        <time>2022-09-28T09:09:48.695Z</time>
      </trkpt>
      <trkpt lat="47.15914" lon="16.28727">
        <ele>310.46707</ele>
        <time>2022-09-28T09:09:51.749Z</time>
      </trkpt>
      <trkpt lat="47.15921" lon="16.2874">
        <ele>310.814858</ele>
        <time>2022-09-28T09:09:54.700Z</time>
      </trkpt>
      <trkpt lat="47.15926" lon="16.28754">
        <ele>311.094752</ele>
        <time>2022-09-28T09:09:57.708Z</time>
      </trkpt>
      <trkpt lat="47.15931" lon="16.28769">
        <ele>311.050107</ele>
        <time>2022-09-28T09:10:00.694Z</time>
      </trkpt>
      <trkpt lat="47.15935" lon="16.28782">
        <ele>311.009133</ele>
        <time>2022-09-28T09:10:03.755Z</time>
      </trkpt>
      <trkpt lat="47.1594" lon="16.28796">
        <ele>310.967674</ele>
        <time>2022-09-28T09:10:06.681Z</time>
      </trkpt>
      <trkpt lat="47.15944" lon="16.2881">
        <ele>310.926794</ele>
        <time>2022-09-28T09:10:09.713Z</time>
      </trkpt>
      <trkpt lat="47.15949" lon="16.28823">
        <ele>310.886906</ele>
        <time>2022-09-28T09:10:12.676Z</time>
      </trkpt>
      <trkpt lat="47.15954" lon="16.28837">
        <ele>310.844133</ele>
        <time>2022-09-28T09:10:15.694Z</time>
      </trkpt>
      <trkpt lat="47.15959" lon="16.28851">
        <ele>310.801338</ele>
        <time>2022-09-28T09:10:18.696Z</time>
      </trkpt>
      <trkpt lat="47.15963" lon="16.28865">
        <ele>310.760409</ele>
        <time>2022-09-28T09:10:21.746Z</time>
      </trkpt>
      <trkpt lat="47.15965" lon="16.2888">
        <ele>310.718033</ele>
        <time>2022-09-28T09:10:24.689Z</time>
      </trkpt>
      <trkpt lat="47.15968" lon="16.28895">
        <ele>310.677129</ele>
        <time>2022-09-28T09:10:27.703Z</time>
      </trkpt>
      <trkpt lat="47.1597" lon="16.2891">
        <ele>310.635804</ele>
        <time>2022-09-28T09:10:30.706Z</time>
      </trkpt>
      <trkpt lat="47.15972" lon="16.28925">
        <ele>310.594298</ele>
        <time>2022-09-28T09:10:33.705Z</time>
      </trkpt>
      <trkpt lat="47.15973" lon="16.28942">
        <ele>310.550224</ele>
        <time>2022-09-28T09:10:36.691Z</time>
      </trkpt>
      <trkpt lat="47.15974" lon="16.28958">
        <ele>310.505139</ele>
        <time>2022-09-28T09:10:39.754Z</time>
      </trkpt>
      <trkpt lat="47.15974" lon="16.28974">
        <ele>310.461505</ele>
        <time>2022-09-28T09:10:42.727Z</time>
      </trkpt>
      <trkpt lat="47.15973" lon="16.28991">
        <ele>310.417431</ele>
        <time>2022-09-28T09:10:45.711Z</time>
      </trkpt>
      <trkpt lat="47.15971" lon="16.29007">
        <ele>310.409709</ele>
        <time>2022-09-28T09:10:48.714Z</time>
      </trkpt>
      <trkpt lat="47.1597" lon="16.29024">
        <ele>310.465999</ele>
        <time>2022-09-28T09:10:51.697Z</time>
      </trkpt>
      <trkpt lat="47.15968" lon="16.2904">
        <ele>310.519988</ele>
        <time>2022-09-28T09:10:54.712Z</time>
      </trkpt>
      <trkpt lat="47.15966" lon="16.29057">
        <ele>310.577594</ele>
        <time>2022-09-28T09:10:57.700Z</time>
      </trkpt>
      <trkpt lat="47.15965" lon="16.29074">
        <ele>310.634993</ele>
        <time>2022-09-28T09:11:00.722Z</time>
      </trkpt>
      <trkpt lat="47.15962" lon="16.2909">
        <ele>310.691815</ele>
        <time>2022-09-28T09:11:03.725Z</time>
      </trkpt>
      <trkpt lat="47.1596" lon="16.29107">
        <ele>310.747887</ele>
        <time>2022-09-28T09:11:06.689Z</time>
      </trkpt>
      <trkpt lat="47.15957" lon="16.29123">
        <ele>310.802244</ele>
        <time>2022-09-28T09:11:09.686Z</time>
      </trkpt>
      <trkpt lat="47.15954" lon="16.29139">
        <ele>310.857245</ele>
        <time>2022-09-28T09:11:12.694Z</time>
      </trkpt>
      <trkpt lat="47.15951" lon="16.29155">
        <ele>310.911924</ele>
        <time>2022-09-28T09:11:15.694Z</time>
      </trkpt>
      <trkpt lat="47.1595" lon="16.29171">
        <ele>310.968399</ele>
        <time>2022-09-28T09:11:18.690Z</time>
      </trkpt>
      <trkpt lat="47.15948" lon="16.29188">
        <ele>311.024874</ele>
        <time>2022-09-28T09:11:21.695Z</time>
      </trkpt>
      <trkpt lat="47.15946" lon="16.29205">
        <ele>311.081504</ele>
        <time>2022-09-28T09:11:24.693Z</time>
      </trkpt>
      <trkpt lat="47.15944" lon="16.29221">
        <ele>311.1354</ele>
        <time>2022-09-28T09:11:27.701Z</time>
      </trkpt>
      <trkpt lat="47.1594" lon="16.29236">
        <ele>311.188202</ele>
        <time>2022-09-28T09:11:30.704Z</time>
      </trkpt>
      <trkpt lat="47.15938" lon="16.2925">
        <ele>311.237423</ele>
        <time>2022-09-28T09:11:33.693Z</time>
      </trkpt>
      <trkpt lat="47.15934" lon="16.29263">
        <ele>311.314537</ele>
        <time>2022-09-28T09:11:36.689Z</time>
      </trkpt>
      <trkpt lat="47.15938" lon="16.2928">
        <ele>311.503429</ele>
        <time>2022-09-28T09:11:40.719Z</time>
      </trkpt>
      <trkpt lat="47.15948" lon="16.29292">
        <ele>311.699659</ele>
        <time>2022-09-28T09:11:43.745Z</time>
      </trkpt>
      <trkpt lat="47.15959" lon="16.293">
        <ele>311.893093</ele>
        <time>2022-09-28T09:11:46.688Z</time>
      </trkpt>
      <trkpt lat="47.1597" lon="16.29308">
        <ele>312.075537</ele>
        <time>2022-09-28T09:11:49.705Z</time>
      </trkpt>
      <trkpt lat="47.15979" lon="16.29317">
        <ele>312.248308</ele>
        <time>2022-09-28T09:11:52.699Z</time>
      </trkpt>
      <trkpt lat="47.15987" lon="16.29327">
        <ele>312.414331</ele>
        <time>2022-09-28T09:11:55.702Z</time>
      </trkpt>
      <trkpt lat="47.15994" lon="16.29339">
        <ele>312.584799</ele>
        <time>2022-09-28T09:11:58.703Z</time>
      </trkpt>
      <trkpt lat="47.16001" lon="16.29352">
        <ele>312.758049</ele>
        <time>2022-09-28T09:12:01.699Z</time>
      </trkpt>
      <trkpt lat="47.16007" lon="16.29364">
        <ele>312.91798</ele>
        <time>2022-09-28T09:12:04.683Z</time>
      </trkpt>
      <trkpt lat="47.16014" lon="16.29375">
        <ele>313.075388</ele>
        <time>2022-09-28T09:12:07.703Z</time>
      </trkpt>
      <trkpt lat="47.16019" lon="16.29386">
        <ele>313.220279</ele>
        <time>2022-09-28T09:12:10.680Z</time>
      </trkpt>
      <trkpt lat="47.16026" lon="16.29399">
        <ele>313.398049</ele>
        <time>2022-09-28T09:12:14.697Z</time>
      </trkpt>
      <trkpt lat="47.16034" lon="16.29413">
        <ele>313.582223</ele>
        <time>2022-09-28T09:12:18.699Z</time>
      </trkpt>
      <trkpt lat="47.1604" lon="16.29426">
        <ele>313.747219</ele>
        <time>2022-09-28T09:12:21.708Z</time>
      </trkpt>
      <trkpt lat="47.16045" lon="16.29437">
        <ele>313.889475</ele>
        <time>2022-09-28T09:12:24.697Z</time>
      </trkpt>
      <trkpt lat="47.16052" lon="16.29448">
        <ele>314.045398</ele>
        <time>2022-09-28T09:12:28.693Z</time>
      </trkpt>
      <trkpt lat="47.16058" lon="16.29459">
        <ele>314.783921</ele>
        <time>2022-09-28T09:12:33.694Z</time>
      </trkpt>
      <trkpt lat="47.16064" lon="16.2947">
        <ele>315.656318</ele>
        <time>2022-09-28T09:12:39.701Z</time>
      </trkpt>
      <trkpt lat="47.16069" lon="16.29483">
        <ele>316.584255</ele>
        <time>2022-09-28T09:12:45.689Z</time>
      </trkpt>
      <trkpt lat="47.16075" lon="16.29495">
        <ele>317.436942</ele>
        <time>2022-09-28T09:12:51.700Z</time>
      </trkpt>
      <trkpt lat="47.1608" lon="16.29506">
        <ele>318.259293</ele>
        <time>2022-09-28T09:12:58.700Z</time>
      </trkpt>
      <trkpt lat="47.16087" lon="16.29517">
        <ele>319.168307</ele>
        <time>2022-09-28T09:13:05.725Z</time>
      </trkpt>
      <trkpt lat="47.16095" lon="16.29527">
        <ele>320.088349</ele>
        <time>2022-09-28T09:13:13.700Z</time>
      </trkpt>
      <trkpt lat="47.16105" lon="16.29532">
        <ele>321.023666</ele>
        <time>2022-09-28T09:13:20.687Z</time>
      </trkpt>
      <trkpt lat="47.16113" lon="16.29539">
        <ele>321.852392</ele>
        <time>2022-09-28T09:13:26.696Z</time>
      </trkpt>
      <trkpt lat="47.16121" lon="16.29547">
        <ele>322.69006</ele>
        <time>2022-09-28T09:13:31.697Z</time>
      </trkpt>
      <trkpt lat="47.16127" lon="16.29556">
        <ele>323.493731</ele>
        <time>2022-09-28T09:13:37.694Z</time>
      </trkpt>
      <trkpt lat="47.16135" lon="16.29563">
        <ele>324.308509</ele>
        <time>2022-09-28T09:13:43.721Z</time>
      </trkpt>
      <trkpt lat="47.16145" lon="16.29568">
        <ele>325.206196</ele>
        <time>2022-09-28T09:13:50.685Z</time>
      </trkpt>
      <trkpt lat="47.16153" lon="16.29573">
        <ele>326.020191</ele>
        <time>2022-09-28T09:13:58.675Z</time>
      </trkpt>
      <trkpt lat="47.16162" lon="16.29581">
        <ele>326.924083</ele>
        <time>2022-09-28T09:14:06.723Z</time>
      </trkpt>
      <trkpt lat="47.1617" lon="16.29586">
        <ele>327.744973</ele>
        <time>2022-09-28T09:14:12.705Z</time>
      </trkpt>
      <trkpt lat="47.16179" lon="16.29593">
        <ele>328.633426</ele>
        <time>2022-09-28T09:14:19.693Z</time>
      </trkpt>
      <trkpt lat="47.16186" lon="16.29604">
        <ele>329.512583</ele>
        <time>2022-09-28T09:14:28.703Z</time>
      </trkpt>
      <trkpt lat="47.16192" lon="16.29614">
        <ele>330.354002</ele>
        <time>2022-09-28T09:14:35.727Z</time>
      </trkpt>
      <trkpt lat="47.16199" lon="16.29625">
        <ele>331.141124</ele>
        <time>2022-09-28T09:14:44.685Z</time>
      </trkpt>
      <trkpt lat="47.16208" lon="16.29629">
        <ele>331.889998</ele>
        <time>2022-09-28T09:14:50.696Z</time>
      </trkpt>
      <trkpt lat="47.16216" lon="16.29634">
        <ele>332.650355</ele>
        <time>2022-09-28T09:14:57.693Z</time>
      </trkpt>
      <trkpt lat="47.16225" lon="16.2964">
        <ele>333.390445</ele>
        <time>2022-09-28T09:15:05.730Z</time>
      </trkpt>
      <trkpt lat="47.16234" lon="16.29646">
        <ele>334.205922</ele>
        <time>2022-09-28T09:15:12.696Z</time>
      </trkpt>
      <trkpt lat="47.16243" lon="16.29652">
        <ele>335.007343</ele>
        <time>2022-09-28T09:15:21.704Z</time>
      </trkpt>
      <trkpt lat="47.16252" lon="16.29658">
        <ele>335.786164</ele>
        <time>2022-09-28T09:15:29.789Z</time>
      </trkpt>
      <trkpt lat="47.1626" lon="16.29665">
        <ele>336.601048</ele>
        <time>2022-09-28T09:15:36.694Z</time>
      </trkpt>
      <trkpt lat="47.16268" lon="16.29676">
        <ele>337.43995</ele>
        <time>2022-09-28T09:15:44.739Z</time>
      </trkpt>
      <trkpt lat="47.16273" lon="16.29687">
        <ele>338.203776</ele>
        <time>2022-09-28T09:15:51.691Z</time>
      </trkpt>
      <trkpt lat="47.16278" lon="16.29699">
        <ele>338.943188</ele>
        <time>2022-09-28T09:15:58.700Z</time>
      </trkpt>
      <trkpt lat="47.16283" lon="16.29712">
        <ele>339.777337</ele>
        <time>2022-09-28T09:16:06.692Z</time>
      </trkpt>
      <trkpt lat="47.16284" lon="16.29727">
        <ele>340.563516</ele>
        <time>2022-09-28T09:16:14.695Z</time>
      </trkpt>
      <trkpt lat="47.16282" lon="16.2974">
        <ele>341.308338</ele>
        <time>2022-09-28T09:16:23.711Z</time>
      </trkpt>
      <trkpt lat="47.16279" lon="16.29754">
        <ele>342.128212</ele>
        <time>2022-09-28T09:16:31.690Z</time>
      </trkpt>
      <trkpt lat="47.16274" lon="16.29767">
        <ele>342.929696</ele>
        <time>2022-09-28T09:16:39.699Z</time>
      </trkpt>
      <trkpt lat="47.1627" lon="16.2978">
        <ele>343.700338</ele>
        <time>2022-09-28T09:16:47.712Z</time>
      </trkpt>
      <trkpt lat="47.16265" lon="16.29792">
        <ele>344.518213</ele>
        <time>2022-09-28T09:16:54.690Z</time>
      </trkpt>
      <trkpt lat="47.16262" lon="16.29806">
        <ele>344.771259</ele>
        <time>2022-09-28T09:17:02.690Z</time>
      </trkpt>
      <trkpt lat="47.16257" lon="16.29818">
        <ele>344.927378</ele>
        <time>2022-09-28T09:17:10.716Z</time>
      </trkpt>
      <trkpt lat="47.16251" lon="16.29827">
        <ele>345.070069</ele>
        <time>2022-09-28T09:17:18.682Z</time>
      </trkpt>
      <trkpt lat="47.16243" lon="16.29838">
        <ele>345.229084</ele>
        <time>2022-09-28T09:17:26.727Z</time>
      </trkpt>
      <trkpt lat="47.16237" lon="16.29849">
        <ele>345.384722</ele>
        <time>2022-09-28T09:17:34.742Z</time>
      </trkpt>
      <trkpt lat="47.1623" lon="16.29859">
        <ele>345.533331</ele>
        <time>2022-09-28T09:17:41.717Z</time>
      </trkpt>
      <trkpt lat="47.16222" lon="16.29868">
        <ele>345.697234</ele>
        <time>2022-09-28T09:17:49.713Z</time>
      </trkpt>
      <trkpt lat="47.16216" lon="16.29879">
        <ele>345.846427</ele>
        <time>2022-09-28T09:17:56.688Z</time>
      </trkpt>
      <trkpt lat="47.1621" lon="16.29891">
        <ele>346.003078</ele>
        <time>2022-09-28T09:18:03.692Z</time>
      </trkpt>
      <trkpt lat="47.16205" lon="16.29905">
        <ele>346.170621</ele>
        <time>2022-09-28T09:18:10.701Z</time>
      </trkpt>
      <trkpt lat="47.1621" lon="16.29918">
        <ele>346.328929</ele>
        <time>2022-09-28T09:18:14.696Z</time>
      </trkpt>
      <trkpt lat="47.16217" lon="16.29929">
        <ele>346.489985</ele>
        <time>2022-09-28T09:18:18.730Z</time>
      </trkpt>
      <trkpt lat="47.16225" lon="16.29942">
        <ele>346.681253</ele>
        <time>2022-09-28T09:18:22.700Z</time>
      </trkpt>
      <trkpt lat="47.16232" lon="16.29954">
        <ele>346.851075</ele>
        <time>2022-09-28T09:18:25.687Z</time>
      </trkpt>
      <trkpt lat="47.1624" lon="16.29967">
        <ele>347.037604</ele>
        <time>2022-09-28T09:18:28.708Z</time>
      </trkpt>
      <trkpt lat="47.16248" lon="16.29979">
        <ele>347.213133</ele>
        <time>2022-09-28T09:18:31.696Z</time>
      </trkpt>
      <trkpt lat="47.16255" lon="16.29992">
        <ele>347.38602</ele>
        <time>2022-09-28T09:18:34.709Z</time>
      </trkpt>
      <trkpt lat="47.16262" lon="16.30004">
        <ele>347.476021</ele>
        <time>2022-09-28T09:18:37.700Z</time>
      </trkpt>
      <trkpt lat="47.16268" lon="16.30017">
        <ele>347.498</ele>
        <time>2022-09-28T09:18:40.682Z</time>
      </trkpt>
      <trkpt lat="47.16275" lon="16.3003">
        <ele>347.520524</ele>
        <time>2022-09-28T09:18:43.716Z</time>
      </trkpt>
      <trkpt lat="47.16283" lon="16.30042">
        <ele>347.543285</ele>
        <time>2022-09-28T09:18:46.695Z</time>
      </trkpt>
      <trkpt lat="47.1629" lon="16.30055">
        <ele>347.566126</ele>
        <time>2022-09-28T09:18:49.695Z</time>
      </trkpt>
      <trkpt lat="47.16297" lon="16.30068">
        <ele>347.589006</ele>
        <time>2022-09-28T09:18:52.713Z</time>
      </trkpt>
      <trkpt lat="47.16304" lon="16.30082">
        <ele>347.613155</ele>
        <time>2022-09-28T09:18:55.690Z</time>
      </trkpt>
      <trkpt lat="47.16312" lon="16.30096">
        <ele>347.637807</ele>
        <time>2022-09-28T09:18:58.688Z</time>
      </trkpt>
      <trkpt lat="47.16319" lon="16.3011">
        <ele>347.662272</ele>
        <time>2022-09-28T09:19:01.713Z</time>
      </trkpt>
      <trkpt lat="47.16327" lon="16.30125">
        <ele>347.6873</ele>
        <time>2022-09-28T09:19:04.706Z</time>
      </trkpt>
      <trkpt lat="47.16334" lon="16.30139">
        <ele>347.712614</ele>
        <time>2022-09-28T09:19:07.687Z</time>
      </trkpt>
      <trkpt lat="47.16342" lon="16.30154">
        <ele>347.738426</ele>
        <time>2022-09-28T09:19:10.694Z</time>
      </trkpt>
      <trkpt lat="47.1635" lon="16.30169">
        <ele>347.763993</ele>
        <time>2022-09-28T09:19:13.695Z</time>
      </trkpt>
      <trkpt lat="47.16358" lon="16.30184">
        <ele>347.790243</ele>
        <time>2022-09-28T09:19:16.723Z</time>
      </trkpt>
      <trkpt lat="47.16366" lon="16.30199">
        <ele>347.816687</ele>
        <time>2022-09-28T09:19:19.702Z</time>
      </trkpt>
      <trkpt lat="47.16374" lon="16.30214">
        <ele>347.741039</ele>
        <time>2022-09-28T09:19:22.702Z</time>
      </trkpt>
      <trkpt lat="47.16382" lon="16.30229">
        <ele>347.592598</ele>
        <time>2022-09-28T09:19:25.695Z</time>
      </trkpt>
      <trkpt lat="47.1639" lon="16.30244">
        <ele>347.446552</ele>
        <time>2022-09-28T09:19:28.711Z</time>
      </trkpt>
      <trkpt lat="47.16398" lon="16.30259">
        <ele>347.305662</ele>
        <time>2022-09-28T09:19:31.684Z</time>
      </trkpt>
      <trkpt lat="47.16405" lon="16.30274">
        <ele>347.167294</ele>
        <time>2022-09-28T09:19:34.691Z</time>
      </trkpt>
      <trkpt lat="47.16412" lon="16.30288">
        <ele>347.028973</ele>
        <time>2022-09-28T09:19:37.694Z</time>
      </trkpt>
      <trkpt lat="47.1642" lon="16.30303">
        <ele>346.88986</ele>
        <time>2022-09-28T09:19:40.701Z</time>
      </trkpt>
      <trkpt lat="47.16427" lon="16.30317">
        <ele>346.752779</ele>
        <time>2022-09-28T09:19:43.726Z</time>
      </trkpt>
      <trkpt lat="47.16434" lon="16.3033">
        <ele>346.627597</ele>
        <time>2022-09-28T09:19:46.699Z</time>
      </trkpt>
      <trkpt lat="47.16441" lon="16.30343">
        <ele>346.493898</ele>
        <time>2022-09-28T09:19:49.690Z</time>
      </trkpt>
      <trkpt lat="47.16448" lon="16.30356">
        <ele>346.367501</ele>
        <time>2022-09-28T09:19:52.701Z</time>
      </trkpt>
      <trkpt lat="47.16455" lon="16.3037">
        <ele>346.23981</ele>
        <time>2022-09-28T09:19:55.725Z</time>
      </trkpt>
      <trkpt lat="47.16461" lon="16.30382">
        <ele>346.119124</ele>
        <time>2022-09-28T09:19:58.706Z</time>
      </trkpt>
      <trkpt lat="47.16469" lon="16.30394">
        <ele>345.994651</ele>
        <time>2022-09-28T09:20:01.697Z</time>
      </trkpt>
      <trkpt lat="47.16476" lon="16.30407">
        <ele>345.872811</ele>
        <time>2022-09-28T09:20:04.701Z</time>
      </trkpt>
      <trkpt lat="47.16483" lon="16.30419">
        <ele>345.757028</ele>
        <time>2022-09-28T09:20:07.702Z</time>
      </trkpt>
      <trkpt lat="47.1649" lon="16.30431">
        <ele>345.655006</ele>
        <time>2022-09-28T09:20:10.686Z</time>
      </trkpt>
      <trkpt lat="47.16497" lon="16.30443">
        <ele>345.553348</ele>
        <time>2022-09-28T09:20:13.698Z</time>
      </trkpt>
      <trkpt lat="47.16504" lon="16.30456">
        <ele>345.444022</ele>
        <time>2022-09-28T09:20:16.679Z</time>
      </trkpt>
      <trkpt lat="47.16513" lon="16.3047">
        <ele>345.328499</ele>
        <time>2022-09-28T09:20:19.674Z</time>
      </trkpt>
      <trkpt lat="47.16521" lon="16.30484">
        <ele>345.210317</ele>
        <time>2022-09-28T09:20:22.697Z</time>
      </trkpt>
      <trkpt lat="47.16529" lon="16.305">
        <ele>345.086136</ele>
        <time>2022-09-28T09:20:25.702Z</time>
      </trkpt>
      <trkpt lat="47.16534" lon="16.30511">
        <ele>344.996662</ele>
        <time>2022-09-28T09:20:27.704Z</time>
      </trkpt>
      <trkpt lat="47.16541" lon="16.30524">
        <ele>344.896651</ele>
        <time>2022-09-28T09:20:29.707Z</time>
      </trkpt>
      <trkpt lat="47.16547" lon="16.30537">
        <ele>344.791002</ele>
        <time>2022-09-28T09:20:31.703Z</time>
      </trkpt>
      <trkpt lat="47.16555" lon="16.30552">
        <ele>344.672707</ele>
        <time>2022-09-28T09:20:33.704Z</time>
      </trkpt>
      <trkpt lat="47.16563" lon="16.30568">
        <ele>344.544807</ele>
        <time>2022-09-28T09:20:35.698Z</time>
      </trkpt>
      <trkpt lat="47.16573" lon="16.30585">
        <ele>344.402424</ele>
        <time>2022-09-28T09:20:37.699Z</time>
      </trkpt>
      <trkpt lat="47.16583" lon="16.30602">
        <ele>344.261615</ele>
        <time>2022-09-28T09:20:39.700Z</time>
      </trkpt>
      <trkpt lat="47.16592" lon="16.30619">
        <ele>344.126391</ele>
        <time>2022-09-28T09:20:41.707Z</time>
      </trkpt>
      <trkpt lat="47.16601" lon="16.30636">
        <ele>343.92949</ele>
        <time>2022-09-28T09:20:43.714Z</time>
      </trkpt>
      <trkpt lat="47.16609" lon="16.30654">
        <ele>343.735786</ele>
        <time>2022-09-28T09:20:45.685Z</time>
      </trkpt>
      <trkpt lat="47.16617" lon="16.3067">
        <ele>343.547189</ele>
        <time>2022-09-28T09:20:47.688Z</time>
      </trkpt>
      <trkpt lat="47.16625" lon="16.30685">
        <ele>343.370559</ele>
        <time>2022-09-28T09:20:49.703Z</time>
      </trkpt>
      <trkpt lat="47.16633" lon="16.30699">
        <ele>343.198064</ele>
        <time>2022-09-28T09:20:51.688Z</time>
      </trkpt>
      <trkpt lat="47.16642" lon="16.30712">
        <ele>343.035897</ele>
        <time>2022-09-28T09:20:53.691Z</time>
      </trkpt>
      <trkpt lat="47.16649" lon="16.30725">
        <ele>342.876713</ele>
        <time>2022-09-28T09:20:55.687Z</time>
      </trkpt>
      <trkpt lat="47.16657" lon="16.3074">
        <ele>342.705605</ele>
        <time>2022-09-28T09:20:57.715Z</time>
      </trkpt>
      <trkpt lat="47.16665" lon="16.30753">
        <ele>342.54785</ele>
        <time>2022-09-28T09:20:59.685Z</time>
      </trkpt>
      <trkpt lat="47.16671" lon="16.30767">
        <ele>342.387661</ele>
        <time>2022-09-28T09:21:01.713Z</time>
      </trkpt>
      <trkpt lat="47.16678" lon="16.30779">
        <ele>342.241333</ele>
        <time>2022-09-28T09:21:03.692Z</time>
      </trkpt>
      <trkpt lat="47.16685" lon="16.30791">
        <ele>342.102867</ele>
        <time>2022-09-28T09:21:05.700Z</time>
      </trkpt>
      <trkpt lat="47.16691" lon="16.30802">
        <ele>341.968832</ele>
        <time>2022-09-28T09:21:07.706Z</time>
      </trkpt>
      <trkpt lat="47.16699" lon="16.30817">
        <ele>341.789069</ele>
        <time>2022-09-28T09:21:10.710Z</time>
      </trkpt>
      <trkpt lat="47.16708" lon="16.30832">
        <ele>341.790448</ele>
        <time>2022-09-28T09:21:13.720Z</time>
      </trkpt>
      <trkpt lat="47.16717" lon="16.30846">
        <ele>342.085917</ele>
        <time>2022-09-28T09:21:16.707Z</time>
      </trkpt>
      <trkpt lat="47.16724" lon="16.30861">
        <ele>342.365862</ele>
        <time>2022-09-28T09:21:19.699Z</time>
      </trkpt>
      <trkpt lat="47.16731" lon="16.30874">
        <ele>342.616251</ele>
        <time>2022-09-28T09:21:22.692Z</time>
      </trkpt>
      <trkpt lat="47.16737" lon="16.30886">
        <ele>342.86091</ele>
        <time>2022-09-28T09:21:25.706Z</time>
      </trkpt>
      <trkpt lat="47.16744" lon="16.30898">
        <ele>343.096283</ele>
        <time>2022-09-28T09:21:28.717Z</time>
      </trkpt>
      <trkpt lat="47.1675" lon="16.30909">
        <ele>343.317163</ele>
        <time>2022-09-28T09:21:31.698Z</time>
      </trkpt>
      <trkpt lat="47.16755" lon="16.3092">
        <ele>343.529774</ele>
        <time>2022-09-28T09:21:34.713Z</time>
      </trkpt>
      <trkpt lat="47.16763" lon="16.30933">
        <ele>343.792038</ele>
        <time>2022-09-28T09:21:38.706Z</time>
      </trkpt>
      <trkpt lat="47.16769" lon="16.30944">
        <ele>344.00783</ele>
        <time>2022-09-28T09:21:41.730Z</time>
      </trkpt>
      <trkpt lat="47.16776" lon="16.30955">
        <ele>344.229795</ele>
        <time>2022-09-28T09:21:44.706Z</time>
      </trkpt>
      <trkpt lat="47.16781" lon="16.30966">
        <ele>344.454602</ele>
        <time>2022-09-28T09:21:47.698Z</time>
      </trkpt>
      <trkpt lat="47.16788" lon="16.30978">
        <ele>344.685833</ele>
        <time>2022-09-28T09:21:50.695Z</time>
      </trkpt>
      <trkpt lat="47.16793" lon="16.3099">
        <ele>344.914281</ele>
        <time>2022-09-28T09:21:53.711Z</time>
      </trkpt>
      <trkpt lat="47.168" lon="16.31002">
        <ele>345.144611</ele>
        <time>2022-09-28T09:21:56.691Z</time>
      </trkpt>
      <trkpt lat="47.16807" lon="16.31015">
        <ele>345.405087</ele>
        <time>2022-09-28T09:21:59.682Z</time>
      </trkpt>
      <trkpt lat="47.16813" lon="16.31028">
        <ele>345.645122</ele>
        <time>2022-09-28T09:22:02.747Z</time>
      </trkpt>
      <trkpt lat="47.1682" lon="16.31041">
        <ele>345.790132</ele>
        <time>2022-09-28T09:22:05.716Z</time>
      </trkpt>
      <trkpt lat="47.16827" lon="16.31054">
        <ele>345.845094</ele>
        <time>2022-09-28T09:22:08.708Z</time>
      </trkpt>
      <trkpt lat="47.16834" lon="16.31068">
        <ele>345.902074</ele>
        <time>2022-09-28T09:22:11.681Z</time>
      </trkpt>
      <trkpt lat="47.16841" lon="16.31081">
        <ele>345.958166</ele>
        <time>2022-09-28T09:22:14.711Z</time>
      </trkpt>
      <trkpt lat="47.16848" lon="16.31094">
        <ele>346.01214</ele>
        <time>2022-09-28T09:22:17.702Z</time>
      </trkpt>
      <trkpt lat="47.16854" lon="16.31107">
        <ele>346.063307</ele>
        <time>2022-09-28T09:22:20.691Z</time>
      </trkpt>
      <trkpt lat="47.16861" lon="16.3112">
        <ele>346.119661</ele>
        <time>2022-09-28T09:22:23.687Z</time>
      </trkpt>
      <trkpt lat="47.16869" lon="16.31135">
        <ele>346.179389</ele>
        <time>2022-09-28T09:22:26.708Z</time>
      </trkpt>
      <trkpt lat="47.16876" lon="16.31149">
        <ele>346.238604</ele>
        <time>2022-09-28T09:22:29.706Z</time>
      </trkpt>
      <trkpt lat="47.16884" lon="16.31163">
        <ele>346.298549</ele>
        <time>2022-09-28T09:22:32.698Z</time>
      </trkpt>
      <trkpt lat="47.16891" lon="16.31177">
        <ele>346.356305</ele>
        <time>2022-09-28T09:22:35.711Z</time>
      </trkpt>
      <trkpt lat="47.16899" lon="16.3119">
        <ele>346.413074</ele>
        <time>2022-09-28T09:22:38.699Z</time>
      </trkpt>
      <trkpt lat="47.16906" lon="16.31203">
        <ele>346.468888</ele>
        <time>2022-09-28T09:22:41.740Z</time>
      </trkpt>
      <trkpt lat="47.16913" lon="16.31217">
        <ele>346.524494</ele>
        <time>2022-09-28T09:22:44.699Z</time>
      </trkpt>
      <trkpt lat="47.16921" lon="16.3123">
        <ele>346.581123</ele>
        <time>2022-09-28T09:22:47.722Z</time>
      </trkpt>
      <trkpt lat="47.16928" lon="16.31244">
        <ele>346.64628</ele>
        <time>2022-09-28T09:22:50.696Z</time>
      </trkpt>
      <trkpt lat="47.16935" lon="16.31258">
        <ele>346.776279</ele>
        <time>2022-09-28T09:22:53.706Z</time>
      </trkpt>
      <trkpt lat="47.16943" lon="16.31274">
        <ele>346.921027</ele>
        <time>2022-09-28T09:22:56.681Z</time>
      </trkpt>
      <trkpt lat="47.16949" lon="16.31286">
        <ele>347.02636</ele>
        <time>2022-09-28T09:22:58.739Z</time>
      </trkpt>
      <trkpt lat="47.16955" lon="16.31298">
        <ele>347.140184</ele>
        <time>2022-09-28T09:23:00.700Z</time>
      </trkpt>
      <trkpt lat="47.16962" lon="16.3131">
        <ele>347.254084</ele>
        <time>2022-09-28T09:23:02.711Z</time>
      </trkpt>
      <trkpt lat="47.16968" lon="16.31323">
        <ele>347.373515</ele>
        <time>2022-09-28T09:23:04.705Z</time>
      </trkpt>
      <trkpt lat="47.16975" lon="16.31335">
        <ele>347.490104</ele>
        <time>2022-09-28T09:23:06.736Z</time>
      </trkpt>
      <trkpt lat="47.16981" lon="16.31347">
        <ele>347.597323</ele>
        <time>2022-09-28T09:23:08.701Z</time>
      </trkpt>
      <trkpt lat="47.16989" lon="16.31362">
        <ele>347.733851</ele>
        <time>2022-09-28T09:23:11.702Z</time>
      </trkpt>
      <trkpt lat="47.16997" lon="16.31377">
        <ele>347.875387</ele>
        <time>2022-09-28T09:23:14.709Z</time>
      </trkpt>
      <trkpt lat="47.17003" lon="16.31388">
        <ele>347.974111</ele>
        <time>2022-09-28T09:23:16.707Z</time>
      </trkpt>
      <trkpt lat="47.17009" lon="16.31399">
        <ele>348.074162</ele>
        <time>2022-09-28T09:23:18.735Z</time>
      </trkpt>
      <trkpt lat="47.17016" lon="16.31413">
        <ele>348.210415</ele>
        <time>2022-09-28T09:23:21.699Z</time>
      </trkpt>
      <trkpt lat="47.17023" lon="16.31428">
        <ele>348.336176</ele>
        <time>2022-09-28T09:23:24.708Z</time>
      </trkpt>
      <trkpt lat="47.1703" lon="16.31442">
        <ele>348.467565</ele>
        <time>2022-09-28T09:23:27.687Z</time>
      </trkpt>
      <trkpt lat="47.17038" lon="16.31456">
        <ele>348.594639</ele>
        <time>2022-09-28T09:23:30.688Z</time>
      </trkpt>
      <trkpt lat="47.17045" lon="16.3147">
        <ele>348.697024</ele>
        <time>2022-09-28T09:23:33.701Z</time>
      </trkpt>
      <trkpt lat="47.17052" lon="16.31483">
        <ele>348.798151</ele>
        <time>2022-09-28T09:23:36.702Z</time>
      </trkpt>
      <trkpt lat="47.17059" lon="16.31497">
        <ele>348.898127</ele>
        <time>2022-09-28T09:23:39.737Z</time>
      </trkpt>
      <trkpt lat="47.17066" lon="16.3151">
        <ele>348.995635</ele>
        <time>2022-09-28T09:23:42.706Z</time>
      </trkpt>
      <trkpt lat="47.17073" lon="16.31523">
        <ele>349.092573</ele>
        <time>2022-09-28T09:23:45.687Z</time>
      </trkpt>
      <trkpt lat="47.17079" lon="16.31536">
        <ele>349.188143</ele>
        <time>2022-09-28T09:23:48.702Z</time>
      </trkpt>
      <trkpt lat="47.17085" lon="16.31549">
        <ele>349.279152</ele>
        <time>2022-09-28T09:23:51.707Z</time>
      </trkpt>
      <trkpt lat="47.17092" lon="16.3156">
        <ele>349.367323</ele>
        <time>2022-09-28T09:23:54.697Z</time>
      </trkpt>
      <trkpt lat="47.17098" lon="16.31573">
        <ele>349.459488</ele>
        <time>2022-09-28T09:23:57.698Z</time>
      </trkpt>
      <trkpt lat="47.17104" lon="16.31585">
        <ele>349.550124</ele>
        <time>2022-09-28T09:24:00.731Z</time>
      </trkpt>
      <trkpt lat="47.1711" lon="16.31596">
        <ele>349.636417</ele>
        <time>2022-09-28T09:24:03.703Z</time>
      </trkpt>
      <trkpt lat="47.17116" lon="16.31607">
        <ele>349.71453</ele>
        <time>2022-09-28T09:24:06.727Z</time>
      </trkpt>
      <trkpt lat="47.17123" lon="16.31621">
        <ele>349.817819</ele>
        <time>2022-09-28T09:24:10.718Z</time>
      </trkpt>
      <trkpt lat="47.17129" lon="16.31631">
        <ele>349.897049</ele>
        <time>2022-09-28T09:24:13.708Z</time>
      </trkpt>
      <trkpt lat="47.17135" lon="16.31642">
        <ele>349.97783</ele>
        <time>2022-09-28T09:24:16.704Z</time>
      </trkpt>
      <trkpt lat="47.17141" lon="16.31654">
        <ele>350.065058</ele>
        <time>2022-09-28T09:24:19.691Z</time>
      </trkpt>
      <trkpt lat="47.17147" lon="16.31667">
        <ele>350.13233</ele>
        <time>2022-09-28T09:24:22.691Z</time>
      </trkpt>
      <trkpt lat="47.17154" lon="16.31682">
        <ele>350.137748</ele>
        <time>2022-09-28T09:24:25.705Z</time>
      </trkpt>
      <trkpt lat="47.1716" lon="16.31694">
        <ele>350.14189</ele>
        <time>2022-09-28T09:24:27.693Z</time>
      </trkpt>
      <trkpt lat="47.17165" lon="16.31706">
        <ele>350.146376</ele>
        <time>2022-09-28T09:24:29.700Z</time>
      </trkpt>
      <trkpt lat="47.17171" lon="16.31719">
        <ele>350.150812</ele>
        <time>2022-09-28T09:24:31.708Z</time>
      </trkpt>
      <trkpt lat="47.17177" lon="16.31731">
        <ele>350.155395</ele>
        <time>2022-09-28T09:24:33.699Z</time>
      </trkpt>
      <trkpt lat="47.17183" lon="16.31744">
        <ele>350.159906</ele>
        <time>2022-09-28T09:24:35.703Z</time>
      </trkpt>
      <trkpt lat="47.17189" lon="16.31756">
        <ele>350.164465</ele>
        <time>2022-09-28T09:24:37.706Z</time>
      </trkpt>
      <trkpt lat="47.17195" lon="16.3177">
        <ele>350.169146</ele>
        <time>2022-09-28T09:24:39.703Z</time>
      </trkpt>
      <trkpt lat="47.172" lon="16.31782">
        <ele>350.173509</ele>
        <time>2022-09-28T09:24:41.706Z</time>
      </trkpt>
      <trkpt lat="47.17205" lon="16.31793">
        <ele>350.177554</ele>
        <time>2022-09-28T09:24:43.732Z</time>
      </trkpt>
      <trkpt lat="47.17213" lon="16.31809">
        <ele>350.183069</ele>
        <time>2022-09-28T09:24:46.712Z</time>
      </trkpt>
      <trkpt lat="47.17219" lon="16.31824">
        <ele>350.188412</ele>
        <time>2022-09-28T09:24:49.710Z</time>
      </trkpt>
      <trkpt lat="47.17226" lon="16.31839">
        <ele>350.193734</ele>
        <time>2022-09-28T09:24:52.726Z</time>
      </trkpt>
      <trkpt lat="47.17232" lon="16.31853">
        <ele>350.198881</ele>
        <time>2022-09-28T09:24:55.708Z</time>
      </trkpt>
      <trkpt lat="47.17239" lon="16.31868">
        <ele>350.20393</ele>
        <time>2022-09-28T09:24:58.700Z</time>
      </trkpt>
      <trkpt lat="47.17245" lon="16.31881">
        <ele>350.208807</ele>
        <time>2022-09-28T09:25:01.728Z</time>
      </trkpt>
      <trkpt lat="47.17251" lon="16.31894">
        <ele>350.253566</ele>
        <time>2022-09-28T09:25:04.688Z</time>
      </trkpt>
      <trkpt lat="47.17256" lon="16.31906">
        <ele>350.299256</ele>
        <time>2022-09-28T09:25:07.707Z</time>
      </trkpt>
      <trkpt lat="47.17262" lon="16.31919">
        <ele>350.345459</ele>
        <time>2022-09-28T09:25:10.708Z</time>
      </trkpt>
      <trkpt lat="47.17267" lon="16.31931">
        <ele>350.391146</ele>
        <time>2022-09-28T09:25:13.705Z</time>
      </trkpt>
      <trkpt lat="47.17273" lon="16.31943">
        <ele>350.436072</ele>
        <time>2022-09-28T09:25:16.710Z</time>
      </trkpt>
      <trkpt lat="47.17278" lon="16.31955">
        <ele>350.482022</ele>
        <time>2022-09-28T09:25:19.693Z</time>
      </trkpt>
      <trkpt lat="47.17284" lon="16.31967">
        <ele>350.528789</ele>
        <time>2022-09-28T09:25:22.705Z</time>
      </trkpt>
      <trkpt lat="47.1729" lon="16.3198">
        <ele>350.57837</ele>
        <time>2022-09-28T09:25:25.735Z</time>
      </trkpt>
      <trkpt lat="47.17297" lon="16.31994">
        <ele>350.633192</ele>
        <time>2022-09-28T09:25:28.694Z</time>
      </trkpt>
      <trkpt lat="47.17303" lon="16.32005">
        <ele>350.674765</ele>
        <time>2022-09-28T09:25:30.693Z</time>
      </trkpt>
      <trkpt lat="47.1731" lon="16.32021">
        <ele>350.735424</ele>
        <time>2022-09-28T09:25:33.691Z</time>
      </trkpt>
      <trkpt lat="47.17317" lon="16.32036">
        <ele>350.790661</ele>
        <time>2022-09-28T09:25:36.698Z</time>
      </trkpt>
      <trkpt lat="47.17323" lon="16.3205">
        <ele>350.844096</ele>
        <time>2022-09-28T09:25:39.712Z</time>
      </trkpt>
      <trkpt lat="47.17329" lon="16.32065">
        <ele>350.898003</ele>
        <time>2022-09-28T09:25:42.706Z</time>
      </trkpt>
      <trkpt lat="47.17335" lon="16.3208">
        <ele>350.951731</ele>
        <time>2022-09-28T09:25:45.685Z</time>
      </trkpt>
      <trkpt lat="47.17342" lon="16.32093">
        <ele>351.00235</ele>
        <time>2022-09-28T09:25:48.699Z</time>
      </trkpt>
      <trkpt lat="47.17348" lon="16.32106">
        <ele>351.107918</ele>
        <time>2022-09-28T09:25:51.738Z</time>
      </trkpt>
      <trkpt lat="47.17354" lon="16.3212">
        <ele>351.313833</ele>
        <time>2022-09-28T09:25:54.705Z</time>
      </trkpt>
      <trkpt lat="47.1736" lon="16.32133">
        <ele>351.522864</ele>
        <time>2022-09-28T09:25:57.751Z</time>
      </trkpt>
      <trkpt lat="47.17366" lon="16.32147">
        <ele>351.732959</ele>
        <time>2022-09-28T09:26:00.696Z</time>
      </trkpt>
      <trkpt lat="47.17372" lon="16.3216">
        <ele>351.939869</ele>
        <time>2022-09-28T09:26:03.710Z</time>
      </trkpt>
      <trkpt lat="47.17379" lon="16.32173">
        <ele>352.149178</ele>
        <time>2022-09-28T09:26:06.707Z</time>
      </trkpt>
      <trkpt lat="47.17385" lon="16.32185">
        <ele>352.334904</ele>
        <time>2022-09-28T09:26:09.695Z</time>
      </trkpt>
      <trkpt lat="47.1739" lon="16.32197">
        <ele>352.515308</ele>
        <time>2022-09-28T09:26:12.714Z</time>
      </trkpt>
      <trkpt lat="47.17396" lon="16.32207">
        <ele>352.688564</ele>
        <time>2022-09-28T09:26:15.709Z</time>
      </trkpt>
      <trkpt lat="47.17402" lon="16.32221">
        <ele>352.909283</ele>
        <time>2022-09-28T09:26:19.731Z</time>
      </trkpt>
      <trkpt lat="47.17409" lon="16.32234">
        <ele>353.112035</ele>
        <time>2022-09-28T09:26:23.712Z</time>
      </trkpt>
      <trkpt lat="47.17415" lon="16.32247">
        <ele>353.306271</ele>
        <time>2022-09-28T09:26:27.712Z</time>
      </trkpt>
      <trkpt lat="47.17421" lon="16.3226">
        <ele>353.518483</ele>
        <time>2022-09-28T09:26:31.722Z</time>
      </trkpt>
      <trkpt lat="47.17427" lon="16.32273">
        <ele>353.723268</ele>
        <time>2022-09-28T09:26:35.695Z</time>
      </trkpt>
      <trkpt lat="47.17433" lon="16.32287">
        <ele>353.924923</ele>
        <time>2022-09-28T09:26:39.712Z</time>
      </trkpt>
      <trkpt lat="47.17439" lon="16.323">
        <ele>354.132937</ele>
        <time>2022-09-28T09:26:43.717Z</time>
      </trkpt>
      <trkpt lat="47.17446" lon="16.32314">
        <ele>354.353637</ele>
        <time>2022-09-28T09:26:47.706Z</time>
      </trkpt>
      <trkpt lat="47.17452" lon="16.32328">
        <ele>354.315184</ele>
        <time>2022-09-28T09:26:51.703Z</time>
      </trkpt>
      <trkpt lat="47.17457" lon="16.3234">
        <ele>354.176404</ele>
        <time>2022-09-28T09:26:54.699Z</time>
      </trkpt>
      <trkpt lat="47.17463" lon="16.32352">
        <ele>354.031652</ele>
        <time>2022-09-28T09:26:57.729Z</time>
      </trkpt>
      <trkpt lat="47.17468" lon="16.32364">
        <ele>353.878295</ele>
        <time>2022-09-28T09:27:00.707Z</time>
      </trkpt>
      <trkpt lat="47.17473" lon="16.32378">
        <ele>353.71978</ele>
        <time>2022-09-28T09:27:03.715Z</time>
      </trkpt>
      <trkpt lat="47.17479" lon="16.32391">
        <ele>353.558736</ele>
        <time>2022-09-28T09:27:06.722Z</time>
      </trkpt>
      <trkpt lat="47.17484" lon="16.32405">
        <ele>353.396553</ele>
        <time>2022-09-28T09:27:09.700Z</time>
      </trkpt>
      <trkpt lat="47.1749" lon="16.32419">
        <ele>353.227044</ele>
        <time>2022-09-28T09:27:12.737Z</time>
      </trkpt>
      <trkpt lat="47.17496" lon="16.32434">
        <ele>353.051822</ele>
        <time>2022-09-28T09:27:15.718Z</time>
      </trkpt>
      <trkpt lat="47.17503" lon="16.32448">
        <ele>352.872341</ele>
        <time>2022-09-28T09:27:18.702Z</time>
      </trkpt>
      <trkpt lat="47.1751" lon="16.32463">
        <ele>352.686171</ele>
        <time>2022-09-28T09:27:21.706Z</time>
      </trkpt>
      <trkpt lat="47.17516" lon="16.3248">
        <ele>352.492677</ele>
        <time>2022-09-28T09:27:24.687Z</time>
      </trkpt>
      <trkpt lat="47.17523" lon="16.32496">
        <ele>352.291238</ele>
        <time>2022-09-28T09:27:27.679Z</time>
      </trkpt>
      <trkpt lat="47.1753" lon="16.32512">
        <ele>352.096584</ele>
        <time>2022-09-28T09:27:30.705Z</time>
      </trkpt>
      <trkpt lat="47.17538" lon="16.32528">
        <ele>351.902779</ele>
        <time>2022-09-28T09:27:33.705Z</time>
      </trkpt>
      <trkpt lat="47.17545" lon="16.32543">
        <ele>351.727565</ele>
        <time>2022-09-28T09:27:36.704Z</time>
      </trkpt>
      <trkpt lat="47.17553" lon="16.32556">
        <ele>351.817416</ele>
        <time>2022-09-28T09:27:39.720Z</time>
      </trkpt>
      <trkpt lat="47.17561" lon="16.32568">
        <ele>351.900924</ele>
        <time>2022-09-28T09:27:42.696Z</time>
      </trkpt>
      <trkpt lat="47.1757" lon="16.32579">
        <ele>351.982868</ele>
        <time>2022-09-28T09:27:45.704Z</time>
      </trkpt>
      <trkpt lat="47.17577" lon="16.3259">
        <ele>352.060964</ele>
        <time>2022-09-28T09:27:48.700Z</time>
      </trkpt>
      <trkpt lat="47.17585" lon="16.32601">
        <ele>352.137498</ele>
        <time>2022-09-28T09:27:51.686Z</time>
      </trkpt>
      <trkpt lat="47.17593" lon="16.32611">
        <ele>352.21356</ele>
        <time>2022-09-28T09:27:54.726Z</time>
      </trkpt>
      <trkpt lat="47.17601" lon="16.3262">
        <ele>352.291632</ele>
        <time>2022-09-28T09:27:57.688Z</time>
      </trkpt>
      <trkpt lat="47.1761" lon="16.32631">
        <ele>352.373524</ele>
        <time>2022-09-28T09:28:00.698Z</time>
      </trkpt>
      <trkpt lat="47.17617" lon="16.32643">
        <ele>352.454043</ele>
        <time>2022-09-28T09:28:03.716Z</time>
      </trkpt>
      <trkpt lat="47.17624" lon="16.32655">
        <ele>352.534794</ele>
        <time>2022-09-28T09:28:06.681Z</time>
      </trkpt>
      <trkpt lat="47.17633" lon="16.32665">
        <ele>352.614269</ele>
        <time>2022-09-28T09:28:09.713Z</time>
      </trkpt>
      <trkpt lat="47.1764" lon="16.32675">
        <ele>352.688865</ele>
        <time>2022-09-28T09:28:12.735Z</time>
      </trkpt>
      <trkpt lat="47.17647" lon="16.32685">
        <ele>352.76155</ele>
        <time>2022-09-28T09:28:15.697Z</time>
      </trkpt>
      <trkpt lat="47.17654" lon="16.32695">
        <ele>352.831265</ele>
        <time>2022-09-28T09:28:18.686Z</time>
      </trkpt>
      <trkpt lat="47.17662" lon="16.32705">
        <ele>352.906734</ele>
        <time>2022-09-28T09:28:21.705Z</time>
      </trkpt>
      <trkpt lat="47.1767" lon="16.32714">
        <ele>352.981068</ele>
        <time>2022-09-28T09:28:24.690Z</time>
      </trkpt>
      <trkpt lat="47.17678" lon="16.32724">
        <ele>353.066168</ele>
        <time>2022-09-28T09:28:27.720Z</time>
      </trkpt>
      <trkpt lat="47.17685" lon="16.32734">
        <ele>353.180231</ele>
        <time>2022-09-28T09:28:30.707Z</time>
      </trkpt>
      <trkpt lat="47.17692" lon="16.32742">
        <ele>353.287337</ele>
        <time>2022-09-28T09:28:33.708Z</time>
      </trkpt>
      <trkpt lat="47.17702" lon="16.3275">
        <ele>353.420465</ele>
        <time>2022-09-28T09:28:37.701Z</time>
      </trkpt>
      <trkpt lat="47.17712" lon="16.32758">
        <ele>353.547459</ele>
        <time>2022-09-28T09:28:41.699Z</time>
      </trkpt>
      <trkpt lat="47.17723" lon="16.32763">
        <ele>353.683641</ele>
        <time>2022-09-28T09:28:45.695Z</time>
      </trkpt>
      <trkpt lat="47.17734" lon="16.32768">
        <ele>353.816744</ele>
        <time>2022-09-28T09:28:49.707Z</time>
      </trkpt>
      <trkpt lat="47.17745" lon="16.32772">
        <ele>353.940444</ele>
        <time>2022-09-28T09:28:53.698Z</time>
      </trkpt>
      <trkpt lat="47.17754" lon="16.32774">
        <ele>354.052769</ele>
        <time>2022-09-28T09:28:57.740Z</time>
      </trkpt>
      <trkpt lat="47.17764" lon="16.32776">
        <ele>354.161019</ele>
        <time>2022-09-28T09:29:01.685Z</time>
      </trkpt>
      <trkpt lat="47.17774" lon="16.32778">
        <ele>354.278158</ele>
        <time>2022-09-28T09:29:05.699Z</time>
      </trkpt>
      <trkpt lat="47.17783" lon="16.3278">
        <ele>354.390839</ele>
        <time>2022-09-28T09:29:09.701Z</time>
      </trkpt>
      <trkpt lat="47.17794" lon="16.32782">
        <ele>354.516587</ele>
        <time>2022-09-28T09:29:14.722Z</time>
      </trkpt>
      <trkpt lat="47.17804" lon="16.32782">
        <ele>354.632209</ele>
        <time>2022-09-28T09:29:18.693Z</time>
      </trkpt>
      <trkpt lat="47.17815" lon="16.32782">
        <ele>354.758312</ele>
        <time>2022-09-28T09:29:22.705Z</time>
      </trkpt>
      <trkpt lat="47.17825" lon="16.32785">
        <ele>354.8723</ele>
        <time>2022-09-28T09:29:26.694Z</time>
      </trkpt>
      <trkpt lat="47.17836" lon="16.32786">
        <ele>354.999881</ele>
        <time>2022-09-28T09:29:30.714Z</time>
      </trkpt>
      <trkpt lat="47.17846" lon="16.3279">
        <ele>355.118539</ele>
        <time>2022-09-28T09:29:34.702Z</time>
      </trkpt>
      <trkpt lat="47.17855" lon="16.32793">
        <ele>355.359954</ele>
        <time>2022-09-28T09:29:37.749Z</time>
      </trkpt>
      <trkpt lat="47.17865" lon="16.32797">
        <ele>355.642721</ele>
        <time>2022-09-28T09:29:40.701Z</time>
      </trkpt>
      <trkpt lat="47.17877" lon="16.32804">
        <ele>355.984172</ele>
        <time>2022-09-28T09:29:43.701Z</time>
      </trkpt>
      <trkpt lat="47.17885" lon="16.3281">
        <ele>356.224495</ele>
        <time>2022-09-28T09:29:45.671Z</time>
      </trkpt>
      <trkpt lat="47.17896" lon="16.32815">
        <ele>356.529638</ele>
        <time>2022-09-28T09:29:48.674Z</time>
      </trkpt>
      <trkpt lat="47.17906" lon="16.32819">
        <ele>356.78513</ele>
        <time>2022-09-28T09:29:51.678Z</time>
      </trkpt>
      <trkpt lat="47.17917" lon="16.32826">
        <ele>357.099995</ele>
        <time>2022-09-28T09:29:54.693Z</time>
      </trkpt>
      <trkpt lat="47.17929" lon="16.32834">
        <ele>357.469985</ele>
        <time>2022-09-28T09:29:57.704Z</time>
      </trkpt>
      <trkpt lat="47.1794" lon="16.32843">
        <ele>357.787372</ele>
        <time>2022-09-28T09:29:59.700Z</time>
      </trkpt>
      <trkpt lat="47.17951" lon="16.32851">
        <ele>358.117791</ele>
        <time>2022-09-28T09:30:01.705Z</time>
      </trkpt>
      <trkpt lat="47.17962" lon="16.32857">
        <ele>358.412172</ele>
        <time>2022-09-28T09:30:03.705Z</time>
      </trkpt>
      <trkpt lat="47.17972" lon="16.32864">
        <ele>358.724585</ele>
        <time>2022-09-28T09:30:05.752Z</time>
      </trkpt>
      <trkpt lat="47.17984" lon="16.32872">
        <ele>359.066857</ele>
        <time>2022-09-28T09:30:07.683Z</time>
      </trkpt>
      <trkpt lat="47.17996" lon="16.3288">
        <ele>359.415546</ele>
        <time>2022-09-28T09:30:09.694Z</time>
      </trkpt>
      <trkpt lat="47.18007" lon="16.3289">
        <ele>359.745231</ele>
        <time>2022-09-28T09:30:11.712Z</time>
      </trkpt>
      <trkpt lat="47.18016" lon="16.32898">
        <ele>359.384672</ele>
        <time>2022-09-28T09:30:13.702Z</time>
      </trkpt>
      <trkpt lat="47.18025" lon="16.32905">
        <ele>358.53991</ele>
        <time>2022-09-28T09:30:15.688Z</time>
      </trkpt>
      <trkpt lat="47.18035" lon="16.32913">
        <ele>357.650093</ele>
        <time>2022-09-28T09:30:17.710Z</time>
      </trkpt>
      <trkpt lat="47.18046" lon="16.32922">
        <ele>356.650601</ele>
        <time>2022-09-28T09:30:19.702Z</time>
      </trkpt>
      <trkpt lat="47.18058" lon="16.32931">
        <ele>355.520578</ele>
        <time>2022-09-28T09:30:21.690Z</time>
      </trkpt>
      <trkpt lat="47.18072" lon="16.32941">
        <ele>354.262557</ele>
        <time>2022-09-28T09:30:23.702Z</time>
      </trkpt>
      <trkpt lat="47.18087" lon="16.32951">
        <ele>352.995302</ele>
        <time>2022-09-28T09:30:25.715Z</time>
      </trkpt>
      <trkpt lat="47.18098" lon="16.32962">
        <ele>351.861076</ele>
        <time>2022-09-28T09:30:27.698Z</time>
      </trkpt>
      <trkpt lat="47.1811" lon="16.32974">
        <ele>350.736602</ele>
        <time>2022-09-28T09:30:29.707Z</time>
      </trkpt>
      <trkpt lat="47.18123" lon="16.32987">
        <ele>349.464653</ele>
        <time>2022-09-28T09:30:31.700Z</time>
      </trkpt>
      <trkpt lat="47.18138" lon="16.33">
        <ele>348.042521</ele>
        <time>2022-09-28T09:30:33.695Z</time>
      </trkpt>
      <trkpt lat="47.18154" lon="16.33012">
        <ele>346.62486</ele>
        <time>2022-09-28T09:30:35.678Z</time>
      </trkpt>
      <trkpt lat="47.18167" lon="16.33025">
        <ele>345.242012</ele>
        <time>2022-09-28T09:30:37.707Z</time>
      </trkpt>
      <trkpt lat="47.18181" lon="16.33037">
        <ele>342.691127</ele>
        <time>2022-09-28T09:30:39.713Z</time>
      </trkpt>
      <trkpt lat="47.18194" lon="16.33047">
        <ele>340.222307</ele>
        <time>2022-09-28T09:30:41.703Z</time>
      </trkpt>
      <trkpt lat="47.18206" lon="16.33057">
        <ele>337.909033</ele>
        <time>2022-09-28T09:30:43.749Z</time>
      </trkpt>
      <trkpt lat="47.18218" lon="16.33067">
        <ele>335.624627</ele>
        <time>2022-09-28T09:30:45.691Z</time>
      </trkpt>
      <trkpt lat="47.1823" lon="16.33076">
        <ele>333.380213</ele>
        <time>2022-09-28T09:30:47.709Z</time>
      </trkpt>
      <trkpt lat="47.18242" lon="16.33084">
        <ele>331.130076</ele>
        <time>2022-09-28T09:30:49.781Z</time>
      </trkpt>
      <trkpt lat="47.18255" lon="16.33092">
        <ele>328.825174</ele>
        <time>2022-09-28T09:30:51.691Z</time>
      </trkpt>
      <trkpt lat="47.18267" lon="16.33102">
        <ele>326.509936</ele>
        <time>2022-09-28T09:30:53.683Z</time>
      </trkpt>
      <trkpt lat="47.18279" lon="16.33112">
        <ele>324.164016</ele>
        <time>2022-09-28T09:30:55.685Z</time>
      </trkpt>
      <trkpt lat="47.18292" lon="16.33122">
        <ele>321.741646</ele>
        <time>2022-09-28T09:30:57.690Z</time>
      </trkpt>
      <trkpt lat="47.18305" lon="16.33133">
        <ele>319.351286</ele>
        <time>2022-09-28T09:30:59.698Z</time>
      </trkpt>
      <trkpt lat="47.18316" lon="16.33145">
        <ele>316.980498</ele>
        <time>2022-09-28T09:31:01.695Z</time>
      </trkpt>
      <trkpt lat="47.18326" lon="16.33159">
        <ele>315.169834</ele>
        <time>2022-09-28T09:31:03.712Z</time>
      </trkpt>
      <trkpt lat="47.18335" lon="16.33172">
        <ele>314.225085</ele>
        <time>2022-09-28T09:31:05.727Z</time>
      </trkpt>
      <trkpt lat="47.18345" lon="16.33189">
        <ele>313.145806</ele>
        <time>2022-09-28T09:31:07.754Z</time>
      </trkpt>
      <trkpt lat="47.18355" lon="16.33204">
        <ele>312.08216</ele>
        <time>2022-09-28T09:31:09.690Z</time>
      </trkpt>
      <trkpt lat="47.18364" lon="16.33219">
        <ele>311.145285</ele>
        <time>2022-09-28T09:31:11.700Z</time>
      </trkpt>
      <trkpt lat="47.18372" lon="16.33232">
        <ele>310.282051</ele>
        <time>2022-09-28T09:31:13.707Z</time>
      </trkpt>
      <trkpt lat="47.18379" lon="16.33244">
        <ele>309.503395</ele>
        <time>2022-09-28T09:31:15.697Z</time>
      </trkpt>
      <trkpt lat="47.18388" lon="16.33258">
        <ele>308.55175</ele>
        <time>2022-09-28T09:31:18.728Z</time>
      </trkpt>
      <trkpt lat="47.18392" lon="16.33273">
        <ele>307.787365</ele>
        <time>2022-09-28T09:31:21.700Z</time>
      </trkpt>
      <trkpt lat="47.18388" lon="16.33287">
        <ele>307.003877</ele>
        <time>2022-09-28T09:31:24.698Z</time>
      </trkpt>
      <trkpt lat="47.18381" lon="16.33296">
        <ele>306.330993</ele>
        <time>2022-09-28T09:31:27.706Z</time>
      </trkpt>
      <trkpt lat="47.18373" lon="16.33304">
        <ele>305.635432</ele>
        <time>2022-09-28T09:31:30.701Z</time>
      </trkpt>
      <trkpt lat="47.18365" lon="16.33313">
        <ele>304.893927</ele>
        <time>2022-09-28T09:31:33.692Z</time>
      </trkpt>
      <trkpt lat="47.18356" lon="16.33323">
        <ele>304.129301</ele>
        <time>2022-09-28T09:31:36.727Z</time>
      </trkpt>
      <trkpt lat="47.18347" lon="16.33332">
        <ele>303.329765</ele>
        <time>2022-09-28T09:31:39.710Z</time>
      </trkpt>
      <trkpt lat="47.18338" lon="16.33342">
        <ele>302.524565</ele>
        <time>2022-09-28T09:31:42.720Z</time>
      </trkpt>
      <trkpt lat="47.1833" lon="16.33353">
        <ele>302.760564</ele>
        <time>2022-09-28T09:31:45.697Z</time>
      </trkpt>
      <trkpt lat="47.18322" lon="16.33366">
        <ele>303.001946</ele>
        <time>2022-09-28T09:31:48.698Z</time>
      </trkpt>
      <trkpt lat="47.18316" lon="16.33381">
        <ele>303.242047</ele>
        <time>2022-09-28T09:31:51.694Z</time>
      </trkpt>
      <trkpt lat="47.1831" lon="16.33395">
        <ele>303.485855</ele>
        <time>2022-09-28T09:31:54.714Z</time>
      </trkpt>
      <trkpt lat="47.18305" lon="16.33411">
        <ele>303.723758</ele>
        <time>2022-09-28T09:31:57.696Z</time>
      </trkpt>
      <trkpt lat="47.18301" lon="16.33427">
        <ele>303.965272</ele>
        <time>2022-09-28T09:32:00.693Z</time>
      </trkpt>
      <trkpt lat="47.18298" lon="16.33444">
        <ele>304.211427</ele>
        <time>2022-09-28T09:32:03.689Z</time>
      </trkpt>
      <trkpt lat="47.18294" lon="16.33462">
        <ele>304.477672</ele>
        <time>2022-09-28T09:32:06.723Z</time>
      </trkpt>
      <trkpt lat="47.1829" lon="16.3348">
        <ele>304.753236</ele>
        <time>2022-09-28T09:32:09.699Z</time>
      </trkpt>
      <trkpt lat="47.18288" lon="16.33494">
        <ele>304.947705</ele>
        <time>2022-09-28T09:32:11.716Z</time>
      </trkpt>
      <trkpt lat="47.18285" lon="16.33507">
        <ele>305.141109</ele>
        <time>2022-09-28T09:32:13.709Z</time>
      </trkpt>
      <trkpt lat="47.18283" lon="16.3352">
        <ele>305.332081</ele>
        <time>2022-09-28T09:32:15.693Z</time>
      </trkpt>
      <trkpt lat="47.18281" lon="16.33534">
        <ele>305.528725</ele>
        <time>2022-09-28T09:32:17.725Z</time>
      </trkpt>
      <trkpt lat="47.1828" lon="16.33548">
        <ele>305.727585</ele>
        <time>2022-09-28T09:32:19.693Z</time>
      </trkpt>
      <trkpt lat="47.18279" lon="16.33561">
        <ele>305.915944</ele>
        <time>2022-09-28T09:32:21.697Z</time>
      </trkpt>
      <trkpt lat="47.18279" lon="16.33581">
        <ele>306.194979</ele>
        <time>2022-09-28T09:32:24.701Z</time>
      </trkpt>
      <trkpt lat="47.1828" lon="16.336">
        <ele>306.188616</ele>
        <time>2022-09-28T09:32:27.691Z</time>
      </trkpt>
      <trkpt lat="47.18282" lon="16.33618">
        <ele>306.105255</ele>
        <time>2022-09-28T09:32:30.706Z</time>
      </trkpt>
      <trkpt lat="47.18285" lon="16.33638">
        <ele>306.019317</ele>
        <time>2022-09-28T09:32:33.707Z</time>
      </trkpt>
      <trkpt lat="47.18286" lon="16.33651">
        <ele>305.957082</ele>
        <time>2022-09-28T09:32:35.699Z</time>
      </trkpt>
      <trkpt lat="47.18287" lon="16.33667">
        <ele>305.889976</ele>
        <time>2022-09-28T09:32:37.693Z</time>
      </trkpt>
      <trkpt lat="47.18288" lon="16.33682">
        <ele>305.823551</ele>
        <time>2022-09-28T09:32:39.724Z</time>
      </trkpt>
      <trkpt lat="47.18287" lon="16.33696">
        <ele>305.75945</ele>
        <time>2022-09-28T09:32:41.689Z</time>
      </trkpt>
      <trkpt lat="47.18285" lon="16.3371">
        <ele>305.698082</ele>
        <time>2022-09-28T09:32:43.704Z</time>
      </trkpt>
      <trkpt lat="47.18283" lon="16.33724">
        <ele>305.634579</ele>
        <time>2022-09-28T09:32:45.682Z</time>
      </trkpt>
      <trkpt lat="47.18281" lon="16.33738">
        <ele>305.573082</ele>
        <time>2022-09-28T09:32:47.706Z</time>
      </trkpt>
      <trkpt lat="47.18279" lon="16.33757">
        <ele>305.486577</ele>
        <time>2022-09-28T09:32:50.742Z</time>
      </trkpt>
      <trkpt lat="47.18279" lon="16.33771">
        <ele>305.426318</ele>
        <time>2022-09-28T09:32:52.702Z</time>
      </trkpt>
      <trkpt lat="47.18279" lon="16.3379">
        <ele>305.34275</ele>
        <time>2022-09-28T09:32:55.710Z</time>
      </trkpt>
      <trkpt lat="47.1828" lon="16.33808">
        <ele>305.260553</ele>
        <time>2022-09-28T09:32:58.762Z</time>
      </trkpt>
      <trkpt lat="47.18283" lon="16.33826">
        <ele>305.179192</ele>
        <time>2022-09-28T09:33:01.754Z</time>
      </trkpt>
      <trkpt lat="47.18287" lon="16.33839">
        <ele>305.120032</ele>
        <time>2022-09-28T09:33:03.708Z</time>
      </trkpt>
      <trkpt lat="47.18291" lon="16.33853">
        <ele>305.072346</ele>
        <time>2022-09-28T09:33:05.716Z</time>
      </trkpt>
      <trkpt lat="47.18298" lon="16.33864">
        <ele>305.039208</ele>
        <time>2022-09-28T09:33:07.702Z</time>
      </trkpt>
      <trkpt lat="47.18308" lon="16.33871">
        <ele>305.005057</ele>
        <time>2022-09-28T09:33:09.687Z</time>
      </trkpt>
      <trkpt lat="47.1832" lon="16.3387">
        <ele>304.968871</ele>
        <time>2022-09-28T09:33:11.695Z</time>
      </trkpt>
      <trkpt lat="47.18331" lon="16.33866">
        <ele>304.932879</ele>
        <time>2022-09-28T09:33:13.703Z</time>
      </trkpt>
      <trkpt lat="47.18342" lon="16.33862">
        <ele>304.89835</ele>
        <time>2022-09-28T09:33:15.713Z</time>
      </trkpt>
      <trkpt lat="47.18352" lon="16.33858">
        <ele>304.865293</ele>
        <time>2022-09-28T09:33:17.666Z</time>
      </trkpt>
      <trkpt lat="47.18362" lon="16.33856">
        <ele>304.833848</ele>
        <time>2022-09-28T09:33:19.703Z</time>
      </trkpt>
      <trkpt lat="47.18372" lon="16.33855">
        <ele>304.803956</ele>
        <time>2022-09-28T09:33:21.692Z</time>
      </trkpt>
      <trkpt lat="47.18381" lon="16.33855">
        <ele>304.774691</ele>
        <time>2022-09-28T09:33:23.733Z</time>
      </trkpt>
      <trkpt lat="47.1839" lon="16.33856">
        <ele>304.745727</ele>
        <time>2022-09-28T09:33:25.706Z</time>
      </trkpt>
      <trkpt lat="47.184" lon="16.33857">
        <ele>304.717266</ele>
        <time>2022-09-28T09:33:27.695Z</time>
      </trkpt>
      <trkpt lat="47.18409" lon="16.33859">
        <ele>304.688117</ele>
        <time>2022-09-28T09:33:29.694Z</time>
      </trkpt>
      <trkpt lat="47.18418" lon="16.3386">
        <ele>304.659587</ele>
        <time>2022-09-28T09:33:31.710Z</time>
      </trkpt>
      <trkpt lat="47.18427" lon="16.33862">
        <ele>304.630945</ele>
        <time>2022-09-28T09:33:33.691Z</time>
      </trkpt>
      <trkpt lat="47.18436" lon="16.33865">
        <ele>304.602698</ele>
        <time>2022-09-28T09:33:35.718Z</time>
      </trkpt>
      <trkpt lat="47.18445" lon="16.33868">
        <ele>304.574366</ele>
        <time>2022-09-28T09:33:37.708Z</time>
      </trkpt>
      <trkpt lat="47.18458" lon="16.33873">
        <ele>304.532198</ele>
        <time>2022-09-28T09:33:40.711Z</time>
      </trkpt>
      <trkpt lat="47.18466" lon="16.33878">
        <ele>304.411493</ele>
        <time>2022-09-28T09:33:42.696Z</time>
      </trkpt>
      <trkpt lat="47.18475" lon="16.33883">
        <ele>304.282454</ele>
        <time>2022-09-28T09:33:44.701Z</time>
      </trkpt>
      <trkpt lat="47.18487" lon="16.3389">
        <ele>304.097036</ele>
        <time>2022-09-28T09:33:47.696Z</time>
      </trkpt>
      <trkpt lat="47.18495" lon="16.33896">
        <ele>303.964639</ele>
        <time>2022-09-28T09:33:49.703Z</time>
      </trkpt>
      <trkpt lat="47.18504" lon="16.33902">
        <ele>303.83028</ele>
        <time>2022-09-28T09:33:51.690Z</time>
      </trkpt>
      <trkpt lat="47.18513" lon="16.33908">
        <ele>303.695945</ele>
        <time>2022-09-28T09:33:53.709Z</time>
      </trkpt>
      <trkpt lat="47.18521" lon="16.33914">
        <ele>303.564142</ele>
        <time>2022-09-28T09:33:55.707Z</time>
      </trkpt>
      <trkpt lat="47.18529" lon="16.3392">
        <ele>303.431927</ele>
        <time>2022-09-28T09:33:57.698Z</time>
      </trkpt>
      <trkpt lat="47.18537" lon="16.33926">
        <ele>303.302196</ele>
        <time>2022-09-28T09:33:59.722Z</time>
      </trkpt>
      <trkpt lat="47.18545" lon="16.33932">
        <ele>303.172912</ele>
        <time>2022-09-28T09:34:01.682Z</time>
      </trkpt>
      <trkpt lat="47.18553" lon="16.33939">
        <ele>303.045328</ele>
        <time>2022-09-28T09:34:03.691Z</time>
      </trkpt>
      <trkpt lat="47.18561" lon="16.33945">
        <ele>302.917745</ele>
        <time>2022-09-28T09:34:05.740Z</time>
      </trkpt>
      <trkpt lat="47.1857" lon="16.33951">
        <ele>302.788014</ele>
        <time>2022-09-28T09:34:07.698Z</time>
      </trkpt>
      <trkpt lat="47.18578" lon="16.33958">
        <ele>302.658146</ele>
        <time>2022-09-28T09:34:09.709Z</time>
      </trkpt>
      <trkpt lat="47.18589" lon="16.33968">
        <ele>302.468218</ele>
        <time>2022-09-28T09:34:12.682Z</time>
      </trkpt>
      <trkpt lat="47.18601" lon="16.33978">
        <ele>302.278533</ele>
        <time>2022-09-28T09:34:15.672Z</time>
      </trkpt>
      <trkpt lat="47.18613" lon="16.33986">
        <ele>302.088684</ele>
        <time>2022-09-28T09:34:18.693Z</time>
      </trkpt>
      <trkpt lat="47.18621" lon="16.33993">
        <ele>301.989961</ele>
        <time>2022-09-28T09:34:20.708Z</time>
      </trkpt>
      <trkpt lat="47.18632" lon="16.34002">
        <ele>302.045061</ele>
        <time>2022-09-28T09:34:23.709Z</time>
      </trkpt>
      <trkpt lat="47.1864" lon="16.34009">
        <ele>302.082861</ele>
        <time>2022-09-28T09:34:25.705Z</time>
      </trkpt>
      <trkpt lat="47.18648" lon="16.34015">
        <ele>302.120029</ele>
        <time>2022-09-28T09:34:27.723Z</time>
      </trkpt>
      <trkpt lat="47.1866" lon="16.34025">
        <ele>302.175892</ele>
        <time>2022-09-28T09:34:30.688Z</time>
      </trkpt>
      <trkpt lat="47.18668" lon="16.34032">
        <ele>302.213409</ele>
        <time>2022-09-28T09:34:32.689Z</time>
      </trkpt>
      <trkpt lat="47.18676" lon="16.34039">
        <ele>302.251525</ele>
        <time>2022-09-28T09:34:34.709Z</time>
      </trkpt>
      <trkpt lat="47.18685" lon="16.34046">
        <ele>302.292156</ele>
        <time>2022-09-28T09:34:36.680Z</time>
      </trkpt>
      <trkpt lat="47.18693" lon="16.34053">
        <ele>302.331803</ele>
        <time>2022-09-28T09:34:38.726Z</time>
      </trkpt>
      <trkpt lat="47.18702" lon="16.3406">
        <ele>302.372655</ele>
        <time>2022-09-28T09:34:40.714Z</time>
      </trkpt>
      <trkpt lat="47.18711" lon="16.34067">
        <ele>302.41444</ele>
        <time>2022-09-28T09:34:42.697Z</time>
      </trkpt>
      <trkpt lat="47.1872" lon="16.34074">
        <ele>302.45845</ele>
        <time>2022-09-28T09:34:44.714Z</time>
      </trkpt>
      <trkpt lat="47.18728" lon="16.3408">
        <ele>302.495932</ele>
        <time>2022-09-28T09:34:46.704Z</time>
      </trkpt>
      <trkpt lat="47.18738" lon="16.34086">
        <ele>302.537369</ele>
        <time>2022-09-28T09:34:48.756Z</time>
      </trkpt>
      <trkpt lat="47.18747" lon="16.34093">
        <ele>302.578538</ele>
        <time>2022-09-28T09:34:50.698Z</time>
      </trkpt>
      <trkpt lat="47.18757" lon="16.341">
        <ele>302.623402</ele>
        <time>2022-09-28T09:34:52.719Z</time>
      </trkpt>
      <trkpt lat="47.18766" lon="16.34106">
        <ele>302.668149</ele>
        <time>2022-09-28T09:34:54.686Z</time>
      </trkpt>
      <trkpt lat="47.18776" lon="16.34114">
        <ele>302.712652</ele>
        <time>2022-09-28T09:34:56.705Z</time>
      </trkpt>
      <trkpt lat="47.18786" lon="16.34121">
        <ele>302.722345</ele>
        <time>2022-09-28T09:34:58.693Z</time>
      </trkpt>
      <trkpt lat="47.18795" lon="16.34128">
        <ele>302.722852</ele>
        <time>2022-09-28T09:35:00.686Z</time>
      </trkpt>
      <trkpt lat="47.18804" lon="16.34135">
        <ele>302.723329</ele>
        <time>2022-09-28T09:35:02.715Z</time>
      </trkpt>
      <trkpt lat="47.18813" lon="16.34142">
        <ele>302.723822</ele>
        <time>2022-09-28T09:35:04.695Z</time>
      </trkpt>
      <trkpt lat="47.18822" lon="16.34147">
        <ele>302.724316</ele>
        <time>2022-09-28T09:35:06.689Z</time>
      </trkpt>
      <trkpt lat="47.18832" lon="16.34153">
        <ele>302.724799</ele>
        <time>2022-09-28T09:35:08.823Z</time>
      </trkpt>
      <trkpt lat="47.1884" lon="16.3416">
        <ele>302.725278</ele>
        <time>2022-09-28T09:35:10.697Z</time>
      </trkpt>
      <trkpt lat="47.1885" lon="16.34166">
        <ele>302.725763</ele>
        <time>2022-09-28T09:35:12.697Z</time>
      </trkpt>
      <trkpt lat="47.18858" lon="16.34173">
        <ele>302.726248</ele>
        <time>2022-09-28T09:35:14.721Z</time>
      </trkpt>
      <trkpt lat="47.18867" lon="16.34179">
        <ele>302.726701</ele>
        <time>2022-09-28T09:35:16.699Z</time>
      </trkpt>
      <trkpt lat="47.18876" lon="16.34186">
        <ele>302.727167</ele>
        <time>2022-09-28T09:35:18.682Z</time>
      </trkpt>
      <trkpt lat="47.18886" lon="16.34194">
        <ele>302.727762</ele>
        <time>2022-09-28T09:35:21.676Z</time>
      </trkpt>
      <trkpt lat="47.18895" lon="16.34199">
        <ele>302.728197</ele>
        <time>2022-09-28T09:35:23.706Z</time>
      </trkpt>
      <trkpt lat="47.18904" lon="16.34204">
        <ele>302.728642</ele>
        <time>2022-09-28T09:35:25.704Z</time>
      </trkpt>
      <trkpt lat="47.18912" lon="16.3421">
        <ele>302.729091</ele>
        <time>2022-09-28T09:35:27.694Z</time>
      </trkpt>
      <trkpt lat="47.1892" lon="16.34216">
        <ele>302.72956</ele>
        <time>2022-09-28T09:35:29.717Z</time>
      </trkpt>
      <trkpt lat="47.18929" lon="16.34224">
        <ele>302.730034</ele>
        <time>2022-09-28T09:35:31.717Z</time>
      </trkpt>
      <trkpt lat="47.18938" lon="16.34231">
        <ele>302.730528</ele>
        <time>2022-09-28T09:35:33.684Z</time>
      </trkpt>
      <trkpt lat="47.18946" lon="16.34238">
        <ele>302.634919</ele>
        <time>2022-09-28T09:35:35.697Z</time>
      </trkpt>
      <trkpt lat="47.18955" lon="16.34245">
        <ele>302.517581</ele>
        <time>2022-09-28T09:35:37.701Z</time>
      </trkpt>
      <trkpt lat="47.18965" lon="16.34252">
        <ele>302.386401</ele>
        <time>2022-09-28T09:35:39.776Z</time>
      </trkpt>
      <trkpt lat="47.18974" lon="16.34258">
        <ele>302.260531</ele>
        <time>2022-09-28T09:35:41.707Z</time>
      </trkpt>
      <trkpt lat="47.18984" lon="16.34265">
        <ele>302.134319</ele>
        <time>2022-09-28T09:35:43.705Z</time>
      </trkpt>
      <trkpt lat="47.18993" lon="16.34272">
        <ele>302.010085</ele>
        <time>2022-09-28T09:35:45.681Z</time>
      </trkpt>
      <trkpt lat="47.19002" lon="16.34279">
        <ele>301.888519</ele>
        <time>2022-09-28T09:35:47.704Z</time>
      </trkpt>
      <trkpt lat="47.19012" lon="16.34287">
        <ele>301.762588</ele>
        <time>2022-09-28T09:35:49.709Z</time>
      </trkpt>
      <trkpt lat="47.1902" lon="16.34294">
        <ele>301.640023</ele>
        <time>2022-09-28T09:35:51.688Z</time>
      </trkpt>
      <trkpt lat="47.19029" lon="16.34301">
        <ele>301.522006</ele>
        <time>2022-09-28T09:35:53.682Z</time>
      </trkpt>
      <trkpt lat="47.19038" lon="16.34307">
        <ele>301.400447</ele>
        <time>2022-09-28T09:35:55.754Z</time>
      </trkpt>
      <trkpt lat="47.19048" lon="16.34314">
        <ele>301.275658</ele>
        <time>2022-09-28T09:35:57.686Z</time>
      </trkpt>
      <trkpt lat="47.19057" lon="16.34321">
        <ele>301.154781</ele>
        <time>2022-09-28T09:35:59.738Z</time>
      </trkpt>
      <trkpt lat="47.19066" lon="16.34327">
        <ele>301.034647</ele>
        <time>2022-09-28T09:36:01.704Z</time>
      </trkpt>
      <trkpt lat="47.19076" lon="16.34333">
        <ele>300.910238</ele>
        <time>2022-09-28T09:36:03.706Z</time>
      </trkpt>
      <trkpt lat="47.19086" lon="16.34339">
        <ele>300.783808</ele>
        <time>2022-09-28T09:36:05.708Z</time>
      </trkpt>
      <trkpt lat="47.19095" lon="16.34345">
        <ele>300.667101</ele>
        <time>2022-09-28T09:36:07.708Z</time>
      </trkpt>
      <trkpt lat="47.19103" lon="16.34349">
        <ele>300.607503</ele>
        <time>2022-09-28T09:36:09.684Z</time>
      </trkpt>
      <trkpt lat="47.19112" lon="16.34353">
        <ele>300.671683</ele>
        <time>2022-09-28T09:36:11.717Z</time>
      </trkpt>
      <trkpt lat="47.19121" lon="16.34357">
        <ele>300.737366</ele>
        <time>2022-09-28T09:36:13.715Z</time>
      </trkpt>
      <trkpt lat="47.1913" lon="16.34359">
        <ele>300.801766</ele>
        <time>2022-09-28T09:36:15.759Z</time>
      </trkpt>
      <trkpt lat="47.19139" lon="16.3436">
        <ele>300.865569</ele>
        <time>2022-09-28T09:36:17.730Z</time>
      </trkpt>
      <trkpt lat="47.19149" lon="16.34361">
        <ele>300.930655</ele>
        <time>2022-09-28T09:36:19.695Z</time>
      </trkpt>
      <trkpt lat="47.19158" lon="16.34362">
        <ele>300.997802</ele>
        <time>2022-09-28T09:36:21.693Z</time>
      </trkpt>
      <trkpt lat="47.19168" lon="16.34361">
        <ele>301.063507</ele>
        <time>2022-09-28T09:36:23.714Z</time>
      </trkpt>
      <trkpt lat="47.19177" lon="16.34362">
        <ele>301.127866</ele>
        <time>2022-09-28T09:36:25.694Z</time>
      </trkpt>
      <trkpt lat="47.19186" lon="16.34376">
        <ele>301.219321</ele>
        <time>2022-09-28T09:36:28.735Z</time>
      </trkpt>
      <trkpt lat="47.19189" lon="16.3439">
        <ele>301.290768</ele>
        <time>2022-09-28T09:36:30.683Z</time>
      </trkpt>
      <trkpt lat="47.19192" lon="16.34405">
        <ele>301.361998</ele>
        <time>2022-09-28T09:36:32.694Z</time>
      </trkpt>
      <trkpt lat="47.19196" lon="16.34418">
        <ele>301.429189</ele>
        <time>2022-09-28T09:36:34.747Z</time>
      </trkpt>
      <trkpt lat="47.19199" lon="16.34431">
        <ele>301.498009</ele>
        <time>2022-09-28T09:36:36.699Z</time>
      </trkpt>
      <trkpt lat="47.19203" lon="16.34444">
        <ele>301.561023</ele>
        <time>2022-09-28T09:36:38.696Z</time>
      </trkpt>
      <trkpt lat="47.19207" lon="16.34461">
        <ele>301.650508</ele>
        <time>2022-09-28T09:36:41.700Z</time>
      </trkpt>
      <trkpt lat="47.19212" lon="16.34479">
        <ele>301.742525</ele>
        <time>2022-09-28T09:36:44.702Z</time>
      </trkpt>
      <trkpt lat="47.19216" lon="16.34496">
        <ele>301.828365</ele>
        <time>2022-09-28T09:36:47.713Z</time>
      </trkpt>
      <trkpt lat="47.19221" lon="16.34514">
        <ele>301.92131</ele>
        <time>2022-09-28T09:36:50.689Z</time>
      </trkpt>
      <trkpt lat="47.19225" lon="16.34531">
        <ele>302.015739</ele>
        <time>2022-09-28T09:36:53.760Z</time>
      </trkpt>
      <trkpt lat="47.19229" lon="16.34548">
        <ele>302.106544</ele>
        <time>2022-09-28T09:36:56.693Z</time>
      </trkpt>
      <trkpt lat="47.19233" lon="16.34564">
        <ele>302.196122</ele>
        <time>2022-09-28T09:36:59.709Z</time>
      </trkpt>
      <trkpt lat="47.19236" lon="16.3458">
        <ele>302.279675</ele>
        <time>2022-09-28T09:37:02.694Z</time>
      </trkpt>
      <trkpt lat="47.19239" lon="16.34594">
        <ele>302.355721</ele>
        <time>2022-09-28T09:37:05.702Z</time>
      </trkpt>
      <trkpt lat="47.19242" lon="16.34609">
        <ele>302.434163</ele>
        <time>2022-09-28T09:37:08.691Z</time>
      </trkpt>
      <trkpt lat="47.19246" lon="16.34623">
        <ele>302.510184</ele>
        <time>2022-09-28T09:37:11.718Z</time>
      </trkpt>
      <trkpt lat="47.19249" lon="16.34637">
        <ele>302.587912</ele>
        <time>2022-09-28T09:37:14.696Z</time>
      </trkpt>
      <trkpt lat="47.19253" lon="16.34651">
        <ele>302.665481</ele>
        <time>2022-09-28T09:37:17.733Z</time>
      </trkpt>
      <trkpt lat="47.19257" lon="16.34665">
        <ele>302.741823</ele>
        <time>2022-09-28T09:37:20.712Z</time>
      </trkpt>
      <trkpt lat="47.1926" lon="16.34679">
        <ele>302.816939</ele>
        <time>2022-09-28T09:37:23.730Z</time>
      </trkpt>
      <trkpt lat="47.19264" lon="16.34692">
        <ele>302.890906</ele>
        <time>2022-09-28T09:37:26.706Z</time>
      </trkpt>
      <trkpt lat="47.19267" lon="16.34704">
        <ele>302.959099</ele>
        <time>2022-09-28T09:37:29.737Z</time>
      </trkpt>
      <trkpt lat="47.19271" lon="16.34718">
        <ele>303.031836</ele>
        <time>2022-09-28T09:37:32.701Z</time>
      </trkpt>
      <trkpt lat="47.19275" lon="16.34731">
        <ele>303.104506</ele>
        <time>2022-09-28T09:37:35.724Z</time>
      </trkpt>
      <trkpt lat="47.19279" lon="16.34744">
        <ele>303.178262</ele>
        <time>2022-09-28T09:37:38.710Z</time>
      </trkpt>
      <trkpt lat="47.19283" lon="16.34756">
        <ele>303.346129</ele>
        <time>2022-09-28T09:37:41.702Z</time>
      </trkpt>
      <trkpt lat="47.19288" lon="16.34768">
        <ele>303.541268</ele>
        <time>2022-09-28T09:37:44.709Z</time>
      </trkpt>
      <trkpt lat="47.19292" lon="16.34781">
        <ele>303.742893</ele>
        <time>2022-09-28T09:37:47.702Z</time>
      </trkpt>
      <trkpt lat="47.19296" lon="16.34793">
        <ele>303.934489</ele>
        <time>2022-09-28T09:37:50.702Z</time>
      </trkpt>
      <trkpt lat="47.19301" lon="16.34808">
        <ele>304.178011</ele>
        <time>2022-09-28T09:37:54.691Z</time>
      </trkpt>
      <trkpt lat="47.19306" lon="16.3482">
        <ele>304.375431</ele>
        <time>2022-09-28T09:37:57.698Z</time>
      </trkpt>
      <trkpt lat="47.1931" lon="16.34832">
        <ele>304.57057</ele>
        <time>2022-09-28T09:38:00.712Z</time>
      </trkpt>
      <trkpt lat="47.19316" lon="16.34847">
        <ele>304.817344</ele>
        <time>2022-09-28T09:38:04.704Z</time>
      </trkpt>
      <trkpt lat="47.1932" lon="16.34861">
        <ele>305.053185</ele>
        <time>2022-09-28T09:38:08.698Z</time>
      </trkpt>
      <trkpt lat="47.19325" lon="16.34874">
        <ele>305.25949</ele>
        <time>2022-09-28T09:38:11.700Z</time>
      </trkpt>
      <trkpt lat="47.19329" lon="16.34886">
        <ele>305.45691</ele>
        <time>2022-09-28T09:38:14.697Z</time>
      </trkpt>
      <trkpt lat="47.19334" lon="16.34898">
        <ele>305.647882</ele>
        <time>2022-09-28T09:38:17.707Z</time>
      </trkpt>
      <trkpt lat="47.1934" lon="16.34911">
        <ele>305.880233</ele>
        <time>2022-09-28T09:38:21.707Z</time>
      </trkpt>
      <trkpt lat="47.19345" lon="16.34924">
        <ele>306.093958</ele>
        <time>2022-09-28T09:38:25.709Z</time>
      </trkpt>
      <trkpt lat="47.1935" lon="16.34937">
        <ele>306.305372</ele>
        <time>2022-09-28T09:38:29.720Z</time>
      </trkpt>
      <trkpt lat="47.19356" lon="16.34949">
        <ele>306.524581</ele>
        <time>2022-09-28T09:38:33.728Z</time>
      </trkpt>
      <trkpt lat="47.19362" lon="16.34962">
        <ele>306.747428</ele>
        <time>2022-09-28T09:38:37.692Z</time>
      </trkpt>
      <trkpt lat="47.19367" lon="16.34975">
        <ele>306.9727</ele>
        <time>2022-09-28T09:38:41.746Z</time>
      </trkpt>
      <trkpt lat="47.19373" lon="16.34989">
        <ele>307.085093</ele>
        <time>2022-09-28T09:38:45.698Z</time>
      </trkpt>
      <trkpt lat="47.19379" lon="16.35005">
        <ele>307.178923</ele>
        <time>2022-09-28T09:38:49.713Z</time>
      </trkpt>
      <trkpt lat="47.19384" lon="16.35017">
        <ele>307.250467</ele>
        <time>2022-09-28T09:38:52.738Z</time>
      </trkpt>
      <trkpt lat="47.1939" lon="16.35032">
        <ele>307.343072</ele>
        <time>2022-09-28T09:38:56.745Z</time>
      </trkpt>
      <trkpt lat="47.19395" lon="16.35044">
        <ele>307.418545</ele>
        <time>2022-09-28T09:38:59.718Z</time>
      </trkpt>
      <trkpt lat="47.194" lon="16.35056">
        <ele>307.494533</ele>
        <time>2022-09-28T09:39:02.702Z</time>
      </trkpt>
      <trkpt lat="47.19404" lon="16.35069">
        <ele>307.569225</ele>
        <time>2022-09-28T09:39:05.701Z</time>
      </trkpt>
      <trkpt lat="47.19409" lon="16.35081">
        <ele>307.640906</ele>
        <time>2022-09-28T09:39:08.690Z</time>
      </trkpt>
      <trkpt lat="47.19413" lon="16.35093">
        <ele>307.714073</ele>
        <time>2022-09-28T09:39:11.698Z</time>
      </trkpt>
      <trkpt lat="47.19418" lon="16.35105">
        <ele>307.78901</ele>
        <time>2022-09-28T09:39:14.745Z</time>
      </trkpt>
      <trkpt lat="47.19422" lon="16.35117">
        <ele>307.862267</ele>
        <time>2022-09-28T09:39:17.705Z</time>
      </trkpt>
      <trkpt lat="47.19427" lon="16.35131">
        <ele>307.942151</ele>
        <time>2022-09-28T09:39:20.709Z</time>
      </trkpt>
      <trkpt lat="47.19432" lon="16.35145">
        <ele>308.027602</ele>
        <time>2022-09-28T09:39:23.703Z</time>
      </trkpt>
      <trkpt lat="47.19438" lon="16.35159">
        <ele>308.114924</ele>
        <time>2022-09-28T09:39:26.707Z</time>
      </trkpt>
      <trkpt lat="47.19443" lon="16.35174">
        <ele>308.204128</ele>
        <time>2022-09-28T09:39:29.690Z</time>
      </trkpt>
      <trkpt lat="47.19448" lon="16.35191">
        <ele>308.301621</ele>
        <time>2022-09-28T09:39:32.712Z</time>
      </trkpt>
      <trkpt lat="47.19454" lon="16.35208">
        <ele>308.401842</ele>
        <time>2022-09-28T09:39:35.699Z</time>
      </trkpt>
      <trkpt lat="47.19458" lon="16.3522">
        <ele>308.552166</ele>
        <time>2022-09-28T09:39:37.700Z</time>
      </trkpt>
      <trkpt lat="47.19462" lon="16.35233">
        <ele>308.723908</ele>
        <time>2022-09-28T09:39:39.705Z</time>
      </trkpt>
      <trkpt lat="47.19466" lon="16.35247">
        <ele>308.897853</ele>
        <time>2022-09-28T09:39:41.707Z</time>
      </trkpt>
      <trkpt lat="47.1947" lon="16.35261">
        <ele>309.079998</ele>
        <time>2022-09-28T09:39:43.712Z</time>
      </trkpt>
      <trkpt lat="47.19474" lon="16.35275">
        <ele>309.271076</ele>
        <time>2022-09-28T09:39:45.737Z</time>
      </trkpt>
      <trkpt lat="47.19478" lon="16.35291">
        <ele>309.469225</ele>
        <time>2022-09-28T09:39:47.742Z</time>
      </trkpt>
      <trkpt lat="47.19482" lon="16.35307">
        <ele>309.678557</ele>
        <time>2022-09-28T09:39:49.703Z</time>
      </trkpt>
      <trkpt lat="47.19486" lon="16.35324">
        <ele>309.891767</ele>
        <time>2022-09-28T09:39:51.698Z</time>
      </trkpt>
      <trkpt lat="47.19489" lon="16.35341">
        <ele>310.11033</ele>
        <time>2022-09-28T09:39:53.697Z</time>
      </trkpt>
      <trkpt lat="47.19493" lon="16.35359">
        <ele>310.327256</ele>
        <time>2022-09-28T09:39:55.691Z</time>
      </trkpt>
      <trkpt lat="47.19496" lon="16.35376">
        <ele>310.545582</ele>
        <time>2022-09-28T09:39:57.720Z</time>
      </trkpt>
      <trkpt lat="47.19499" lon="16.35393">
        <ele>310.755578</ele>
        <time>2022-09-28T09:39:59.699Z</time>
      </trkpt>
      <trkpt lat="47.19502" lon="16.35409">
        <ele>310.958207</ele>
        <time>2022-09-28T09:40:01.731Z</time>
      </trkpt>
      <trkpt lat="47.19503" lon="16.35424">
        <ele>311.131956</ele>
        <time>2022-09-28T09:40:03.697Z</time>
      </trkpt>
      <trkpt lat="47.19505" lon="16.35437">
        <ele>311.292382</ele>
        <time>2022-09-28T09:40:05.690Z</time>
      </trkpt>
      <trkpt lat="47.19506" lon="16.35455">
        <ele>311.506716</ele>
        <time>2022-09-28T09:40:08.739Z</time>
      </trkpt>
      <trkpt lat="47.19507" lon="16.35472">
        <ele>311.705663</ele>
        <time>2022-09-28T09:40:11.702Z</time>
      </trkpt>
      <trkpt lat="47.19509" lon="16.35488">
        <ele>311.884533</ele>
        <time>2022-09-28T09:40:14.699Z</time>
      </trkpt>
      <trkpt lat="47.19511" lon="16.35501">
        <ele>312.038396</ele>
        <time>2022-09-28T09:40:17.693Z</time>
      </trkpt>
      <trkpt lat="47.19513" lon="16.35517">
        <ele>312.215368</ele>
        <time>2022-09-28T09:40:21.686Z</time>
      </trkpt>
      <trkpt lat="47.19514" lon="16.35532">
        <ele>312.384384</ele>
        <time>2022-09-28T09:40:25.730Z</time>
      </trkpt>
      <trkpt lat="47.19515" lon="16.35547">
        <ele>312.55573</ele>
        <time>2022-09-28T09:40:29.704Z</time>
      </trkpt>
      <trkpt lat="47.19516" lon="16.35561">
        <ele>312.70877</ele>
        <time>2022-09-28T09:40:33.712Z</time>
      </trkpt>
      <trkpt lat="47.19518" lon="16.35577">
        <ele>312.888738</ele>
        <time>2022-09-28T09:40:38.693Z</time>
      </trkpt>
      <trkpt lat="47.1952" lon="16.35591">
        <ele>313.052767</ele>
        <time>2022-09-28T09:40:43.705Z</time>
      </trkpt>
      <trkpt lat="47.19521" lon="16.35605">
        <ele>313.20856</ele>
        <time>2022-09-28T09:40:48.701Z</time>
      </trkpt>
      <trkpt lat="47.19523" lon="16.35619">
        <ele>313.363711</ele>
        <time>2022-09-28T09:40:53.715Z</time>
      </trkpt>
      <trkpt lat="47.19526" lon="16.35632">
        <ele>313.521658</ele>
        <time>2022-09-28T09:40:58.753Z</time>
      </trkpt>
      <trkpt lat="47.19529" lon="16.35648">
        <ele>313.700033</ele>
        <time>2022-09-28T09:41:03.705Z</time>
      </trkpt>
      <trkpt lat="47.19532" lon="16.35661">
        <ele>313.854734</ele>
        <time>2022-09-28T09:41:07.682Z</time>
      </trkpt>
      <trkpt lat="47.19536" lon="16.35675">
        <ele>314.025064</ele>
        <time>2022-09-28T09:41:11.718Z</time>
      </trkpt>
      <trkpt lat="47.1954" lon="16.3569">
        <ele>314.206335</ele>
        <time>2022-09-28T09:41:15.700Z</time>
      </trkpt>
      <trkpt lat="47.19544" lon="16.35703">
        <ele>314.365092</ele>
        <time>2022-09-28T09:41:18.697Z</time>
      </trkpt>
      <trkpt lat="47.19549" lon="16.35716">
        <ele>314.534364</ele>
        <time>2022-09-28T09:41:21.758Z</time>
      </trkpt>
      <trkpt lat="47.19556" lon="16.35733">
        <ele>314.13229</ele>
        <time>2022-09-28T09:41:24.713Z</time>
      </trkpt>
      <trkpt lat="47.19561" lon="16.35746">
        <ele>313.806271</ele>
        <time>2022-09-28T09:41:26.753Z</time>
      </trkpt>
      <trkpt lat="47.19568" lon="16.35759">
        <ele>313.45571</ele>
        <time>2022-09-28T09:41:28.700Z</time>
      </trkpt>
      <trkpt lat="47.19575" lon="16.35775">
        <ele>313.037358</ele>
        <time>2022-09-28T09:41:30.701Z</time>
      </trkpt>
      <trkpt lat="47.19582" lon="16.35794">
        <ele>312.558096</ele>
        <time>2022-09-28T09:41:32.695Z</time>
      </trkpt>
      <trkpt lat="47.19591" lon="16.35815">
        <ele>312.040513</ele>
        <time>2022-09-28T09:41:34.710Z</time>
      </trkpt>
      <trkpt lat="47.196" lon="16.35838">
        <ele>311.464161</ele>
        <time>2022-09-28T09:41:36.707Z</time>
      </trkpt>
      <trkpt lat="47.19605" lon="16.3585">
        <ele>311.161927</ele>
        <time>2022-09-28T09:41:37.719Z</time>
      </trkpt>
      <trkpt lat="47.1961" lon="16.35862">
        <ele>310.848675</ele>
        <time>2022-09-28T09:41:38.702Z</time>
      </trkpt>
      <trkpt lat="47.19615" lon="16.35875">
        <ele>310.533334</ele>
        <time>2022-09-28T09:41:39.713Z</time>
      </trkpt>
      <trkpt lat="47.19621" lon="16.35887">
        <ele>310.212888</ele>
        <time>2022-09-28T09:41:40.710Z</time>
      </trkpt>
      <trkpt lat="47.19625" lon="16.359">
        <ele>309.89882</ele>
        <time>2022-09-28T09:41:41.697Z</time>
      </trkpt>
      <trkpt lat="47.1963" lon="16.35913">
        <ele>309.582483</ele>
        <time>2022-09-28T09:41:42.703Z</time>
      </trkpt>
      <trkpt lat="47.19635" lon="16.35925">
        <ele>309.270608</ele>
        <time>2022-09-28T09:41:43.707Z</time>
      </trkpt>
      <trkpt lat="47.1964" lon="16.35938">
        <ele>308.958993</ele>
        <time>2022-09-28T09:41:44.707Z</time>
      </trkpt>
      <trkpt lat="47.19645" lon="16.3595">
        <ele>308.642825</ele>
        <time>2022-09-28T09:41:45.696Z</time>
      </trkpt>
      <trkpt lat="47.1965" lon="16.35962">
        <ele>308.314622</ele>
        <time>2022-09-28T09:41:46.709Z</time>
      </trkpt>
      <trkpt lat="47.19654" lon="16.35974">
        <ele>307.997714</ele>
        <time>2022-09-28T09:41:47.756Z</time>
      </trkpt>
      <trkpt lat="47.19659" lon="16.35986">
        <ele>307.684465</ele>
        <time>2022-09-28T09:41:48.710Z</time>
      </trkpt>
      <trkpt lat="47.19664" lon="16.35998">
        <ele>307.382813</ele>
        <time>2022-09-28T09:41:49.705Z</time>
      </trkpt>
      <trkpt lat="47.19673" lon="16.36019">
        <ele>306.792188</ele>
        <time>2022-09-28T09:41:51.711Z</time>
      </trkpt>
      <trkpt lat="47.19682" lon="16.3604">
        <ele>306.246617</ele>
        <time>2022-09-28T09:41:53.713Z</time>
      </trkpt>
      <trkpt lat="47.1969" lon="16.36059">
        <ele>305.731621</ele>
        <time>2022-09-28T09:41:55.706Z</time>
      </trkpt>
      <trkpt lat="47.19698" lon="16.36077">
        <ele>305.224225</ele>
        <time>2022-09-28T09:41:57.700Z</time>
      </trkpt>
      <trkpt lat="47.19706" lon="16.36096">
        <ele>304.714575</ele>
        <time>2022-09-28T09:41:59.705Z</time>
      </trkpt>
      <trkpt lat="47.19713" lon="16.36115">
        <ele>304.210372</ele>
        <time>2022-09-28T09:42:01.706Z</time>
      </trkpt>
      <trkpt lat="47.19721" lon="16.36134">
        <ele>303.710088</ele>
        <time>2022-09-28T09:42:03.704Z</time>
      </trkpt>
      <trkpt lat="47.19729" lon="16.36152">
        <ele>303.234597</ele>
        <time>2022-09-28T09:42:05.699Z</time>
      </trkpt>
      <trkpt lat="47.19736" lon="16.36169">
        <ele>302.764776</ele>
        <time>2022-09-28T09:42:07.704Z</time>
      </trkpt>
      <trkpt lat="47.19743" lon="16.36186">
        <ele>302.780904</ele>
        <time>2022-09-28T09:42:09.755Z</time>
      </trkpt>
      <trkpt lat="47.1975" lon="16.36202">
        <ele>302.796158</ele>
        <time>2022-09-28T09:42:11.729Z</time>
      </trkpt>
      <trkpt lat="47.19756" lon="16.36217">
        <ele>302.810466</ele>
        <time>2022-09-28T09:42:13.699Z</time>
      </trkpt>
      <trkpt lat="47.19761" lon="16.36232">
        <ele>302.824176</ele>
        <time>2022-09-28T09:42:15.704Z</time>
      </trkpt>
      <trkpt lat="47.19767" lon="16.36247">
        <ele>302.837591</ele>
        <time>2022-09-28T09:42:17.689Z</time>
      </trkpt>
      <trkpt lat="47.19773" lon="16.3626">
        <ele>302.850042</ele>
        <time>2022-09-28T09:42:19.692Z</time>
      </trkpt>
      <trkpt lat="47.19778" lon="16.36273">
        <ele>302.862414</ele>
        <time>2022-09-28T09:42:21.738Z</time>
      </trkpt>
      <trkpt lat="47.19784" lon="16.36285">
        <ele>302.874122</ele>
        <time>2022-09-28T09:42:23.682Z</time>
      </trkpt>
      <trkpt lat="47.19791" lon="16.36302">
        <ele>302.890375</ele>
        <time>2022-09-28T09:42:26.711Z</time>
      </trkpt>
      <trkpt lat="47.19796" lon="16.36313">
        <ele>302.901625</ele>
        <time>2022-09-28T09:42:28.716Z</time>
      </trkpt>
      <trkpt lat="47.19803" lon="16.36329">
        <ele>302.916679</ele>
        <time>2022-09-28T09:42:31.756Z</time>
      </trkpt>
      <trkpt lat="47.1981" lon="16.36345">
        <ele>302.931875</ele>
        <time>2022-09-28T09:42:34.773Z</time>
      </trkpt>
      <trkpt lat="47.19816" lon="16.36361">
        <ele>302.947086</ele>
        <time>2022-09-28T09:42:37.737Z</time>
      </trkpt>
      <trkpt lat="47.19823" lon="16.36378">
        <ele>302.962966</ele>
        <time>2022-09-28T09:42:40.710Z</time>
      </trkpt>
      <trkpt lat="47.19828" lon="16.3639">
        <ele>302.974355</ele>
        <time>2022-09-28T09:42:42.720Z</time>
      </trkpt>
      <trkpt lat="47.19832" lon="16.36402">
        <ele>302.895537</ele>
        <time>2022-09-28T09:42:44.701Z</time>
      </trkpt>
      <trkpt lat="47.19837" lon="16.36415">
        <ele>302.756091</ele>
        <time>2022-09-28T09:42:46.702Z</time>
      </trkpt>
      <trkpt lat="47.19842" lon="16.36427">
        <ele>302.61654</ele>
        <time>2022-09-28T09:42:48.696Z</time>
      </trkpt>
      <trkpt lat="47.19847" lon="16.36439">
        <ele>302.47551</ele>
        <time>2022-09-28T09:42:50.746Z</time>
      </trkpt>
      <trkpt lat="47.19852" lon="16.36452">
        <ele>302.329151</ele>
        <time>2022-09-28T09:42:52.710Z</time>
      </trkpt>
      <trkpt lat="47.19857" lon="16.36465">
        <ele>302.183077</ele>
        <time>2022-09-28T09:42:54.703Z</time>
      </trkpt>
      <trkpt lat="47.19863" lon="16.36478">
        <ele>302.03374</ele>
        <time>2022-09-28T09:42:56.695Z</time>
      </trkpt>
      <trkpt lat="47.19868" lon="16.36492">
        <ele>301.884404</ele>
        <time>2022-09-28T09:42:58.698Z</time>
      </trkpt>
      <trkpt lat="47.19874" lon="16.36505">
        <ele>301.730551</ele>
        <time>2022-09-28T09:43:00.701Z</time>
      </trkpt>
      <trkpt lat="47.19879" lon="16.36518">
        <ele>301.5799</ele>
        <time>2022-09-28T09:43:02.706Z</time>
      </trkpt>
      <trkpt lat="47.19884" lon="16.36531">
        <ele>301.431281</ele>
        <time>2022-09-28T09:43:04.739Z</time>
      </trkpt>
      <trkpt lat="47.1989" lon="16.36545">
        <ele>301.27357</ele>
        <time>2022-09-28T09:43:06.771Z</time>
      </trkpt>
      <trkpt lat="47.19895" lon="16.36558">
        <ele>301.129912</ele>
        <time>2022-09-28T09:43:08.701Z</time>
      </trkpt>
      <trkpt lat="47.199" lon="16.3657">
        <ele>300.989832</ele>
        <time>2022-09-28T09:43:10.698Z</time>
      </trkpt>
      <trkpt lat="47.19905" lon="16.36582">
        <ele>300.851126</ele>
        <time>2022-09-28T09:43:12.702Z</time>
      </trkpt>
      <trkpt lat="47.1991" lon="16.36594">
        <ele>300.71894</ele>
        <time>2022-09-28T09:43:14.709Z</time>
      </trkpt>
      <trkpt lat="47.19916" lon="16.3661">
        <ele>300.530809</ele>
        <time>2022-09-28T09:43:17.681Z</time>
      </trkpt>
      <trkpt lat="47.19923" lon="16.36625">
        <ele>300.364893</ele>
        <time>2022-09-28T09:43:20.701Z</time>
      </trkpt>
      <trkpt lat="47.19929" lon="16.3664">
        <ele>300.23738</ele>
        <time>2022-09-28T09:43:23.701Z</time>
      </trkpt>
      <trkpt lat="47.19935" lon="16.36655">
        <ele>300.107401</ele>
        <time>2022-09-28T09:43:26.713Z</time>
      </trkpt>
      <trkpt lat="47.19941" lon="16.36671">
        <ele>299.969003</ele>
        <time>2022-09-28T09:43:29.705Z</time>
      </trkpt>
      <trkpt lat="47.19948" lon="16.36687">
        <ele>299.833696</ele>
        <time>2022-09-28T09:43:32.693Z</time>
      </trkpt>
      <trkpt lat="47.19955" lon="16.36704">
        <ele>299.688547</ele>
        <time>2022-09-28T09:43:35.713Z</time>
      </trkpt>
      <trkpt lat="47.19961" lon="16.36719">
        <ele>299.555555</ele>
        <time>2022-09-28T09:43:38.698Z</time>
      </trkpt>
      <trkpt lat="47.19967" lon="16.36736">
        <ele>299.414321</ele>
        <time>2022-09-28T09:43:41.717Z</time>
      </trkpt>
      <trkpt lat="47.19973" lon="16.36753">
        <ele>299.273479</ele>
        <time>2022-09-28T09:43:44.716Z</time>
      </trkpt>
      <trkpt lat="47.1998" lon="16.36769">
        <ele>299.131908</ele>
        <time>2022-09-28T09:43:47.733Z</time>
      </trkpt>
      <trkpt lat="47.19985" lon="16.36781">
        <ele>299.029583</ele>
        <time>2022-09-28T09:43:49.705Z</time>
      </trkpt>
      <trkpt lat="47.19989" lon="16.36793">
        <ele>298.927259</ele>
        <time>2022-09-28T09:43:51.750Z</time>
      </trkpt>
      <trkpt lat="47.19994" lon="16.36806">
        <ele>298.818512</ele>
        <time>2022-09-28T09:43:53.700Z</time>
      </trkpt>
      <trkpt lat="47.2" lon="16.36818">
        <ele>298.710854</ele>
        <time>2022-09-28T09:43:55.701Z</time>
      </trkpt>
      <trkpt lat="47.20005" lon="16.36831">
        <ele>298.598875</ele>
        <time>2022-09-28T09:43:57.696Z</time>
      </trkpt>
      <trkpt lat="47.20011" lon="16.36844">
        <ele>298.480151</ele>
        <time>2022-09-28T09:43:59.707Z</time>
      </trkpt>
      <trkpt lat="47.20017" lon="16.36859">
        <ele>298.417182</ele>
        <time>2022-09-28T09:44:01.709Z</time>
      </trkpt>
      <trkpt lat="47.20023" lon="16.36873">
        <ele>298.395779</ele>
        <time>2022-09-28T09:44:03.703Z</time>
      </trkpt>
      <trkpt lat="47.20028" lon="16.36886">
        <ele>298.374801</ele>
        <time>2022-09-28T09:44:05.711Z</time>
      </trkpt>
      <trkpt lat="47.20034" lon="16.369">
        <ele>298.353524</ele>
        <time>2022-09-28T09:44:07.701Z</time>
      </trkpt>
      <trkpt lat="47.2004" lon="16.36914">
        <ele>298.332446</ele>
        <time>2022-09-28T09:44:09.712Z</time>
      </trkpt>
      <trkpt lat="47.20046" lon="16.36927">
        <ele>298.311599</ele>
        <time>2022-09-28T09:44:11.694Z</time>
      </trkpt>
      <trkpt lat="47.20052" lon="16.36941">
        <ele>298.290531</ele>
        <time>2022-09-28T09:44:13.738Z</time>
      </trkpt>
      <trkpt lat="47.20057" lon="16.36954">
        <ele>298.269565</ele>
        <time>2022-09-28T09:44:15.697Z</time>
      </trkpt>
      <trkpt lat="47.20063" lon="16.36969">
        <ele>298.247924</ele>
        <time>2022-09-28T09:44:17.701Z</time>
      </trkpt>
      <trkpt lat="47.20069" lon="16.36982">
        <ele>298.226846</ele>
        <time>2022-09-28T09:44:19.697Z</time>
      </trkpt>
      <trkpt lat="47.20074" lon="16.36995">
        <ele>298.207391</ele>
        <time>2022-09-28T09:44:21.703Z</time>
      </trkpt>
      <trkpt lat="47.20079" lon="16.37007">
        <ele>298.187955</ele>
        <time>2022-09-28T09:44:23.713Z</time>
      </trkpt>
      <trkpt lat="47.20084" lon="16.3702">
        <ele>298.16881</ele>
        <time>2022-09-28T09:44:25.694Z</time>
      </trkpt>
      <trkpt lat="47.2009" lon="16.37033">
        <ele>298.149142</ele>
        <time>2022-09-28T09:44:27.696Z</time>
      </trkpt>
      <trkpt lat="47.20095" lon="16.37046">
        <ele>298.129271</ele>
        <time>2022-09-28T09:44:29.692Z</time>
      </trkpt>
      <trkpt lat="47.201" lon="16.37059">
        <ele>298.10967</ele>
        <time>2022-09-28T09:44:31.709Z</time>
      </trkpt>
      <trkpt lat="47.20105" lon="16.37072">
        <ele>298.089439</ele>
        <time>2022-09-28T09:44:33.703Z</time>
      </trkpt>
      <trkpt lat="47.20111" lon="16.37085">
        <ele>298.11907</ele>
        <time>2022-09-28T09:44:35.737Z</time>
      </trkpt>
      <trkpt lat="47.20117" lon="16.37098">
        <ele>298.169861</ele>
        <time>2022-09-28T09:44:37.714Z</time>
      </trkpt>
      <trkpt lat="47.20123" lon="16.37112">
        <ele>298.222834</ele>
        <time>2022-09-28T09:44:39.706Z</time>
      </trkpt>
      <trkpt lat="47.20128" lon="16.37126">
        <ele>298.273708</ele>
        <time>2022-09-28T09:44:41.690Z</time>
      </trkpt>
      <trkpt lat="47.20134" lon="16.37139">
        <ele>298.324548</ele>
        <time>2022-09-28T09:44:43.708Z</time>
      </trkpt>
      <trkpt lat="47.20139" lon="16.37153">
        <ele>298.37752</ele>
        <time>2022-09-28T09:44:45.694Z</time>
      </trkpt>
      <trkpt lat="47.20145" lon="16.37168">
        <ele>298.433245</ele>
        <time>2022-09-28T09:44:47.711Z</time>
      </trkpt>
      <trkpt lat="47.20151" lon="16.37183">
        <ele>298.488774</ele>
        <time>2022-09-28T09:44:49.708Z</time>
      </trkpt>
      <trkpt lat="47.20157" lon="16.37198">
        <ele>298.547953</ele>
        <time>2022-09-28T09:44:51.706Z</time>
      </trkpt>
      <trkpt lat="47.20164" lon="16.37214">
        <ele>298.606608</ele>
        <time>2022-09-28T09:44:53.706Z</time>
      </trkpt>
      <trkpt lat="47.2017" lon="16.37229">
        <ele>298.665509</ele>
        <time>2022-09-28T09:44:55.682Z</time>
      </trkpt>
      <trkpt lat="47.20176" lon="16.37245">
        <ele>298.723857</ele>
        <time>2022-09-28T09:44:57.781Z</time>
      </trkpt>
      <trkpt lat="47.20182" lon="16.3726">
        <ele>298.779824</ele>
        <time>2022-09-28T09:44:59.704Z</time>
      </trkpt>
      <trkpt lat="47.20188" lon="16.37273">
        <ele>298.832548</ele>
        <time>2022-09-28T09:45:01.705Z</time>
      </trkpt>
      <trkpt lat="47.20193" lon="16.37286">
        <ele>298.879897</ele>
        <time>2022-09-28T09:45:03.727Z</time>
      </trkpt>
      <trkpt lat="47.20198" lon="16.37298">
        <ele>298.924281</ele>
        <time>2022-09-28T09:45:05.700Z</time>
      </trkpt>
      <trkpt lat="47.20204" lon="16.37314">
        <ele>299.001442</ele>
        <time>2022-09-28T09:45:08.707Z</time>
      </trkpt>
      <trkpt lat="47.2021" lon="16.37327">
        <ele>299.073619</ele>
        <time>2022-09-28T09:45:11.700Z</time>
      </trkpt>
      <trkpt lat="47.20215" lon="16.37339">
        <ele>299.138697</ele>
        <time>2022-09-28T09:45:14.707Z</time>
      </trkpt>
      <trkpt lat="47.20219" lon="16.37351">
        <ele>299.200268</ele>
        <time>2022-09-28T09:45:17.685Z</time>
      </trkpt>
      <trkpt lat="47.20225" lon="16.37366">
        <ele>299.280406</ele>
        <time>2022-09-28T09:45:21.706Z</time>
      </trkpt>
      <trkpt lat="47.2023" lon="16.37382">
        <ele>299.359198</ele>
        <time>2022-09-28T09:45:25.715Z</time>
      </trkpt>
      <trkpt lat="47.20236" lon="16.37395">
        <ele>299.432659</ele>
        <time>2022-09-28T09:45:29.712Z</time>
      </trkpt>
      <trkpt lat="47.20242" lon="16.3741">
        <ele>299.510834</ele>
        <time>2022-09-28T09:45:33.690Z</time>
      </trkpt>
      <trkpt lat="47.20247" lon="16.37421">
        <ele>299.573933</ele>
        <time>2022-09-28T09:45:36.692Z</time>
      </trkpt>
      <trkpt lat="47.20253" lon="16.37434">
        <ele>299.644542</ele>
        <time>2022-09-28T09:45:39.712Z</time>
      </trkpt>
      <trkpt lat="47.20259" lon="16.37446">
        <ele>299.710961</ele>
        <time>2022-09-28T09:45:42.694Z</time>
      </trkpt>
      <trkpt lat="47.20264" lon="16.37459">
        <ele>299.777906</ele>
        <time>2022-09-28T09:45:45.701Z</time>
      </trkpt>
      <trkpt lat="47.20269" lon="16.37472">
        <ele>299.849643</ele>
        <time>2022-09-28T09:45:48.699Z</time>
      </trkpt>
      <trkpt lat="47.20276" lon="16.37485">
        <ele>299.924022</ele>
        <time>2022-09-28T09:45:51.727Z</time>
      </trkpt>
      <trkpt lat="47.20282" lon="16.37498">
        <ele>299.999171</ele>
        <time>2022-09-28T09:45:54.709Z</time>
      </trkpt>
      <trkpt lat="47.20289" lon="16.37514">
        <ele>300.085009</ele>
        <time>2022-09-28T09:45:57.699Z</time>
      </trkpt>
      <trkpt lat="47.20294" lon="16.37526">
        <ele>300.146877</ele>
        <time>2022-09-28T09:45:59.732Z</time>
      </trkpt>
      <trkpt lat="47.20299" lon="16.37538">
        <ele>299.975512</ele>
        <time>2022-09-28T09:46:01.697Z</time>
      </trkpt>
      <trkpt lat="47.20304" lon="16.3755">
        <ele>299.75674</ele>
        <time>2022-09-28T09:46:03.695Z</time>
      </trkpt>
      <trkpt lat="47.2031" lon="16.37563">
        <ele>299.525735</ele>
        <time>2022-09-28T09:46:05.701Z</time>
      </trkpt>
      <trkpt lat="47.20315" lon="16.37577">
        <ele>299.284231</ele>
        <time>2022-09-28T09:46:07.714Z</time>
      </trkpt>
      <trkpt lat="47.20321" lon="16.37592">
        <ele>299.029419</ele>
        <time>2022-09-28T09:46:09.700Z</time>
      </trkpt>
      <trkpt lat="47.20328" lon="16.37607">
        <ele>298.75269</ele>
        <time>2022-09-28T09:46:11.722Z</time>
      </trkpt>
      <trkpt lat="47.20335" lon="16.37624">
        <ele>298.467159</ele>
        <time>2022-09-28T09:46:13.718Z</time>
      </trkpt>
      <trkpt lat="47.20342" lon="16.3764">
        <ele>298.179937</ele>
        <time>2022-09-28T09:46:15.740Z</time>
      </trkpt>
      <trkpt lat="47.20349" lon="16.37657">
        <ele>297.887908</ele>
        <time>2022-09-28T09:46:17.723Z</time>
      </trkpt>
      <trkpt lat="47.20355" lon="16.37675">
        <ele>297.581871</ele>
        <time>2022-09-28T09:46:19.704Z</time>
      </trkpt>
      <trkpt lat="47.20362" lon="16.37693">
        <ele>297.276031</ele>
        <time>2022-09-28T09:46:21.711Z</time>
      </trkpt>
      <trkpt lat="47.2037" lon="16.3771">
        <ele>296.972928</ele>
        <time>2022-09-28T09:46:23.686Z</time>
      </trkpt>
      <trkpt lat="47.20377" lon="16.37728">
        <ele>296.663718</ele>
        <time>2022-09-28T09:46:25.701Z</time>
      </trkpt>
      <trkpt lat="47.20384" lon="16.37745">
        <ele>296.360456</ele>
        <time>2022-09-28T09:46:27.709Z</time>
      </trkpt>
      <trkpt lat="47.20391" lon="16.37763">
        <ele>296.006846</ele>
        <time>2022-09-28T09:46:29.709Z</time>
      </trkpt>
      <trkpt lat="47.20397" lon="16.3778">
        <ele>295.60913</ele>
        <time>2022-09-28T09:46:31.707Z</time>
      </trkpt>
      <trkpt lat="47.20404" lon="16.37797">
        <ele>295.199996</ele>
        <time>2022-09-28T09:46:33.707Z</time>
      </trkpt>
      <trkpt lat="47.20411" lon="16.37816">
        <ele>294.772399</ele>
        <time>2022-09-28T09:46:35.711Z</time>
      </trkpt>
      <trkpt lat="47.20419" lon="16.37834">
        <ele>294.345714</ele>
        <time>2022-09-28T09:46:37.735Z</time>
      </trkpt>
      <trkpt lat="47.20426" lon="16.37852">
        <ele>293.918634</ele>
        <time>2022-09-28T09:46:39.706Z</time>
      </trkpt>
      <trkpt lat="47.20433" lon="16.37871">
        <ele>293.476344</ele>
        <time>2022-09-28T09:46:41.736Z</time>
      </trkpt>
      <trkpt lat="47.20441" lon="16.37889">
        <ele>293.05274</ele>
        <time>2022-09-28T09:46:43.705Z</time>
      </trkpt>
      <trkpt lat="47.20448" lon="16.37907">
        <ele>292.624494</ele>
        <time>2022-09-28T09:46:45.702Z</time>
      </trkpt>
      <trkpt lat="47.20456" lon="16.37925">
        <ele>292.197416</ele>
        <time>2022-09-28T09:46:47.698Z</time>
      </trkpt>
      <trkpt lat="47.20463" lon="16.37942">
        <ele>291.785894</ele>
        <time>2022-09-28T09:46:49.707Z</time>
      </trkpt>
      <trkpt lat="47.20471" lon="16.37959">
        <ele>291.383063</ele>
        <time>2022-09-28T09:46:51.706Z</time>
      </trkpt>
      <trkpt lat="47.20478" lon="16.37975">
        <ele>290.990221</ele>
        <time>2022-09-28T09:46:53.729Z</time>
      </trkpt>
      <trkpt lat="47.20486" lon="16.3799">
        <ele>290.782775</ele>
        <time>2022-09-28T09:46:55.713Z</time>
      </trkpt>
      <trkpt lat="47.20493" lon="16.38005">
        <ele>290.674806</ele>
        <time>2022-09-28T09:46:57.698Z</time>
      </trkpt>
      <trkpt lat="47.205" lon="16.38019">
        <ele>290.568686</ele>
        <time>2022-09-28T09:46:59.735Z</time>
      </trkpt>
      <trkpt lat="47.20508" lon="16.38032">
        <ele>290.466375</ele>
        <time>2022-09-28T09:47:01.701Z</time>
      </trkpt>
      <trkpt lat="47.20515" lon="16.38045">
        <ele>290.369307</ele>
        <time>2022-09-28T09:47:03.700Z</time>
      </trkpt>
      <trkpt lat="47.20522" lon="16.38057">
        <ele>290.274264</ele>
        <time>2022-09-28T09:47:05.706Z</time>
      </trkpt>
      <trkpt lat="47.20529" lon="16.38069">
        <ele>290.183414</ele>
        <time>2022-09-28T09:47:07.736Z</time>
      </trkpt>
      <trkpt lat="47.20535" lon="16.38079">
        <ele>290.098858</ele>
        <time>2022-09-28T09:47:09.716Z</time>
      </trkpt>
      <trkpt lat="47.20544" lon="16.38094">
        <ele>289.983134</ele>
        <time>2022-09-28T09:47:12.707Z</time>
      </trkpt>
      <trkpt lat="47.20552" lon="16.38109">
        <ele>289.871994</ele>
        <time>2022-09-28T09:47:15.708Z</time>
      </trkpt>
      <trkpt lat="47.20559" lon="16.38123">
        <ele>289.765093</ele>
        <time>2022-09-28T09:47:18.696Z</time>
      </trkpt>
      <trkpt lat="47.20567" lon="16.38137">
        <ele>289.659661</ele>
        <time>2022-09-28T09:47:21.762Z</time>
      </trkpt>
      <trkpt lat="47.20575" lon="16.3815">
        <ele>289.556497</ele>
        <time>2022-09-28T09:47:24.701Z</time>
      </trkpt>
      <trkpt lat="47.20582" lon="16.38164">
        <ele>289.449435</ele>
        <time>2022-09-28T09:47:27.684Z</time>
      </trkpt>
      <trkpt lat="47.2059" lon="16.3818">
        <ele>289.334618</ele>
        <time>2022-09-28T09:47:30.703Z</time>
      </trkpt>
      <trkpt lat="47.20597" lon="16.38195">
        <ele>289.592543</ele>
        <time>2022-09-28T09:47:33.717Z</time>
      </trkpt>
      <trkpt lat="47.20603" lon="16.38211">
        <ele>290.14985</ele>
        <time>2022-09-28T09:47:36.712Z</time>
      </trkpt>
      <trkpt lat="47.20608" lon="16.38226">
        <ele>290.679272</ele>
        <time>2022-09-28T09:47:39.722Z</time>
      </trkpt>
      <trkpt lat="47.20612" lon="16.38241">
        <ele>291.195905</ele>
        <time>2022-09-28T09:47:42.695Z</time>
      </trkpt>
      <trkpt lat="47.20616" lon="16.38257">
        <ele>291.727522</ele>
        <time>2022-09-28T09:47:45.709Z</time>
      </trkpt>
      <trkpt lat="47.20621" lon="16.38274">
        <ele>292.277417</ele>
        <time>2022-09-28T09:47:48.705Z</time>
      </trkpt>
      <trkpt lat="47.20623" lon="16.38291">
        <ele>292.825992</ele>
        <time>2022-09-28T09:47:51.710Z</time>
      </trkpt>
      <trkpt lat="47.20625" lon="16.38309">
        <ele>293.377021</ele>
        <time>2022-09-28T09:47:54.750Z</time>
      </trkpt>
      <trkpt lat="47.20626" lon="16.38325">
        <ele>293.885432</ele>
        <time>2022-09-28T09:47:57.715Z</time>
      </trkpt>
      <trkpt lat="47.20628" lon="16.3834">
        <ele>294.371109</ele>
        <time>2022-09-28T09:48:00.708Z</time>
      </trkpt>
      <trkpt lat="47.20628" lon="16.38356">
        <ele>294.848515</ele>
        <time>2022-09-28T09:48:03.699Z</time>
      </trkpt>
      <trkpt lat="47.20629" lon="16.38371">
        <ele>295.331265</ele>
        <time>2022-09-28T09:48:06.707Z</time>
      </trkpt>
      <trkpt lat="47.20627" lon="16.38387">
        <ele>295.837189</ele>
        <time>2022-09-28T09:48:09.709Z</time>
      </trkpt>
      <trkpt lat="47.20626" lon="16.38402">
        <ele>296.317818</ele>
        <time>2022-09-28T09:48:12.716Z</time>
      </trkpt>
      <trkpt lat="47.20625" lon="16.38419">
        <ele>296.821142</ele>
        <time>2022-09-28T09:48:15.697Z</time>
      </trkpt>
      <trkpt lat="47.20624" lon="16.38435">
        <ele>297.329615</ele>
        <time>2022-09-28T09:48:18.696Z</time>
      </trkpt>
      <trkpt lat="47.20623" lon="16.38451">
        <ele>297.485881</ele>
        <time>2022-09-28T09:48:21.704Z</time>
      </trkpt>
      <trkpt lat="47.20622" lon="16.38468">
        <ele>297.419021</ele>
        <time>2022-09-28T09:48:24.699Z</time>
      </trkpt>
      <trkpt lat="47.20622" lon="16.38486">
        <ele>297.347765</ele>
        <time>2022-09-28T09:48:27.709Z</time>
      </trkpt>
      <trkpt lat="47.20622" lon="16.38501">
        <ele>297.284164</ele>
        <time>2022-09-28T09:48:30.708Z</time>
      </trkpt>
      <trkpt lat="47.20623" lon="16.38518">
        <ele>297.217084</ele>
        <time>2022-09-28T09:48:33.682Z</time>
      </trkpt>
      <trkpt lat="47.20625" lon="16.38535">
        <ele>297.149324</ele>
        <time>2022-09-28T09:48:36.713Z</time>
      </trkpt>
      <trkpt lat="47.20628" lon="16.38553">
        <ele>297.070153</ele>
        <time>2022-09-28T09:48:39.712Z</time>
      </trkpt>
      <trkpt lat="47.20631" lon="16.38567">
        <ele>297.013507</ele>
        <time>2022-09-28T09:48:41.708Z</time>
      </trkpt>
      <trkpt lat="47.20634" lon="16.38581">
        <ele>296.954978</ele>
        <time>2022-09-28T09:48:43.690Z</time>
      </trkpt>
      <trkpt lat="47.20637" lon="16.38595">
        <ele>296.897173</ele>
        <time>2022-09-28T09:48:45.713Z</time>
      </trkpt>
      <trkpt lat="47.2064" lon="16.38608">
        <ele>296.839028</ele>
        <time>2022-09-28T09:48:47.709Z</time>
      </trkpt>
      <trkpt lat="47.20643" lon="16.38622">
        <ele>296.78242</ele>
        <time>2022-09-28T09:48:49.736Z</time>
      </trkpt>
      <trkpt lat="47.20645" lon="16.38635">
        <ele>296.725604</ele>
        <time>2022-09-28T09:48:51.713Z</time>
      </trkpt>
      <trkpt lat="47.20648" lon="16.38648">
        <ele>296.671057</ele>
        <time>2022-09-28T09:48:53.723Z</time>
      </trkpt>
      <trkpt lat="47.20652" lon="16.38667">
        <ele>296.59437</ele>
        <time>2022-09-28T09:48:56.706Z</time>
      </trkpt>
      <trkpt lat="47.20655" lon="16.38681">
        <ele>296.533387</ele>
        <time>2022-09-28T09:48:59.717Z</time>
      </trkpt>
      <trkpt lat="47.20658" lon="16.38695">
        <ele>296.474312</ele>
        <time>2022-09-28T09:49:02.713Z</time>
      </trkpt>
      <trkpt lat="47.20661" lon="16.38709">
        <ele>296.816845</ele>
        <time>2022-09-28T09:49:05.725Z</time>
      </trkpt>
      <trkpt lat="47.20665" lon="16.38724">
        <ele>297.276181</ele>
        <time>2022-09-28T09:49:08.686Z</time>
      </trkpt>
      <trkpt lat="47.20668" lon="16.38737">
        <ele>297.681365</ele>
        <time>2022-09-28T09:49:11.696Z</time>
      </trkpt>
      <trkpt lat="47.20672" lon="16.38754">
        <ele>298.190807</ele>
        <time>2022-09-28T09:49:15.698Z</time>
      </trkpt>
      <trkpt lat="47.20675" lon="16.38769">
        <ele>298.663985</ele>
        <time>2022-09-28T09:49:19.702Z</time>
      </trkpt>
      <trkpt lat="47.20679" lon="16.38785">
        <ele>299.15524</ele>
        <time>2022-09-28T09:49:23.714Z</time>
      </trkpt>
      <trkpt lat="47.20682" lon="16.388">
        <ele>299.613255</ele>
        <time>2022-09-28T09:49:27.734Z</time>
      </trkpt>
      <trkpt lat="47.20685" lon="16.38813">
        <ele>300.004153</ele>
        <time>2022-09-28T09:49:30.696Z</time>
      </trkpt>
      <trkpt lat="47.20689" lon="16.38827">
        <ele>300.462599</ele>
        <time>2022-09-28T09:49:34.790Z</time>
      </trkpt>
      <trkpt lat="47.20692" lon="16.3884">
        <ele>300.862314</ele>
        <time>2022-09-28T09:49:37.736Z</time>
      </trkpt>
      <trkpt lat="47.20695" lon="16.38856">
        <ele>301.350198</ele>
        <time>2022-09-28T09:49:41.730Z</time>
      </trkpt>
      <trkpt lat="47.20696" lon="16.38869">
        <ele>301.752616</ele>
        <time>2022-09-28T09:49:45.721Z</time>
      </trkpt>
      <trkpt lat="47.20698" lon="16.38882">
        <ele>302.142357</ele>
        <time>2022-09-28T09:49:49.722Z</time>
      </trkpt>
      <trkpt lat="47.207" lon="16.38897">
        <ele>302.564237</ele>
        <time>2022-09-28T09:49:53.701Z</time>
      </trkpt>
      <trkpt lat="47.20702" lon="16.38912">
        <ele>303.022986</ele>
        <time>2022-09-28T09:49:57.688Z</time>
      </trkpt>
      <trkpt lat="47.20702" lon="16.38927">
        <ele>303.460739</ele>
        <time>2022-09-28T09:50:01.684Z</time>
      </trkpt>
      <trkpt lat="47.20705" lon="16.38941">
        <ele>303.892465</ele>
        <time>2022-09-28T09:50:05.730Z</time>
      </trkpt>
      <trkpt lat="47.20714" lon="16.3895">
        <ele>304.373619</ele>
        <time>2022-09-28T09:50:09.717Z</time>
      </trkpt>
      <trkpt lat="47.20724" lon="16.38948">
        <ele>304.828053</ele>
        <time>2022-09-28T09:50:14.691Z</time>
      </trkpt>
      <trkpt lat="47.20733" lon="16.38947">
        <ele>305.225619</ele>
        <time>2022-09-28T09:50:18.789Z</time>
      </trkpt>
      <trkpt lat="47.20744" lon="16.38944">
        <ele>305.695615</ele>
        <time>2022-09-28T09:50:23.696Z</time>
      </trkpt>
      <trkpt lat="47.20754" lon="16.38942">
        <ele>306.169762</ele>
        <time>2022-09-28T09:50:28.743Z</time>
      </trkpt>
      <trkpt lat="47.20764" lon="16.38942">
        <ele>306.600912</ele>
        <time>2022-09-28T09:50:33.712Z</time>
      </trkpt>
      <trkpt lat="47.20775" lon="16.38938">
        <ele>307.080877</ele>
        <time>2022-09-28T09:50:38.698Z</time>
      </trkpt>
      <trkpt lat="47.20785" lon="16.38937">
        <ele>307.544203</ele>
        <time>2022-09-28T09:50:43.699Z</time>
      </trkpt>
      <trkpt lat="47.20796" lon="16.38937">
        <ele>308.010624</ele>
        <time>2022-09-28T09:50:48.713Z</time>
      </trkpt>
      <trkpt lat="47.20805" lon="16.38937">
        <ele>308.419777</ele>
        <time>2022-09-28T09:50:52.689Z</time>
      </trkpt>
      <trkpt lat="47.20816" lon="16.38936">
        <ele>308.888558</ele>
        <time>2022-09-28T09:50:57.711Z</time>
      </trkpt>
      <trkpt lat="47.20827" lon="16.38936">
        <ele>309.381434</ele>
        <time>2022-09-28T09:51:02.681Z</time>
      </trkpt>
      <trkpt lat="47.20838" lon="16.38936">
        <ele>309.882999</ele>
        <time>2022-09-28T09:51:07.712Z</time>
      </trkpt>
      <trkpt lat="47.20848" lon="16.38936">
        <ele>310.292186</ele>
        <time>2022-09-28T09:51:11.699Z</time>
      </trkpt>
      <trkpt lat="47.20857" lon="16.38933">
        <ele>310.693866</ele>
        <time>2022-09-28T09:51:15.697Z</time>
      </trkpt>
      <trkpt lat="47.20866" lon="16.38928">
        <ele>311.113426</ele>
        <time>2022-09-28T09:51:19.715Z</time>
      </trkpt>
      <trkpt lat="47.20875" lon="16.38925">
        <ele>311.538848</ele>
        <time>2022-09-28T09:51:23.705Z</time>
      </trkpt>
      <trkpt lat="47.20884" lon="16.38919">
        <ele>311.960107</ele>
        <time>2022-09-28T09:51:27.706Z</time>
      </trkpt>
      <trkpt lat="47.20894" lon="16.38915">
        <ele>312.317635</ele>
        <time>2022-09-28T09:51:31.708Z</time>
      </trkpt>
      <trkpt lat="47.20904" lon="16.38908">
        <ele>312.635925</ele>
        <time>2022-09-28T09:51:35.706Z</time>
      </trkpt>
      <trkpt lat="47.20914" lon="16.38901">
        <ele>312.962913</ele>
        <time>2022-09-28T09:51:39.738Z</time>
      </trkpt>
      <trkpt lat="47.20923" lon="16.38896">
        <ele>313.236185</ele>
        <time>2022-09-28T09:51:42.734Z</time>
      </trkpt>
      <trkpt lat="47.20932" lon="16.38891">
        <ele>313.507356</ele>
        <time>2022-09-28T09:51:45.753Z</time>
      </trkpt>
      <trkpt lat="47.20943" lon="16.38888">
        <ele>313.839856</ele>
        <time>2022-09-28T09:51:49.706Z</time>
      </trkpt>
      <trkpt lat="47.20954" lon="16.38885">
        <ele>314.173813</ele>
        <time>2022-09-28T09:51:53.708Z</time>
      </trkpt>
      <trkpt lat="47.20966" lon="16.38885">
        <ele>314.509</ele>
        <time>2022-09-28T09:51:57.714Z</time>
      </trkpt>
      <trkpt lat="47.20977" lon="16.38885">
        <ele>314.841385</ele>
        <time>2022-09-28T09:52:01.701Z</time>
      </trkpt>
      <trkpt lat="47.20988" lon="16.38884">
        <ele>315.150662</ele>
        <time>2022-09-28T09:52:05.702Z</time>
      </trkpt>
      <trkpt lat="47.20998" lon="16.38883">
        <ele>315.425732</ele>
        <time>2022-09-28T09:52:09.706Z</time>
      </trkpt>
      <trkpt lat="47.21007" lon="16.38884">
        <ele>315.700297</ele>
        <time>2022-09-28T09:52:13.700Z</time>
      </trkpt>
      <trkpt lat="47.21017" lon="16.38886">
        <ele>315.977593</ele>
        <time>2022-09-28T09:52:18.738Z</time>
      </trkpt>
      <trkpt lat="47.21027" lon="16.38889">
        <ele>316.286297</ele>
        <time>2022-09-28T09:52:24.725Z</time>
      </trkpt>
      <trkpt lat="47.21036" lon="16.38892">
        <ele>316.560197</ele>
        <time>2022-09-28T09:52:29.717Z</time>
      </trkpt>
      <trkpt lat="47.21045" lon="16.38896">
        <ele>316.825187</ele>
        <time>2022-09-28T09:52:34.707Z</time>
      </trkpt>
      <trkpt lat="47.21054" lon="16.38898">
        <ele>317.096643</ele>
        <time>2022-09-28T09:52:41.705Z</time>
      </trkpt>
      <trkpt lat="47.21063" lon="16.38903">
        <ele>317.414972</ele>
        <time>2022-09-28T09:52:47.705Z</time>
      </trkpt>
      <trkpt lat="47.21072" lon="16.38908">
        <ele>318.058176</ele>
        <time>2022-09-28T09:52:53.709Z</time>
      </trkpt>
      <trkpt lat="47.2108" lon="16.38914">
        <ele>318.693297</ele>
        <time>2022-09-28T09:52:59.752Z</time>
      </trkpt>
      <trkpt lat="47.21089" lon="16.38921">
        <ele>319.367473</ele>
        <time>2022-09-28T09:53:05.712Z</time>
      </trkpt>
      <trkpt lat="47.21099" lon="16.38926">
        <ele>320.07339</ele>
        <time>2022-09-28T09:53:11.703Z</time>
      </trkpt>
      <trkpt lat="47.21108" lon="16.38932">
        <ele>320.75999</ele>
        <time>2022-09-28T09:53:18.708Z</time>
      </trkpt>
      <trkpt lat="47.21116" lon="16.38938">
        <ele>321.422973</ele>
        <time>2022-09-28T09:53:25.726Z</time>
      </trkpt>
      <trkpt lat="47.21125" lon="16.38943">
        <ele>322.069202</ele>
        <time>2022-09-28T09:53:31.741Z</time>
      </trkpt>
      <trkpt lat="47.21134" lon="16.38947">
        <ele>322.739626</ele>
        <time>2022-09-28T09:53:37.712Z</time>
      </trkpt>
      <trkpt lat="47.21143" lon="16.38953">
        <ele>323.376453</ele>
        <time>2022-09-28T09:53:43.712Z</time>
      </trkpt>
      <trkpt lat="47.21152" lon="16.38958">
        <ele>324.021928</ele>
        <time>2022-09-28T09:53:49.695Z</time>
      </trkpt>
      <trkpt lat="47.2116" lon="16.38964">
        <ele>324.67324</ele>
        <time>2022-09-28T09:53:55.713Z</time>
      </trkpt>
      <trkpt lat="47.2117" lon="16.38968">
        <ele>325.342119</ele>
        <time>2022-09-28T09:54:01.702Z</time>
      </trkpt>
      <trkpt lat="47.21179" lon="16.38974">
        <ele>326.034049</ele>
        <time>2022-09-28T09:54:07.693Z</time>
      </trkpt>
      <trkpt lat="47.21187" lon="16.38981">
        <ele>326.668901</ele>
        <time>2022-09-28T09:54:13.710Z</time>
      </trkpt>
      <trkpt lat="47.21196" lon="16.38987">
        <ele>327.383441</ele>
        <time>2022-09-28T09:54:20.689Z</time>
      </trkpt>
      <trkpt lat="47.21205" lon="16.38992">
        <ele>328.052319</ele>
        <time>2022-09-28T09:54:25.705Z</time>
      </trkpt>
      <trkpt lat="47.21214" lon="16.38998">
        <ele>328.670998</ele>
        <time>2022-09-28T09:54:30.718Z</time>
      </trkpt>
      <trkpt lat="47.21222" lon="16.39004">
        <ele>329.333251</ele>
        <time>2022-09-28T09:54:36.705Z</time>
      </trkpt>
      <trkpt lat="47.2123" lon="16.39011">
        <ele>329.954062</ele>
        <time>2022-09-28T09:54:42.722Z</time>
      </trkpt>
      <trkpt lat="47.21239" lon="16.39017">
        <ele>330.625717</ele>
        <time>2022-09-28T09:54:49.704Z</time>
      </trkpt>
      <trkpt lat="47.21249" lon="16.39024">
        <ele>331.321259</ele>
        <time>2022-09-28T09:54:56.688Z</time>
      </trkpt>
      <trkpt lat="47.21257" lon="16.3903">
        <ele>331.961546</ele>
        <time>2022-09-28T09:55:02.725Z</time>
      </trkpt>
      <trkpt lat="47.21267" lon="16.39036">
        <ele>332.633529</ele>
        <time>2022-09-28T09:55:08.714Z</time>
      </trkpt>
      <trkpt lat="47.21275" lon="16.39041">
        <ele>333.238665</ele>
        <time>2022-09-28T09:55:14.720Z</time>
      </trkpt>
      <trkpt lat="47.21283" lon="16.39046">
        <ele>333.838783</ele>
        <time>2022-09-28T09:55:20.705Z</time>
      </trkpt>
      <trkpt lat="47.21292" lon="16.39052">
        <ele>334.479069</ele>
        <time>2022-09-28T09:55:27.755Z</time>
      </trkpt>
      <trkpt lat="47.213" lon="16.39058">
        <ele>335.094883</ele>
        <time>2022-09-28T09:55:35.713Z</time>
      </trkpt>
      <trkpt lat="47.21309" lon="16.39064">
        <ele>335.715071</ele>
        <time>2022-09-28T09:55:43.750Z</time>
      </trkpt>
      <trkpt lat="47.21317" lon="16.3907">
        <ele>336.336986</ele>
        <time>2022-09-28T09:55:53.711Z</time>
      </trkpt>
      <trkpt lat="47.21325" lon="16.39076">
        <ele>336.955095</ele>
        <time>2022-09-28T09:56:01.711Z</time>
      </trkpt>
      <trkpt lat="47.21333" lon="16.39083">
        <ele>337.574887</ele>
        <time>2022-09-28T09:56:09.694Z</time>
      </trkpt>
      <trkpt lat="47.21341" lon="16.39091">
        <ele>338.194815</ele>
        <time>2022-09-28T09:56:18.731Z</time>
      </trkpt>
      <trkpt lat="47.21349" lon="16.39099">
        <ele>338.835971</ele>
        <time>2022-09-28T09:56:27.693Z</time>
      </trkpt>
      <trkpt lat="47.21356" lon="16.39107">
        <ele>339.450254</ele>
        <time>2022-09-28T09:56:35.706Z</time>
      </trkpt>
      <trkpt lat="47.21364" lon="16.39116">
        <ele>340.093874</ele>
        <time>2022-09-28T09:56:44.715Z</time>
      </trkpt>
      <trkpt lat="47.21372" lon="16.39124">
        <ele>340.757065</ele>
        <time>2022-09-28T09:56:52.713Z</time>
      </trkpt>
      <trkpt lat="47.2138" lon="16.39133">
        <ele>341.425531</ele>
        <time>2022-09-28T09:57:02.734Z</time>
      </trkpt>
      <trkpt lat="47.21387" lon="16.39143">
        <ele>341.999883</ele>
        <time>2022-09-28T09:57:11.730Z</time>
      </trkpt>
      <trkpt lat="47.21394" lon="16.39153">
        <ele>342.502104</ele>
        <time>2022-09-28T09:57:20.720Z</time>
      </trkpt>
      <trkpt lat="47.214" lon="16.39163">
        <ele>343.025584</ele>
        <time>2022-09-28T09:57:28.718Z</time>
      </trkpt>
      <trkpt lat="47.21408" lon="16.39173">
        <ele>343.577757</ele>
        <time>2022-09-28T09:57:37.719Z</time>
      </trkpt>
      <trkpt lat="47.21414" lon="16.39183">
        <ele>344.108605</ele>
        <time>2022-09-28T09:57:46.700Z</time>
      </trkpt>
      <trkpt lat="47.2142" lon="16.39195">
        <ele>344.656982</ele>
        <time>2022-09-28T09:57:55.709Z</time>
      </trkpt>
      <trkpt lat="47.21425" lon="16.39207">
        <ele>345.165239</ele>
        <time>2022-09-28T09:58:04.696Z</time>
      </trkpt>
      <trkpt lat="47.2143" lon="16.39218">
        <ele>345.676531</ele>
        <time>2022-09-28T09:58:12.701Z</time>
      </trkpt>
      <trkpt lat="47.21435" lon="16.39229">
        <ele>346.178589</ele>
        <time>2022-09-28T09:58:21.695Z</time>
      </trkpt>
      <trkpt lat="47.21442" lon="16.3924">
        <ele>346.691906</ele>
        <time>2022-09-28T09:58:29.713Z</time>
      </trkpt>
      <trkpt lat="47.21446" lon="16.39251">
        <ele>347.185409</ele>
        <time>2022-09-28T09:58:36.722Z</time>
      </trkpt>
      <trkpt lat="47.2145" lon="16.39265">
        <ele>347.743627</ele>
        <time>2022-09-28T09:58:45.699Z</time>
      </trkpt>
      <trkpt lat="47.21454" lon="16.39278">
        <ele>348.281803</ele>
        <time>2022-09-28T09:58:52.730Z</time>
      </trkpt>
      <trkpt lat="47.21458" lon="16.3929">
        <ele>348.782667</ele>
        <time>2022-09-28T09:58:58.690Z</time>
      </trkpt>
      <trkpt lat="47.21461" lon="16.39304">
        <ele>349.329609</ele>
        <time>2022-09-28T09:59:04.717Z</time>
      </trkpt>
      <trkpt lat="47.21465" lon="16.39319">
        <ele>349.929611</ele>
        <time>2022-09-28T09:59:10.714Z</time>
      </trkpt>
      <trkpt lat="47.21469" lon="16.39332">
        <ele>350.447562</ele>
        <time>2022-09-28T09:59:15.744Z</time>
      </trkpt>
      <trkpt lat="47.21472" lon="16.39344">
        <ele>350.950975</ele>
        <time>2022-09-28T09:59:19.701Z</time>
      </trkpt>
      <trkpt lat="47.21477" lon="16.39359">
        <ele>351.494293</ele>
        <time>2022-09-28T09:59:23.703Z</time>
      </trkpt>
      <trkpt lat="47.21481" lon="16.39376">
        <ele>350.974392</ele>
        <time>2022-09-28T09:59:27.714Z</time>
      </trkpt>
      <trkpt lat="47.21486" lon="16.39393">
        <ele>350.465536</ele>
        <time>2022-09-28T09:59:30.697Z</time>
      </trkpt>
      <trkpt lat="47.2149" lon="16.39407">
        <ele>350.029081</ele>
        <time>2022-09-28T09:59:32.718Z</time>
      </trkpt>
      <trkpt lat="47.21495" lon="16.39423">
        <ele>349.543672</ele>
        <time>2022-09-28T09:59:34.701Z</time>
      </trkpt>
      <trkpt lat="47.215" lon="16.39437">
        <ele>349.080711</ele>
        <time>2022-09-28T09:59:36.722Z</time>
      </trkpt>
      <trkpt lat="47.21504" lon="16.39454">
        <ele>348.558455</ele>
        <time>2022-09-28T09:59:38.707Z</time>
      </trkpt>
      <trkpt lat="47.21509" lon="16.39475">
        <ele>347.933685</ele>
        <time>2022-09-28T09:59:40.704Z</time>
      </trkpt>
      <trkpt lat="47.21515" lon="16.39495">
        <ele>347.302847</ele>
        <time>2022-09-28T09:59:42.735Z</time>
      </trkpt>
      <trkpt lat="47.21522" lon="16.39518">
        <ele>346.606317</ele>
        <time>2022-09-28T09:59:44.699Z</time>
      </trkpt>
      <trkpt lat="47.21529" lon="16.39542">
        <ele>345.853736</ele>
        <time>2022-09-28T09:59:46.698Z</time>
      </trkpt>
      <trkpt lat="47.21532" lon="16.39555">
        <ele>345.457049</ele>
        <time>2022-09-28T09:59:47.706Z</time>
      </trkpt>
      <trkpt lat="47.21535" lon="16.39569">
        <ele>345.05368</ele>
        <time>2022-09-28T09:59:48.746Z</time>
      </trkpt>
      <trkpt lat="47.21538" lon="16.39582">
        <ele>344.643559</ele>
        <time>2022-09-28T09:59:49.716Z</time>
      </trkpt>
      <trkpt lat="47.21542" lon="16.39596">
        <ele>344.226481</ele>
        <time>2022-09-28T09:59:50.691Z</time>
      </trkpt>
      <trkpt lat="47.21545" lon="16.3961">
        <ele>343.597543</ele>
        <time>2022-09-28T09:59:51.720Z</time>
      </trkpt>
      <trkpt lat="47.21548" lon="16.39624">
        <ele>342.717344</ele>
        <time>2022-09-28T09:59:52.710Z</time>
      </trkpt>
      <trkpt lat="47.21552" lon="16.39638">
        <ele>341.811905</ele>
        <time>2022-09-28T09:59:53.699Z</time>
      </trkpt>
      <trkpt lat="47.21555" lon="16.39653">
        <ele>340.897428</ele>
        <time>2022-09-28T09:59:54.695Z</time>
      </trkpt>
      <trkpt lat="47.21558" lon="16.39668">
        <ele>339.943647</ele>
        <time>2022-09-28T09:59:55.709Z</time>
      </trkpt>
      <trkpt lat="47.21561" lon="16.39685">
        <ele>338.939149</ele>
        <time>2022-09-28T09:59:56.730Z</time>
      </trkpt>
      <trkpt lat="47.21565" lon="16.397">
        <ele>337.934557</ele>
        <time>2022-09-28T09:59:57.702Z</time>
      </trkpt>
      <trkpt lat="47.21569" lon="16.39717">
        <ele>336.893318</ele>
        <time>2022-09-28T09:59:58.696Z</time>
      </trkpt>
      <trkpt lat="47.21572" lon="16.39734">
        <ele>335.828481</ele>
        <time>2022-09-28T09:59:59.753Z</time>
      </trkpt>
      <trkpt lat="47.21576" lon="16.39752">
        <ele>334.733395</ele>
        <time>2022-09-28T10:00:00.713Z</time>
      </trkpt>
      <trkpt lat="47.2158" lon="16.39769">
        <ele>333.658716</ele>
        <time>2022-09-28T10:00:01.697Z</time>
      </trkpt>
      <trkpt lat="47.21584" lon="16.39786">
        <ele>332.583941</ele>
        <time>2022-09-28T10:00:02.707Z</time>
      </trkpt>
      <trkpt lat="47.21588" lon="16.39803">
        <ele>331.528942</ele>
        <time>2022-09-28T10:00:03.704Z</time>
      </trkpt>
      <trkpt lat="47.21592" lon="16.39819">
        <ele>330.481598</ele>
        <time>2022-09-28T10:00:04.710Z</time>
      </trkpt>
      <trkpt lat="47.21596" lon="16.39835">
        <ele>329.436602</ele>
        <time>2022-09-28T10:00:05.711Z</time>
      </trkpt>
      <trkpt lat="47.21601" lon="16.39852">
        <ele>328.391608</ele>
        <time>2022-09-28T10:00:06.712Z</time>
      </trkpt>
      <trkpt lat="47.21605" lon="16.39868">
        <ele>327.056771</ele>
        <time>2022-09-28T10:00:07.705Z</time>
      </trkpt>
      <trkpt lat="47.2161" lon="16.39885">
        <ele>325.627161</ele>
        <time>2022-09-28T10:00:08.717Z</time>
      </trkpt>
      <trkpt lat="47.21614" lon="16.39902">
        <ele>324.176264</ele>
        <time>2022-09-28T10:00:09.712Z</time>
      </trkpt>
      <trkpt lat="47.21619" lon="16.39919">
        <ele>322.743502</ele>
        <time>2022-09-28T10:00:10.750Z</time>
      </trkpt>
      <trkpt lat="47.21623" lon="16.39936">
        <ele>321.253794</ele>
        <time>2022-09-28T10:00:11.716Z</time>
      </trkpt>
      <trkpt lat="47.21629" lon="16.39954">
        <ele>319.67931</ele>
        <time>2022-09-28T10:00:12.721Z</time>
      </trkpt>
      <trkpt lat="47.21635" lon="16.39973">
        <ele>318.027791</ele>
        <time>2022-09-28T10:00:13.712Z</time>
      </trkpt>
      <trkpt lat="47.21641" lon="16.39992">
        <ele>316.368271</ele>
        <time>2022-09-28T10:00:14.707Z</time>
      </trkpt>
      <trkpt lat="47.21648" lon="16.40012">
        <ele>314.618223</ele>
        <time>2022-09-28T10:00:15.716Z</time>
      </trkpt>
      <trkpt lat="47.21657" lon="16.4003">
        <ele>312.875826</ele>
        <time>2022-09-28T10:00:16.730Z</time>
      </trkpt>
      <trkpt lat="47.21665" lon="16.40048">
        <ele>311.199418</ele>
        <time>2022-09-28T10:00:17.694Z</time>
      </trkpt>
      <trkpt lat="47.21673" lon="16.40064">
        <ele>309.548022</ele>
        <time>2022-09-28T10:00:18.716Z</time>
      </trkpt>
      <trkpt lat="47.21682" lon="16.4008">
        <ele>307.903492</ele>
        <time>2022-09-28T10:00:19.797Z</time>
      </trkpt>
      <trkpt lat="47.21691" lon="16.40097">
        <ele>306.446653</ele>
        <time>2022-09-28T10:00:20.733Z</time>
      </trkpt>
      <trkpt lat="47.217" lon="16.40112">
        <ele>305.15675</ele>
        <time>2022-09-28T10:00:21.721Z</time>
      </trkpt>
      <trkpt lat="47.2171" lon="16.40127">
        <ele>303.864672</ele>
        <time>2022-09-28T10:00:22.733Z</time>
      </trkpt>
      <trkpt lat="47.2172" lon="16.40142">
        <ele>302.539748</ele>
        <time>2022-09-28T10:00:23.722Z</time>
      </trkpt>
      <trkpt lat="47.2173" lon="16.40156">
        <ele>301.263392</ele>
        <time>2022-09-28T10:00:24.708Z</time>
      </trkpt>
      <trkpt lat="47.2174" lon="16.40169">
        <ele>300.022048</ele>
        <time>2022-09-28T10:00:25.712Z</time>
      </trkpt>
      <trkpt lat="47.2175" lon="16.40182">
        <ele>298.813027</ele>
        <time>2022-09-28T10:00:26.719Z</time>
      </trkpt>
      <trkpt lat="47.21759" lon="16.40195">
        <ele>297.637222</ele>
        <time>2022-09-28T10:00:27.706Z</time>
      </trkpt>
      <trkpt lat="47.21768" lon="16.40208">
        <ele>296.460044</ele>
        <time>2022-09-28T10:00:28.740Z</time>
      </trkpt>
      <trkpt lat="47.21777" lon="16.40221">
        <ele>295.315476</ele>
        <time>2022-09-28T10:00:29.693Z</time>
      </trkpt>
      <trkpt lat="47.21784" lon="16.40235">
        <ele>294.214926</ele>
        <time>2022-09-28T10:00:30.714Z</time>
      </trkpt>
      <trkpt lat="47.2179" lon="16.40249">
        <ele>293.169164</ele>
        <time>2022-09-28T10:00:31.717Z</time>
      </trkpt>
      <trkpt lat="47.21795" lon="16.40264">
        <ele>292.114238</ele>
        <time>2022-09-28T10:00:32.705Z</time>
      </trkpt>
      <trkpt lat="47.21798" lon="16.4028">
        <ele>291.088083</ele>
        <time>2022-09-28T10:00:33.715Z</time>
      </trkpt>
      <trkpt lat="47.218" lon="16.40295">
        <ele>290.604886</ele>
        <time>2022-09-28T10:00:34.684Z</time>
      </trkpt>
      <trkpt lat="47.218" lon="16.40311">
        <ele>290.609099</ele>
        <time>2022-09-28T10:00:35.710Z</time>
      </trkpt>
      <trkpt lat="47.218" lon="16.40326">
        <ele>290.613104</ele>
        <time>2022-09-28T10:00:36.700Z</time>
      </trkpt>
      <trkpt lat="47.21798" lon="16.4034">
        <ele>290.616855</ele>
        <time>2022-09-28T10:00:37.704Z</time>
      </trkpt>
      <trkpt lat="47.21796" lon="16.40354">
        <ele>290.620548</ele>
        <time>2022-09-28T10:00:38.706Z</time>
      </trkpt>
      <trkpt lat="47.21793" lon="16.40366">
        <ele>290.62412</ele>
        <time>2022-09-28T10:00:39.708Z</time>
      </trkpt>
      <trkpt lat="47.21788" lon="16.4039">
        <ele>290.630846</ele>
        <time>2022-09-28T10:00:41.836Z</time>
      </trkpt>
      <trkpt lat="47.21782" lon="16.40412">
        <ele>290.637119</ele>
        <time>2022-09-28T10:00:43.703Z</time>
      </trkpt>
      <trkpt lat="47.21778" lon="16.40432">
        <ele>290.642596</ele>
        <time>2022-09-28T10:00:45.717Z</time>
      </trkpt>
      <trkpt lat="47.21773" lon="16.40449">
        <ele>290.647567</ele>
        <time>2022-09-28T10:00:47.720Z</time>
      </trkpt>
      <trkpt lat="47.2177" lon="16.40465">
        <ele>290.65211</ele>
        <time>2022-09-28T10:00:49.712Z</time>
      </trkpt>
      <trkpt lat="47.21766" lon="16.4048">
        <ele>290.656164</ele>
        <time>2022-09-28T10:00:51.717Z</time>
      </trkpt>
      <trkpt lat="47.21762" lon="16.40497">
        <ele>290.661174</ele>
        <time>2022-09-28T10:00:54.709Z</time>
      </trkpt>
      <trkpt lat="47.21758" lon="16.40512">
        <ele>290.665252</ele>
        <time>2022-09-28T10:00:57.705Z</time>
      </trkpt>
      <trkpt lat="47.21754" lon="16.40524">
        <ele>290.668916</ele>
        <time>2022-09-28T10:01:00.720Z</time>
      </trkpt>
      <trkpt lat="47.21749" lon="16.40536">
        <ele>290.672608</ele>
        <time>2022-09-28T10:01:03.777Z</time>
      </trkpt>
      <trkpt lat="47.21743" lon="16.40551">
        <ele>290.756126</ele>
        <time>2022-09-28T10:01:07.707Z</time>
      </trkpt>
      <trkpt lat="47.21736" lon="16.40565">
        <ele>290.852573</ele>
        <time>2022-09-28T10:01:11.707Z</time>
      </trkpt>
      <trkpt lat="47.21729" lon="16.4058">
        <ele>290.949941</ele>
        <time>2022-09-28T10:01:15.812Z</time>
      </trkpt>
      <trkpt lat="47.21724" lon="16.40592">
        <ele>291.027283</ele>
        <time>2022-09-28T10:01:18.738Z</time>
      </trkpt>
      <trkpt lat="47.21718" lon="16.40604">
        <ele>291.107792</ele>
        <time>2022-09-28T10:01:21.701Z</time>
      </trkpt>
      <trkpt lat="47.21714" lon="16.40616">
        <ele>291.186352</ele>
        <time>2022-09-28T10:01:24.705Z</time>
      </trkpt>
      <trkpt lat="47.21711" lon="16.40633">
        <ele>291.278772</ele>
        <time>2022-09-28T10:01:27.756Z</time>
      </trkpt>
      <trkpt lat="47.21709" lon="16.40651">
        <ele>291.379421</ele>
        <time>2022-09-28T10:01:30.690Z</time>
      </trkpt>
      <trkpt lat="47.21709" lon="16.40668">
        <ele>291.4751</ele>
        <time>2022-09-28T10:01:33.703Z</time>
      </trkpt>
      <trkpt lat="47.21718" lon="16.40683">
        <ele>291.584057</ele>
        <time>2022-09-28T10:01:36.707Z</time>
      </trkpt>
      <trkpt lat="47.21728" lon="16.40685">
        <ele>291.668155</ele>
        <time>2022-09-28T10:01:38.779Z</time>
      </trkpt>
      <trkpt lat="47.21737" lon="16.40686">
        <ele>291.743492</ele>
        <time>2022-09-28T10:01:40.709Z</time>
      </trkpt>
      <trkpt lat="47.2175" lon="16.40686">
        <ele>291.849547</ele>
        <time>2022-09-28T10:01:43.736Z</time>
      </trkpt>
      <trkpt lat="47.21764" lon="16.40688">
        <ele>291.957955</ele>
        <time>2022-09-28T10:01:46.719Z</time>
      </trkpt>
      <trkpt lat="47.21777" lon="16.40693">
        <ele>292.067281</ele>
        <time>2022-09-28T10:01:49.761Z</time>
      </trkpt>
      <trkpt lat="47.21786" lon="16.40695">
        <ele>292.109365</ele>
        <time>2022-09-28T10:01:51.715Z</time>
      </trkpt>
      <trkpt lat="47.21795" lon="16.40699">
        <ele>292.005071</ele>
        <time>2022-09-28T10:01:53.709Z</time>
      </trkpt>
      <trkpt lat="47.21804" lon="16.40704">
        <ele>291.901579</ele>
        <time>2022-09-28T10:01:55.705Z</time>
      </trkpt>
      <trkpt lat="47.21813" lon="16.40709">
        <ele>291.790495</ele>
        <time>2022-09-28T10:01:57.713Z</time>
      </trkpt>
      <trkpt lat="47.21822" lon="16.40715">
        <ele>291.67841</ele>
        <time>2022-09-28T10:01:59.706Z</time>
      </trkpt>
      <trkpt lat="47.21832" lon="16.40721">
        <ele>291.563982</ele>
        <time>2022-09-28T10:02:01.701Z</time>
      </trkpt>
      <trkpt lat="47.21841" lon="16.40728">
        <ele>291.447977</ele>
        <time>2022-09-28T10:02:03.696Z</time>
      </trkpt>
      <trkpt lat="47.2185" lon="16.40735">
        <ele>291.333881</ele>
        <time>2022-09-28T10:02:05.706Z</time>
      </trkpt>
      <trkpt lat="47.21858" lon="16.40743">
        <ele>291.224197</ele>
        <time>2022-09-28T10:02:07.706Z</time>
      </trkpt>
      <trkpt lat="47.21867" lon="16.40751">
        <ele>291.113276</ele>
        <time>2022-09-28T10:02:09.863Z</time>
      </trkpt>
      <trkpt lat="47.21874" lon="16.4076">
        <ele>291.004696</ele>
        <time>2022-09-28T10:02:11.700Z</time>
      </trkpt>
      <trkpt lat="47.21882" lon="16.4077">
        <ele>290.89311</ele>
        <time>2022-09-28T10:02:13.711Z</time>
      </trkpt>
      <trkpt lat="47.21889" lon="16.4078">
        <ele>290.783887</ele>
        <time>2022-09-28T10:02:15.713Z</time>
      </trkpt>
      <trkpt lat="47.21896" lon="16.4079">
        <ele>290.67524</ele>
        <time>2022-09-28T10:02:17.727Z</time>
      </trkpt>
      <trkpt lat="47.21902" lon="16.408">
        <ele>290.567001</ele>
        <time>2022-09-28T10:02:19.697Z</time>
      </trkpt>
      <trkpt lat="47.21908" lon="16.40811">
        <ele>290.461721</ele>
        <time>2022-09-28T10:02:21.713Z</time>
      </trkpt>
      <trkpt lat="47.21914" lon="16.40823">
        <ele>290.350906</ele>
        <time>2022-09-28T10:02:23.712Z</time>
      </trkpt>
      <trkpt lat="47.2192" lon="16.40835">
        <ele>290.236755</ele>
        <time>2022-09-28T10:02:25.684Z</time>
      </trkpt>
      <trkpt lat="47.21927" lon="16.40846">
        <ele>290.125836</ele>
        <time>2022-09-28T10:02:27.697Z</time>
      </trkpt>
      <trkpt lat="47.21933" lon="16.40858">
        <ele>290.249767</ele>
        <time>2022-09-28T10:02:29.681Z</time>
      </trkpt>
      <trkpt lat="47.21938" lon="16.4087">
        <ele>290.366034</ele>
        <time>2022-09-28T10:02:31.699Z</time>
      </trkpt>
      <trkpt lat="47.2194" lon="16.40884">
        <ele>290.476623</ele>
        <time>2022-09-28T10:02:33.734Z</time>
      </trkpt>
      <trkpt lat="47.21934" lon="16.40896">
        <ele>290.597639</ele>
        <time>2022-09-28T10:02:35.713Z</time>
      </trkpt>
      <trkpt lat="47.21925" lon="16.40904">
        <ele>290.720479</ele>
        <time>2022-09-28T10:02:37.707Z</time>
      </trkpt>
      <trkpt lat="47.21915" lon="16.4091">
        <ele>290.851234</ele>
        <time>2022-09-28T10:02:39.755Z</time>
      </trkpt>
      <trkpt lat="47.21904" lon="16.40912">
        <ele>290.986707</ele>
        <time>2022-09-28T10:02:41.710Z</time>
      </trkpt>
      <trkpt lat="47.21894" lon="16.40913">
        <ele>291.104008</ele>
        <time>2022-09-28T10:02:43.703Z</time>
      </trkpt>
      <trkpt lat="47.21882" lon="16.40913">
        <ele>291.247527</ele>
        <time>2022-09-28T10:02:46.697Z</time>
      </trkpt>
      <trkpt lat="47.21871" lon="16.40914">
        <ele>291.383288</ele>
        <time>2022-09-28T10:02:49.699Z</time>
      </trkpt>
      <trkpt lat="47.2186" lon="16.40916">
        <ele>291.517585</ele>
        <time>2022-09-28T10:02:52.708Z</time>
      </trkpt>
      <trkpt lat="47.21852" lon="16.40924">
        <ele>291.630416</ele>
        <time>2022-09-28T10:02:55.714Z</time>
      </trkpt>
      <trkpt lat="47.21853" lon="16.40938">
        <ele>291.744761</ele>
        <time>2022-09-28T10:02:58.703Z</time>
      </trkpt>
      <trkpt lat="47.21858" lon="16.40952">
        <ele>291.864548</ele>
        <time>2022-09-28T10:03:02.775Z</time>
      </trkpt>
      <trkpt lat="47.21863" lon="16.40964">
        <ele>291.982894</ele>
        <time>2022-09-28T10:03:06.722Z</time>
      </trkpt>
      <trkpt lat="47.21867" lon="16.4098">
        <ele>292.121381</ele>
        <time>2022-09-28T10:03:10.707Z</time>
      </trkpt>
      <trkpt lat="47.21869" lon="16.40995">
        <ele>292.244289</ele>
        <time>2022-09-28T10:03:13.747Z</time>
      </trkpt>
      <trkpt lat="47.21872" lon="16.41011">
        <ele>292.222188</ele>
        <time>2022-09-28T10:03:16.708Z</time>
      </trkpt>
      <trkpt lat="47.21876" lon="16.41026">
        <ele>292.149142</ele>
        <time>2022-09-28T10:03:19.708Z</time>
      </trkpt>
      <trkpt lat="47.21881" lon="16.41041">
        <ele>292.071938</ele>
        <time>2022-09-28T10:03:22.725Z</time>
      </trkpt>
      <trkpt lat="47.21887" lon="16.41057">
        <ele>291.994284</ele>
        <time>2022-09-28T10:03:25.714Z</time>
      </trkpt>
      <trkpt lat="47.21891" lon="16.41073">
        <ele>291.915319</ele>
        <time>2022-09-28T10:03:28.710Z</time>
      </trkpt>
      <trkpt lat="47.21894" lon="16.41089">
        <ele>291.841102</ele>
        <time>2022-09-28T10:03:31.720Z</time>
      </trkpt>
      <trkpt lat="47.21896" lon="16.41105">
        <ele>291.765893</ele>
        <time>2022-09-28T10:03:34.719Z</time>
      </trkpt>
      <trkpt lat="47.21897" lon="16.41123">
        <ele>291.688673</ele>
        <time>2022-09-28T10:03:37.753Z</time>
      </trkpt>
      <trkpt lat="47.21898" lon="16.41139">
        <ele>291.613587</ele>
        <time>2022-09-28T10:03:40.708Z</time>
      </trkpt>
      <trkpt lat="47.21898" lon="16.41156">
        <ele>291.537154</ele>
        <time>2022-09-28T10:03:43.707Z</time>
      </trkpt>
      <trkpt lat="47.21898" lon="16.41173">
        <ele>291.462577</ele>
        <time>2022-09-28T10:03:46.701Z</time>
      </trkpt>
      <trkpt lat="47.21898" lon="16.4119">
        <ele>291.38756</ele>
        <time>2022-09-28T10:03:49.710Z</time>
      </trkpt>
      <trkpt lat="47.21899" lon="16.41206">
        <ele>291.314295</ele>
        <time>2022-09-28T10:03:52.739Z</time>
      </trkpt>
      <trkpt lat="47.21899" lon="16.41223">
        <ele>291.238806</ele>
        <time>2022-09-28T10:03:55.729Z</time>
      </trkpt>
      <trkpt lat="47.21899" lon="16.41239">
        <ele>291.166909</ele>
        <time>2022-09-28T10:03:58.752Z</time>
      </trkpt>
      <trkpt lat="47.21898" lon="16.41259">
        <ele>291.051412</ele>
        <time>2022-09-28T10:04:02.721Z</time>
      </trkpt>
      <trkpt lat="47.21898" lon="16.41274">
        <ele>290.855219</ele>
        <time>2022-09-28T10:04:05.691Z</time>
      </trkpt>
      <trkpt lat="47.21896" lon="16.41289">
        <ele>290.661662</ele>
        <time>2022-09-28T10:04:08.707Z</time>
      </trkpt>
      <trkpt lat="47.21895" lon="16.41303">
        <ele>290.475448</ele>
        <time>2022-09-28T10:04:11.713Z</time>
      </trkpt>
      <trkpt lat="47.21901" lon="16.41314">
        <ele>290.295282</ele>
        <time>2022-09-28T10:04:14.714Z</time>
      </trkpt>
      <trkpt lat="47.21912" lon="16.41319">
        <ele>290.081024</ele>
        <time>2022-09-28T10:04:17.712Z</time>
      </trkpt>
      <trkpt lat="47.21922" lon="16.41325">
        <ele>289.864502</ele>
        <time>2022-09-28T10:04:20.716Z</time>
      </trkpt>
      <trkpt lat="47.21933" lon="16.41331">
        <ele>289.637942</ele>
        <time>2022-09-28T10:04:23.736Z</time>
      </trkpt>
      <trkpt lat="47.21945" lon="16.41336">
        <ele>289.412795</ele>
        <time>2022-09-28T10:04:26.717Z</time>
      </trkpt>
      <trkpt lat="47.21955" lon="16.41342">
        <ele>289.190429</ele>
        <time>2022-09-28T10:04:29.717Z</time>
      </trkpt>
      <trkpt lat="47.21967" lon="16.41347">
        <ele>288.958434</ele>
        <time>2022-09-28T10:04:32.704Z</time>
      </trkpt>
      <trkpt lat="47.21979" lon="16.41352">
        <ele>288.72158</ele>
        <time>2022-09-28T10:04:35.789Z</time>
      </trkpt>
      <trkpt lat="47.21991" lon="16.41356">
        <ele>288.485338</ele>
        <time>2022-09-28T10:04:38.717Z</time>
      </trkpt>
      <trkpt lat="47.22002" lon="16.41361">
        <ele>288.251225</ele>
        <time>2022-09-28T10:04:41.713Z</time>
      </trkpt>
      <trkpt lat="47.22015" lon="16.41367">
        <ele>288.004105</ele>
        <time>2022-09-28T10:04:44.708Z</time>
      </trkpt>
      <trkpt lat="47.22027" lon="16.41373">
        <ele>287.748296</ele>
        <time>2022-09-28T10:04:47.699Z</time>
      </trkpt>
      <trkpt lat="47.22036" lon="16.41378">
        <ele>287.610313</ele>
        <time>2022-09-28T10:04:49.728Z</time>
      </trkpt>
      <trkpt lat="47.22045" lon="16.41383">
        <ele>287.554768</ele>
        <time>2022-09-28T10:04:51.721Z</time>
      </trkpt>
      <trkpt lat="47.22053" lon="16.41388">
        <ele>287.497222</ele>
        <time>2022-09-28T10:04:53.727Z</time>
      </trkpt>
      <trkpt lat="47.22066" lon="16.41394">
        <ele>287.417562</ele>
        <time>2022-09-28T10:04:56.695Z</time>
      </trkpt>
      <trkpt lat="47.22078" lon="16.414">
        <ele>287.33876</ele>
        <time>2022-09-28T10:04:59.712Z</time>
      </trkpt>
      <trkpt lat="47.22087" lon="16.41404">
        <ele>287.283422</ele>
        <time>2022-09-28T10:05:01.682Z</time>
      </trkpt>
      <trkpt lat="47.22095" lon="16.41408">
        <ele>287.228417</ele>
        <time>2022-09-28T10:05:03.709Z</time>
      </trkpt>
      <trkpt lat="47.22104" lon="16.41412">
        <ele>287.173151</ele>
        <time>2022-09-28T10:05:05.707Z</time>
      </trkpt>
      <trkpt lat="47.22113" lon="16.41417">
        <ele>287.114471</ele>
        <time>2022-09-28T10:05:07.681Z</time>
      </trkpt>
      <trkpt lat="47.22122" lon="16.41422">
        <ele>287.055215</ele>
        <time>2022-09-28T10:05:09.703Z</time>
      </trkpt>
      <trkpt lat="47.22131" lon="16.41426">
        <ele>286.999877</ele>
        <time>2022-09-28T10:05:11.703Z</time>
      </trkpt>
      <trkpt lat="47.2214" lon="16.4143">
        <ele>286.944166</ele>
        <time>2022-09-28T10:05:13.706Z</time>
      </trkpt>
      <trkpt lat="47.22148" lon="16.41434">
        <ele>286.889061</ele>
        <time>2022-09-28T10:05:15.711Z</time>
      </trkpt>
      <trkpt lat="47.22157" lon="16.41439">
        <ele>286.833385</ele>
        <time>2022-09-28T10:05:17.710Z</time>
      </trkpt>
      <trkpt lat="47.22165" lon="16.41443">
        <ele>286.777985</ele>
        <time>2022-09-28T10:05:19.696Z</time>
      </trkpt>
      <trkpt lat="47.22174" lon="16.41448">
        <ele>286.721434</ele>
        <time>2022-09-28T10:05:21.722Z</time>
      </trkpt>
      <trkpt lat="47.22183" lon="16.41453">
        <ele>286.664705</ele>
        <time>2022-09-28T10:05:23.712Z</time>
      </trkpt>
      <trkpt lat="47.22192" lon="16.41458">
        <ele>286.608172</ele>
        <time>2022-09-28T10:05:25.718Z</time>
      </trkpt>
      <trkpt lat="47.222" lon="16.41463">
        <ele>286.552353</ele>
        <time>2022-09-28T10:05:27.702Z</time>
      </trkpt>
      <trkpt lat="47.22213" lon="16.41468">
        <ele>286.648786</ele>
        <time>2022-09-28T10:05:30.726Z</time>
      </trkpt>
      <trkpt lat="47.22222" lon="16.41473">
        <ele>286.745289</ele>
        <time>2022-09-28T10:05:32.706Z</time>
      </trkpt>
      <trkpt lat="47.22234" lon="16.41479">
        <ele>286.885878</ele>
        <time>2022-09-28T10:05:35.714Z</time>
      </trkpt>
      <trkpt lat="47.22247" lon="16.41485">
        <ele>287.025015</ele>
        <time>2022-09-28T10:05:38.714Z</time>
      </trkpt>
      <trkpt lat="47.22255" lon="16.4149">
        <ele>287.121324</ele>
        <time>2022-09-28T10:05:40.699Z</time>
      </trkpt>
      <trkpt lat="47.22264" lon="16.41495">
        <ele>287.217819</ele>
        <time>2022-09-28T10:05:42.703Z</time>
      </trkpt>
      <trkpt lat="47.22277" lon="16.415">
        <ele>287.358757</ele>
        <time>2022-09-28T10:05:45.702Z</time>
      </trkpt>
      <trkpt lat="47.22289" lon="16.41506">
        <ele>287.494868</ele>
        <time>2022-09-28T10:05:48.749Z</time>
      </trkpt>
      <trkpt lat="47.22301" lon="16.41511">
        <ele>287.63336</ele>
        <time>2022-09-28T10:05:51.718Z</time>
      </trkpt>
      <trkpt lat="47.22313" lon="16.41517">
        <ele>287.76545</ele>
        <time>2022-09-28T10:05:54.697Z</time>
      </trkpt>
      <trkpt lat="47.22325" lon="16.41522">
        <ele>287.899681</ele>
        <time>2022-09-28T10:05:57.692Z</time>
      </trkpt>
      <trkpt lat="47.22338" lon="16.41527">
        <ele>288.042283</ele>
        <time>2022-09-28T10:06:00.698Z</time>
      </trkpt>
      <trkpt lat="47.22347" lon="16.41531">
        <ele>288.137511</ele>
        <time>2022-09-28T10:06:02.715Z</time>
      </trkpt>
      <trkpt lat="47.22356" lon="16.41534">
        <ele>288.233765</ele>
        <time>2022-09-28T10:06:04.726Z</time>
      </trkpt>
      <trkpt lat="47.22365" lon="16.41537">
        <ele>288.331121</ele>
        <time>2022-09-28T10:06:06.702Z</time>
      </trkpt>
      <trkpt lat="47.22374" lon="16.41539">
        <ele>288.430417</ele>
        <time>2022-09-28T10:06:08.713Z</time>
      </trkpt>
      <trkpt lat="47.22383" lon="16.41542">
        <ele>288.461316</ele>
        <time>2022-09-28T10:06:10.754Z</time>
      </trkpt>
      <trkpt lat="47.22392" lon="16.41544">
        <ele>288.483414</ele>
        <time>2022-09-28T10:06:12.720Z</time>
      </trkpt>
      <trkpt lat="47.22401" lon="16.41546">
        <ele>288.505401</ele>
        <time>2022-09-28T10:06:14.705Z</time>
      </trkpt>
      <trkpt lat="47.2241" lon="16.41549">
        <ele>288.528891</ele>
        <time>2022-09-28T10:06:16.716Z</time>
      </trkpt>
      <trkpt lat="47.2242" lon="16.41552">
        <ele>288.553132</ele>
        <time>2022-09-28T10:06:18.702Z</time>
      </trkpt>
      <trkpt lat="47.2243" lon="16.41555">
        <ele>288.57816</ele>
        <time>2022-09-28T10:06:20.720Z</time>
      </trkpt>
      <trkpt lat="47.2244" lon="16.41559">
        <ele>288.602437</ele>
        <time>2022-09-28T10:06:22.728Z</time>
      </trkpt>
      <trkpt lat="47.22449" lon="16.41562">
        <ele>288.625927</ele>
        <time>2022-09-28T10:06:24.705Z</time>
      </trkpt>
      <trkpt lat="47.22459" lon="16.41565">
        <ele>288.64993</ele>
        <time>2022-09-28T10:06:26.721Z</time>
      </trkpt>
      <trkpt lat="47.22468" lon="16.41568">
        <ele>288.673932</ele>
        <time>2022-09-28T10:06:28.709Z</time>
      </trkpt>
      <trkpt lat="47.22477" lon="16.4157">
        <ele>288.696991</ele>
        <time>2022-09-28T10:06:30.716Z</time>
      </trkpt>
      <trkpt lat="47.22487" lon="16.41573">
        <ele>288.720381</ele>
        <time>2022-09-28T10:06:32.741Z</time>
      </trkpt>
      <trkpt lat="47.22496" lon="16.41575">
        <ele>288.743921</ele>
        <time>2022-09-28T10:06:34.717Z</time>
      </trkpt>
      <trkpt lat="47.22506" lon="16.41578">
        <ele>288.767616</ele>
        <time>2022-09-28T10:06:36.707Z</time>
      </trkpt>
      <trkpt lat="47.22515" lon="16.41581">
        <ele>288.791245</ele>
        <time>2022-09-28T10:06:38.737Z</time>
      </trkpt>
      <trkpt lat="47.22525" lon="16.41584">
        <ele>288.814428</ele>
        <time>2022-09-28T10:06:40.707Z</time>
      </trkpt>
      <trkpt lat="47.22534" lon="16.41587">
        <ele>288.837166</ele>
        <time>2022-09-28T10:06:42.711Z</time>
      </trkpt>
      <trkpt lat="47.22543" lon="16.41589">
        <ele>288.859716</ele>
        <time>2022-09-28T10:06:44.768Z</time>
      </trkpt>
      <trkpt lat="47.22552" lon="16.41591">
        <ele>288.884079</ele>
        <time>2022-09-28T10:06:46.704Z</time>
      </trkpt>
      <trkpt lat="47.22561" lon="16.41593">
        <ele>288.930102</ele>
        <time>2022-09-28T10:06:48.714Z</time>
      </trkpt>
      <trkpt lat="47.2257" lon="16.41596">
        <ele>288.975439</ele>
        <time>2022-09-28T10:06:50.712Z</time>
      </trkpt>
      <trkpt lat="47.22583" lon="16.41599">
        <ele>289.043323</ele>
        <time>2022-09-28T10:06:53.701Z</time>
      </trkpt>
      <trkpt lat="47.22597" lon="16.41602">
        <ele>289.109673</ele>
        <time>2022-09-28T10:06:56.708Z</time>
      </trkpt>
      <trkpt lat="47.2261" lon="16.41606">
        <ele>289.175962</ele>
        <time>2022-09-28T10:06:59.711Z</time>
      </trkpt>
      <trkpt lat="47.22619" lon="16.41607">
        <ele>289.221715</ele>
        <time>2022-09-28T10:07:01.741Z</time>
      </trkpt>
      <trkpt lat="47.22631" lon="16.41611">
        <ele>289.286469</ele>
        <time>2022-09-28T10:07:04.699Z</time>
      </trkpt>
      <trkpt lat="47.2264" lon="16.41615">
        <ele>289.331623</ele>
        <time>2022-09-28T10:07:06.706Z</time>
      </trkpt>
      <trkpt lat="47.22653" lon="16.41619">
        <ele>289.399809</ele>
        <time>2022-09-28T10:07:09.718Z</time>
      </trkpt>
      <trkpt lat="47.22662" lon="16.41622">
        <ele>289.445635</ele>
        <time>2022-09-28T10:07:11.714Z</time>
      </trkpt>
      <trkpt lat="47.22671" lon="16.41624">
        <ele>289.491398</ele>
        <time>2022-09-28T10:07:13.714Z</time>
      </trkpt>
      <trkpt lat="47.2268" lon="16.41627">
        <ele>289.536669</ele>
        <time>2022-09-28T10:07:15.743Z</time>
      </trkpt>
      <trkpt lat="47.22689" lon="16.4163">
        <ele>289.583191</ele>
        <time>2022-09-28T10:07:17.716Z</time>
      </trkpt>
      <trkpt lat="47.22698" lon="16.41633">
        <ele>289.629641</ele>
        <time>2022-09-28T10:07:19.713Z</time>
      </trkpt>
      <trkpt lat="47.22708" lon="16.41636">
        <ele>289.676163</ele>
        <time>2022-09-28T10:07:21.716Z</time>
      </trkpt>
      <trkpt lat="47.22717" lon="16.41639">
        <ele>289.72332</ele>
        <time>2022-09-28T10:07:23.758Z</time>
      </trkpt>
      <trkpt lat="47.22726" lon="16.41642">
        <ele>289.770632</ele>
        <time>2022-09-28T10:07:25.718Z</time>
      </trkpt>
      <trkpt lat="47.22735" lon="16.41644">
        <ele>289.939747</ele>
        <time>2022-09-28T10:07:27.722Z</time>
      </trkpt>
      <trkpt lat="47.22745" lon="16.41646">
        <ele>290.142965</ele>
        <time>2022-09-28T10:07:29.717Z</time>
      </trkpt>
      <trkpt lat="47.22754" lon="16.41649">
        <ele>290.340766</ele>
        <time>2022-09-28T10:07:31.715Z</time>
      </trkpt>
      <trkpt lat="47.22767" lon="16.41652">
        <ele>290.623506</ele>
        <time>2022-09-28T10:07:34.739Z</time>
      </trkpt>
      <trkpt lat="47.2278" lon="16.41655">
        <ele>290.898707</ele>
        <time>2022-09-28T10:07:37.718Z</time>
      </trkpt>
      <trkpt lat="47.22793" lon="16.41658">
        <ele>291.173218</ele>
        <time>2022-09-28T10:07:40.762Z</time>
      </trkpt>
      <trkpt lat="47.22805" lon="16.41662">
        <ele>291.450752</ele>
        <time>2022-09-28T10:07:43.700Z</time>
      </trkpt>
      <trkpt lat="47.22818" lon="16.41664">
        <ele>291.714145</ele>
        <time>2022-09-28T10:07:46.711Z</time>
      </trkpt>
      <trkpt lat="47.22829" lon="16.41666">
        <ele>291.963983</ele>
        <time>2022-09-28T10:07:49.708Z</time>
      </trkpt>
      <trkpt lat="47.22841" lon="16.41669">
        <ele>292.201791</ele>
        <time>2022-09-28T10:07:52.707Z</time>
      </trkpt>
      <trkpt lat="47.22851" lon="16.41675">
        <ele>292.432342</ele>
        <time>2022-09-28T10:07:55.708Z</time>
      </trkpt>
      <trkpt lat="47.22857" lon="16.41688">
        <ele>292.662697</ele>
        <time>2022-09-28T10:07:58.689Z</time>
      </trkpt>
      <trkpt lat="47.22858" lon="16.41705">
        <ele>292.915486</ele>
        <time>2022-09-28T10:08:01.714Z</time>
      </trkpt>
      <trkpt lat="47.22857" lon="16.41723">
        <ele>293.168888</ele>
        <time>2022-09-28T10:08:04.721Z</time>
      </trkpt>
      <trkpt lat="47.22856" lon="16.4174">
        <ele>293.414506</ele>
        <time>2022-09-28T10:08:07.750Z</time>
      </trkpt>
      <trkpt lat="47.22855" lon="16.41757">
        <ele>293.686704</ele>
        <time>2022-09-28T10:08:10.700Z</time>
      </trkpt>
      <trkpt lat="47.22854" lon="16.41773">
        <ele>294.016946</ele>
        <time>2022-09-28T10:08:13.744Z</time>
      </trkpt>
      <trkpt lat="47.22853" lon="16.41789">
        <ele>294.328844</ele>
        <time>2022-09-28T10:08:16.696Z</time>
      </trkpt>
      <trkpt lat="47.22853" lon="16.41806">
        <ele>294.66392</ele>
        <time>2022-09-28T10:08:19.710Z</time>
      </trkpt>
      <trkpt lat="47.22853" lon="16.41823">
        <ele>294.992898</ele>
        <time>2022-09-28T10:08:22.711Z</time>
      </trkpt>
      <trkpt lat="47.22853" lon="16.41838">
        <ele>295.296754</ele>
        <time>2022-09-28T10:08:25.710Z</time>
      </trkpt>
      <trkpt lat="47.22852" lon="16.41854">
        <ele>295.61301</ele>
        <time>2022-09-28T10:08:28.696Z</time>
      </trkpt>
      <trkpt lat="47.22851" lon="16.41869">
        <ele>295.91115</ele>
        <time>2022-09-28T10:08:31.699Z</time>
      </trkpt>
      <trkpt lat="47.22849" lon="16.41883">
        <ele>296.190808</ele>
        <time>2022-09-28T10:08:34.720Z</time>
      </trkpt>
      <trkpt lat="47.22848" lon="16.41899">
        <ele>296.496203</ele>
        <time>2022-09-28T10:08:38.715Z</time>
      </trkpt>
      <trkpt lat="47.22845" lon="16.41915">
        <ele>296.827435</ele>
        <time>2022-09-28T10:08:42.722Z</time>
      </trkpt>
      <trkpt lat="47.22844" lon="16.4193">
        <ele>297.128943</ele>
        <time>2022-09-28T10:08:46.757Z</time>
      </trkpt>
      <trkpt lat="47.22843" lon="16.41945">
        <ele>297.41944</ele>
        <time>2022-09-28T10:08:50.705Z</time>
      </trkpt>
      <trkpt lat="47.22843" lon="16.4196">
        <ele>297.722923</ele>
        <time>2022-09-28T10:08:54.708Z</time>
      </trkpt>
      <trkpt lat="47.22844" lon="16.41975">
        <ele>298.005343</ele>
        <time>2022-09-28T10:08:58.728Z</time>
      </trkpt>
      <trkpt lat="47.22845" lon="16.41989">
        <ele>298.279403</ele>
        <time>2022-09-28T10:09:02.699Z</time>
      </trkpt>
      <trkpt lat="47.22847" lon="16.42004">
        <ele>298.588238</ele>
        <time>2022-09-28T10:09:06.710Z</time>
      </trkpt>
      <trkpt lat="47.22848" lon="16.4202">
        <ele>298.932761</ele>
        <time>2022-09-28T10:09:10.717Z</time>
      </trkpt>
      <trkpt lat="47.22849" lon="16.42035">
        <ele>299.300953</ele>
        <time>2022-09-28T10:09:14.689Z</time>
      </trkpt>
      <trkpt lat="47.2285" lon="16.4205">
        <ele>299.685502</ele>
        <time>2022-09-28T10:09:18.721Z</time>
      </trkpt>
      <trkpt lat="47.22851" lon="16.42064">
        <ele>300.028093</ele>
        <time>2022-09-28T10:09:22.704Z</time>
      </trkpt>
      <trkpt lat="47.22852" lon="16.42079">
        <ele>300.397246</ele>
        <time>2022-09-28T10:09:26.709Z</time>
      </trkpt>
      <trkpt lat="47.22854" lon="16.42095">
        <ele>300.815923</ele>
        <time>2022-09-28T10:09:30.734Z</time>
      </trkpt>
      <trkpt lat="47.22855" lon="16.42113">
        <ele>301.260685</ele>
        <time>2022-09-28T10:09:34.706Z</time>
      </trkpt>
      <trkpt lat="47.22855" lon="16.42129">
        <ele>301.661326</ele>
        <time>2022-09-28T10:09:38.710Z</time>
      </trkpt>
      <trkpt lat="47.22857" lon="16.42144">
        <ele>302.039602</ele>
        <time>2022-09-28T10:09:42.721Z</time>
      </trkpt>
      <trkpt lat="47.22859" lon="16.42159">
        <ele>302.415077</ele>
        <time>2022-09-28T10:09:46.703Z</time>
      </trkpt>
      <trkpt lat="47.22866" lon="16.42172">
        <ele>302.809816</ele>
        <time>2022-09-28T10:09:50.718Z</time>
      </trkpt>
      <trkpt lat="47.22875" lon="16.42175">
        <ele>303.147271</ele>
        <time>2022-09-28T10:09:53.708Z</time>
      </trkpt>
      <trkpt lat="47.22885" lon="16.42176">
        <ele>303.532224</ele>
        <time>2022-09-28T10:09:57.710Z</time>
      </trkpt>
      <trkpt lat="47.22894" lon="16.42177">
        <ele>303.873056</ele>
        <time>2022-09-28T10:10:01.712Z</time>
      </trkpt>
      <trkpt lat="47.22905" lon="16.42178">
        <ele>304.254192</ele>
        <time>2022-09-28T10:10:06.715Z</time>
      </trkpt>
      <trkpt lat="47.22915" lon="16.4218">
        <ele>304.614772</ele>
        <time>2022-09-28T10:10:11.712Z</time>
      </trkpt>
      <trkpt lat="47.22925" lon="16.42179">
        <ele>304.988081</ele>
        <time>2022-09-28T10:10:17.703Z</time>
      </trkpt>
      <trkpt lat="47.22935" lon="16.42178">
        <ele>305.354318</ele>
        <time>2022-09-28T10:10:24.716Z</time>
      </trkpt>
      <trkpt lat="47.22944" lon="16.42178">
        <ele>305.615564</ele>
        <time>2022-09-28T10:10:31.702Z</time>
      </trkpt>
      <trkpt lat="47.22954" lon="16.42178">
        <ele>305.883566</ele>
        <time>2022-09-28T10:10:38.710Z</time>
      </trkpt>
      <trkpt lat="47.22964" lon="16.42179">
        <ele>306.144267</ele>
        <time>2022-09-28T10:10:45.706Z</time>
      </trkpt>
      <trkpt lat="47.22974" lon="16.42179">
        <ele>306.412178</ele>
        <time>2022-09-28T10:10:52.709Z</time>
      </trkpt>
      <trkpt lat="47.22985" lon="16.42179">
        <ele>306.685394</ele>
        <time>2022-09-28T10:10:59.691Z</time>
      </trkpt>
      <trkpt lat="47.22994" lon="16.4218">
        <ele>306.943199</ele>
        <time>2022-09-28T10:11:05.715Z</time>
      </trkpt>
      <trkpt lat="47.23004" lon="16.42182">
        <ele>307.211667</ele>
        <time>2022-09-28T10:11:11.710Z</time>
      </trkpt>
      <trkpt lat="47.23015" lon="16.42182">
        <ele>307.49284</ele>
        <time>2022-09-28T10:11:17.713Z</time>
      </trkpt>
      <trkpt lat="47.23026" lon="16.42182">
        <ele>307.779363</ele>
        <time>2022-09-28T10:11:22.718Z</time>
      </trkpt>
      <trkpt lat="47.23037" lon="16.42182">
        <ele>308.07123</ele>
        <time>2022-09-28T10:11:27.712Z</time>
      </trkpt>
      <trkpt lat="47.23046" lon="16.42184">
        <ele>308.325781</ele>
        <time>2022-09-28T10:11:31.727Z</time>
      </trkpt>
      <trkpt lat="47.23056" lon="16.42185">
        <ele>308.591186</ele>
        <time>2022-09-28T10:11:35.712Z</time>
      </trkpt>
      <trkpt lat="47.23067" lon="16.42186">
        <ele>308.865398</ele>
        <time>2022-09-28T10:11:39.719Z</time>
      </trkpt>
      <trkpt lat="47.23078" lon="16.42186">
        <ele>309.165155</ele>
        <time>2022-09-28T10:11:43.741Z</time>
      </trkpt>
      <trkpt lat="47.23087" lon="16.42187">
        <ele>309.409512</ele>
        <time>2022-09-28T10:11:46.699Z</time>
      </trkpt>
      <trkpt lat="47.23097" lon="16.42188">
        <ele>309.662145</ele>
        <time>2022-09-28T10:11:49.715Z</time>
      </trkpt>
      <trkpt lat="47.23106" lon="16.42188">
        <ele>309.914366</ele>
        <time>2022-09-28T10:11:52.703Z</time>
      </trkpt>
      <trkpt lat="47.23116" lon="16.42189">
        <ele>310.146273</ele>
        <time>2022-09-28T10:11:55.705Z</time>
      </trkpt>
      <trkpt lat="47.23127" lon="16.4219">
        <ele>309.942868</ele>
        <time>2022-09-28T10:11:58.698Z</time>
      </trkpt>
      <trkpt lat="47.23139" lon="16.4219">
        <ele>309.711311</ele>
        <time>2022-09-28T10:12:01.705Z</time>
      </trkpt>
      <trkpt lat="47.23152" lon="16.42192">
        <ele>309.469984</ele>
        <time>2022-09-28T10:12:04.747Z</time>
      </trkpt>
      <trkpt lat="47.23165" lon="16.42193">
        <ele>309.224819</ele>
        <time>2022-09-28T10:12:07.698Z</time>
      </trkpt>
      <trkpt lat="47.23174" lon="16.42193">
        <ele>309.047912</ele>
        <time>2022-09-28T10:12:09.697Z</time>
      </trkpt>
      <trkpt lat="47.23184" lon="16.42194">
        <ele>308.87093</ele>
        <time>2022-09-28T10:12:11.730Z</time>
      </trkpt>
      <trkpt lat="47.23193" lon="16.42195">
        <ele>308.693286</ele>
        <time>2022-09-28T10:12:13.705Z</time>
      </trkpt>
      <trkpt lat="47.23202" lon="16.42195">
        <ele>308.523826</ele>
        <time>2022-09-28T10:12:15.705Z</time>
      </trkpt>
      <trkpt lat="47.23215" lon="16.42197">
        <ele>308.280538</ele>
        <time>2022-09-28T10:12:18.692Z</time>
      </trkpt>
      <trkpt lat="47.23228" lon="16.42198">
        <ele>308.037411</ele>
        <time>2022-09-28T10:12:21.724Z</time>
      </trkpt>
      <trkpt lat="47.23239" lon="16.42199">
        <ele>307.820848</ele>
        <time>2022-09-28T10:12:24.716Z</time>
      </trkpt>
      <trkpt lat="47.2325" lon="16.42199">
        <ele>307.609924</ele>
        <time>2022-09-28T10:12:27.717Z</time>
      </trkpt>
      <trkpt lat="47.23261" lon="16.422">
        <ele>307.402559</ele>
        <time>2022-09-28T10:12:30.713Z</time>
      </trkpt>
      <trkpt lat="47.23272" lon="16.42201">
        <ele>307.19549</ele>
        <time>2022-09-28T10:12:33.709Z</time>
      </trkpt>
      <trkpt lat="47.23283" lon="16.422">
        <ele>306.994099</ele>
        <time>2022-09-28T10:12:36.732Z</time>
      </trkpt>
      <trkpt lat="47.23295" lon="16.42201">
        <ele>306.777705</ele>
        <time>2022-09-28T10:12:39.697Z</time>
      </trkpt>
      <trkpt lat="47.23306" lon="16.42202">
        <ele>306.943399</ele>
        <time>2022-09-28T10:12:42.714Z</time>
      </trkpt>
      <trkpt lat="47.23317" lon="16.42203">
        <ele>307.110981</ele>
        <time>2022-09-28T10:12:45.701Z</time>
      </trkpt>
      <trkpt lat="47.23328" lon="16.42202">
        <ele>307.280008</ele>
        <time>2022-09-28T10:12:48.713Z</time>
      </trkpt>
      <trkpt lat="47.2334" lon="16.42203">
        <ele>307.453706</ele>
        <time>2022-09-28T10:12:51.716Z</time>
      </trkpt>
      <trkpt lat="47.23351" lon="16.42204">
        <ele>307.618617</ele>
        <time>2022-09-28T10:12:54.719Z</time>
      </trkpt>
      <trkpt lat="47.23361" lon="16.42205">
        <ele>307.777246</ele>
        <time>2022-09-28T10:12:57.696Z</time>
      </trkpt>
      <trkpt lat="47.23371" lon="16.42205">
        <ele>307.93114</ele>
        <time>2022-09-28T10:13:00.720Z</time>
      </trkpt>
      <trkpt lat="47.23382" lon="16.42205">
        <ele>308.088051</ele>
        <time>2022-09-28T10:13:03.710Z</time>
      </trkpt>
      <trkpt lat="47.23392" lon="16.42205">
        <ele>308.247977</ele>
        <time>2022-09-28T10:13:06.701Z</time>
      </trkpt>
      <trkpt lat="47.23403" lon="16.42206">
        <ele>308.403714</ele>
        <time>2022-09-28T10:13:09.718Z</time>
      </trkpt>
      <trkpt lat="47.23413" lon="16.42207">
        <ele>308.556182</ele>
        <time>2022-09-28T10:13:12.732Z</time>
      </trkpt>
      <trkpt lat="47.23423" lon="16.42207">
        <ele>308.716268</ele>
        <time>2022-09-28T10:13:15.703Z</time>
      </trkpt>
      <trkpt lat="47.23434" lon="16.42209">
        <ele>308.875755</ele>
        <time>2022-09-28T10:13:18.702Z</time>
      </trkpt>
      <trkpt lat="47.23445" lon="16.42211">
        <ele>309.038019</ele>
        <time>2022-09-28T10:13:21.723Z</time>
      </trkpt>
      <trkpt lat="47.23455" lon="16.42212">
        <ele>309.196912</ele>
        <time>2022-09-28T10:13:24.709Z</time>
      </trkpt>
      <trkpt lat="47.23467" lon="16.42213">
        <ele>309.371008</ele>
        <time>2022-09-28T10:13:27.725Z</time>
      </trkpt>
      <trkpt lat="47.23478" lon="16.42214">
        <ele>309.430278</ele>
        <time>2022-09-28T10:13:30.712Z</time>
      </trkpt>
      <trkpt lat="47.23489" lon="16.42214">
        <ele>309.245746</ele>
        <time>2022-09-28T10:13:33.705Z</time>
      </trkpt>
      <trkpt lat="47.235" lon="16.42215">
        <ele>309.054288</ele>
        <time>2022-09-28T10:13:36.714Z</time>
      </trkpt>
      <trkpt lat="47.23512" lon="16.42215">
        <ele>308.852829</ele>
        <time>2022-09-28T10:13:39.713Z</time>
      </trkpt>
      <trkpt lat="47.23524" lon="16.42216">
        <ele>308.641026</ele>
        <time>2022-09-28T10:13:42.703Z</time>
      </trkpt>
      <trkpt lat="47.23537" lon="16.42217">
        <ele>308.428896</ele>
        <time>2022-09-28T10:13:45.740Z</time>
      </trkpt>
      <trkpt lat="47.2355" lon="16.42219">
        <ele>308.201009</ele>
        <time>2022-09-28T10:13:48.712Z</time>
      </trkpt>
      <trkpt lat="47.23561" lon="16.4222">
        <ele>308.019746</ele>
        <time>2022-09-28T10:13:50.793Z</time>
      </trkpt>
      <trkpt lat="47.23573" lon="16.4222">
        <ele>307.823325</ele>
        <time>2022-09-28T10:13:52.746Z</time>
      </trkpt>
      <trkpt lat="47.23585" lon="16.42221">
        <ele>307.606275</ele>
        <time>2022-09-28T10:13:54.706Z</time>
      </trkpt>
      <trkpt lat="47.23598" lon="16.42222">
        <ele>307.39121</ele>
        <time>2022-09-28T10:13:56.715Z</time>
      </trkpt>
      <trkpt lat="47.2361" lon="16.42222">
        <ele>307.184682</ele>
        <time>2022-09-28T10:13:58.708Z</time>
      </trkpt>
      <trkpt lat="47.23623" lon="16.42222">
        <ele>306.962681</ele>
        <time>2022-09-28T10:14:00.726Z</time>
      </trkpt>
      <trkpt lat="47.23638" lon="16.42223">
        <ele>306.722165</ele>
        <time>2022-09-28T10:14:02.716Z</time>
      </trkpt>
      <trkpt lat="47.23653" lon="16.42223">
        <ele>306.458075</ele>
        <time>2022-09-28T10:14:04.760Z</time>
      </trkpt>
      <trkpt lat="47.23669" lon="16.42225">
        <ele>305.665761</ele>
        <time>2022-09-28T10:14:06.698Z</time>
      </trkpt>
      <trkpt lat="47.23686" lon="16.42226">
        <ele>304.827246</ele>
        <time>2022-09-28T10:14:08.684Z</time>
      </trkpt>
      <trkpt lat="47.23703" lon="16.42229">
        <ele>303.971683</ele>
        <time>2022-09-28T10:14:10.688Z</time>
      </trkpt>
      <trkpt lat="47.23719" lon="16.42231">
        <ele>303.18017</ele>
        <time>2022-09-28T10:14:12.684Z</time>
      </trkpt>
      <trkpt lat="47.23733" lon="16.42233">
        <ele>302.441591</ele>
        <time>2022-09-28T10:14:14.696Z</time>
      </trkpt>
      <trkpt lat="47.23747" lon="16.42235">
        <ele>301.722436</ele>
        <time>2022-09-28T10:14:16.692Z</time>
      </trkpt>
      <trkpt lat="47.23761" lon="16.42237">
        <ele>301.019861</ele>
        <time>2022-09-28T10:14:18.686Z</time>
      </trkpt>
      <trkpt lat="47.23775" lon="16.42239">
        <ele>300.330783</ele>
        <time>2022-09-28T10:14:20.709Z</time>
      </trkpt>
      <trkpt lat="47.23787" lon="16.42241">
        <ele>299.697547</ele>
        <time>2022-09-28T10:14:22.695Z</time>
      </trkpt>
      <trkpt lat="47.23799" lon="16.42243">
        <ele>299.110121</ele>
        <time>2022-09-28T10:14:24.714Z</time>
      </trkpt>
      <trkpt lat="47.23811" lon="16.42245">
        <ele>298.521591</ele>
        <time>2022-09-28T10:14:26.718Z</time>
      </trkpt>
      <trkpt lat="47.23822" lon="16.42247">
        <ele>297.951749</ele>
        <time>2022-09-28T10:14:28.760Z</time>
      </trkpt>
      <trkpt lat="47.23833" lon="16.42249">
        <ele>297.392808</ele>
        <time>2022-09-28T10:14:30.708Z</time>
      </trkpt>
      <trkpt lat="47.23843" lon="16.42252">
        <ele>297.513055</ele>
        <time>2022-09-28T10:14:32.701Z</time>
      </trkpt>
      <trkpt lat="47.23852" lon="16.42254">
        <ele>297.635505</ele>
        <time>2022-09-28T10:14:34.703Z</time>
      </trkpt>
      <trkpt lat="47.23864" lon="16.42256">
        <ele>297.787684</ele>
        <time>2022-09-28T10:14:37.692Z</time>
      </trkpt>
      <trkpt lat="47.23873" lon="16.42259">
        <ele>297.912872</ele>
        <time>2022-09-28T10:14:40.698Z</time>
      </trkpt>
      <trkpt lat="47.23883" lon="16.42261">
        <ele>298.039787</ele>
        <time>2022-09-28T10:14:44.714Z</time>
      </trkpt>
      <trkpt lat="47.23892" lon="16.42264">
        <ele>298.173245</ele>
        <time>2022-09-28T10:14:49.693Z</time>
      </trkpt>
      <trkpt lat="47.23883" lon="16.42258">
        <ele>298.311171</ele>
        <time>2022-09-28T10:34:30.716Z</time>
      </trkpt>
      <trkpt lat="47.23874" lon="16.42254">
        <ele>298.433436</ele>
        <time>2022-09-28T10:34:33.706Z</time>
      </trkpt>
      <trkpt lat="47.23862" lon="16.42249">
        <ele>298.592658</ele>
        <time>2022-09-28T10:34:36.716Z</time>
      </trkpt>
      <trkpt lat="47.23849" lon="16.42246">
        <ele>298.765784</ele>
        <time>2022-09-28T10:34:39.721Z</time>
      </trkpt>
      <trkpt lat="47.23841" lon="16.42244">
        <ele>298.884143</ele>
        <time>2022-09-28T10:34:41.720Z</time>
      </trkpt>
      <trkpt lat="47.23831" lon="16.42242">
        <ele>299.015381</ele>
        <time>2022-09-28T10:34:43.785Z</time>
      </trkpt>
      <trkpt lat="47.23821" lon="16.42242">
        <ele>299.140473</ele>
        <time>2022-09-28T10:34:45.715Z</time>
      </trkpt>
      <trkpt lat="47.2381" lon="16.42239">
        <ele>299.28746</ele>
        <time>2022-09-28T10:34:48.716Z</time>
      </trkpt>
      <trkpt lat="47.23801" lon="16.42238">
        <ele>299.414319</ele>
        <time>2022-09-28T10:34:51.716Z</time>
      </trkpt>
      <trkpt lat="47.23791" lon="16.42243">
        <ele>299.546613</ele>
        <time>2022-09-28T10:34:55.716Z</time>
      </trkpt>
      <trkpt lat="47.23799" lon="16.42257">
        <ele>299.703715</ele>
        <time>2022-09-28T10:35:00.729Z</time>
      </trkpt>
      <trkpt lat="47.23807" lon="16.42266">
        <ele>299.755138</ele>
        <time>2022-09-28T10:35:03.720Z</time>
      </trkpt>
      <trkpt lat="47.23815" lon="16.42276">
        <ele>299.767263</ele>
        <time>2022-09-28T10:35:06.709Z</time>
      </trkpt>
      <trkpt lat="47.23823" lon="16.42286">
        <ele>299.779779</ele>
        <time>2022-09-28T10:35:09.716Z</time>
      </trkpt>
      <trkpt lat="47.23832" lon="16.42297">
        <ele>299.792903</ele>
        <time>2022-09-28T10:35:12.727Z</time>
      </trkpt>
      <trkpt lat="47.2384" lon="16.42307">
        <ele>299.805535</ele>
        <time>2022-09-28T10:35:15.727Z</time>
      </trkpt>
      <trkpt lat="47.23849" lon="16.42316">
        <ele>299.818022</ele>
        <time>2022-09-28T10:35:18.725Z</time>
      </trkpt>
      <trkpt lat="47.23857" lon="16.42326">
        <ele>299.829818</ele>
        <time>2022-09-28T10:35:21.710Z</time>
      </trkpt>
      <trkpt lat="47.23865" lon="16.42335">
        <ele>299.84216</ele>
        <time>2022-09-28T10:35:24.708Z</time>
      </trkpt>
      <trkpt lat="47.23874" lon="16.42344">
        <ele>299.854317</ele>
        <time>2022-09-28T10:35:27.772Z</time>
      </trkpt>
      <trkpt lat="47.23882" lon="16.42351">
        <ele>299.865737</ele>
        <time>2022-09-28T10:35:30.713Z</time>
      </trkpt>
      <trkpt lat="47.23891" lon="16.4236">
        <ele>299.877673</ele>
        <time>2022-09-28T10:35:33.773Z</time>
      </trkpt>
      <trkpt lat="47.23901" lon="16.42368">
        <ele>299.890409</ele>
        <time>2022-09-28T10:35:36.716Z</time>
      </trkpt>
      <trkpt lat="47.2391" lon="16.42377">
        <ele>299.903184</ele>
        <time>2022-09-28T10:35:39.700Z</time>
      </trkpt>
      <trkpt lat="47.23919" lon="16.42385">
        <ele>299.915243</ele>
        <time>2022-09-28T10:35:42.710Z</time>
      </trkpt>
      <trkpt lat="47.23928" lon="16.42392">
        <ele>299.927634</ele>
        <time>2022-09-28T10:35:45.704Z</time>
      </trkpt>
      <trkpt lat="47.23938" lon="16.42399">
        <ele>299.939823</ele>
        <time>2022-09-28T10:35:48.737Z</time>
      </trkpt>
      <trkpt lat="47.23947" lon="16.42407">
        <ele>299.95191</ele>
        <time>2022-09-28T10:35:51.717Z</time>
      </trkpt>
      <trkpt lat="47.23956" lon="16.42413">
        <ele>300.131021</ele>
        <time>2022-09-28T10:35:54.713Z</time>
      </trkpt>
      <trkpt lat="47.23966" lon="16.4242">
        <ele>300.384058</ele>
        <time>2022-09-28T10:35:57.718Z</time>
      </trkpt>
      <trkpt lat="47.23975" lon="16.42429">
        <ele>300.642328</ele>
        <time>2022-09-28T10:36:00.758Z</time>
      </trkpt>
      <trkpt lat="47.23985" lon="16.42435">
        <ele>300.891629</ele>
        <time>2022-09-28T10:36:03.707Z</time>
      </trkpt>
      <trkpt lat="47.23995" lon="16.42441">
        <ele>301.133814</ele>
        <time>2022-09-28T10:36:06.710Z</time>
      </trkpt>
      <trkpt lat="47.24005" lon="16.42445">
        <ele>301.378523</ele>
        <time>2022-09-28T10:36:09.714Z</time>
      </trkpt>
      <trkpt lat="47.24015" lon="16.42449">
        <ele>301.63899</ele>
        <time>2022-09-28T10:36:12.725Z</time>
      </trkpt>
      <trkpt lat="47.24025" lon="16.42456">
        <ele>301.888515</ele>
        <time>2022-09-28T10:36:15.715Z</time>
      </trkpt>
      <trkpt lat="47.24035" lon="16.42462">
        <ele>302.150862</ele>
        <time>2022-09-28T10:36:18.716Z</time>
      </trkpt>
      <trkpt lat="47.24045" lon="16.42468">
        <ele>302.399409</ele>
        <time>2022-09-28T10:36:21.714Z</time>
      </trkpt>
      <trkpt lat="47.24055" lon="16.42473">
        <ele>302.639135</ele>
        <time>2022-09-28T10:36:24.717Z</time>
      </trkpt>
      <trkpt lat="47.24064" lon="16.42477">
        <ele>302.877087</ele>
        <time>2022-09-28T10:36:27.718Z</time>
      </trkpt>
      <trkpt lat="47.24075" lon="16.42482">
        <ele>303.12862</ele>
        <time>2022-09-28T10:36:30.728Z</time>
      </trkpt>
      <trkpt lat="47.24085" lon="16.42486">
        <ele>303.389154</ele>
        <time>2022-09-28T10:36:33.705Z</time>
      </trkpt>
      <trkpt lat="47.24096" lon="16.42491">
        <ele>303.642469</ele>
        <time>2022-09-28T10:36:36.713Z</time>
      </trkpt>
      <trkpt lat="47.24106" lon="16.42495">
        <ele>303.896726</ele>
        <time>2022-09-28T10:36:39.715Z</time>
      </trkpt>
      <trkpt lat="47.24117" lon="16.425">
        <ele>304.158117</ele>
        <time>2022-09-28T10:36:42.710Z</time>
      </trkpt>
      <trkpt lat="47.24127" lon="16.42505">
        <ele>304.186451</ele>
        <time>2022-09-28T10:36:45.705Z</time>
      </trkpt>
      <trkpt lat="47.24137" lon="16.42509">
        <ele>304.19263</ele>
        <time>2022-09-28T10:36:48.719Z</time>
      </trkpt>
      <trkpt lat="47.24148" lon="16.42512">
        <ele>304.198847</ele>
        <time>2022-09-28T10:36:51.770Z</time>
      </trkpt>
      <trkpt lat="47.24158" lon="16.42517">
        <ele>304.204953</ele>
        <time>2022-09-28T10:36:54.714Z</time>
      </trkpt>
      <trkpt lat="47.24168" lon="16.42521">
        <ele>304.210868</ele>
        <time>2022-09-28T10:36:57.709Z</time>
      </trkpt>
      <trkpt lat="47.24178" lon="16.42526">
        <ele>304.217298</ele>
        <time>2022-09-28T10:37:00.708Z</time>
      </trkpt>
      <trkpt lat="47.24189" lon="16.42531">
        <ele>304.223877</ele>
        <time>2022-09-28T10:37:03.742Z</time>
      </trkpt>
      <trkpt lat="47.24199" lon="16.42535">
        <ele>304.230138</ele>
        <time>2022-09-28T10:37:06.712Z</time>
      </trkpt>
      <trkpt lat="47.2421" lon="16.4254">
        <ele>304.236557</ele>
        <time>2022-09-28T10:37:09.734Z</time>
      </trkpt>
      <trkpt lat="47.2422" lon="16.42545">
        <ele>304.243009</ele>
        <time>2022-09-28T10:37:12.723Z</time>
      </trkpt>
      <trkpt lat="47.24231" lon="16.42549">
        <ele>304.249283</ele>
        <time>2022-09-28T10:37:15.718Z</time>
      </trkpt>
      <trkpt lat="47.2424" lon="16.42554">
        <ele>304.25529</ele>
        <time>2022-09-28T10:37:18.707Z</time>
      </trkpt>
      <trkpt lat="47.2425" lon="16.42559">
        <ele>304.261321</ele>
        <time>2022-09-28T10:37:21.721Z</time>
      </trkpt>
      <trkpt lat="47.24261" lon="16.42563">
        <ele>304.267729</ele>
        <time>2022-09-28T10:37:24.714Z</time>
      </trkpt>
      <trkpt lat="47.24271" lon="16.42567">
        <ele>304.274097</ele>
        <time>2022-09-28T10:37:27.742Z</time>
      </trkpt>
      <trkpt lat="47.24282" lon="16.42571">
        <ele>304.280464</ele>
        <time>2022-09-28T10:37:30.743Z</time>
      </trkpt>
      <trkpt lat="47.24292" lon="16.42575">
        <ele>304.321956</ele>
        <time>2022-09-28T10:37:33.713Z</time>
      </trkpt>
      <trkpt lat="47.24302" lon="16.42579">
        <ele>304.504237</ele>
        <time>2022-09-28T10:37:36.714Z</time>
      </trkpt>
      <trkpt lat="47.24312" lon="16.42584">
        <ele>304.693703</ele>
        <time>2022-09-28T10:37:39.724Z</time>
      </trkpt>
      <trkpt lat="47.24321" lon="16.42588">
        <ele>304.865288</ele>
        <time>2022-09-28T10:37:42.720Z</time>
      </trkpt>
      <trkpt lat="47.24331" lon="16.42592">
        <ele>305.048599</ele>
        <time>2022-09-28T10:37:45.714Z</time>
      </trkpt>
      <trkpt lat="47.24342" lon="16.42595">
        <ele>305.242396</ele>
        <time>2022-09-28T10:37:48.724Z</time>
      </trkpt>
      <trkpt lat="47.24353" lon="16.42599">
        <ele>305.442212</ele>
        <time>2022-09-28T10:37:51.708Z</time>
      </trkpt>
      <trkpt lat="47.24363" lon="16.42602">
        <ele>305.63251</ele>
        <time>2022-09-28T10:37:54.724Z</time>
      </trkpt>
      <trkpt lat="47.24373" lon="16.42607">
        <ele>305.817153</ele>
        <time>2022-09-28T10:37:57.702Z</time>
      </trkpt>
      <trkpt lat="47.24383" lon="16.42614">
        <ele>306.013826</ele>
        <time>2022-09-28T10:38:00.722Z</time>
      </trkpt>
      <trkpt lat="47.24393" lon="16.42618">
        <ele>306.206706</ele>
        <time>2022-09-28T10:38:03.749Z</time>
      </trkpt>
      <trkpt lat="47.24403" lon="16.42622">
        <ele>306.389707</ele>
        <time>2022-09-28T10:38:06.720Z</time>
      </trkpt>
      <trkpt lat="47.24413" lon="16.42627">
        <ele>306.581245</ele>
        <time>2022-09-28T10:38:09.727Z</time>
      </trkpt>
      <trkpt lat="47.24424" lon="16.42631">
        <ele>306.774465</ele>
        <time>2022-09-28T10:38:12.717Z</time>
      </trkpt>
      <trkpt lat="47.24434" lon="16.42636">
        <ele>306.972831</ele>
        <time>2022-09-28T10:38:15.716Z</time>
      </trkpt>
      <trkpt lat="47.24445" lon="16.42641">
        <ele>307.170221</ele>
        <time>2022-09-28T10:38:18.712Z</time>
      </trkpt>
      <trkpt lat="47.24455" lon="16.42646">
        <ele>307.367988</ele>
        <time>2022-09-28T10:38:21.683Z</time>
      </trkpt>
      <trkpt lat="47.24466" lon="16.42651">
        <ele>307.545745</ele>
        <time>2022-09-28T10:38:24.717Z</time>
      </trkpt>
      <trkpt lat="47.24477" lon="16.42655">
        <ele>307.674054</ele>
        <time>2022-09-28T10:38:27.753Z</time>
      </trkpt>
      <trkpt lat="47.24488" lon="16.42659">
        <ele>307.80145</ele>
        <time>2022-09-28T10:38:30.720Z</time>
      </trkpt>
      <trkpt lat="47.24499" lon="16.42664">
        <ele>307.927071</ele>
        <time>2022-09-28T10:38:33.692Z</time>
      </trkpt>
      <trkpt lat="47.2451" lon="16.42669">
        <ele>308.054773</ele>
        <time>2022-09-28T10:38:36.714Z</time>
      </trkpt>
      <trkpt lat="47.2452" lon="16.42673">
        <ele>308.179891</ele>
        <time>2022-09-28T10:38:39.720Z</time>
      </trkpt>
      <trkpt lat="47.24531" lon="16.42678">
        <ele>308.308255</ele>
        <time>2022-09-28T10:38:42.742Z</time>
      </trkpt>
      <trkpt lat="47.24542" lon="16.42682">
        <ele>308.434047</ele>
        <time>2022-09-28T10:38:45.749Z</time>
      </trkpt>
      <trkpt lat="47.24553" lon="16.42686">
        <ele>308.559839</ele>
        <time>2022-09-28T10:38:48.706Z</time>
      </trkpt>
      <trkpt lat="47.24563" lon="16.42691">
        <ele>308.67611</ele>
        <time>2022-09-28T10:38:51.704Z</time>
      </trkpt>
      <trkpt lat="47.24573" lon="16.42696">
        <ele>308.798883</ele>
        <time>2022-09-28T10:38:54.712Z</time>
      </trkpt>
      <trkpt lat="47.24584" lon="16.427">
        <ele>308.924675</ele>
        <time>2022-09-28T10:38:57.733Z</time>
      </trkpt>
      <trkpt lat="47.24595" lon="16.42703">
        <ele>309.046494</ele>
        <time>2022-09-28T10:39:00.713Z</time>
      </trkpt>
      <trkpt lat="47.24605" lon="16.42706">
        <ele>309.164699</ele>
        <time>2022-09-28T10:39:03.749Z</time>
      </trkpt>
      <trkpt lat="47.24616" lon="16.4271">
        <ele>309.286091</ele>
        <time>2022-09-28T10:39:06.763Z</time>
      </trkpt>
      <trkpt lat="47.24626" lon="16.42713">
        <ele>309.408069</ele>
        <time>2022-09-28T10:39:09.734Z</time>
      </trkpt>
      <trkpt lat="47.24637" lon="16.42716">
        <ele>309.526995</ele>
        <time>2022-09-28T10:39:12.728Z</time>
      </trkpt>
      <trkpt lat="47.24648" lon="16.42719">
        <ele>309.557167</ele>
        <time>2022-09-28T10:39:15.728Z</time>
      </trkpt>
      <trkpt lat="47.24658" lon="16.42722">
        <ele>309.586189</ele>
        <time>2022-09-28T10:39:18.694Z</time>
      </trkpt>
      <trkpt lat="47.24668" lon="16.42725">
        <ele>309.615288</ele>
        <time>2022-09-28T10:39:21.721Z</time>
      </trkpt>
      <trkpt lat="47.24679" lon="16.42727">
        <ele>309.645434</ele>
        <time>2022-09-28T10:39:24.713Z</time>
      </trkpt>
      <trkpt lat="47.2469" lon="16.42729">
        <ele>309.676359</ele>
        <time>2022-09-28T10:39:27.717Z</time>
      </trkpt>
      <trkpt lat="47.24701" lon="16.42733">
        <ele>309.707432</ele>
        <time>2022-09-28T10:39:30.705Z</time>
      </trkpt>
      <trkpt lat="47.24712" lon="16.42737">
        <ele>309.738874</ele>
        <time>2022-09-28T10:39:33.743Z</time>
      </trkpt>
      <trkpt lat="47.24723" lon="16.4274">
        <ele>309.770943</ele>
        <time>2022-09-28T10:39:36.726Z</time>
      </trkpt>
      <trkpt lat="47.24734" lon="16.42741">
        <ele>309.803377</ele>
        <time>2022-09-28T10:39:39.703Z</time>
      </trkpt>
      <trkpt lat="47.24745" lon="16.42743">
        <ele>309.831812</ele>
        <time>2022-09-28T10:39:42.700Z</time>
      </trkpt>
      <trkpt lat="47.24755" lon="16.42747">
        <ele>309.861307</ele>
        <time>2022-09-28T10:39:45.718Z</time>
      </trkpt>
      <trkpt lat="47.24765" lon="16.4275">
        <ele>309.89019</ele>
        <time>2022-09-28T10:39:48.733Z</time>
      </trkpt>
      <trkpt lat="47.24776" lon="16.42751">
        <ele>309.920816</ele>
        <time>2022-09-28T10:39:51.721Z</time>
      </trkpt>
      <trkpt lat="47.24787" lon="16.42753">
        <ele>309.951936</ele>
        <time>2022-09-28T10:39:54.751Z</time>
      </trkpt>
      <trkpt lat="47.24798" lon="16.42755">
        <ele>309.982263</ele>
        <time>2022-09-28T10:39:57.716Z</time>
      </trkpt>
      <trkpt lat="47.24809" lon="16.42757">
        <ele>310.012712</ele>
        <time>2022-09-28T10:40:00.716Z</time>
      </trkpt>
      <trkpt lat="47.24819" lon="16.4276">
        <ele>310.124352</ele>
        <time>2022-09-28T10:40:03.710Z</time>
      </trkpt>
      <trkpt lat="47.2483" lon="16.42762">
        <ele>310.307843</ele>
        <time>2022-09-28T10:40:06.718Z</time>
      </trkpt>
      <trkpt lat="47.2484" lon="16.42764">
        <ele>310.494926</ele>
        <time>2022-09-28T10:40:09.717Z</time>
      </trkpt>
      <trkpt lat="47.24851" lon="16.42766">
        <ele>310.678749</ele>
        <time>2022-09-28T10:40:12.724Z</time>
      </trkpt>
      <trkpt lat="47.24861" lon="16.4277">
        <ele>310.863481</ele>
        <time>2022-09-28T10:40:15.719Z</time>
      </trkpt>
      <trkpt lat="47.24872" lon="16.42772">
        <ele>311.045769</ele>
        <time>2022-09-28T10:40:18.708Z</time>
      </trkpt>
      <trkpt lat="47.24883" lon="16.42775">
        <ele>311.235662</ele>
        <time>2022-09-28T10:40:21.714Z</time>
      </trkpt>
      <trkpt lat="47.24893" lon="16.42778">
        <ele>311.418136</ele>
        <time>2022-09-28T10:40:24.720Z</time>
      </trkpt>
      <trkpt lat="47.24904" lon="16.42779">
        <ele>311.603045</ele>
        <time>2022-09-28T10:40:27.772Z</time>
      </trkpt>
      <trkpt lat="47.24914" lon="16.42781">
        <ele>311.786095</ele>
        <time>2022-09-28T10:40:30.753Z</time>
      </trkpt>
      <trkpt lat="47.24924" lon="16.42784">
        <ele>311.96686</ele>
        <time>2022-09-28T10:40:33.718Z</time>
      </trkpt>
      <trkpt lat="47.24935" lon="16.42786">
        <ele>312.152571</ele>
        <time>2022-09-28T10:40:36.720Z</time>
      </trkpt>
      <trkpt lat="47.24945" lon="16.42788">
        <ele>312.331083</ele>
        <time>2022-09-28T10:40:39.751Z</time>
      </trkpt>
      <trkpt lat="47.24956" lon="16.42791">
        <ele>312.513022</ele>
        <time>2022-09-28T10:40:42.723Z</time>
      </trkpt>
      <trkpt lat="47.24966" lon="16.42793">
        <ele>312.699946</ele>
        <time>2022-09-28T10:40:45.704Z</time>
      </trkpt>
      <trkpt lat="47.24977" lon="16.42795">
        <ele>312.890013</ele>
        <time>2022-09-28T10:40:48.705Z</time>
      </trkpt>
      <trkpt lat="47.24988" lon="16.42796">
        <ele>313.07836</ele>
        <time>2022-09-28T10:40:51.721Z</time>
      </trkpt>
      <trkpt lat="47.24998" lon="16.42799">
        <ele>313.247677</ele>
        <time>2022-09-28T10:40:54.728Z</time>
      </trkpt>
      <trkpt lat="47.25009" lon="16.42801">
        <ele>313.410646</ele>
        <time>2022-09-28T10:40:57.719Z</time>
      </trkpt>
      <trkpt lat="47.2502" lon="16.42804">
        <ele>313.578599</ele>
        <time>2022-09-28T10:41:00.719Z</time>
      </trkpt>
      <trkpt lat="47.25031" lon="16.42806">
        <ele>313.746551</ele>
        <time>2022-09-28T10:41:03.699Z</time>
      </trkpt>
      <trkpt lat="47.25042" lon="16.42809">
        <ele>313.912682</ele>
        <time>2022-09-28T10:41:06.717Z</time>
      </trkpt>
      <trkpt lat="47.25052" lon="16.42811">
        <ele>314.077803</ele>
        <time>2022-09-28T10:41:09.722Z</time>
      </trkpt>
      <trkpt lat="47.25063" lon="16.42813">
        <ele>314.244418</ele>
        <time>2022-09-28T10:41:12.702Z</time>
      </trkpt>
      <trkpt lat="47.25075" lon="16.42815">
        <ele>314.418809</ele>
        <time>2022-09-28T10:41:15.751Z</time>
      </trkpt>
      <trkpt lat="47.25085" lon="16.42816">
        <ele>314.582296</ele>
        <time>2022-09-28T10:41:18.705Z</time>
      </trkpt>
      <trkpt lat="47.25096" lon="16.42818">
        <ele>314.749127</ele>
        <time>2022-09-28T10:41:21.710Z</time>
      </trkpt>
      <trkpt lat="47.25107" lon="16.42819">
        <ele>314.919737</ele>
        <time>2022-09-28T10:41:24.718Z</time>
      </trkpt>
      <trkpt lat="47.25118" lon="16.4282">
        <ele>315.084402</ele>
        <time>2022-09-28T10:41:27.714Z</time>
      </trkpt>
      <trkpt lat="47.25129" lon="16.42821">
        <ele>315.251974</ele>
        <time>2022-09-28T10:41:30.718Z</time>
      </trkpt>
      <trkpt lat="47.25141" lon="16.42822">
        <ele>315.430082</ele>
        <time>2022-09-28T10:41:33.711Z</time>
      </trkpt>
      <trkpt lat="47.25152" lon="16.42822">
        <ele>315.605151</ele>
        <time>2022-09-28T10:41:36.726Z</time>
      </trkpt>
      <trkpt lat="47.25164" lon="16.42824">
        <ele>315.777403</ele>
        <time>2022-09-28T10:41:39.732Z</time>
      </trkpt>
      <trkpt lat="47.25175" lon="16.42825">
        <ele>315.911561</ele>
        <time>2022-09-28T10:41:42.723Z</time>
      </trkpt>
      <trkpt lat="47.25185" lon="16.42826">
        <ele>315.993478</ele>
        <time>2022-09-28T10:41:45.750Z</time>
      </trkpt>
      <trkpt lat="47.25196" lon="16.42827">
        <ele>316.073381</ele>
        <time>2022-09-28T10:41:48.705Z</time>
      </trkpt>
      <trkpt lat="47.25206" lon="16.42828">
        <ele>316.154128</ele>
        <time>2022-09-28T10:41:51.689Z</time>
      </trkpt>
      <trkpt lat="47.25217" lon="16.4283">
        <ele>316.235282</ele>
        <time>2022-09-28T10:41:54.758Z</time>
      </trkpt>
      <trkpt lat="47.25227" lon="16.42831">
        <ele>316.317034</ele>
        <time>2022-09-28T10:41:57.718Z</time>
      </trkpt>
      <trkpt lat="47.25238" lon="16.42832">
        <ele>316.398694</ele>
        <time>2022-09-28T10:42:00.706Z</time>
      </trkpt>
      <trkpt lat="47.25248" lon="16.42833">
        <ele>316.478645</ele>
        <time>2022-09-28T10:42:03.711Z</time>
      </trkpt>
      <trkpt lat="47.25259" lon="16.42835">
        <ele>316.561879</ele>
        <time>2022-09-28T10:42:06.697Z</time>
      </trkpt>
      <trkpt lat="47.2527" lon="16.42836">
        <ele>316.644395</ele>
        <time>2022-09-28T10:42:09.704Z</time>
      </trkpt>
      <trkpt lat="47.25281" lon="16.42837">
        <ele>316.72969</ele>
        <time>2022-09-28T10:42:12.713Z</time>
      </trkpt>
      <trkpt lat="47.25292" lon="16.42837">
        <ele>316.816467</ele>
        <time>2022-09-28T10:42:15.716Z</time>
      </trkpt>
      <trkpt lat="47.25304" lon="16.42838">
        <ele>316.904852</ele>
        <time>2022-09-28T10:42:18.750Z</time>
      </trkpt>
      <trkpt lat="47.25315" lon="16.42839">
        <ele>316.994826</ele>
        <time>2022-09-28T10:42:21.782Z</time>
      </trkpt>
      <trkpt lat="47.25327" lon="16.4284">
        <ele>317.080888</ele>
        <time>2022-09-28T10:42:24.720Z</time>
      </trkpt>
      <trkpt lat="47.25337" lon="16.42842">
        <ele>317.160187</ele>
        <time>2022-09-28T10:42:27.712Z</time>
      </trkpt>
      <trkpt lat="47.25348" lon="16.42844">
        <ele>317.242927</ele>
        <time>2022-09-28T10:42:30.736Z</time>
      </trkpt>
      <trkpt lat="47.25359" lon="16.42844">
        <ele>317.385176</ele>
        <time>2022-09-28T10:42:33.711Z</time>
      </trkpt>
      <trkpt lat="47.2537" lon="16.42844">
        <ele>317.53633</ele>
        <time>2022-09-28T10:42:36.727Z</time>
      </trkpt>
      <trkpt lat="47.25381" lon="16.42846">
        <ele>317.68273</ele>
        <time>2022-09-28T10:42:39.718Z</time>
      </trkpt>
      <trkpt lat="47.25392" lon="16.42847">
        <ele>317.831411</ele>
        <time>2022-09-28T10:42:42.712Z</time>
      </trkpt>
      <trkpt lat="47.25403" lon="16.42848">
        <ele>317.980092</ele>
        <time>2022-09-28T10:42:45.700Z</time>
      </trkpt>
      <trkpt lat="47.25414" lon="16.42849">
        <ele>318.131643</ele>
        <time>2022-09-28T10:42:48.708Z</time>
      </trkpt>
      <trkpt lat="47.25425" lon="16.4285">
        <ele>318.281624</ele>
        <time>2022-09-28T10:42:51.725Z</time>
      </trkpt>
      <trkpt lat="47.25436" lon="16.42851">
        <ele>318.427665</ele>
        <time>2022-09-28T10:42:54.764Z</time>
      </trkpt>
      <trkpt lat="47.25447" lon="16.42852">
        <ele>318.571141</ele>
        <time>2022-09-28T10:42:57.713Z</time>
      </trkpt>
      <trkpt lat="47.25458" lon="16.42852">
        <ele>318.723653</ele>
        <time>2022-09-28T10:43:00.720Z</time>
      </trkpt>
      <trkpt lat="47.25469" lon="16.42852">
        <ele>318.878856</ele>
        <time>2022-09-28T10:43:03.717Z</time>
      </trkpt>
      <trkpt lat="47.2548" lon="16.42853">
        <ele>319.022406</ele>
        <time>2022-09-28T10:43:06.717Z</time>
      </trkpt>
      <trkpt lat="47.2549" lon="16.42855">
        <ele>319.163726</ele>
        <time>2022-09-28T10:43:09.712Z</time>
      </trkpt>
      <trkpt lat="47.25501" lon="16.42857">
        <ele>319.303933</ele>
        <time>2022-09-28T10:43:12.768Z</time>
      </trkpt>
      <trkpt lat="47.25511" lon="16.42859">
        <ele>319.448827</ele>
        <time>2022-09-28T10:43:15.678Z</time>
      </trkpt>
      <trkpt lat="47.25522" lon="16.42861">
        <ele>319.594507</ele>
        <time>2022-09-28T10:43:18.714Z</time>
      </trkpt>
      <trkpt lat="47.25533" lon="16.42862">
        <ele>319.701847</ele>
        <time>2022-09-28T10:43:21.675Z</time>
      </trkpt>
      <trkpt lat="47.25543" lon="16.42862">
        <ele>319.745873</ele>
        <time>2022-09-28T10:43:24.715Z</time>
      </trkpt>
      <trkpt lat="47.25553" lon="16.42864">
        <ele>319.793187</ele>
        <time>2022-09-28T10:43:27.693Z</time>
      </trkpt>
      <trkpt lat="47.25564" lon="16.42865">
        <ele>319.838202</ele>
        <time>2022-09-28T10:43:30.719Z</time>
      </trkpt>
      <trkpt lat="47.25574" lon="16.42866">
        <ele>319.884919</ele>
        <time>2022-09-28T10:43:33.686Z</time>
      </trkpt>
      <trkpt lat="47.25586" lon="16.42866">
        <ele>319.93724</ele>
        <time>2022-09-28T10:43:36.746Z</time>
      </trkpt>
      <trkpt lat="47.25597" lon="16.42868">
        <ele>319.985368</ele>
        <time>2022-09-28T10:43:39.698Z</time>
      </trkpt>
      <trkpt lat="47.25609" lon="16.42868">
        <ele>320.035518</ele>
        <time>2022-09-28T10:43:42.688Z</time>
      </trkpt>
      <trkpt lat="47.25621" lon="16.42869">
        <ele>320.086124</ele>
        <time>2022-09-28T10:43:45.715Z</time>
      </trkpt>
      <trkpt lat="47.25631" lon="16.42871">
        <ele>320.131372</ele>
        <time>2022-09-28T10:43:48.683Z</time>
      </trkpt>
      <trkpt lat="47.25642" lon="16.42872">
        <ele>320.179412</ele>
        <time>2022-09-28T10:43:51.711Z</time>
      </trkpt>
      <trkpt lat="47.25653" lon="16.42872">
        <ele>320.229977</ele>
        <time>2022-09-28T10:43:54.720Z</time>
      </trkpt>
      <trkpt lat="47.25664" lon="16.42873">
        <ele>320.278057</ele>
        <time>2022-09-28T10:43:57.714Z</time>
      </trkpt>
      <trkpt lat="47.25675" lon="16.42875">
        <ele>320.32417</ele>
        <time>2022-09-28T10:44:00.719Z</time>
      </trkpt>
      <trkpt lat="47.25686" lon="16.42877">
        <ele>320.371485</ele>
        <time>2022-09-28T10:44:03.742Z</time>
      </trkpt>
      <trkpt lat="47.25697" lon="16.42879">
        <ele>320.419797</ele>
        <time>2022-09-28T10:44:06.747Z</time>
      </trkpt>
      <trkpt lat="47.25708" lon="16.4288">
        <ele>320.468793</ele>
        <time>2022-09-28T10:44:09.718Z</time>
      </trkpt>
      <trkpt lat="47.2572" lon="16.42881">
        <ele>320.489073</ele>
        <time>2022-09-28T10:44:12.791Z</time>
      </trkpt>
      <trkpt lat="47.25731" lon="16.42881">
        <ele>320.508449</ele>
        <time>2022-09-28T10:44:15.718Z</time>
      </trkpt>
      <trkpt lat="47.25742" lon="16.42883">
        <ele>320.526736</ele>
        <time>2022-09-28T10:44:18.700Z</time>
      </trkpt>
      <trkpt lat="47.25754" lon="16.42884">
        <ele>320.545788</ele>
        <time>2022-09-28T10:44:21.707Z</time>
      </trkpt>
      <trkpt lat="47.25766" lon="16.42884">
        <ele>320.565832</ele>
        <time>2022-09-28T10:44:24.724Z</time>
      </trkpt>
      <trkpt lat="47.25777" lon="16.42886">
        <ele>320.585428</ele>
        <time>2022-09-28T10:44:27.705Z</time>
      </trkpt>
      <trkpt lat="47.25788" lon="16.42887">
        <ele>320.604025</ele>
        <time>2022-09-28T10:44:30.722Z</time>
      </trkpt>
      <trkpt lat="47.258" lon="16.42888">
        <ele>320.622597</ele>
        <time>2022-09-28T10:44:33.699Z</time>
      </trkpt>
      <trkpt lat="47.25811" lon="16.42889">
        <ele>320.642002</ele>
        <time>2022-09-28T10:44:36.737Z</time>
      </trkpt>
      <trkpt lat="47.25822" lon="16.4289">
        <ele>320.66056</ele>
        <time>2022-09-28T10:44:39.750Z</time>
      </trkpt>
      <trkpt lat="47.25833" lon="16.42891">
        <ele>320.679117</ele>
        <time>2022-09-28T10:44:42.712Z</time>
      </trkpt>
      <trkpt lat="47.25844" lon="16.42893">
        <ele>320.69757</ele>
        <time>2022-09-28T10:44:45.748Z</time>
      </trkpt>
      <trkpt lat="47.25856" lon="16.42894">
        <ele>320.717641</ele>
        <time>2022-09-28T10:44:48.725Z</time>
      </trkpt>
      <trkpt lat="47.25868" lon="16.42895">
        <ele>320.737712</ele>
        <time>2022-09-28T10:44:51.713Z</time>
      </trkpt>
      <trkpt lat="47.25879" lon="16.42898">
        <ele>320.755834</ele>
        <time>2022-09-28T10:44:54.729Z</time>
      </trkpt>
      <trkpt lat="47.2589" lon="16.42899">
        <ele>320.812195</ele>
        <time>2022-09-28T10:44:57.730Z</time>
      </trkpt>
      <trkpt lat="47.25901" lon="16.42901">
        <ele>321.001242</ele>
        <time>2022-09-28T10:45:00.713Z</time>
      </trkpt>
      <trkpt lat="47.25912" lon="16.42901">
        <ele>321.195065</ele>
        <time>2022-09-28T10:45:03.714Z</time>
      </trkpt>
      <trkpt lat="47.25924" lon="16.42902">
        <ele>321.394037</ele>
        <time>2022-09-28T10:45:06.754Z</time>
      </trkpt>
      <trkpt lat="47.25936" lon="16.42903">
        <ele>321.596124</ele>
        <time>2022-09-28T10:45:09.761Z</time>
      </trkpt>
      <trkpt lat="47.25947" lon="16.42904">
        <ele>321.784928</ele>
        <time>2022-09-28T10:45:12.709Z</time>
      </trkpt>
      <trkpt lat="47.25959" lon="16.42904">
        <ele>321.986962</ele>
        <time>2022-09-28T10:45:15.714Z</time>
      </trkpt>
      <trkpt lat="47.25971" lon="16.42905">
        <ele>322.182969</ele>
        <time>2022-09-28T10:45:18.758Z</time>
      </trkpt>
      <trkpt lat="47.2598" lon="16.42907">
        <ele>322.35013</ele>
        <time>2022-09-28T10:45:21.716Z</time>
      </trkpt>
      <trkpt lat="47.2599" lon="16.42908">
        <ele>322.522593</ele>
        <time>2022-09-28T10:45:24.710Z</time>
      </trkpt>
      <trkpt lat="47.26002" lon="16.42909">
        <ele>322.71283</ele>
        <time>2022-09-28T10:45:27.720Z</time>
      </trkpt>
      <trkpt lat="47.26012" lon="16.42911">
        <ele>322.897232</ele>
        <time>2022-09-28T10:45:30.724Z</time>
      </trkpt>
      <trkpt lat="47.26023" lon="16.42911">
        <ele>323.084213</ele>
        <time>2022-09-28T10:45:33.711Z</time>
      </trkpt>
      <trkpt lat="47.26035" lon="16.42913">
        <ele>323.278337</ele>
        <time>2022-09-28T10:45:36.712Z</time>
      </trkpt>
      <trkpt lat="47.26046" lon="16.42914">
        <ele>323.474154</ele>
        <time>2022-09-28T10:45:39.711Z</time>
      </trkpt>
      <trkpt lat="47.26058" lon="16.42915">
        <ele>323.670161</ele>
        <time>2022-09-28T10:45:42.722Z</time>
      </trkpt>
      <trkpt lat="47.26069" lon="16.42917">
        <ele>323.821867</ele>
        <time>2022-09-28T10:45:45.748Z</time>
      </trkpt>
      <trkpt lat="47.26079" lon="16.42919">
        <ele>323.811693</ele>
        <time>2022-09-28T10:45:48.721Z</time>
      </trkpt>
      <trkpt lat="47.26087" lon="16.42924">
        <ele>323.802777</ele>
        <time>2022-09-28T10:45:51.751Z</time>
      </trkpt>
      <trkpt lat="47.26096" lon="16.4293">
        <ele>323.793395</ele>
        <time>2022-09-28T10:45:54.725Z</time>
      </trkpt>
      <trkpt lat="47.26107" lon="16.42933">
        <ele>323.782062</ele>
        <time>2022-09-28T10:45:57.752Z</time>
      </trkpt>
      <trkpt lat="47.26116" lon="16.42935">
        <ele>323.772861</ele>
        <time>2022-09-28T10:45:59.699Z</time>
      </trkpt>
      <trkpt lat="47.26125" lon="16.42937">
        <ele>323.763472</ele>
        <time>2022-09-28T10:46:01.713Z</time>
      </trkpt>
      <trkpt lat="47.26135" lon="16.42938">
        <ele>323.754399</ele>
        <time>2022-09-28T10:46:03.725Z</time>
      </trkpt>
      <trkpt lat="47.26147" lon="16.42942">
        <ele>323.741416</ele>
        <time>2022-09-28T10:46:06.713Z</time>
      </trkpt>
      <trkpt lat="47.26159" lon="16.42948">
        <ele>323.729303</ele>
        <time>2022-09-28T10:46:09.735Z</time>
      </trkpt>
      <trkpt lat="47.2617" lon="16.42953">
        <ele>323.717745</ele>
        <time>2022-09-28T10:46:12.699Z</time>
      </trkpt>
      <trkpt lat="47.26181" lon="16.42959">
        <ele>323.706339</ele>
        <time>2022-09-28T10:46:15.716Z</time>
      </trkpt>
      <trkpt lat="47.26191" lon="16.42964">
        <ele>323.695142</ele>
        <time>2022-09-28T10:46:18.721Z</time>
      </trkpt>
      <trkpt lat="47.26202" lon="16.42969">
        <ele>323.683778</ele>
        <time>2022-09-28T10:46:21.710Z</time>
      </trkpt>
      <trkpt lat="47.26213" lon="16.42974">
        <ele>323.672533</ele>
        <time>2022-09-28T10:46:24.714Z</time>
      </trkpt>
      <trkpt lat="47.26225" lon="16.4298">
        <ele>323.660587</ele>
        <time>2022-09-28T10:46:27.713Z</time>
      </trkpt>
      <trkpt lat="47.26236" lon="16.42985">
        <ele>323.648413</ele>
        <time>2022-09-28T10:46:30.723Z</time>
      </trkpt>
      <trkpt lat="47.26247" lon="16.4299">
        <ele>323.725873</ele>
        <time>2022-09-28T10:46:33.727Z</time>
      </trkpt>
      <trkpt lat="47.26257" lon="16.42995">
        <ele>323.833984</ele>
        <time>2022-09-28T10:46:36.713Z</time>
      </trkpt>
      <trkpt lat="47.26266" lon="16.43">
        <ele>323.929408</ele>
        <time>2022-09-28T10:46:39.714Z</time>
      </trkpt>
      <trkpt lat="47.26275" lon="16.43006">
        <ele>324.026573</ele>
        <time>2022-09-28T10:46:42.710Z</time>
      </trkpt>
      <trkpt lat="47.26284" lon="16.43009">
        <ele>324.118394</ele>
        <time>2022-09-28T10:46:53.702Z</time>
      </trkpt>
      <trkpt lat="47.26295" lon="16.43013">
        <ele>324.229536</ele>
        <time>2022-09-28T10:46:58.716Z</time>
      </trkpt>
      <trkpt lat="47.26303" lon="16.43019">
        <ele>324.325778</ele>
        <time>2022-09-28T10:47:01.711Z</time>
      </trkpt>
      <trkpt lat="47.26312" lon="16.43023">
        <ele>324.419081</ele>
        <time>2022-09-28T10:47:04.714Z</time>
      </trkpt>
      <trkpt lat="47.26322" lon="16.43027">
        <ele>324.515625</ele>
        <time>2022-09-28T10:47:07.721Z</time>
      </trkpt>
      <trkpt lat="47.26331" lon="16.43032">
        <ele>324.617193</ele>
        <time>2022-09-28T10:47:10.724Z</time>
      </trkpt>
      <trkpt lat="47.26341" lon="16.43037">
        <ele>324.723955</ele>
        <time>2022-09-28T10:47:13.720Z</time>
      </trkpt>
      <trkpt lat="47.26352" lon="16.43043">
        <ele>324.836189</ele>
        <time>2022-09-28T10:47:16.717Z</time>
      </trkpt>
      <trkpt lat="47.26363" lon="16.43048">
        <ele>324.953887</ele>
        <time>2022-09-28T10:47:19.717Z</time>
      </trkpt>
      <trkpt lat="47.26373" lon="16.43054">
        <ele>325.066475</ele>
        <time>2022-09-28T10:47:22.713Z</time>
      </trkpt>
      <trkpt lat="47.26384" lon="16.43059">
        <ele>325.176742</ele>
        <time>2022-09-28T10:47:25.719Z</time>
      </trkpt>
      <trkpt lat="47.26395" lon="16.43065">
        <ele>325.296883</ele>
        <time>2022-09-28T10:47:28.752Z</time>
      </trkpt>
      <trkpt lat="47.26406" lon="16.43071">
        <ele>325.413957</ele>
        <time>2022-09-28T10:47:31.737Z</time>
      </trkpt>
      <trkpt lat="47.26416" lon="16.43076">
        <ele>325.470943</ele>
        <time>2022-09-28T10:47:34.713Z</time>
      </trkpt>
      <trkpt lat="47.26427" lon="16.43082">
        <ele>325.50103</ele>
        <time>2022-09-28T10:47:37.714Z</time>
      </trkpt>
      <trkpt lat="47.26438" lon="16.43087">
        <ele>325.531797</ele>
        <time>2022-09-28T10:47:40.712Z</time>
      </trkpt>
      <trkpt lat="47.26449" lon="16.43092">
        <ele>325.563129</ele>
        <time>2022-09-28T10:47:43.700Z</time>
      </trkpt>
      <trkpt lat="47.2646" lon="16.43097">
        <ele>325.59421</ele>
        <time>2022-09-28T10:47:46.723Z</time>
      </trkpt>
      <trkpt lat="47.26472" lon="16.43101">
        <ele>325.626234</ele>
        <time>2022-09-28T10:47:49.700Z</time>
      </trkpt>
      <trkpt lat="47.26483" lon="16.43106">
        <ele>325.657463</ele>
        <time>2022-09-28T10:47:52.726Z</time>
      </trkpt>
      <trkpt lat="47.26495" lon="16.4311">
        <ele>325.689625</ele>
        <time>2022-09-28T10:47:55.702Z</time>
      </trkpt>
      <trkpt lat="47.26506" lon="16.43115">
        <ele>325.722093</ele>
        <time>2022-09-28T10:47:58.724Z</time>
      </trkpt>
      <trkpt lat="47.26518" lon="16.4312">
        <ele>325.755838</ele>
        <time>2022-09-28T10:48:01.723Z</time>
      </trkpt>
      <trkpt lat="47.26531" lon="16.43125">
        <ele>325.789999</ele>
        <time>2022-09-28T10:48:04.712Z</time>
      </trkpt>
      <trkpt lat="47.26542" lon="16.43129">
        <ele>325.821927</ele>
        <time>2022-09-28T10:48:07.715Z</time>
      </trkpt>
      <trkpt lat="47.26554" lon="16.43133">
        <ele>325.854732</ele>
        <time>2022-09-28T10:48:10.720Z</time>
      </trkpt>
      <trkpt lat="47.26566" lon="16.43138">
        <ele>325.886782</ele>
        <time>2022-09-28T10:48:13.718Z</time>
      </trkpt>
      <trkpt lat="47.26577" lon="16.43143">
        <ele>325.918268</ele>
        <time>2022-09-28T10:48:16.713Z</time>
      </trkpt>
      <trkpt lat="47.26589" lon="16.43147">
        <ele>325.91329</ele>
        <time>2022-09-28T10:48:19.712Z</time>
      </trkpt>
      <trkpt lat="47.26601" lon="16.43153">
        <ele>325.877996</ele>
        <time>2022-09-28T10:48:22.723Z</time>
      </trkpt>
      <trkpt lat="47.26613" lon="16.43158">
        <ele>325.843545</ele>
        <time>2022-09-28T10:48:25.710Z</time>
      </trkpt>
      <trkpt lat="47.26625" lon="16.43162">
        <ele>325.808695</ele>
        <time>2022-09-28T10:48:28.794Z</time>
      </trkpt>
      <trkpt lat="47.26638" lon="16.43166">
        <ele>325.772644</ele>
        <time>2022-09-28T10:48:31.716Z</time>
      </trkpt>
      <trkpt lat="47.2665" lon="16.43169">
        <ele>325.737991</ele>
        <time>2022-09-28T10:48:34.709Z</time>
      </trkpt>
      <trkpt lat="47.26662" lon="16.43174">
        <ele>325.704723</ele>
        <time>2022-09-28T10:48:37.729Z</time>
      </trkpt>
      <trkpt lat="47.26674" lon="16.43179">
        <ele>325.669142</ele>
        <time>2022-09-28T10:48:40.750Z</time>
      </trkpt>
      <trkpt lat="47.26686" lon="16.43183">
        <ele>325.634237</ele>
        <time>2022-09-28T10:48:43.704Z</time>
      </trkpt>
      <trkpt lat="47.26698" lon="16.43188">
        <ele>325.600365</ele>
        <time>2022-09-28T10:48:46.709Z</time>
      </trkpt>
      <trkpt lat="47.2671" lon="16.43192">
        <ele>325.567709</ele>
        <time>2022-09-28T10:48:49.717Z</time>
      </trkpt>
      <trkpt lat="47.26722" lon="16.43197">
        <ele>325.5323</ele>
        <time>2022-09-28T10:48:52.718Z</time>
      </trkpt>
      <trkpt lat="47.26735" lon="16.43201">
        <ele>325.496044</ele>
        <time>2022-09-28T10:48:55.709Z</time>
      </trkpt>
      <trkpt lat="47.26747" lon="16.43207">
        <ele>325.459732</ele>
        <time>2022-09-28T10:48:58.722Z</time>
      </trkpt>
      <trkpt lat="47.26759" lon="16.43211">
        <ele>325.446039</ele>
        <time>2022-09-28T10:49:01.754Z</time>
      </trkpt>
      <trkpt lat="47.2677" lon="16.43216">
        <ele>325.515793</ele>
        <time>2022-09-28T10:49:04.715Z</time>
      </trkpt>
      <trkpt lat="47.26782" lon="16.43221">
        <ele>325.588038</ele>
        <time>2022-09-28T10:49:07.702Z</time>
      </trkpt>
      <trkpt lat="47.26793" lon="16.43225">
        <ele>325.655581</ele>
        <time>2022-09-28T10:49:10.724Z</time>
      </trkpt>
      <trkpt lat="47.26804" lon="16.43229">
        <ele>325.721919</ele>
        <time>2022-09-28T10:49:13.705Z</time>
      </trkpt>
      <trkpt lat="47.26815" lon="16.43233">
        <ele>325.79118</ele>
        <time>2022-09-28T10:49:16.715Z</time>
      </trkpt>
      <trkpt lat="47.26827" lon="16.43237">
        <ele>325.863594</ele>
        <time>2022-09-28T10:49:19.721Z</time>
      </trkpt>
      <trkpt lat="47.26839" lon="16.43242">
        <ele>325.936415</ele>
        <time>2022-09-28T10:49:22.725Z</time>
      </trkpt>
      <trkpt lat="47.26848" lon="16.43245">
        <ele>325.990214</ele>
        <time>2022-09-28T10:49:24.719Z</time>
      </trkpt>
      <trkpt lat="47.2686" lon="16.43249">
        <ele>326.063496</ele>
        <time>2022-09-28T10:49:27.716Z</time>
      </trkpt>
      <trkpt lat="47.26873" lon="16.43254">
        <ele>326.140619</ele>
        <time>2022-09-28T10:49:30.733Z</time>
      </trkpt>
      <trkpt lat="47.26885" lon="16.43259">
        <ele>326.216761</ele>
        <time>2022-09-28T10:49:33.718Z</time>
      </trkpt>
      <trkpt lat="47.26897" lon="16.43263">
        <ele>326.286118</ele>
        <time>2022-09-28T10:49:36.717Z</time>
      </trkpt>
      <trkpt lat="47.26908" lon="16.43267">
        <ele>326.356664</ele>
        <time>2022-09-28T10:49:39.719Z</time>
      </trkpt>
      <trkpt lat="47.26921" lon="16.43271">
        <ele>326.431277</ele>
        <time>2022-09-28T10:49:42.702Z</time>
      </trkpt>
      <trkpt lat="47.26932" lon="16.43276">
        <ele>326.510723</ele>
        <time>2022-09-28T10:49:45.702Z</time>
      </trkpt>
      <trkpt lat="47.26944" lon="16.43281">
        <ele>326.634354</ele>
        <time>2022-09-28T10:49:48.717Z</time>
      </trkpt>
      <trkpt lat="47.26956" lon="16.43286">
        <ele>326.751734</ele>
        <time>2022-09-28T10:49:51.708Z</time>
      </trkpt>
      <trkpt lat="47.26966" lon="16.43292">
        <ele>326.866025</ele>
        <time>2022-09-28T10:49:54.732Z</time>
      </trkpt>
      <trkpt lat="47.26978" lon="16.43299">
        <ele>326.991279</ele>
        <time>2022-09-28T10:49:57.723Z</time>
      </trkpt>
      <trkpt lat="47.2699" lon="16.43306">
        <ele>327.116579</ele>
        <time>2022-09-28T10:50:00.716Z</time>
      </trkpt>
      <trkpt lat="47.27001" lon="16.43313">
        <ele>327.235345</ele>
        <time>2022-09-28T10:50:03.707Z</time>
      </trkpt>
      <trkpt lat="47.27011" lon="16.4332">
        <ele>327.35202</ele>
        <time>2022-09-28T10:50:06.726Z</time>
      </trkpt>
      <trkpt lat="47.27022" lon="16.43327">
        <ele>327.46933</ele>
        <time>2022-09-28T10:50:09.715Z</time>
      </trkpt>
      <trkpt lat="47.27033" lon="16.43334">
        <ele>327.587821</ele>
        <time>2022-09-28T10:50:12.722Z</time>
      </trkpt>
      <trkpt lat="47.27044" lon="16.43341">
        <ele>327.70486</ele>
        <time>2022-09-28T10:50:15.736Z</time>
      </trkpt>
      <trkpt lat="47.27055" lon="16.43347">
        <ele>327.817284</ele>
        <time>2022-09-28T10:50:18.754Z</time>
      </trkpt>
      <trkpt lat="47.27065" lon="16.43353">
        <ele>327.924136</ele>
        <time>2022-09-28T10:50:21.719Z</time>
      </trkpt>
      <trkpt lat="47.27075" lon="16.43358">
        <ele>328.031913</ele>
        <time>2022-09-28T10:50:24.711Z</time>
      </trkpt>
      <trkpt lat="47.27085" lon="16.43365">
        <ele>328.139674</ele>
        <time>2022-09-28T10:50:27.710Z</time>
      </trkpt>
      <trkpt lat="47.27094" lon="16.43372">
        <ele>328.246476</ele>
        <time>2022-09-28T10:50:30.728Z</time>
      </trkpt>
      <trkpt lat="47.27103" lon="16.43378">
        <ele>328.455633</ele>
        <time>2022-09-28T10:50:33.729Z</time>
      </trkpt>
      <trkpt lat="47.27113" lon="16.43383">
        <ele>328.72111</ele>
        <time>2022-09-28T10:50:36.724Z</time>
      </trkpt>
      <trkpt lat="47.27122" lon="16.43389">
        <ele>328.993199</ele>
        <time>2022-09-28T10:50:39.707Z</time>
      </trkpt>
      <trkpt lat="47.27132" lon="16.43394">
        <ele>329.269084</ele>
        <time>2022-09-28T10:50:42.719Z</time>
      </trkpt>
      <trkpt lat="47.27141" lon="16.43401">
        <ele>329.551068</ele>
        <time>2022-09-28T10:50:45.710Z</time>
      </trkpt>
      <trkpt lat="47.27151" lon="16.43407">
        <ele>329.833216</ele>
        <time>2022-09-28T10:50:48.727Z</time>
      </trkpt>
      <trkpt lat="47.2716" lon="16.43413">
        <ele>330.102599</ele>
        <time>2022-09-28T10:50:51.738Z</time>
      </trkpt>
      <trkpt lat="47.27169" lon="16.43419">
        <ele>330.371009</ele>
        <time>2022-09-28T10:50:54.727Z</time>
      </trkpt>
      <trkpt lat="47.27178" lon="16.43425">
        <ele>330.636978</ele>
        <time>2022-09-28T10:50:57.716Z</time>
      </trkpt>
      <trkpt lat="47.27188" lon="16.4343">
        <ele>330.919918</ele>
        <time>2022-09-28T10:51:00.736Z</time>
      </trkpt>
      <trkpt lat="47.27198" lon="16.43436">
        <ele>331.196705</ele>
        <time>2022-09-28T10:51:03.704Z</time>
      </trkpt>
      <trkpt lat="47.27207" lon="16.43441">
        <ele>331.481415</ele>
        <time>2022-09-28T10:51:06.711Z</time>
      </trkpt>
      <trkpt lat="47.27217" lon="16.43447">
        <ele>331.758201</ele>
        <time>2022-09-28T10:51:09.750Z</time>
      </trkpt>
      <trkpt lat="47.27226" lon="16.43453">
        <ele>332.015249</ele>
        <time>2022-09-28T10:51:12.706Z</time>
      </trkpt>
      <trkpt lat="47.27235" lon="16.43459">
        <ele>332.277129</ele>
        <time>2022-09-28T10:51:15.731Z</time>
      </trkpt>
      <trkpt lat="47.27244" lon="16.43465">
        <ele>332.547068</ele>
        <time>2022-09-28T10:51:18.705Z</time>
      </trkpt>
      <trkpt lat="47.27253" lon="16.43471">
        <ele>332.814729</ele>
        <time>2022-09-28T10:51:21.707Z</time>
      </trkpt>
      <trkpt lat="47.27262" lon="16.43477">
        <ele>333.08627</ele>
        <time>2022-09-28T10:51:24.727Z</time>
      </trkpt>
      <trkpt lat="47.27272" lon="16.43483">
        <ele>333.188366</ele>
        <time>2022-09-28T10:51:27.711Z</time>
      </trkpt>
      <trkpt lat="47.27282" lon="16.43489">
        <ele>333.269734</ele>
        <time>2022-09-28T10:51:30.715Z</time>
      </trkpt>
      <trkpt lat="47.2729" lon="16.43495">
        <ele>333.343475</ele>
        <time>2022-09-28T10:51:33.751Z</time>
      </trkpt>
      <trkpt lat="47.27299" lon="16.43501">
        <ele>333.420263</ele>
        <time>2022-09-28T10:51:36.707Z</time>
      </trkpt>
      <trkpt lat="47.27308" lon="16.43507">
        <ele>333.499764</ele>
        <time>2022-09-28T10:51:39.725Z</time>
      </trkpt>
      <trkpt lat="47.27318" lon="16.43512">
        <ele>333.580284</ele>
        <time>2022-09-28T10:51:42.717Z</time>
      </trkpt>
      <trkpt lat="47.27327" lon="16.43517">
        <ele>333.6597</ele>
        <time>2022-09-28T10:51:45.724Z</time>
      </trkpt>
      <trkpt lat="47.27336" lon="16.43523">
        <ele>333.736528</ele>
        <time>2022-09-28T10:51:48.724Z</time>
      </trkpt>
      <trkpt lat="47.27345" lon="16.43529">
        <ele>333.815205</ele>
        <time>2022-09-28T10:51:51.715Z</time>
      </trkpt>
      <trkpt lat="47.27354" lon="16.43535">
        <ele>333.893166</ele>
        <time>2022-09-28T10:51:54.728Z</time>
      </trkpt>
      <trkpt lat="47.27363" lon="16.4354">
        <ele>333.970801</ele>
        <time>2022-09-28T10:51:57.717Z</time>
      </trkpt>
      <trkpt lat="47.27373" lon="16.43545">
        <ele>334.050217</ele>
        <time>2022-09-28T10:52:00.723Z</time>
      </trkpt>
      <trkpt lat="47.27382" lon="16.43551">
        <ele>334.127489</ele>
        <time>2022-09-28T10:52:03.719Z</time>
      </trkpt>
      <trkpt lat="47.27391" lon="16.43558">
        <ele>334.208564</ele>
        <time>2022-09-28T10:52:06.712Z</time>
      </trkpt>
      <trkpt lat="47.274" lon="16.43563">
        <ele>334.286499</ele>
        <time>2022-09-28T10:52:09.717Z</time>
      </trkpt>
      <trkpt lat="47.27409" lon="16.43568">
        <ele>334.36227</ele>
        <time>2022-09-28T10:52:12.749Z</time>
      </trkpt>
      <trkpt lat="47.27418" lon="16.43574">
        <ele>334.43888</ele>
        <time>2022-09-28T10:52:15.714Z</time>
      </trkpt>
      <trkpt lat="47.27427" lon="16.4358">
        <ele>334.514991</ele>
        <time>2022-09-28T10:52:18.725Z</time>
      </trkpt>
      <trkpt lat="47.27436" lon="16.43585">
        <ele>334.624997</ele>
        <time>2022-09-28T10:52:21.721Z</time>
      </trkpt>
      <trkpt lat="47.27446" lon="16.43589">
        <ele>334.745396</ele>
        <time>2022-09-28T10:52:24.719Z</time>
      </trkpt>
      <trkpt lat="47.27455" lon="16.43596">
        <ele>334.867433</ele>
        <time>2022-09-28T10:52:27.724Z</time>
      </trkpt>
      <trkpt lat="47.27464" lon="16.43602">
        <ele>334.991274</ele>
        <time>2022-09-28T10:52:30.718Z</time>
      </trkpt>
      <trkpt lat="47.27474" lon="16.43609">
        <ele>335.117618</ele>
        <time>2022-09-28T10:52:33.714Z</time>
      </trkpt>
      <trkpt lat="47.27483" lon="16.43615">
        <ele>335.236519</ele>
        <time>2022-09-28T10:52:36.744Z</time>
      </trkpt>
      <trkpt lat="47.27492" lon="16.43621">
        <ele>335.353204</ele>
        <time>2022-09-28T10:52:39.717Z</time>
      </trkpt>
      <trkpt lat="47.27501" lon="16.43627">
        <ele>335.469598</ele>
        <time>2022-09-28T10:52:42.713Z</time>
      </trkpt>
      <trkpt lat="47.2751" lon="16.43633">
        <ele>335.586665</ele>
        <time>2022-09-28T10:52:45.718Z</time>
      </trkpt>
      <trkpt lat="47.27518" lon="16.43639">
        <ele>335.699894</ele>
        <time>2022-09-28T10:52:48.728Z</time>
      </trkpt>
      <trkpt lat="47.27527" lon="16.43644">
        <ele>335.815792</ele>
        <time>2022-09-28T10:52:51.721Z</time>
      </trkpt>
      <trkpt lat="47.27539" lon="16.43652">
        <ele>335.960764</ele>
        <time>2022-09-28T10:52:55.712Z</time>
      </trkpt>
      <trkpt lat="47.27548" lon="16.43656">
        <ele>336.080544</ele>
        <time>2022-09-28T10:52:58.729Z</time>
      </trkpt>
      <trkpt lat="47.27558" lon="16.43662">
        <ele>336.209249</ele>
        <time>2022-09-28T10:53:01.729Z</time>
      </trkpt>
      <trkpt lat="47.27568" lon="16.43668">
        <ele>336.339433</ele>
        <time>2022-09-28T10:53:04.724Z</time>
      </trkpt>
      <trkpt lat="47.27577" lon="16.43674">
        <ele>336.459424</ele>
        <time>2022-09-28T10:53:07.723Z</time>
      </trkpt>
      <trkpt lat="47.27587" lon="16.43679">
        <ele>336.581979</ele>
        <time>2022-09-28T10:53:10.725Z</time>
      </trkpt>
      <trkpt lat="47.27596" lon="16.43685">
        <ele>336.698768</ele>
        <time>2022-09-28T10:53:13.750Z</time>
      </trkpt>
      <trkpt lat="47.27606" lon="16.43692">
        <ele>336.800328</ele>
        <time>2022-09-28T10:53:16.722Z</time>
      </trkpt>
      <trkpt lat="47.27615" lon="16.43698">
        <ele>336.902843</ele>
        <time>2022-09-28T10:53:19.738Z</time>
      </trkpt>
      <trkpt lat="47.27625" lon="16.43704">
        <ele>337.006382</ele>
        <time>2022-09-28T10:53:22.725Z</time>
      </trkpt>
      <trkpt lat="47.27634" lon="16.4371">
        <ele>337.108841</ele>
        <time>2022-09-28T10:53:25.722Z</time>
      </trkpt>
      <trkpt lat="47.27644" lon="16.43716">
        <ele>337.216066</ele>
        <time>2022-09-28T10:53:28.729Z</time>
      </trkpt>
      <trkpt lat="47.27654" lon="16.43723">
        <ele>337.324324</ele>
        <time>2022-09-28T10:53:31.725Z</time>
      </trkpt>
      <trkpt lat="47.27664" lon="16.43727">
        <ele>337.429359</ele>
        <time>2022-09-28T10:53:34.711Z</time>
      </trkpt>
      <trkpt lat="47.27673" lon="16.43733">
        <ele>337.528966</ele>
        <time>2022-09-28T10:53:37.717Z</time>
      </trkpt>
      <trkpt lat="47.27682" lon="16.43739">
        <ele>337.630526</ele>
        <time>2022-09-28T10:53:40.737Z</time>
      </trkpt>
      <trkpt lat="47.27692" lon="16.43746">
        <ele>337.732133</ele>
        <time>2022-09-28T10:53:43.704Z</time>
      </trkpt>
      <trkpt lat="47.27701" lon="16.43752">
        <ele>337.835286</ele>
        <time>2022-09-28T10:53:46.710Z</time>
      </trkpt>
      <trkpt lat="47.2771" lon="16.43758">
        <ele>337.935657</ele>
        <time>2022-09-28T10:53:49.721Z</time>
      </trkpt>
      <trkpt lat="47.2772" lon="16.43765">
        <ele>338.040541</ele>
        <time>2022-09-28T10:53:52.725Z</time>
      </trkpt>
      <trkpt lat="47.2773" lon="16.43771">
        <ele>338.146703</ele>
        <time>2022-09-28T10:53:55.706Z</time>
      </trkpt>
      <trkpt lat="47.27739" lon="16.43777">
        <ele>338.247125</ele>
        <time>2022-09-28T10:53:58.725Z</time>
      </trkpt>
      <trkpt lat="47.27748" lon="16.43783">
        <ele>338.347495</ele>
        <time>2022-09-28T10:54:01.719Z</time>
      </trkpt>
      <trkpt lat="47.27757" lon="16.43789">
        <ele>338.445548</ele>
        <time>2022-09-28T10:54:04.716Z</time>
      </trkpt>
      <trkpt lat="47.27766" lon="16.43795">
        <ele>338.562258</ele>
        <time>2022-09-28T10:54:07.705Z</time>
      </trkpt>
      <trkpt lat="47.27776" lon="16.438">
        <ele>338.686261</ele>
        <time>2022-09-28T10:54:10.707Z</time>
      </trkpt>
      <trkpt lat="47.27786" lon="16.43806">
        <ele>338.814139</ele>
        <time>2022-09-28T10:54:13.713Z</time>
      </trkpt>
      <trkpt lat="47.27796" lon="16.43812">
        <ele>338.945156</ele>
        <time>2022-09-28T10:54:16.713Z</time>
      </trkpt>
      <trkpt lat="47.27806" lon="16.43817">
        <ele>339.073588</ele>
        <time>2022-09-28T10:54:19.726Z</time>
      </trkpt>
      <trkpt lat="47.27816" lon="16.43823">
        <ele>339.201089</ele>
        <time>2022-09-28T10:54:22.725Z</time>
      </trkpt>
      <trkpt lat="47.27825" lon="16.43829">
        <ele>339.326696</ele>
        <time>2022-09-28T10:54:25.721Z</time>
      </trkpt>
      <trkpt lat="47.27835" lon="16.43835">
        <ele>339.447688</ele>
        <time>2022-09-28T10:54:28.717Z</time>
      </trkpt>
      <trkpt lat="47.27843" lon="16.43841">
        <ele>339.567132</ele>
        <time>2022-09-28T10:54:31.712Z</time>
      </trkpt>
      <trkpt lat="47.27852" lon="16.43848">
        <ele>339.682611</ele>
        <time>2022-09-28T10:54:34.725Z</time>
      </trkpt>
      <trkpt lat="47.27861" lon="16.43852">
        <ele>339.797756</ele>
        <time>2022-09-28T10:54:37.758Z</time>
      </trkpt>
      <trkpt lat="47.27872" lon="16.43859">
        <ele>339.937952</ele>
        <time>2022-09-28T10:54:41.722Z</time>
      </trkpt>
      <trkpt lat="47.2788" lon="16.43864">
        <ele>340.048935</ele>
        <time>2022-09-28T10:54:45.723Z</time>
      </trkpt>
      <trkpt lat="47.27898" lon="16.43877">
        <ele>340.294649</ele>
        <time>2022-09-28T10:58:18.716Z</time>
      </trkpt>
      <trkpt lat="47.27907" lon="16.43883">
        <ele>340.406167</ele>
        <time>2022-09-28T10:58:22.712Z</time>
      </trkpt>
      <trkpt lat="47.27916" lon="16.43887">
        <ele>340.518627</ele>
        <time>2022-09-28T10:58:26.727Z</time>
      </trkpt>
      <trkpt lat="47.27925" lon="16.43893">
        <ele>340.648277</ele>
        <time>2022-09-28T10:58:30.716Z</time>
      </trkpt>
      <trkpt lat="47.27934" lon="16.43898">
        <ele>340.931108</ele>
        <time>2022-09-28T10:58:34.721Z</time>
      </trkpt>
      <trkpt lat="47.27943" lon="16.43903">
        <ele>341.207601</ele>
        <time>2022-09-28T10:58:38.717Z</time>
      </trkpt>
      <trkpt lat="47.27953" lon="16.4391">
        <ele>341.535059</ele>
        <time>2022-09-28T10:58:42.718Z</time>
      </trkpt>
      <trkpt lat="47.27964" lon="16.43917">
        <ele>341.864903</ele>
        <time>2022-09-28T10:58:46.740Z</time>
      </trkpt>
      <trkpt lat="47.27974" lon="16.43924">
        <ele>342.203617</ele>
        <time>2022-09-28T10:58:50.731Z</time>
      </trkpt>
      <trkpt lat="47.27985" lon="16.43931">
        <ele>342.542264</ele>
        <time>2022-09-28T10:58:54.717Z</time>
      </trkpt>
      <trkpt lat="47.27995" lon="16.43938">
        <ele>342.875994</ele>
        <time>2022-09-28T10:58:58.725Z</time>
      </trkpt>
      <trkpt lat="47.28004" lon="16.43945">
        <ele>343.176751</ele>
        <time>2022-09-28T10:59:02.741Z</time>
      </trkpt>
      <trkpt lat="47.28013" lon="16.43954">
        <ele>343.484049</ele>
        <time>2022-09-28T10:59:06.737Z</time>
      </trkpt>
      <trkpt lat="47.28022" lon="16.43963">
        <ele>343.787048</ele>
        <time>2022-09-28T10:59:10.726Z</time>
      </trkpt>
      <trkpt lat="47.2803" lon="16.43973">
        <ele>344.101532</ele>
        <time>2022-09-28T10:59:14.743Z</time>
      </trkpt>
      <trkpt lat="47.28039" lon="16.43984">
        <ele>344.43729</ele>
        <time>2022-09-28T10:59:18.732Z</time>
      </trkpt>
      <trkpt lat="47.28047" lon="16.43994">
        <ele>344.758771</ele>
        <time>2022-09-28T10:59:22.711Z</time>
      </trkpt>
      <trkpt lat="47.28056" lon="16.44003">
        <ele>345.062584</ele>
        <time>2022-09-28T10:59:26.717Z</time>
      </trkpt>
      <trkpt lat="47.28064" lon="16.44013">
        <ele>345.358834</ele>
        <time>2022-09-28T10:59:30.706Z</time>
      </trkpt>
      <trkpt lat="47.28073" lon="16.44015">
        <ele>345.643442</ele>
        <time>2022-09-28T10:59:33.722Z</time>
      </trkpt>
      <trkpt lat="47.28083" lon="16.44014">
        <ele>345.877669</ele>
        <time>2022-09-28T10:59:36.715Z</time>
      </trkpt>
      <trkpt lat="47.28086" lon="16.44">
        <ele>345.985472</ele>
        <time>2022-09-28T10:59:42.708Z</time>
      </trkpt>
      <trkpt lat="47.2808" lon="16.44012">
        <ele>346.094951</ele>
        <time>2022-09-28T11:00:18.742Z</time>
      </trkpt>
      <trkpt lat="47.28081" lon="16.44026">
        <ele>346.200777</ele>
        <time>2022-09-28T11:00:22.700Z</time>
      </trkpt>
      <trkpt lat="47.28086" lon="16.44039">
        <ele>346.31179</ele>
        <time>2022-09-28T11:00:26.710Z</time>
      </trkpt>
      <trkpt lat="47.28092" lon="16.44053">
        <ele>346.442927</ele>
        <time>2022-09-28T11:00:30.729Z</time>
      </trkpt>
      <trkpt lat="47.28099" lon="16.44065">
        <ele>346.564019</ele>
        <time>2022-09-28T11:00:34.702Z</time>
      </trkpt>
      <trkpt lat="47.28104" lon="16.44079">
        <ele>346.684608</ele>
        <time>2022-09-28T11:00:38.732Z</time>
      </trkpt>
      <trkpt lat="47.28109" lon="16.44093">
        <ele>346.809846</ele>
        <time>2022-09-28T11:00:42.780Z</time>
      </trkpt>
      <trkpt lat="47.28113" lon="16.44106">
        <ele>346.917289</ele>
        <time>2022-09-28T11:00:45.704Z</time>
      </trkpt>
      <trkpt lat="47.28117" lon="16.44118">
        <ele>347.021697</ele>
        <time>2022-09-28T11:00:48.702Z</time>
      </trkpt>
      <trkpt lat="47.28121" lon="16.44135">
        <ele>347.155863</ele>
        <time>2022-09-28T11:00:52.718Z</time>
      </trkpt>
      <trkpt lat="47.28125" lon="16.44149">
        <ele>347.275499</ele>
        <time>2022-09-28T11:00:56.717Z</time>
      </trkpt>
      <trkpt lat="47.28128" lon="16.44164">
        <ele>347.398081</ele>
        <time>2022-09-28T11:01:01.707Z</time>
      </trkpt>
      <trkpt lat="47.28131" lon="16.44177">
        <ele>347.50113</ele>
        <time>2022-09-28T11:01:08.712Z</time>
      </trkpt>
      <trkpt lat="47.28133" lon="16.44163">
        <ele>347.612952</ele>
        <time>2022-09-28T11:01:38.721Z</time>
      </trkpt>
      <trkpt lat="47.28131" lon="16.44147">
        <ele>347.737283</ele>
        <time>2022-09-28T11:01:42.709Z</time>
      </trkpt>
      <trkpt lat="47.28127" lon="16.4413">
        <ele>347.872349</ele>
        <time>2022-09-28T11:01:46.721Z</time>
      </trkpt>
      <trkpt lat="47.28123" lon="16.44118">
        <ele>347.619284</ele>
        <time>2022-09-28T11:01:49.734Z</time>
      </trkpt>
      <trkpt lat="47.28118" lon="16.44104">
        <ele>347.269759</ele>
        <time>2022-09-28T11:01:52.718Z</time>
      </trkpt>
      <trkpt lat="47.28114" lon="16.44091">
        <ele>346.92095</ele>
        <time>2022-09-28T11:01:55.722Z</time>
      </trkpt>
      <trkpt lat="47.28108" lon="16.44075">
        <ele>346.486359</ele>
        <time>2022-09-28T11:01:59.720Z</time>
      </trkpt>
      <trkpt lat="47.28102" lon="16.44062">
        <ele>346.103974</ele>
        <time>2022-09-28T11:02:02.718Z</time>
      </trkpt>
      <trkpt lat="47.28095" lon="16.44047">
        <ele>345.702262</ele>
        <time>2022-09-28T11:02:05.718Z</time>
      </trkpt>
      <trkpt lat="47.28089" lon="16.44032">
        <ele>345.272104</ele>
        <time>2022-09-28T11:02:08.717Z</time>
      </trkpt>
      <trkpt lat="47.28085" lon="16.44015">
        <ele>344.851568</ele>
        <time>2022-09-28T11:02:11.712Z</time>
      </trkpt>
      <trkpt lat="47.28086" lon="16.43996">
        <ele>344.406184</ele>
        <time>2022-09-28T11:02:14.723Z</time>
      </trkpt>
      <trkpt lat="47.28086" lon="16.43977">
        <ele>343.948846</ele>
        <time>2022-09-28T11:02:17.720Z</time>
      </trkpt>
      <trkpt lat="47.28087" lon="16.43958">
        <ele>343.508072</ele>
        <time>2022-09-28T11:02:20.734Z</time>
      </trkpt>
      <trkpt lat="47.28086" lon="16.43939">
        <ele>343.058117</ele>
        <time>2022-09-28T11:02:23.723Z</time>
      </trkpt>
      <trkpt lat="47.28085" lon="16.4392">
        <ele>342.590584</ele>
        <time>2022-09-28T11:02:26.711Z</time>
      </trkpt>
      <trkpt lat="47.28086" lon="16.43906">
        <ele>342.26838</ele>
        <time>2022-09-28T11:02:28.725Z</time>
      </trkpt>
      <trkpt lat="47.28095" lon="16.43894">
        <ele>341.840931</ele>
        <time>2022-09-28T11:02:31.712Z</time>
      </trkpt>
      <trkpt lat="47.28105" lon="16.43896">
        <ele>341.719628</ele>
        <time>2022-09-28T11:02:33.722Z</time>
      </trkpt>
      <trkpt lat="47.28115" lon="16.43898">
        <ele>341.952576</ele>
        <time>2022-09-28T11:02:35.798Z</time>
      </trkpt>
      <trkpt lat="47.28124" lon="16.43897">
        <ele>342.172864</ele>
        <time>2022-09-28T11:02:37.718Z</time>
      </trkpt>
      <trkpt lat="47.28135" lon="16.43898">
        <ele>342.430864</ele>
        <time>2022-09-28T11:02:40.746Z</time>
      </trkpt>
      <trkpt lat="47.28146" lon="16.43898">
        <ele>342.702979</ele>
        <time>2022-09-28T11:02:43.732Z</time>
      </trkpt>
      <trkpt lat="47.28157" lon="16.43897">
        <ele>342.965684</ele>
        <time>2022-09-28T11:02:46.754Z</time>
      </trkpt>
      <trkpt lat="47.28169" lon="16.43897">
        <ele>343.247306</ele>
        <time>2022-09-28T11:02:49.706Z</time>
      </trkpt>
      <trkpt lat="47.2818" lon="16.43897">
        <ele>343.514609</ele>
        <time>2022-09-28T11:02:52.720Z</time>
      </trkpt>
      <trkpt lat="47.28193" lon="16.43898">
        <ele>343.815755</ele>
        <time>2022-09-28T11:02:55.716Z</time>
      </trkpt>
      <trkpt lat="47.28204" lon="16.43898">
        <ele>344.075913</ele>
        <time>2022-09-28T11:02:58.764Z</time>
      </trkpt>
      <trkpt lat="47.28214" lon="16.43898">
        <ele>344.324377</ele>
        <time>2022-09-28T11:03:01.725Z</time>
      </trkpt>
      <trkpt lat="47.28225" lon="16.43897">
        <ele>344.575492</ele>
        <time>2022-09-28T11:03:04.731Z</time>
      </trkpt>
      <trkpt lat="47.28234" lon="16.43896">
        <ele>344.802795</ele>
        <time>2022-09-28T11:03:07.749Z</time>
      </trkpt>
      <trkpt lat="47.28244" lon="16.43895">
        <ele>345.039156</ele>
        <time>2022-09-28T11:03:10.718Z</time>
      </trkpt>
      <trkpt lat="47.28254" lon="16.43896">
        <ele>345.271017</ele>
        <time>2022-09-28T11:03:13.723Z</time>
      </trkpt>
      <trkpt lat="47.28264" lon="16.43896">
        <ele>345.516921</ele>
        <time>2022-09-28T11:03:16.717Z</time>
      </trkpt>
      <trkpt lat="47.28276" lon="16.43895">
        <ele>345.801299</ele>
        <time>2022-09-28T11:03:19.769Z</time>
      </trkpt>
      <trkpt lat="47.28285" lon="16.43896">
        <ele>345.959262</ele>
        <time>2022-09-28T11:03:22.733Z</time>
      </trkpt>
      <trkpt lat="47.28295" lon="16.43896">
        <ele>346.070046</ele>
        <time>2022-09-28T11:03:25.758Z</time>
      </trkpt>
      <trkpt lat="47.28305" lon="16.43896">
        <ele>346.1797</ele>
        <time>2022-09-28T11:03:28.715Z</time>
      </trkpt>
      <trkpt lat="47.28316" lon="16.43898">
        <ele>346.301457</ele>
        <time>2022-09-28T11:03:32.726Z</time>
      </trkpt>
      <trkpt lat="47.28327" lon="16.43899">
        <ele>346.428047</ele>
        <time>2022-09-28T11:03:36.706Z</time>
      </trkpt>
      <trkpt lat="47.28337" lon="16.43899">
        <ele>346.528884</ele>
        <time>2022-09-28T11:03:39.733Z</time>
      </trkpt>
      <trkpt lat="47.28346" lon="16.43898">
        <ele>346.638664</ele>
        <time>2022-09-28T11:03:42.720Z</time>
      </trkpt>
      <trkpt lat="47.28358" lon="16.43899">
        <ele>346.767518</ele>
        <time>2022-09-28T11:03:46.716Z</time>
      </trkpt>
      <trkpt lat="47.28367" lon="16.439">
        <ele>346.870595</ele>
        <time>2022-09-28T11:03:49.722Z</time>
      </trkpt>
      <trkpt lat="47.28377" lon="16.43901">
        <ele>346.975101</ele>
        <time>2022-09-28T11:03:52.728Z</time>
      </trkpt>
      <trkpt lat="47.28387" lon="16.439">
        <ele>347.084919</ele>
        <time>2022-09-28T11:03:55.735Z</time>
      </trkpt>
      <trkpt lat="47.28398" lon="16.43901">
        <ele>347.213718</ele>
        <time>2022-09-28T11:03:59.726Z</time>
      </trkpt>
      <trkpt lat="47.2841" lon="16.43903">
        <ele>347.345194</ele>
        <time>2022-09-28T11:04:03.725Z</time>
      </trkpt>
      <trkpt lat="47.2842" lon="16.43903">
        <ele>347.451525</ele>
        <time>2022-09-28T11:04:06.717Z</time>
      </trkpt>
      <trkpt lat="47.28431" lon="16.43903">
        <ele>347.572276</ele>
        <time>2022-09-28T11:04:09.768Z</time>
      </trkpt>
      <trkpt lat="47.2844" lon="16.43902">
        <ele>347.678777</ele>
        <time>2022-09-28T11:04:12.729Z</time>
      </trkpt>
      <trkpt lat="47.28451" lon="16.43901">
        <ele>347.79979</ele>
        <time>2022-09-28T11:04:16.724Z</time>
      </trkpt>
      <trkpt lat="47.28461" lon="16.439">
        <ele>347.910459</ele>
        <time>2022-09-28T11:04:19.724Z</time>
      </trkpt>
      <trkpt lat="47.2847" lon="16.439">
        <ele>348.080424</ele>
        <time>2022-09-28T11:04:22.731Z</time>
      </trkpt>
      <trkpt lat="47.28479" lon="16.439">
        <ele>348.243226</ele>
        <time>2022-09-28T11:04:25.735Z</time>
      </trkpt>
      <trkpt lat="47.28488" lon="16.439">
        <ele>348.413204</ele>
        <time>2022-09-28T11:04:28.723Z</time>
      </trkpt>
      <trkpt lat="47.28498" lon="16.439">
        <ele>348.577782</ele>
        <time>2022-09-28T11:04:31.729Z</time>
      </trkpt>
      <trkpt lat="47.28509" lon="16.43901">
        <ele>348.786005</ele>
        <time>2022-09-28T11:04:35.778Z</time>
      </trkpt>
      <trkpt lat="47.28521" lon="16.439">
        <ele>348.996259</ele>
        <time>2022-09-28T11:04:39.718Z</time>
      </trkpt>
      <trkpt lat="47.2853" lon="16.43897">
        <ele>349.162799</ele>
        <time>2022-09-28T11:04:42.754Z</time>
      </trkpt>
      <trkpt lat="47.2854" lon="16.43897">
        <ele>349.340264</ele>
        <time>2022-09-28T11:04:45.734Z</time>
      </trkpt>
      <trkpt lat="47.28549" lon="16.43897">
        <ele>349.505092</ele>
        <time>2022-09-28T11:04:48.734Z</time>
      </trkpt>
      <trkpt lat="47.28558" lon="16.43898">
        <ele>349.669743</ele>
        <time>2022-09-28T11:04:51.730Z</time>
      </trkpt>
      <trkpt lat="47.28567" lon="16.43899">
        <ele>349.836308</ele>
        <time>2022-09-28T11:04:54.725Z</time>
      </trkpt>
      <trkpt lat="47.28576" lon="16.43897">
        <ele>350.003667</ele>
        <time>2022-09-28T11:04:57.740Z</time>
      </trkpt>
      <trkpt lat="47.28585" lon="16.43897">
        <ele>350.166511</ele>
        <time>2022-09-28T11:05:00.722Z</time>
      </trkpt>
      <trkpt lat="47.28596" lon="16.43899">
        <ele>350.361525</ele>
        <time>2022-09-28T11:05:04.741Z</time>
      </trkpt>
      <trkpt lat="47.28605" lon="16.43898">
        <ele>350.528416</ele>
        <time>2022-09-28T11:05:07.719Z</time>
      </trkpt>
      <trkpt lat="47.28615" lon="16.43896">
        <ele>350.700713</ele>
        <time>2022-09-28T11:05:10.736Z</time>
      </trkpt>
      <trkpt lat="47.28624" lon="16.43895">
        <ele>350.864106</ele>
        <time>2022-09-28T11:05:13.706Z</time>
      </trkpt>
      <trkpt lat="47.28633" lon="16.43895">
        <ele>351.02866</ele>
        <time>2022-09-28T11:05:16.709Z</time>
      </trkpt>
      <trkpt lat="47.28642" lon="16.43896">
        <ele>351.177962</ele>
        <time>2022-09-28T11:05:19.702Z</time>
      </trkpt>
      <trkpt lat="47.28651" lon="16.43896">
        <ele>351.277192</ele>
        <time>2022-09-28T11:05:22.705Z</time>
      </trkpt>
      <trkpt lat="47.28663" lon="16.43896">
        <ele>351.398453</ele>
        <time>2022-09-28T11:05:26.758Z</time>
      </trkpt>
      <trkpt lat="47.28672" lon="16.43896">
        <ele>351.495458</ele>
        <time>2022-09-28T11:05:29.714Z</time>
      </trkpt>
      <trkpt lat="47.28681" lon="16.43897">
        <ele>351.592548</ele>
        <time>2022-09-28T11:05:32.729Z</time>
      </trkpt>
      <trkpt lat="47.28691" lon="16.43896">
        <ele>351.691777</ele>
        <time>2022-09-28T11:05:35.722Z</time>
      </trkpt>
      <trkpt lat="47.28702" lon="16.43897">
        <ele>351.814427</ele>
        <time>2022-09-28T11:05:39.729Z</time>
      </trkpt>
      <trkpt lat="47.28713" lon="16.43897">
        <ele>351.931461</ele>
        <time>2022-09-28T11:05:43.732Z</time>
      </trkpt>
      <trkpt lat="47.28722" lon="16.43897">
        <ele>352.027532</ele>
        <time>2022-09-28T11:05:46.736Z</time>
      </trkpt>
      <trkpt lat="47.28732" lon="16.43897">
        <ele>352.130852</ele>
        <time>2022-09-28T11:05:49.732Z</time>
      </trkpt>
      <trkpt lat="47.28742" lon="16.43897">
        <ele>352.232127</ele>
        <time>2022-09-28T11:05:52.720Z</time>
      </trkpt>
      <trkpt lat="47.28753" lon="16.43899">
        <ele>352.355257</ele>
        <time>2022-09-28T11:05:56.733Z</time>
      </trkpt>
      <trkpt lat="47.28764" lon="16.43899">
        <ele>352.467014</ele>
        <time>2022-09-28T11:06:00.704Z</time>
      </trkpt>
      <trkpt lat="47.28773" lon="16.43898">
        <ele>352.566375</ele>
        <time>2022-09-28T11:06:03.742Z</time>
      </trkpt>
      <trkpt lat="47.28784" lon="16.43898">
        <ele>352.674976</ele>
        <time>2022-09-28T11:06:06.720Z</time>
      </trkpt>
      <trkpt lat="47.28793" lon="16.43899">
        <ele>352.770034</ele>
        <time>2022-09-28T11:06:09.712Z</time>
      </trkpt>
      <trkpt lat="47.28804" lon="16.43899">
        <ele>352.891296</ele>
        <time>2022-09-28T11:06:13.714Z</time>
      </trkpt>
      <trkpt lat="47.28813" lon="16.43897">
        <ele>352.98914</ele>
        <time>2022-09-28T11:06:16.725Z</time>
      </trkpt>
      <trkpt lat="47.28823" lon="16.43896">
        <ele>353.119131</ele>
        <time>2022-09-28T11:06:19.724Z</time>
      </trkpt>
      <trkpt lat="47.28834" lon="16.43896">
        <ele>353.332113</ele>
        <time>2022-09-28T11:06:23.716Z</time>
      </trkpt>
      <trkpt lat="47.28844" lon="16.43896">
        <ele>353.509826</ele>
        <time>2022-09-28T11:06:26.784Z</time>
      </trkpt>
      <trkpt lat="47.28856" lon="16.43897">
        <ele>353.728786</ele>
        <time>2022-09-28T11:06:30.727Z</time>
      </trkpt>
      <trkpt lat="47.28865" lon="16.43897">
        <ele>353.906433</ele>
        <time>2022-09-28T11:06:33.713Z</time>
      </trkpt>
      <trkpt lat="47.28877" lon="16.43896">
        <ele>354.128773</ele>
        <time>2022-09-28T11:06:37.765Z</time>
      </trkpt>
      <trkpt lat="47.28889" lon="16.43897">
        <ele>354.347356</ele>
        <time>2022-09-28T11:06:41.731Z</time>
      </trkpt>
      <trkpt lat="47.28898" lon="16.43897">
        <ele>354.51575</ele>
        <time>2022-09-28T11:06:44.718Z</time>
      </trkpt>
      <trkpt lat="47.28908" lon="16.43896">
        <ele>354.695681</ele>
        <time>2022-09-28T11:06:47.756Z</time>
      </trkpt>
      <trkpt lat="47.28917" lon="16.43896">
        <ele>354.871545</ele>
        <time>2022-09-28T11:06:50.709Z</time>
      </trkpt>
      <trkpt lat="47.28927" lon="16.43896">
        <ele>355.052957</ele>
        <time>2022-09-28T11:06:53.741Z</time>
      </trkpt>
      <trkpt lat="47.28937" lon="16.43896">
        <ele>355.228767</ele>
        <time>2022-09-28T11:06:56.724Z</time>
      </trkpt>
      <trkpt lat="47.28946" lon="16.43897">
        <ele>355.399026</ele>
        <time>2022-09-28T11:06:59.719Z</time>
      </trkpt>
      <trkpt lat="47.28958" lon="16.43896">
        <ele>355.615658</ele>
        <time>2022-09-28T11:07:03.719Z</time>
      </trkpt>
      <trkpt lat="47.28967" lon="16.43896">
        <ele>355.784165</ele>
        <time>2022-09-28T11:07:06.723Z</time>
      </trkpt>
      <trkpt lat="47.28976" lon="16.43897">
        <ele>355.960176</ele>
        <time>2022-09-28T11:07:09.725Z</time>
      </trkpt>
      <trkpt lat="47.28988" lon="16.43899">
        <ele>356.175545</ele>
        <time>2022-09-28T11:07:13.732Z</time>
      </trkpt>
      <trkpt lat="47.29" lon="16.43898">
        <ele>356.398325</ele>
        <time>2022-09-28T11:07:17.736Z</time>
      </trkpt>
      <trkpt lat="47.2901" lon="16.43896">
        <ele>356.570479</ele>
        <time>2022-09-28T11:07:20.731Z</time>
      </trkpt>
      <trkpt lat="47.29019" lon="16.43896">
        <ele>356.734836</ele>
        <time>2022-09-28T11:07:23.726Z</time>
      </trkpt>
      <trkpt lat="47.29029" lon="16.43896">
        <ele>356.901284</ele>
        <time>2022-09-28T11:07:26.735Z</time>
      </trkpt>
      <trkpt lat="47.2904" lon="16.43896">
        <ele>357.102373</ele>
        <time>2022-09-28T11:07:30.713Z</time>
      </trkpt>
      <trkpt lat="47.29049" lon="16.43895">
        <ele>357.265504</ele>
        <time>2022-09-28T11:07:33.721Z</time>
      </trkpt>
      <trkpt lat="47.29061" lon="16.43895">
        <ele>357.466583</ele>
        <time>2022-09-28T11:07:37.720Z</time>
      </trkpt>
      <trkpt lat="47.29072" lon="16.43894">
        <ele>357.652165</ele>
        <time>2022-09-28T11:07:41.723Z</time>
      </trkpt>
      <trkpt lat="47.29084" lon="16.43894">
        <ele>357.862066</ele>
        <time>2022-09-28T11:07:45.709Z</time>
      </trkpt>
      <trkpt lat="47.29095" lon="16.43895">
        <ele>358.070257</ele>
        <time>2022-09-28T11:07:49.709Z</time>
      </trkpt>
      <trkpt lat="47.29106" lon="16.43896">
        <ele>358.250912</ele>
        <time>2022-09-28T11:07:52.722Z</time>
      </trkpt>
      <trkpt lat="47.29115" lon="16.43895">
        <ele>358.421214</ele>
        <time>2022-09-28T11:07:55.772Z</time>
      </trkpt>
      <trkpt lat="47.29127" lon="16.43895">
        <ele>358.618849</ele>
        <time>2022-09-28T11:07:59.723Z</time>
      </trkpt>
      <trkpt lat="47.29139" lon="16.43896">
        <ele>358.832904</ele>
        <time>2022-09-28T11:08:03.721Z</time>
      </trkpt>
      <trkpt lat="47.29149" lon="16.43896">
        <ele>359.000762</ele>
        <time>2022-09-28T11:08:06.778Z</time>
      </trkpt>
      <trkpt lat="47.29158" lon="16.43896">
        <ele>359.158286</ele>
        <time>2022-09-28T11:08:09.728Z</time>
      </trkpt>
      <trkpt lat="47.29169" lon="16.43897">
        <ele>359.35455</ele>
        <time>2022-09-28T11:08:13.721Z</time>
      </trkpt>
      <trkpt lat="47.29178" lon="16.43896">
        <ele>359.512199</ele>
        <time>2022-09-28T11:08:16.725Z</time>
      </trkpt>
      <trkpt lat="47.29189" lon="16.43896">
        <ele>359.767536</ele>
        <time>2022-09-28T11:08:20.729Z</time>
      </trkpt>
      <trkpt lat="47.292" lon="16.43898">
        <ele>360.013679</ele>
        <time>2022-09-28T11:08:24.711Z</time>
      </trkpt>
      <trkpt lat="47.29209" lon="16.43898">
        <ele>360.220116</ele>
        <time>2022-09-28T11:08:27.733Z</time>
      </trkpt>
      <trkpt lat="47.29219" lon="16.43896">
        <ele>360.430725</ele>
        <time>2022-09-28T11:08:30.722Z</time>
      </trkpt>
      <trkpt lat="47.2923" lon="16.43896">
        <ele>360.693069</ele>
        <time>2022-09-28T11:08:34.724Z</time>
      </trkpt>
      <trkpt lat="47.2924" lon="16.43898">
        <ele>360.92087</ele>
        <time>2022-09-28T11:08:38.705Z</time>
      </trkpt>
      <trkpt lat="47.29252" lon="16.43897">
        <ele>361.189988</ele>
        <time>2022-09-28T11:08:42.722Z</time>
      </trkpt>
      <trkpt lat="47.29262" lon="16.43897">
        <ele>361.393961</ele>
        <time>2022-09-28T11:08:45.743Z</time>
      </trkpt>
      <trkpt lat="47.29271" lon="16.43896">
        <ele>361.61197</ele>
        <time>2022-09-28T11:08:48.745Z</time>
      </trkpt>
      <trkpt lat="47.29281" lon="16.43895">
        <ele>361.829768</ele>
        <time>2022-09-28T11:08:51.730Z</time>
      </trkpt>
      <trkpt lat="47.2929" lon="16.43894">
        <ele>362.03649</ele>
        <time>2022-09-28T11:08:54.734Z</time>
      </trkpt>
      <trkpt lat="47.293" lon="16.43895">
        <ele>362.260909</ele>
        <time>2022-09-28T11:08:58.731Z</time>
      </trkpt>
      <trkpt lat="47.2931" lon="16.43896">
        <ele>362.487857</ele>
        <time>2022-09-28T11:09:02.733Z</time>
      </trkpt>
      <trkpt lat="47.29322" lon="16.43897">
        <ele>362.741735</ele>
        <time>2022-09-28T11:09:06.731Z</time>
      </trkpt>
      <trkpt lat="47.29333" lon="16.43897">
        <ele>362.999443</ele>
        <time>2022-09-28T11:09:10.704Z</time>
      </trkpt>
      <trkpt lat="47.29345" lon="16.43896">
        <ele>363.257902</ele>
        <time>2022-09-28T11:09:14.744Z</time>
      </trkpt>
      <trkpt lat="47.29356" lon="16.43895">
        <ele>363.522765</ele>
        <time>2022-09-28T11:09:18.771Z</time>
      </trkpt>
      <trkpt lat="47.29366" lon="16.43895">
        <ele>363.69504</ele>
        <time>2022-09-28T11:09:21.738Z</time>
      </trkpt>
      <trkpt lat="47.29375" lon="16.43897">
        <ele>363.862693</ele>
        <time>2022-09-28T11:09:24.713Z</time>
      </trkpt>
      <trkpt lat="47.29385" lon="16.43896">
        <ele>364.043925</ele>
        <time>2022-09-28T11:09:27.750Z</time>
      </trkpt>
      <trkpt lat="47.29394" lon="16.43895">
        <ele>364.216627</ele>
        <time>2022-09-28T11:09:30.728Z</time>
      </trkpt>
      <trkpt lat="47.29406" lon="16.43896">
        <ele>364.42872</ele>
        <time>2022-09-28T11:09:34.718Z</time>
      </trkpt>
      <trkpt lat="47.29416" lon="16.43896">
        <ele>364.604419</ele>
        <time>2022-09-28T11:09:38.732Z</time>
      </trkpt>
      <trkpt lat="47.29426" lon="16.43895">
        <ele>364.798474</ele>
        <time>2022-09-28T11:09:42.710Z</time>
      </trkpt>
      <trkpt lat="47.29438" lon="16.43898">
        <ele>365.012006</ele>
        <time>2022-09-28T11:09:46.743Z</time>
      </trkpt>
      <trkpt lat="47.2945" lon="16.43898">
        <ele>365.222128</ele>
        <time>2022-09-28T11:09:50.736Z</time>
      </trkpt>
      <trkpt lat="47.2946" lon="16.43897">
        <ele>365.413203</ele>
        <time>2022-09-28T11:09:53.717Z</time>
      </trkpt>
      <trkpt lat="47.29469" lon="16.43897">
        <ele>365.579881</ele>
        <time>2022-09-28T11:09:56.720Z</time>
      </trkpt>
      <trkpt lat="47.29478" lon="16.43896">
        <ele>365.74674</ele>
        <time>2022-09-28T11:09:59.747Z</time>
      </trkpt>
      <trkpt lat="47.2949" lon="16.43898">
        <ele>365.961264</ele>
        <time>2022-09-28T11:10:03.729Z</time>
      </trkpt>
      <trkpt lat="47.295" lon="16.43897">
        <ele>366.142596</ele>
        <time>2022-09-28T11:10:06.724Z</time>
      </trkpt>
      <trkpt lat="47.29512" lon="16.43897">
        <ele>366.358152</ele>
        <time>2022-09-28T11:10:10.705Z</time>
      </trkpt>
      <trkpt lat="47.29523" lon="16.43897">
        <ele>366.561197</ele>
        <time>2022-09-28T11:10:14.737Z</time>
      </trkpt>
      <trkpt lat="47.29534" lon="16.43895">
        <ele>366.74834</ele>
        <time>2022-09-28T11:10:17.726Z</time>
      </trkpt>
      <trkpt lat="47.29543" lon="16.43895">
        <ele>366.955005</ele>
        <time>2022-09-28T11:10:20.715Z</time>
      </trkpt>
      <trkpt lat="47.29552" lon="16.43895">
        <ele>367.18097</ele>
        <time>2022-09-28T11:10:23.724Z</time>
      </trkpt>
      <trkpt lat="47.29563" lon="16.43897">
        <ele>367.438764</ele>
        <time>2022-09-28T11:10:27.738Z</time>
      </trkpt>
      <trkpt lat="47.29574" lon="16.43897">
        <ele>367.713902</ele>
        <time>2022-09-28T11:10:31.713Z</time>
      </trkpt>
      <trkpt lat="47.29585" lon="16.43897">
        <ele>367.984053</ele>
        <time>2022-09-28T11:10:35.730Z</time>
      </trkpt>
      <trkpt lat="47.29596" lon="16.43897">
        <ele>368.268978</ele>
        <time>2022-09-28T11:10:39.712Z</time>
      </trkpt>
      <trkpt lat="47.29607" lon="16.43896">
        <ele>368.539252</ele>
        <time>2022-09-28T11:10:43.732Z</time>
      </trkpt>
      <trkpt lat="47.29618" lon="16.43896">
        <ele>368.804533</ele>
        <time>2022-09-28T11:10:47.737Z</time>
      </trkpt>
      <trkpt lat="47.29629" lon="16.43897">
        <ele>369.075191</ele>
        <time>2022-09-28T11:10:51.725Z</time>
      </trkpt>
      <trkpt lat="47.29638" lon="16.43896">
        <ele>369.302508</ele>
        <time>2022-09-28T11:10:54.724Z</time>
      </trkpt>
      <trkpt lat="47.29648" lon="16.43897">
        <ele>369.545919</ele>
        <time>2022-09-28T11:10:58.753Z</time>
      </trkpt>
      <trkpt lat="47.29659" lon="16.43896">
        <ele>369.801525</ele>
        <time>2022-09-28T11:11:02.735Z</time>
      </trkpt>
      <trkpt lat="47.29669" lon="16.43897">
        <ele>370.059525</ele>
        <time>2022-09-28T11:11:06.722Z</time>
      </trkpt>
      <trkpt lat="47.2968" lon="16.43898">
        <ele>370.333771</ele>
        <time>2022-09-28T11:11:10.726Z</time>
      </trkpt>
      <trkpt lat="47.29687" lon="16.43909">
        <ele>370.575518</ele>
        <time>2022-09-28T11:11:14.722Z</time>
      </trkpt>
      <trkpt lat="47.29686" lon="16.43924">
        <ele>370.819001</ele>
        <time>2022-09-28T11:11:17.718Z</time>
      </trkpt>
      <trkpt lat="47.29686" lon="16.43941">
        <ele>371.107155</ele>
        <time>2022-09-28T11:11:21.731Z</time>
      </trkpt>
      <trkpt lat="47.29686" lon="16.43956">
        <ele>371.269406</ele>
        <time>2022-09-28T11:11:24.718Z</time>
      </trkpt>
      <trkpt lat="47.29686" lon="16.4397">
        <ele>371.354472</ele>
        <time>2022-09-28T11:11:27.701Z</time>
      </trkpt>
      <trkpt lat="47.29687" lon="16.43983">
        <ele>371.433747</ele>
        <time>2022-09-28T11:11:30.715Z</time>
      </trkpt>
      <trkpt lat="47.29687" lon="16.43997">
        <ele>371.512907</ele>
        <time>2022-09-28T11:11:33.710Z</time>
      </trkpt>
      <trkpt lat="47.29686" lon="16.44014">
        <ele>371.615133</ele>
        <time>2022-09-28T11:11:37.759Z</time>
      </trkpt>
      <trkpt lat="47.29687" lon="16.44028">
        <ele>371.697874</ele>
        <time>2022-09-28T11:11:40.728Z</time>
      </trkpt>
      <trkpt lat="47.29687" lon="16.44042">
        <ele>371.782954</ele>
        <time>2022-09-28T11:11:43.719Z</time>
      </trkpt>
      <trkpt lat="47.29688" lon="16.44057">
        <ele>371.870002</ele>
        <time>2022-09-28T11:11:46.729Z</time>
      </trkpt>
      <trkpt lat="47.29689" lon="16.44073">
        <ele>371.962845</ele>
        <time>2022-09-28T11:11:49.754Z</time>
      </trkpt>
      <trkpt lat="47.2969" lon="16.44088">
        <ele>372.051702</ele>
        <time>2022-09-28T11:11:52.732Z</time>
      </trkpt>
      <trkpt lat="47.29689" lon="16.44103">
        <ele>372.142499</ele>
        <time>2022-09-28T11:11:55.717Z</time>
      </trkpt>
      <trkpt lat="47.29689" lon="16.44119">
        <ele>372.235896</ele>
        <time>2022-09-28T11:11:58.732Z</time>
      </trkpt>
      <trkpt lat="47.29688" lon="16.44134">
        <ele>372.328899</ele>
        <time>2022-09-28T11:12:01.726Z</time>
      </trkpt>
      <trkpt lat="47.29688" lon="16.4415">
        <ele>372.419905</ele>
        <time>2022-09-28T11:12:04.730Z</time>
      </trkpt>
      <trkpt lat="47.29688" lon="16.44165">
        <ele>372.508512</ele>
        <time>2022-09-28T11:12:07.722Z</time>
      </trkpt>
      <trkpt lat="47.29688" lon="16.4418">
        <ele>372.597777</ele>
        <time>2022-09-28T11:12:10.766Z</time>
      </trkpt>
      <trkpt lat="47.29688" lon="16.44197">
        <ele>372.697702</ele>
        <time>2022-09-28T11:12:13.722Z</time>
      </trkpt>
      <trkpt lat="47.2969" lon="16.44215">
        <ele>372.808417</ele>
        <time>2022-09-28T11:12:16.708Z</time>
      </trkpt>
      <trkpt lat="47.2969" lon="16.44233">
        <ele>372.934961</ele>
        <time>2022-09-28T11:12:19.799Z</time>
      </trkpt>
      <trkpt lat="47.2969" lon="16.4425">
        <ele>373.059308</ele>
        <time>2022-09-28T11:12:22.734Z</time>
      </trkpt>
      <trkpt lat="47.2969" lon="16.44268">
        <ele>373.185852</ele>
        <time>2022-09-28T11:12:25.727Z</time>
      </trkpt>
      <trkpt lat="47.2969" lon="16.44284">
        <ele>373.30661</ele>
        <time>2022-09-28T11:12:28.721Z</time>
      </trkpt>
      <trkpt lat="47.2969" lon="16.44302">
        <ele>373.43385</ele>
        <time>2022-09-28T11:12:31.721Z</time>
      </trkpt>
      <trkpt lat="47.2969" lon="16.4432">
        <ele>373.564704</ele>
        <time>2022-09-28T11:12:34.739Z</time>
      </trkpt>
      <trkpt lat="47.2969" lon="16.44337">
        <ele>373.685574</ele>
        <time>2022-09-28T11:12:37.728Z</time>
      </trkpt>
      <trkpt lat="47.29692" lon="16.44352">
        <ele>373.793694</ele>
        <time>2022-09-28T11:12:40.788Z</time>
      </trkpt>
      <trkpt lat="47.29692" lon="16.44368">
        <ele>373.907338</ele>
        <time>2022-09-28T11:12:43.749Z</time>
      </trkpt>
      <trkpt lat="47.29691" lon="16.44383">
        <ele>374.020364</ele>
        <time>2022-09-28T11:12:46.705Z</time>
      </trkpt>
      <trkpt lat="47.29692" lon="16.44398">
        <ele>374.12485</ele>
        <time>2022-09-28T11:12:51.730Z</time>
      </trkpt>
      <trkpt lat="47.29695" lon="16.44411">
        <ele>374.223574</ele>
        <time>2022-09-28T11:12:55.709Z</time>
      </trkpt>
      <trkpt lat="47.29703" lon="16.44418">
        <ele>374.322242</ele>
        <time>2022-09-28T11:12:57.721Z</time>
      </trkpt>
      <trkpt lat="47.29716" lon="16.44422">
        <ele>374.467431</ele>
        <time>2022-09-28T11:13:00.722Z</time>
      </trkpt>
      <trkpt lat="47.29729" lon="16.44424">
        <ele>374.600936</ele>
        <time>2022-09-28T11:13:03.770Z</time>
      </trkpt>
      <trkpt lat="47.29741" lon="16.44425">
        <ele>374.727952</ele>
        <time>2022-09-28T11:13:06.726Z</time>
      </trkpt>
      <trkpt lat="47.29752" lon="16.44426">
        <ele>374.853979</ele>
        <time>2022-09-28T11:13:09.733Z</time>
      </trkpt>
      <trkpt lat="47.29764" lon="16.44427">
        <ele>374.975562</ele>
        <time>2022-09-28T11:13:12.717Z</time>
      </trkpt>
      <trkpt lat="47.29774" lon="16.44427">
        <ele>375.09055</ele>
        <time>2022-09-28T11:13:15.731Z</time>
      </trkpt>
      <trkpt lat="47.29785" lon="16.44428">
        <ele>375.202459</ele>
        <time>2022-09-28T11:13:18.752Z</time>
      </trkpt>
      <trkpt lat="47.29795" lon="16.4443">
        <ele>375.317108</ele>
        <time>2022-09-28T11:13:21.719Z</time>
      </trkpt>
      <trkpt lat="47.29806" lon="16.44432">
        <ele>375.435795</ele>
        <time>2022-09-28T11:13:24.724Z</time>
      </trkpt>
      <trkpt lat="47.29817" lon="16.44433">
        <ele>375.557278</ele>
        <time>2022-09-28T11:13:27.734Z</time>
      </trkpt>
      <trkpt lat="47.29828" lon="16.44433">
        <ele>375.678894</ele>
        <time>2022-09-28T11:13:30.724Z</time>
      </trkpt>
      <trkpt lat="47.29839" lon="16.44435">
        <ele>375.798582</ele>
        <time>2022-09-28T11:13:33.732Z</time>
      </trkpt>
      <trkpt lat="47.2985" lon="16.44436">
        <ele>375.912701</ele>
        <time>2022-09-28T11:13:36.707Z</time>
      </trkpt>
      <trkpt lat="47.2986" lon="16.44437">
        <ele>376.020641</ele>
        <time>2022-09-28T11:13:39.725Z</time>
      </trkpt>
      <trkpt lat="47.29869" lon="16.44438">
        <ele>376.126954</ele>
        <time>2022-09-28T11:13:42.720Z</time>
      </trkpt>
      <trkpt lat="47.29879" lon="16.44438">
        <ele>376.225676</ele>
        <time>2022-09-28T11:13:45.752Z</time>
      </trkpt>
      <trkpt lat="47.29888" lon="16.44437">
        <ele>376.324442</ele>
        <time>2022-09-28T11:13:48.739Z</time>
      </trkpt>
      <trkpt lat="47.29898" lon="16.44438">
        <ele>376.432941</ele>
        <time>2022-09-28T11:13:51.740Z</time>
      </trkpt>
      <trkpt lat="47.29907" lon="16.44437">
        <ele>376.539254</ele>
        <time>2022-09-28T11:13:54.712Z</time>
      </trkpt>
      <trkpt lat="47.29917" lon="16.44435">
        <ele>376.649791</ele>
        <time>2022-09-28T11:13:57.731Z</time>
      </trkpt>
      <trkpt lat="47.29928" lon="16.44434">
        <ele>376.937205</ele>
        <time>2022-09-28T11:14:00.765Z</time>
      </trkpt>
      <trkpt lat="47.29937" lon="16.44433">
        <ele>377.211423</ele>
        <time>2022-09-28T11:14:03.725Z</time>
      </trkpt>
      <trkpt lat="47.29946" lon="16.4443">
        <ele>377.47961</ele>
        <time>2022-09-28T11:14:06.734Z</time>
      </trkpt>
      <trkpt lat="47.29958" lon="16.44427">
        <ele>377.822352</ele>
        <time>2022-09-28T11:14:10.721Z</time>
      </trkpt>
      <trkpt lat="47.29968" lon="16.44423">
        <ele>378.112123</ele>
        <time>2022-09-28T11:14:13.736Z</time>
      </trkpt>
      <trkpt lat="47.29977" lon="16.4442">
        <ele>378.374701</ele>
        <time>2022-09-28T11:14:16.736Z</time>
      </trkpt>
      <trkpt lat="47.29986" lon="16.44417">
        <ele>378.644184</ele>
        <time>2022-09-28T11:14:19.702Z</time>
      </trkpt>
      <trkpt lat="47.29996" lon="16.44414">
        <ele>378.938673</ele>
        <time>2022-09-28T11:14:22.775Z</time>
      </trkpt>
      <trkpt lat="47.30007" lon="16.44409">
        <ele>379.251108</ele>
        <time>2022-09-28T11:14:25.715Z</time>
      </trkpt>
      <trkpt lat="47.30017" lon="16.44403">
        <ele>379.571425</ele>
        <time>2022-09-28T11:14:29.727Z</time>
      </trkpt>
      <trkpt lat="47.30027" lon="16.44398">
        <ele>379.869737</ele>
        <time>2022-09-28T11:14:32.722Z</time>
      </trkpt>
      <trkpt lat="47.30037" lon="16.44395">
        <ele>380.170207</ele>
        <time>2022-09-28T11:14:35.721Z</time>
      </trkpt>
      <trkpt lat="47.30047" lon="16.4439">
        <ele>380.461878</ele>
        <time>2022-09-28T11:14:39.758Z</time>
      </trkpt>
      <trkpt lat="47.30057" lon="16.44382">
        <ele>380.788535</ele>
        <time>2022-09-28T11:14:43.755Z</time>
      </trkpt>
      <trkpt lat="47.30067" lon="16.44375">
        <ele>381.110035</ele>
        <time>2022-09-28T11:14:47.733Z</time>
      </trkpt>
      <trkpt lat="47.30077" lon="16.44367">
        <ele>381.437158</ele>
        <time>2022-09-28T11:14:51.754Z</time>
      </trkpt>
      <trkpt lat="47.30088" lon="16.44359">
        <ele>381.787133</ele>
        <time>2022-09-28T11:14:55.753Z</time>
      </trkpt>
      <trkpt lat="47.30097" lon="16.44353">
        <ele>382.332039</ele>
        <time>2022-09-28T11:14:58.721Z</time>
      </trkpt>
      <trkpt lat="47.30106" lon="16.44346">
        <ele>382.865838</ele>
        <time>2022-09-28T11:15:01.720Z</time>
      </trkpt>
      <trkpt lat="47.30116" lon="16.44339">
        <ele>383.480586</ele>
        <time>2022-09-28T11:15:04.730Z</time>
      </trkpt>
      <trkpt lat="47.30125" lon="16.44333">
        <ele>384.043303</ele>
        <time>2022-09-28T11:15:07.773Z</time>
      </trkpt>
      <trkpt lat="47.30135" lon="16.44325">
        <ele>384.651521</ele>
        <time>2022-09-28T11:15:11.725Z</time>
      </trkpt>
      <trkpt lat="47.30144" lon="16.44316">
        <ele>385.275692</ele>
        <time>2022-09-28T11:15:15.727Z</time>
      </trkpt>
      <trkpt lat="47.30153" lon="16.44309">
        <ele>385.843363</ele>
        <time>2022-09-28T11:15:19.736Z</time>
      </trkpt>
      <trkpt lat="47.30164" lon="16.443">
        <ele>386.532671</ele>
        <time>2022-09-28T11:15:23.728Z</time>
      </trkpt>
      <trkpt lat="47.30173" lon="16.44293">
        <ele>387.102054</ele>
        <time>2022-09-28T11:15:26.721Z</time>
      </trkpt>
      <trkpt lat="47.30184" lon="16.44286">
        <ele>387.740938</ele>
        <time>2022-09-28T11:15:30.733Z</time>
      </trkpt>
      <trkpt lat="47.30193" lon="16.44276">
        <ele>388.344311</ele>
        <time>2022-09-28T11:15:34.724Z</time>
      </trkpt>
      <trkpt lat="47.30202" lon="16.44267">
        <ele>388.961796</ele>
        <time>2022-09-28T11:15:38.716Z</time>
      </trkpt>
      <trkpt lat="47.30211" lon="16.44261">
        <ele>389.501369</ele>
        <time>2022-09-28T11:15:42.808Z</time>
      </trkpt>
      <trkpt lat="47.30221" lon="16.44252">
        <ele>390.146607</ele>
        <time>2022-09-28T11:15:46.709Z</time>
      </trkpt>
      <trkpt lat="47.3023" lon="16.44244">
        <ele>390.745256</ele>
        <time>2022-09-28T11:15:50.733Z</time>
      </trkpt>
      <trkpt lat="47.30239" lon="16.44236">
        <ele>391.326639</ele>
        <time>2022-09-28T11:15:54.729Z</time>
      </trkpt>
      <trkpt lat="47.30248" lon="16.44227">
        <ele>391.834376</ele>
        <time>2022-09-28T11:15:58.705Z</time>
      </trkpt>
      <trkpt lat="47.30256" lon="16.44221">
        <ele>392.096851</ele>
        <time>2022-09-28T11:16:01.725Z</time>
      </trkpt>
      <trkpt lat="47.30264" lon="16.44213">
        <ele>392.378199</ele>
        <time>2022-09-28T11:16:04.794Z</time>
      </trkpt>
      <trkpt lat="47.30274" lon="16.44207">
        <ele>392.676915</ele>
        <time>2022-09-28T11:16:08.723Z</time>
      </trkpt>
      <trkpt lat="47.30282" lon="16.44199">
        <ele>392.953397</ele>
        <time>2022-09-28T11:16:11.732Z</time>
      </trkpt>
      <trkpt lat="47.3029" lon="16.44192">
        <ele>393.227034</ele>
        <time>2022-09-28T11:16:14.720Z</time>
      </trkpt>
      <trkpt lat="47.30301" lon="16.44184">
        <ele>393.587621</ele>
        <time>2022-09-28T11:16:18.725Z</time>
      </trkpt>
      <trkpt lat="47.30309" lon="16.44176">
        <ele>393.871095</ele>
        <time>2022-09-28T11:16:21.734Z</time>
      </trkpt>
      <trkpt lat="47.30318" lon="16.4417">
        <ele>394.156471</ele>
        <time>2022-09-28T11:16:24.758Z</time>
      </trkpt>
      <trkpt lat="47.30327" lon="16.44162">
        <ele>394.450434</ele>
        <time>2022-09-28T11:16:29.741Z</time>
      </trkpt>
      <trkpt lat="47.30336" lon="16.44154">
        <ele>394.762592</ele>
        <time>2022-09-28T11:16:33.744Z</time>
      </trkpt>
      <trkpt lat="47.30345" lon="16.44148">
        <ele>395.046848</ele>
        <time>2022-09-28T11:16:36.724Z</time>
      </trkpt>
      <trkpt lat="47.30353" lon="16.44143">
        <ele>395.309399</ele>
        <time>2022-09-28T11:16:39.728Z</time>
      </trkpt>
      <trkpt lat="47.30363" lon="16.4414">
        <ele>395.605136</ele>
        <time>2022-09-28T11:16:43.712Z</time>
      </trkpt>
      <trkpt lat="47.30374" lon="16.44139">
        <ele>395.897606</ele>
        <time>2022-09-28T11:16:47.781Z</time>
      </trkpt>
      <trkpt lat="47.30384" lon="16.4414">
        <ele>396.213943</ele>
        <time>2022-09-28T11:16:51.704Z</time>
      </trkpt>
      <trkpt lat="47.30392" lon="16.44148">
        <ele>396.478601</ele>
        <time>2022-09-28T11:16:55.729Z</time>
      </trkpt>
      <trkpt lat="47.30394" lon="16.44162">
        <ele>396.755546</ele>
        <time>2022-09-28T11:16:59.732Z</time>
      </trkpt>
      <trkpt lat="47.30399" lon="16.44182">
        <ele>396.391348</ele>
        <time>2022-09-28T11:17:02.742Z</time>
      </trkpt>
      <trkpt lat="47.30406" lon="16.442">
        <ele>395.552982</ele>
        <time>2022-09-28T11:17:04.758Z</time>
      </trkpt>
      <trkpt lat="47.30413" lon="16.44223">
        <ele>394.512186</ele>
        <time>2022-09-28T11:17:06.773Z</time>
      </trkpt>
      <trkpt lat="47.30416" lon="16.44235">
        <ele>393.945711</ele>
        <time>2022-09-28T11:17:07.735Z</time>
      </trkpt>
      <trkpt lat="47.30423" lon="16.4426">
        <ele>392.824488</ele>
        <time>2022-09-28T11:17:09.721Z</time>
      </trkpt>
      <trkpt lat="47.30426" lon="16.44273">
        <ele>392.246152</ele>
        <time>2022-09-28T11:17:10.720Z</time>
      </trkpt>
      <trkpt lat="47.30434" lon="16.44294">
        <ele>391.216128</ele>
        <time>2022-09-28T11:17:12.748Z</time>
      </trkpt>
      <trkpt lat="47.30447" lon="16.44313">
        <ele>390.120524</ele>
        <time>2022-09-28T11:17:14.729Z</time>
      </trkpt>
      <trkpt lat="47.30455" lon="16.44321">
        <ele>389.473699</ele>
        <time>2022-09-28T11:17:15.744Z</time>
      </trkpt>
      <trkpt lat="47.30465" lon="16.44329">
        <ele>388.788899</ele>
        <time>2022-09-28T11:17:16.735Z</time>
      </trkpt>
      <trkpt lat="47.30475" lon="16.44336">
        <ele>388.126553</ele>
        <time>2022-09-28T11:17:17.753Z</time>
      </trkpt>
      <trkpt lat="47.30484" lon="16.44344">
        <ele>387.469171</ele>
        <time>2022-09-28T11:17:18.706Z</time>
      </trkpt>
      <trkpt lat="47.30492" lon="16.44353">
        <ele>386.87414</ele>
        <time>2022-09-28T11:17:19.757Z</time>
      </trkpt>
      <trkpt lat="47.305" lon="16.44373">
        <ele>385.887797</ele>
        <time>2022-09-28T11:17:21.716Z</time>
      </trkpt>
      <trkpt lat="47.30503" lon="16.44393">
        <ele>385.294944</ele>
        <time>2022-09-28T11:17:23.730Z</time>
      </trkpt>
      <trkpt lat="47.30504" lon="16.44413">
        <ele>384.769463</ele>
        <time>2022-09-28T11:17:25.729Z</time>
      </trkpt>
      <trkpt lat="47.30509" lon="16.44429">
        <ele>384.294492</ele>
        <time>2022-09-28T11:17:27.718Z</time>
      </trkpt>
      <trkpt lat="47.30512" lon="16.44442">
        <ele>383.918472</ele>
        <time>2022-09-28T11:17:29.722Z</time>
      </trkpt>
      <trkpt lat="47.30514" lon="16.44458">
        <ele>383.500533</ele>
        <time>2022-09-28T11:17:32.727Z</time>
      </trkpt>
      <trkpt lat="47.30517" lon="16.44474">
        <ele>383.048705</ele>
        <time>2022-09-28T11:17:36.714Z</time>
      </trkpt>
      <trkpt lat="47.3052" lon="16.44489">
        <ele>382.631321</ele>
        <time>2022-09-28T11:17:41.730Z</time>
      </trkpt>
      <trkpt lat="47.30525" lon="16.44501">
        <ele>382.255419</ele>
        <time>2022-09-28T11:17:46.730Z</time>
      </trkpt>
      <trkpt lat="47.3053" lon="16.44514">
        <ele>381.876435</ele>
        <time>2022-09-28T11:17:51.717Z</time>
      </trkpt>
      <trkpt lat="47.30534" lon="16.44528">
        <ele>381.461469</ele>
        <time>2022-09-28T11:17:56.750Z</time>
      </trkpt>
      <trkpt lat="47.3054" lon="16.44538">
        <ele>381.084734</ele>
        <time>2022-09-28T11:18:01.712Z</time>
      </trkpt>
      <trkpt lat="47.30547" lon="16.4455">
        <ele>380.687546</ele>
        <time>2022-09-28T11:18:07.708Z</time>
      </trkpt>
      <trkpt lat="47.30553" lon="16.44561">
        <ele>380.274142</ele>
        <time>2022-09-28T11:18:12.752Z</time>
      </trkpt>
      <trkpt lat="47.30559" lon="16.44573">
        <ele>379.895828</ele>
        <time>2022-09-28T11:18:16.722Z</time>
      </trkpt>
      <trkpt lat="47.30566" lon="16.44586">
        <ele>379.452879</ele>
        <time>2022-09-28T11:18:20.716Z</time>
      </trkpt>
      <trkpt lat="47.30574" lon="16.44597">
        <ele>379.022554</ele>
        <time>2022-09-28T11:18:23.754Z</time>
      </trkpt>
      <trkpt lat="47.30582" lon="16.4461">
        <ele>378.826227</ele>
        <time>2022-09-28T11:18:26.720Z</time>
      </trkpt>
      <trkpt lat="47.30591" lon="16.44625">
        <ele>379.142254</ele>
        <time>2022-09-28T11:18:29.718Z</time>
      </trkpt>
      <trkpt lat="47.30597" lon="16.44635">
        <ele>379.371753</ele>
        <time>2022-09-28T11:18:31.710Z</time>
      </trkpt>
      <trkpt lat="47.30603" lon="16.44646">
        <ele>379.598386</ele>
        <time>2022-09-28T11:18:33.714Z</time>
      </trkpt>
      <trkpt lat="47.30609" lon="16.44658">
        <ele>379.842324</ele>
        <time>2022-09-28T11:18:35.727Z</time>
      </trkpt>
      <trkpt lat="47.30616" lon="16.44669">
        <ele>380.085717</ele>
        <time>2022-09-28T11:18:37.736Z</time>
      </trkpt>
      <trkpt lat="47.30622" lon="16.4468">
        <ele>380.329779</ele>
        <time>2022-09-28T11:18:39.708Z</time>
      </trkpt>
      <trkpt lat="47.30629" lon="16.44692">
        <ele>380.575441</ele>
        <time>2022-09-28T11:18:41.725Z</time>
      </trkpt>
      <trkpt lat="47.30635" lon="16.44704">
        <ele>380.827497</ele>
        <time>2022-09-28T11:18:43.729Z</time>
      </trkpt>
      <trkpt lat="47.30641" lon="16.44717">
        <ele>381.08312</ele>
        <time>2022-09-28T11:18:45.714Z</time>
      </trkpt>
      <trkpt lat="47.30648" lon="16.44731">
        <ele>381.35497</ele>
        <time>2022-09-28T11:18:47.724Z</time>
      </trkpt>
      <trkpt lat="47.30653" lon="16.44744">
        <ele>381.616747</ele>
        <time>2022-09-28T11:18:49.709Z</time>
      </trkpt>
      <trkpt lat="47.30657" lon="16.44758">
        <ele>381.862434</ele>
        <time>2022-09-28T11:18:51.756Z</time>
      </trkpt>
      <trkpt lat="47.30661" lon="16.44772">
        <ele>382.111631</ele>
        <time>2022-09-28T11:18:53.718Z</time>
      </trkpt>
      <trkpt lat="47.30664" lon="16.44785">
        <ele>382.330681</ele>
        <time>2022-09-28T11:18:55.732Z</time>
      </trkpt>
      <trkpt lat="47.30667" lon="16.44799">
        <ele>382.576148</ele>
        <time>2022-09-28T11:18:57.708Z</time>
      </trkpt>
      <trkpt lat="47.30669" lon="16.44812">
        <ele>382.794736</ele>
        <time>2022-09-28T11:18:59.738Z</time>
      </trkpt>
      <trkpt lat="47.30672" lon="16.44825">
        <ele>383.016215</ele>
        <time>2022-09-28T11:19:01.728Z</time>
      </trkpt>
      <trkpt lat="47.30676" lon="16.44842">
        <ele>382.929321</ele>
        <time>2022-09-28T11:19:04.733Z</time>
      </trkpt>
      <trkpt lat="47.3068" lon="16.44861">
        <ele>382.767521</ele>
        <time>2022-09-28T11:19:07.726Z</time>
      </trkpt>
      <trkpt lat="47.30684" lon="16.4488">
        <ele>382.609512</ele>
        <time>2022-09-28T11:19:10.729Z</time>
      </trkpt>
      <trkpt lat="47.30688" lon="16.44898">
        <ele>382.453951</ele>
        <time>2022-09-28T11:19:13.750Z</time>
      </trkpt>
      <trkpt lat="47.30693" lon="16.44916">
        <ele>382.299226</ele>
        <time>2022-09-28T11:19:16.737Z</time>
      </trkpt>
      <trkpt lat="47.30698" lon="16.44932">
        <ele>382.14869</ele>
        <time>2022-09-28T11:19:19.724Z</time>
      </trkpt>
      <trkpt lat="47.30703" lon="16.44949">
        <ele>382.004314</ele>
        <time>2022-09-28T11:19:22.753Z</time>
      </trkpt>
      <trkpt lat="47.30708" lon="16.44964">
        <ele>381.865585</ele>
        <time>2022-09-28T11:19:25.734Z</time>
      </trkpt>
      <trkpt lat="47.30713" lon="16.4498">
        <ele>381.72342</ele>
        <time>2022-09-28T11:19:28.706Z</time>
      </trkpt>
      <trkpt lat="47.30719" lon="16.44996">
        <ele>381.581239</ele>
        <time>2022-09-28T11:19:31.724Z</time>
      </trkpt>
      <trkpt lat="47.30724" lon="16.45012">
        <ele>381.434635</ele>
        <time>2022-09-28T11:19:34.731Z</time>
      </trkpt>
      <trkpt lat="47.3073" lon="16.45029">
        <ele>381.277189</ele>
        <time>2022-09-28T11:19:37.711Z</time>
      </trkpt>
      <trkpt lat="47.30735" lon="16.45041">
        <ele>381.16693</ele>
        <time>2022-09-28T11:19:39.709Z</time>
      </trkpt>
      <trkpt lat="47.30739" lon="16.45053">
        <ele>381.050408</ele>
        <time>2022-09-28T11:19:41.736Z</time>
      </trkpt>
      <trkpt lat="47.30744" lon="16.45067">
        <ele>380.92422</ele>
        <time>2022-09-28T11:19:43.721Z</time>
      </trkpt>
      <trkpt lat="47.30749" lon="16.45083">
        <ele>380.567171</ele>
        <time>2022-09-28T11:19:45.713Z</time>
      </trkpt>
      <trkpt lat="47.30756" lon="16.45099">
        <ele>380.137291</ele>
        <time>2022-09-28T11:19:47.716Z</time>
      </trkpt>
      <trkpt lat="47.30764" lon="16.45116">
        <ele>379.683647</ele>
        <time>2022-09-28T11:19:49.731Z</time>
      </trkpt>
      <trkpt lat="47.30773" lon="16.45135">
        <ele>379.176093</ele>
        <time>2022-09-28T11:19:51.734Z</time>
      </trkpt>
      <trkpt lat="47.30784" lon="16.45155">
        <ele>378.587137</ele>
        <time>2022-09-28T11:19:53.734Z</time>
      </trkpt>
      <trkpt lat="47.3079" lon="16.45166">
        <ele>378.268854</ele>
        <time>2022-09-28T11:19:54.705Z</time>
      </trkpt>
      <trkpt lat="47.30797" lon="16.45178">
        <ele>377.934296</ele>
        <time>2022-09-28T11:19:55.742Z</time>
      </trkpt>
      <trkpt lat="47.30804" lon="16.45189">
        <ele>377.585713</ele>
        <time>2022-09-28T11:19:56.730Z</time>
      </trkpt>
      <trkpt lat="47.3081" lon="16.45201">
        <ele>377.240367</ele>
        <time>2022-09-28T11:19:57.707Z</time>
      </trkpt>
      <trkpt lat="47.30817" lon="16.45214">
        <ele>376.893522</ele>
        <time>2022-09-28T11:19:58.726Z</time>
      </trkpt>
      <trkpt lat="47.30823" lon="16.45226">
        <ele>376.548676</ele>
        <time>2022-09-28T11:19:59.751Z</time>
      </trkpt>
      <trkpt lat="47.3083" lon="16.45239">
        <ele>376.185157</ele>
        <time>2022-09-28T11:20:00.726Z</time>
      </trkpt>
      <trkpt lat="47.30836" lon="16.45252">
        <ele>375.819342</ele>
        <time>2022-09-28T11:20:01.728Z</time>
      </trkpt>
      <trkpt lat="47.30844" lon="16.45265">
        <ele>375.444166</ele>
        <time>2022-09-28T11:20:02.732Z</time>
      </trkpt>
      <trkpt lat="47.30851" lon="16.45278">
        <ele>375.068991</ele>
        <time>2022-09-28T11:20:03.714Z</time>
      </trkpt>
      <trkpt lat="47.30858" lon="16.45292">
        <ele>374.516724</ele>
        <time>2022-09-28T11:20:04.720Z</time>
      </trkpt>
      <trkpt lat="47.30866" lon="16.45305">
        <ele>373.915604</ele>
        <time>2022-09-28T11:20:05.721Z</time>
      </trkpt>
      <trkpt lat="47.30873" lon="16.45319">
        <ele>373.308578</ele>
        <time>2022-09-28T11:20:06.740Z</time>
      </trkpt>
      <trkpt lat="47.3088" lon="16.45332">
        <ele>372.717333</ele>
        <time>2022-09-28T11:20:07.713Z</time>
      </trkpt>
      <trkpt lat="47.30887" lon="16.45346">
        <ele>372.117123</ele>
        <time>2022-09-28T11:20:08.704Z</time>
      </trkpt>
      <trkpt lat="47.30895" lon="16.4536">
        <ele>371.502823</ele>
        <time>2022-09-28T11:20:09.790Z</time>
      </trkpt>
      <trkpt lat="47.30902" lon="16.45374">
        <ele>370.888522</ele>
        <time>2022-09-28T11:20:10.718Z</time>
      </trkpt>
      <trkpt lat="47.3091" lon="16.45388">
        <ele>370.26375</ele>
        <time>2022-09-28T11:20:11.727Z</time>
      </trkpt>
      <trkpt lat="47.30917" lon="16.45402">
        <ele>369.648633</ele>
        <time>2022-09-28T11:20:12.727Z</time>
      </trkpt>
      <trkpt lat="47.30924" lon="16.45416">
        <ele>369.045686</ele>
        <time>2022-09-28T11:20:13.725Z</time>
      </trkpt>
      <trkpt lat="47.30932" lon="16.45429">
        <ele>368.445057</ele>
        <time>2022-09-28T11:20:14.720Z</time>
      </trkpt>
      <trkpt lat="47.30939" lon="16.45443">
        <ele>367.852538</ele>
        <time>2022-09-28T11:20:15.722Z</time>
      </trkpt>
      <trkpt lat="47.30946" lon="16.45456">
        <ele>367.26002</ele>
        <time>2022-09-28T11:20:16.711Z</time>
      </trkpt>
      <trkpt lat="47.30954" lon="16.45469">
        <ele>366.675539</ele>
        <time>2022-09-28T11:20:17.729Z</time>
      </trkpt>
      <trkpt lat="47.30961" lon="16.45482">
        <ele>366.096376</ele>
        <time>2022-09-28T11:20:18.710Z</time>
      </trkpt>
      <trkpt lat="47.30968" lon="16.45495">
        <ele>365.521355</ele>
        <time>2022-09-28T11:20:19.705Z</time>
      </trkpt>
      <trkpt lat="47.30976" lon="16.45507">
        <ele>364.971536</ele>
        <time>2022-09-28T11:20:20.721Z</time>
      </trkpt>
      <trkpt lat="47.30983" lon="16.4552">
        <ele>364.416046</ele>
        <time>2022-09-28T11:20:21.725Z</time>
      </trkpt>
      <trkpt lat="47.3099" lon="16.45533">
        <ele>363.871248</ele>
        <time>2022-09-28T11:20:22.716Z</time>
      </trkpt>
      <trkpt lat="47.30998" lon="16.45545">
        <ele>363.324973</ele>
        <time>2022-09-28T11:20:23.718Z</time>
      </trkpt>
      <trkpt lat="47.31005" lon="16.45557">
        <ele>362.777866</ele>
        <time>2022-09-28T11:20:24.711Z</time>
      </trkpt>
      <trkpt lat="47.31013" lon="16.45569">
        <ele>362.238917</ele>
        <time>2022-09-28T11:20:25.721Z</time>
      </trkpt>
      <trkpt lat="47.3102" lon="16.45581">
        <ele>361.704806</ele>
        <time>2022-09-28T11:20:26.701Z</time>
      </trkpt>
      <trkpt lat="47.31028" lon="16.45593">
        <ele>361.17731</ele>
        <time>2022-09-28T11:20:27.732Z</time>
      </trkpt>
      <trkpt lat="47.31035" lon="16.45605">
        <ele>360.652248</ele>
        <time>2022-09-28T11:20:28.727Z</time>
      </trkpt>
      <trkpt lat="47.31042" lon="16.45616">
        <ele>360.153316</ele>
        <time>2022-09-28T11:20:29.716Z</time>
      </trkpt>
      <trkpt lat="47.31049" lon="16.45627">
        <ele>359.65685</ele>
        <time>2022-09-28T11:20:30.722Z</time>
      </trkpt>
      <trkpt lat="47.31055" lon="16.45638">
        <ele>359.159561</ele>
        <time>2022-09-28T11:20:31.722Z</time>
      </trkpt>
      <trkpt lat="47.31062" lon="16.45649">
        <ele>358.671263</ele>
        <time>2022-09-28T11:20:32.732Z</time>
      </trkpt>
      <trkpt lat="47.31069" lon="16.4566">
        <ele>358.182134</ele>
        <time>2022-09-28T11:20:33.721Z</time>
      </trkpt>
      <trkpt lat="47.31076" lon="16.45671">
        <ele>357.701161</ele>
        <time>2022-09-28T11:20:34.723Z</time>
      </trkpt>
      <trkpt lat="47.31082" lon="16.45681">
        <ele>357.237363</ele>
        <time>2022-09-28T11:20:35.739Z</time>
      </trkpt>
      <trkpt lat="47.31089" lon="16.45691">
        <ele>356.920123</ele>
        <time>2022-09-28T11:20:36.758Z</time>
      </trkpt>
      <trkpt lat="47.31095" lon="16.45702">
        <ele>356.730452</ele>
        <time>2022-09-28T11:20:37.719Z</time>
      </trkpt>
      <trkpt lat="47.31101" lon="16.45711">
        <ele>356.54875</ele>
        <time>2022-09-28T11:20:38.725Z</time>
      </trkpt>
      <trkpt lat="47.31114" lon="16.4573">
        <ele>356.188784</ele>
        <time>2022-09-28T11:20:40.731Z</time>
      </trkpt>
      <trkpt lat="47.31125" lon="16.45749">
        <ele>355.841689</ele>
        <time>2022-09-28T11:20:42.759Z</time>
      </trkpt>
      <trkpt lat="47.31137" lon="16.45768">
        <ele>355.497654</ele>
        <time>2022-09-28T11:20:44.713Z</time>
      </trkpt>
      <trkpt lat="47.31148" lon="16.45787">
        <ele>355.156272</ele>
        <time>2022-09-28T11:20:46.740Z</time>
      </trkpt>
      <trkpt lat="47.31158" lon="16.45806">
        <ele>354.82291</ele>
        <time>2022-09-28T11:20:48.773Z</time>
      </trkpt>
      <trkpt lat="47.31169" lon="16.45825">
        <ele>354.495833</ele>
        <time>2022-09-28T11:20:50.717Z</time>
      </trkpt>
      <trkpt lat="47.31179" lon="16.45843">
        <ele>354.17365</ele>
        <time>2022-09-28T11:20:52.735Z</time>
      </trkpt>
      <trkpt lat="47.31189" lon="16.45861">
        <ele>353.850189</ele>
        <time>2022-09-28T11:20:54.718Z</time>
      </trkpt>
      <trkpt lat="47.312" lon="16.4588">
        <ele>353.514716</ele>
        <time>2022-09-28T11:20:56.735Z</time>
      </trkpt>
      <trkpt lat="47.3121" lon="16.45899">
        <ele>353.254157</ele>
        <time>2022-09-28T11:20:58.724Z</time>
      </trkpt>
      <trkpt lat="47.31221" lon="16.45918">
        <ele>353.0199</ele>
        <time>2022-09-28T11:21:00.735Z</time>
      </trkpt>
      <trkpt lat="47.31231" lon="16.45936">
        <ele>352.796445</ele>
        <time>2022-09-28T11:21:02.752Z</time>
      </trkpt>
      <trkpt lat="47.31241" lon="16.45954">
        <ele>352.575921</ele>
        <time>2022-09-28T11:21:04.715Z</time>
      </trkpt>
      <trkpt lat="47.31251" lon="16.45971">
        <ele>352.357577</ele>
        <time>2022-09-28T11:21:06.725Z</time>
      </trkpt>
      <trkpt lat="47.31261" lon="16.45988">
        <ele>352.144026</ele>
        <time>2022-09-28T11:21:08.737Z</time>
      </trkpt>
      <trkpt lat="47.31272" lon="16.46004">
        <ele>351.932743</ele>
        <time>2022-09-28T11:21:10.757Z</time>
      </trkpt>
      <trkpt lat="47.31282" lon="16.46019">
        <ele>351.730572</ele>
        <time>2022-09-28T11:21:12.728Z</time>
      </trkpt>
      <trkpt lat="47.31293" lon="16.46033">
        <ele>351.529247</ele>
        <time>2022-09-28T11:21:14.733Z</time>
      </trkpt>
      <trkpt lat="47.31304" lon="16.46046">
        <ele>351.328057</ele>
        <time>2022-09-28T11:21:16.712Z</time>
      </trkpt>
      <trkpt lat="47.31315" lon="16.4606">
        <ele>351.118028</ele>
        <time>2022-09-28T11:21:18.749Z</time>
      </trkpt>
      <trkpt lat="47.31327" lon="16.46075">
        <ele>350.905972</ele>
        <time>2022-09-28T11:21:20.728Z</time>
      </trkpt>
      <trkpt lat="47.31337" lon="16.4609">
        <ele>350.816712</ele>
        <time>2022-09-28T11:21:22.724Z</time>
      </trkpt>
      <trkpt lat="47.31348" lon="16.46105">
        <ele>350.740172</ele>
        <time>2022-09-28T11:21:24.735Z</time>
      </trkpt>
      <trkpt lat="47.31358" lon="16.4612">
        <ele>350.66692</ele>
        <time>2022-09-28T11:21:26.762Z</time>
      </trkpt>
      <trkpt lat="47.31368" lon="16.46136">
        <ele>350.59398</ele>
        <time>2022-09-28T11:21:28.739Z</time>
      </trkpt>
      <trkpt lat="47.31377" lon="16.46151">
        <ele>350.52232</ele>
        <time>2022-09-28T11:21:30.735Z</time>
      </trkpt>
      <trkpt lat="47.31386" lon="16.46167">
        <ele>350.450325</ele>
        <time>2022-09-28T11:21:32.776Z</time>
      </trkpt>
      <trkpt lat="47.31394" lon="16.46183">
        <ele>350.379088</ele>
        <time>2022-09-28T11:21:34.725Z</time>
      </trkpt>
      <trkpt lat="47.31401" lon="16.462">
        <ele>350.311039</ele>
        <time>2022-09-28T11:21:36.731Z</time>
      </trkpt>
      <trkpt lat="47.31408" lon="16.46216">
        <ele>350.24545</ele>
        <time>2022-09-28T11:21:38.731Z</time>
      </trkpt>
      <trkpt lat="47.31413" lon="16.46233">
        <ele>350.181966</ele>
        <time>2022-09-28T11:21:40.729Z</time>
      </trkpt>
      <trkpt lat="47.31418" lon="16.46249">
        <ele>350.119034</ele>
        <time>2022-09-28T11:21:42.734Z</time>
      </trkpt>
      <trkpt lat="47.31424" lon="16.46265">
        <ele>350.056488</ele>
        <time>2022-09-28T11:21:44.773Z</time>
      </trkpt>
      <trkpt lat="47.31429" lon="16.46281">
        <ele>349.995019</ele>
        <time>2022-09-28T11:21:46.737Z</time>
      </trkpt>
      <trkpt lat="47.31434" lon="16.46297">
        <ele>350.003135</ele>
        <time>2022-09-28T11:21:48.729Z</time>
      </trkpt>
      <trkpt lat="47.31439" lon="16.46313">
        <ele>350.088765</ele>
        <time>2022-09-28T11:21:50.705Z</time>
      </trkpt>
      <trkpt lat="47.31444" lon="16.46329">
        <ele>350.174469</ele>
        <time>2022-09-28T11:21:52.735Z</time>
      </trkpt>
      <trkpt lat="47.31449" lon="16.46344">
        <ele>350.258465</ele>
        <time>2022-09-28T11:21:54.733Z</time>
      </trkpt>
      <trkpt lat="47.31454" lon="16.4636">
        <ele>350.341281</ele>
        <time>2022-09-28T11:21:56.738Z</time>
      </trkpt>
      <trkpt lat="47.31458" lon="16.46374">
        <ele>350.418472</ele>
        <time>2022-09-28T11:21:58.739Z</time>
      </trkpt>
      <trkpt lat="47.31463" lon="16.46387">
        <ele>350.488888</ele>
        <time>2022-09-28T11:22:00.724Z</time>
      </trkpt>
      <trkpt lat="47.31467" lon="16.464">
        <ele>350.556488</ele>
        <time>2022-09-28T11:22:02.721Z</time>
      </trkpt>
      <trkpt lat="47.31473" lon="16.46417">
        <ele>350.650328</ele>
        <time>2022-09-28T11:22:05.713Z</time>
      </trkpt>
      <trkpt lat="47.31478" lon="16.46434">
        <ele>350.738756</ele>
        <time>2022-09-28T11:22:08.735Z</time>
      </trkpt>
      <trkpt lat="47.31483" lon="16.4645">
        <ele>350.828702</ele>
        <time>2022-09-28T11:22:11.777Z</time>
      </trkpt>
      <trkpt lat="47.31489" lon="16.46467">
        <ele>350.919085</ele>
        <time>2022-09-28T11:22:14.717Z</time>
      </trkpt>
      <trkpt lat="47.31494" lon="16.46483">
        <ele>351.006342</ele>
        <time>2022-09-28T11:22:17.772Z</time>
      </trkpt>
      <trkpt lat="47.31499" lon="16.46499">
        <ele>351.091405</ele>
        <time>2022-09-28T11:22:20.725Z</time>
      </trkpt>
      <trkpt lat="47.31504" lon="16.46515">
        <ele>351.178222</ele>
        <time>2022-09-28T11:22:23.737Z</time>
      </trkpt>
      <trkpt lat="47.3151" lon="16.4653">
        <ele>351.278902</ele>
        <time>2022-09-28T11:22:26.726Z</time>
      </trkpt>
      <trkpt lat="47.31515" lon="16.46546">
        <ele>351.514454</ele>
        <time>2022-09-28T11:22:29.737Z</time>
      </trkpt>
      <trkpt lat="47.3152" lon="16.46562">
        <ele>351.753346</ele>
        <time>2022-09-28T11:22:32.744Z</time>
      </trkpt>
      <trkpt lat="47.31525" lon="16.46578">
        <ele>351.995931</ele>
        <time>2022-09-28T11:22:35.717Z</time>
      </trkpt>
      <trkpt lat="47.3153" lon="16.46593">
        <ele>352.228401</ele>
        <time>2022-09-28T11:22:38.738Z</time>
      </trkpt>
      <trkpt lat="47.31536" lon="16.46608">
        <ele>352.471887</ele>
        <time>2022-09-28T11:22:41.726Z</time>
      </trkpt>
      <trkpt lat="47.31542" lon="16.46624">
        <ele>352.708174</ele>
        <time>2022-09-28T11:22:44.708Z</time>
      </trkpt>
      <trkpt lat="47.31547" lon="16.46639">
        <ele>352.937594</ele>
        <time>2022-09-28T11:22:47.720Z</time>
      </trkpt>
      <trkpt lat="47.31552" lon="16.46652">
        <ele>353.154643</ele>
        <time>2022-09-28T11:22:50.764Z</time>
      </trkpt>
      <trkpt lat="47.31557" lon="16.46666">
        <ele>353.372673</ele>
        <time>2022-09-28T11:22:53.734Z</time>
      </trkpt>
      <trkpt lat="47.31563" lon="16.4668">
        <ele>353.595074</ele>
        <time>2022-09-28T11:22:56.724Z</time>
      </trkpt>
      <trkpt lat="47.31568" lon="16.46694">
        <ele>353.816133</ele>
        <time>2022-09-28T11:22:59.735Z</time>
      </trkpt>
      <trkpt lat="47.31574" lon="16.46707">
        <ele>354.025739</ele>
        <time>2022-09-28T11:23:02.733Z</time>
      </trkpt>
      <trkpt lat="47.31579" lon="16.46721">
        <ele>354.237468</ele>
        <time>2022-09-28T11:23:05.720Z</time>
      </trkpt>
      <trkpt lat="47.31585" lon="16.46734">
        <ele>354.445183</ele>
        <time>2022-09-28T11:23:08.731Z</time>
      </trkpt>
      <trkpt lat="47.31589" lon="16.46747">
        <ele>354.654536</ele>
        <time>2022-09-28T11:23:11.715Z</time>
      </trkpt>
      <trkpt lat="47.31595" lon="16.4676">
        <ele>354.858697</ele>
        <time>2022-09-28T11:23:14.732Z</time>
      </trkpt>
      <trkpt lat="47.31599" lon="16.46773">
        <ele>355.122893</ele>
        <time>2022-09-28T11:23:17.728Z</time>
      </trkpt>
      <trkpt lat="47.31604" lon="16.46787">
        <ele>355.409327</ele>
        <time>2022-09-28T11:23:20.739Z</time>
      </trkpt>
      <trkpt lat="47.31609" lon="16.46802">
        <ele>355.709143</ele>
        <time>2022-09-28T11:23:23.719Z</time>
      </trkpt>
      <trkpt lat="47.31614" lon="16.46818">
        <ele>356.017679</ele>
        <time>2022-09-28T11:23:26.708Z</time>
      </trkpt>
      <trkpt lat="47.31619" lon="16.46832">
        <ele>356.316826</ele>
        <time>2022-09-28T11:23:29.732Z</time>
      </trkpt>
      <trkpt lat="47.31623" lon="16.46846">
        <ele>356.593843</ele>
        <time>2022-09-28T11:23:32.720Z</time>
      </trkpt>
      <trkpt lat="47.31627" lon="16.4686">
        <ele>356.867682</ele>
        <time>2022-09-28T11:23:35.723Z</time>
      </trkpt>
      <trkpt lat="47.31631" lon="16.46874">
        <ele>357.143036</ele>
        <time>2022-09-28T11:23:38.820Z</time>
      </trkpt>
      <trkpt lat="47.31635" lon="16.46887">
        <ele>357.416235</ele>
        <time>2022-09-28T11:23:41.737Z</time>
      </trkpt>
      <trkpt lat="47.31639" lon="16.469">
        <ele>357.676106</ele>
        <time>2022-09-28T11:23:44.784Z</time>
      </trkpt>
      <trkpt lat="47.31644" lon="16.46913">
        <ele>357.923554</ele>
        <time>2022-09-28T11:23:47.736Z</time>
      </trkpt>
      <trkpt lat="47.31649" lon="16.46928">
        <ele>358.240952</ele>
        <time>2022-09-28T11:23:51.720Z</time>
      </trkpt>
      <trkpt lat="47.31654" lon="16.46943">
        <ele>358.544387</ele>
        <time>2022-09-28T11:23:55.730Z</time>
      </trkpt>
      <trkpt lat="47.31659" lon="16.46957">
        <ele>358.828358</ele>
        <time>2022-09-28T11:23:59.768Z</time>
      </trkpt>
      <trkpt lat="47.31665" lon="16.46971">
        <ele>359.139137</ele>
        <time>2022-09-28T11:24:03.733Z</time>
      </trkpt>
      <trkpt lat="47.31672" lon="16.46985">
        <ele>359.451022</ele>
        <time>2022-09-28T11:24:07.741Z</time>
      </trkpt>
      <trkpt lat="47.31678" lon="16.46999">
        <ele>359.744058</ele>
        <time>2022-09-28T11:24:11.729Z</time>
      </trkpt>
      <trkpt lat="47.31684" lon="16.47011">
        <ele>359.943913</ele>
        <time>2022-09-28T11:24:14.719Z</time>
      </trkpt>
      <trkpt lat="47.3169" lon="16.47024">
        <ele>360.153815</ele>
        <time>2022-09-28T11:24:17.731Z</time>
      </trkpt>
      <trkpt lat="47.31695" lon="16.47037">
        <ele>360.359228</ele>
        <time>2022-09-28T11:24:20.747Z</time>
      </trkpt>
      <trkpt lat="47.31701" lon="16.47049">
        <ele>360.562394</ele>
        <time>2022-09-28T11:24:23.726Z</time>
      </trkpt>
      <trkpt lat="47.31707" lon="16.4706">
        <ele>360.75214</ele>
        <time>2022-09-28T11:24:26.724Z</time>
      </trkpt>
      <trkpt lat="47.31712" lon="16.47071">
        <ele>360.933995</ele>
        <time>2022-09-28T11:24:29.715Z</time>
      </trkpt>
      <trkpt lat="47.31718" lon="16.47084">
        <ele>361.14054</ele>
        <time>2022-09-28T11:24:34.733Z</time>
      </trkpt>
      <trkpt lat="47.31723" lon="16.47097">
        <ele>361.341738</ele>
        <time>2022-09-28T11:24:37.727Z</time>
      </trkpt>
      <trkpt lat="47.31728" lon="16.47111">
        <ele>361.566862</ele>
        <time>2022-09-28T11:24:40.723Z</time>
      </trkpt>
      <trkpt lat="47.31734" lon="16.47127">
        <ele>361.815049</ele>
        <time>2022-09-28T11:24:43.726Z</time>
      </trkpt>
      <trkpt lat="47.31739" lon="16.47142">
        <ele>362.040845</ele>
        <time>2022-09-28T11:24:46.738Z</time>
      </trkpt>
      <trkpt lat="47.31743" lon="16.47156">
        <ele>362.23757</ele>
        <time>2022-09-28T11:24:49.733Z</time>
      </trkpt>
      <trkpt lat="47.31746" lon="16.47169">
        <ele>362.428951</ele>
        <time>2022-09-28T11:24:52.697Z</time>
      </trkpt>
      <trkpt lat="47.31749" lon="16.47184">
        <ele>362.642851</ele>
        <time>2022-09-28T11:24:55.734Z</time>
      </trkpt>
      <trkpt lat="47.31751" lon="16.47201">
        <ele>362.867289</ele>
        <time>2022-09-28T11:24:58.798Z</time>
      </trkpt>
      <trkpt lat="47.31754" lon="16.47217">
        <ele>363.090835</ele>
        <time>2022-09-28T11:25:01.741Z</time>
      </trkpt>
      <trkpt lat="47.31756" lon="16.47232">
        <ele>363.306003</ele>
        <time>2022-09-28T11:25:04.724Z</time>
      </trkpt>
      <trkpt lat="47.31759" lon="16.47248">
        <ele>363.102019</ele>
        <time>2022-09-28T11:25:07.714Z</time>
      </trkpt>
      <trkpt lat="47.31762" lon="16.47263">
        <ele>362.891942</ele>
        <time>2022-09-28T11:25:10.721Z</time>
      </trkpt>
      <trkpt lat="47.31765" lon="16.47278">
        <ele>362.679704</ele>
        <time>2022-09-28T11:25:13.759Z</time>
      </trkpt>
      <trkpt lat="47.31769" lon="16.47294">
        <ele>362.459352</ele>
        <time>2022-09-28T11:25:16.738Z</time>
      </trkpt>
      <trkpt lat="47.31773" lon="16.4731">
        <ele>362.236442</ele>
        <time>2022-09-28T11:25:19.737Z</time>
      </trkpt>
      <trkpt lat="47.31777" lon="16.47325">
        <ele>362.015576</ele>
        <time>2022-09-28T11:25:22.725Z</time>
      </trkpt>
      <trkpt lat="47.31782" lon="16.4734">
        <ele>361.799574</ele>
        <time>2022-09-28T11:25:25.734Z</time>
      </trkpt>
      <trkpt lat="47.31787" lon="16.47356">
        <ele>361.56905</ele>
        <time>2022-09-28T11:25:28.728Z</time>
      </trkpt>
      <trkpt lat="47.31793" lon="16.47371">
        <ele>361.347215</ele>
        <time>2022-09-28T11:25:31.717Z</time>
      </trkpt>
      <trkpt lat="47.31799" lon="16.47386">
        <ele>361.121687</ele>
        <time>2022-09-28T11:25:34.726Z</time>
      </trkpt>
      <trkpt lat="47.31805" lon="16.47399">
        <ele>360.907249</ele>
        <time>2022-09-28T11:25:37.723Z</time>
      </trkpt>
      <trkpt lat="47.31811" lon="16.47413">
        <ele>360.697238</ele>
        <time>2022-09-28T11:25:40.717Z</time>
      </trkpt>
      <trkpt lat="47.31816" lon="16.47425">
        <ele>360.501387</ele>
        <time>2022-09-28T11:25:43.729Z</time>
      </trkpt>
      <trkpt lat="47.31822" lon="16.47436">
        <ele>360.31748</ele>
        <time>2022-09-28T11:25:46.730Z</time>
      </trkpt>
      <trkpt lat="47.31828" lon="16.47448">
        <ele>360.125822</ele>
        <time>2022-09-28T11:25:49.737Z</time>
      </trkpt>
      <trkpt lat="47.31834" lon="16.4746">
        <ele>359.927781</ele>
        <time>2022-09-28T11:25:52.725Z</time>
      </trkpt>
      <trkpt lat="47.3184" lon="16.47474">
        <ele>359.952269</ele>
        <time>2022-09-28T11:25:55.738Z</time>
      </trkpt>
      <trkpt lat="47.31846" lon="16.47487">
        <ele>360.209757</ele>
        <time>2022-09-28T11:25:58.746Z</time>
      </trkpt>
      <trkpt lat="47.31853" lon="16.475">
        <ele>360.464561</ele>
        <time>2022-09-28T11:26:01.732Z</time>
      </trkpt>
      <trkpt lat="47.31859" lon="16.47513">
        <ele>360.728548</ele>
        <time>2022-09-28T11:26:04.723Z</time>
      </trkpt>
      <trkpt lat="47.31865" lon="16.47526">
        <ele>360.983252</ele>
        <time>2022-09-28T11:26:07.735Z</time>
      </trkpt>
      <trkpt lat="47.31871" lon="16.47539">
        <ele>361.223377</ele>
        <time>2022-09-28T11:26:10.736Z</time>
      </trkpt>
      <trkpt lat="47.31876" lon="16.47551">
        <ele>361.454254</ele>
        <time>2022-09-28T11:26:13.733Z</time>
      </trkpt>
      <trkpt lat="47.31881" lon="16.47563">
        <ele>361.682505</ele>
        <time>2022-09-28T11:26:16.726Z</time>
      </trkpt>
      <trkpt lat="47.31887" lon="16.47574">
        <ele>361.909359</ele>
        <time>2022-09-28T11:26:19.748Z</time>
      </trkpt>
      <trkpt lat="47.31892" lon="16.47586">
        <ele>362.13094</ele>
        <time>2022-09-28T11:26:22.734Z</time>
      </trkpt>
      <trkpt lat="47.31897" lon="16.47598">
        <ele>362.353816</ele>
        <time>2022-09-28T11:26:25.728Z</time>
      </trkpt>
      <trkpt lat="47.31902" lon="16.47609">
        <ele>362.575353</ele>
        <time>2022-09-28T11:26:28.733Z</time>
      </trkpt>
      <trkpt lat="47.31907" lon="16.47621">
        <ele>362.798492</ele>
        <time>2022-09-28T11:26:31.740Z</time>
      </trkpt>
      <trkpt lat="47.31914" lon="16.47635">
        <ele>363.078397</ele>
        <time>2022-09-28T11:26:35.730Z</time>
      </trkpt>
      <trkpt lat="47.3192" lon="16.4765">
        <ele>363.36236</ele>
        <time>2022-09-28T11:26:39.737Z</time>
      </trkpt>
      <trkpt lat="47.31926" lon="16.47662">
        <ele>363.586558</ele>
        <time>2022-09-28T11:26:42.729Z</time>
      </trkpt>
      <trkpt lat="47.31931" lon="16.47674">
        <ele>363.817404</ele>
        <time>2022-09-28T11:26:45.734Z</time>
      </trkpt>
      <trkpt lat="47.31937" lon="16.47685">
        <ele>364.045571</ele>
        <time>2022-09-28T11:26:48.741Z</time>
      </trkpt>
      <trkpt lat="47.31942" lon="16.47697">
        <ele>364.202141</ele>
        <time>2022-09-28T11:26:51.726Z</time>
      </trkpt>
      <trkpt lat="47.31948" lon="16.4771">
        <ele>364.350775</ele>
        <time>2022-09-28T11:26:54.722Z</time>
      </trkpt>
      <trkpt lat="47.31953" lon="16.47722">
        <ele>364.49694</ele>
        <time>2022-09-28T11:26:57.724Z</time>
      </trkpt>
      <trkpt lat="47.31958" lon="16.47734">
        <ele>364.640851</ele>
        <time>2022-09-28T11:27:00.732Z</time>
      </trkpt>
      <trkpt lat="47.31962" lon="16.47747">
        <ele>364.790566</ele>
        <time>2022-09-28T11:27:03.766Z</time>
      </trkpt>
      <trkpt lat="47.31967" lon="16.47761">
        <ele>364.945312</ele>
        <time>2022-09-28T11:27:06.729Z</time>
      </trkpt>
      <trkpt lat="47.31971" lon="16.47774">
        <ele>365.089667</ele>
        <time>2022-09-28T11:27:09.725Z</time>
      </trkpt>
      <trkpt lat="47.31975" lon="16.47787">
        <ele>365.238044</ele>
        <time>2022-09-28T11:27:12.739Z</time>
      </trkpt>
      <trkpt lat="47.3198" lon="16.47802">
        <ele>365.394323</ele>
        <time>2022-09-28T11:27:15.724Z</time>
      </trkpt>
      <trkpt lat="47.31984" lon="16.47815">
        <ele>365.539251</ele>
        <time>2022-09-28T11:27:18.731Z</time>
      </trkpt>
      <trkpt lat="47.31987" lon="16.47827">
        <ele>365.675674</ele>
        <time>2022-09-28T11:27:21.767Z</time>
      </trkpt>
      <trkpt lat="47.31992" lon="16.47842">
        <ele>365.842983</ele>
        <time>2022-09-28T11:27:25.776Z</time>
      </trkpt>
      <trkpt lat="47.31995" lon="16.47856">
        <ele>365.987441</ele>
        <time>2022-09-28T11:27:28.722Z</time>
      </trkpt>
      <trkpt lat="47.31999" lon="16.47869">
        <ele>366.132689</ele>
        <time>2022-09-28T11:27:31.723Z</time>
      </trkpt>
      <trkpt lat="47.32003" lon="16.47882">
        <ele>366.274581</ele>
        <time>2022-09-28T11:27:34.729Z</time>
      </trkpt>
      <trkpt lat="47.32007" lon="16.47894">
        <ele>366.411554</ele>
        <time>2022-09-28T11:27:37.733Z</time>
      </trkpt>
      <trkpt lat="47.32011" lon="16.47906">
        <ele>366.549742</ele>
        <time>2022-09-28T11:27:40.723Z</time>
      </trkpt>
      <trkpt lat="47.32015" lon="16.47919">
        <ele>366.696311</ele>
        <time>2022-09-28T11:27:43.726Z</time>
      </trkpt>
      <trkpt lat="47.32019" lon="16.47932">
        <ele>366.866004</ele>
        <time>2022-09-28T11:27:46.730Z</time>
      </trkpt>
      <trkpt lat="47.32024" lon="16.47948">
        <ele>367.082652</ele>
        <time>2022-09-28T11:27:50.737Z</time>
      </trkpt>
      <trkpt lat="47.32028" lon="16.4796">
        <ele>367.254475</ele>
        <time>2022-09-28T11:27:53.740Z</time>
      </trkpt>
      <trkpt lat="47.32033" lon="16.47972">
        <ele>367.429454</ele>
        <time>2022-09-28T11:27:56.737Z</time>
      </trkpt>
      <trkpt lat="47.32037" lon="16.47988">
        <ele>367.657025</ele>
        <time>2022-09-28T11:28:00.733Z</time>
      </trkpt>
      <trkpt lat="47.32043" lon="16.48003">
        <ele>367.879633</ele>
        <time>2022-09-28T11:28:04.720Z</time>
      </trkpt>
      <trkpt lat="47.32047" lon="16.48019">
        <ele>368.095849</ele>
        <time>2022-09-28T11:28:08.722Z</time>
      </trkpt>
      <trkpt lat="47.32052" lon="16.48034">
        <ele>368.316365</ele>
        <time>2022-09-28T11:28:12.747Z</time>
      </trkpt>
      <trkpt lat="47.32056" lon="16.48049">
        <ele>368.526241</ele>
        <time>2022-09-28T11:28:16.732Z</time>
      </trkpt>
      <trkpt lat="47.3206" lon="16.48065">
        <ele>368.734714</ele>
        <time>2022-09-28T11:28:20.756Z</time>
      </trkpt>
      <trkpt lat="47.32063" lon="16.48081">
        <ele>368.951385</ele>
        <time>2022-09-28T11:28:24.727Z</time>
      </trkpt>
      <trkpt lat="47.32066" lon="16.48097">
        <ele>369.163105</ele>
        <time>2022-09-28T11:28:28.734Z</time>
      </trkpt>
      <trkpt lat="47.32068" lon="16.4811">
        <ele>369.336043</ele>
        <time>2022-09-28T11:28:31.769Z</time>
      </trkpt>
      <trkpt lat="47.3207" lon="16.48124">
        <ele>369.517713</ele>
        <time>2022-09-28T11:28:34.723Z</time>
      </trkpt>
      <trkpt lat="47.32073" lon="16.48137">
        <ele>369.70282</ele>
        <time>2022-09-28T11:28:37.732Z</time>
      </trkpt>
      <trkpt lat="47.32075" lon="16.4815">
        <ele>369.877284</ele>
        <time>2022-09-28T11:28:40.762Z</time>
      </trkpt>
      <trkpt lat="47.32078" lon="16.48164">
        <ele>370.060795</ele>
        <time>2022-09-28T11:28:43.737Z</time>
      </trkpt>
      <trkpt lat="47.32081" lon="16.48178">
        <ele>370.161731</ele>
        <time>2022-09-28T11:28:46.728Z</time>
      </trkpt>
      <trkpt lat="47.32085" lon="16.48194">
        <ele>370.151644</ele>
        <time>2022-09-28T11:28:50.727Z</time>
      </trkpt>
      <trkpt lat="47.32089" lon="16.48211">
        <ele>370.141555</ele>
        <time>2022-09-28T11:28:54.720Z</time>
      </trkpt>
      <trkpt lat="47.32092" lon="16.48227">
        <ele>370.131492</ele>
        <time>2022-09-28T11:28:58.746Z</time>
      </trkpt>
      <trkpt lat="47.32095" lon="16.48243">
        <ele>370.121813</ele>
        <time>2022-09-28T11:29:02.728Z</time>
      </trkpt>
      <trkpt lat="47.32098" lon="16.48259">
        <ele>370.112005</ele>
        <time>2022-09-28T11:29:06.734Z</time>
      </trkpt>
      <trkpt lat="47.32102" lon="16.48276">
        <ele>370.102159</ele>
        <time>2022-09-28T11:29:10.725Z</time>
      </trkpt>
      <trkpt lat="47.32104" lon="16.48292">
        <ele>370.092299</ele>
        <time>2022-09-28T11:29:14.726Z</time>
      </trkpt>
      <trkpt lat="47.32106" lon="16.48309">
        <ele>370.08231</ele>
        <time>2022-09-28T11:29:18.729Z</time>
      </trkpt>
      <trkpt lat="47.32107" lon="16.48326">
        <ele>370.072188</ele>
        <time>2022-09-28T11:29:22.729Z</time>
      </trkpt>
      <trkpt lat="47.32106" lon="16.48342">
        <ele>370.062865</ele>
        <time>2022-09-28T11:29:25.738Z</time>
      </trkpt>
      <trkpt lat="47.32105" lon="16.48361">
        <ele>370.052121</ele>
        <time>2022-09-28T11:29:28.749Z</time>
      </trkpt>
      <trkpt lat="47.32103" lon="16.48375">
        <ele>370.043737</ele>
        <time>2022-09-28T11:29:30.739Z</time>
      </trkpt>
      <trkpt lat="47.32101" lon="16.48391">
        <ele>370.034426</ele>
        <time>2022-09-28T11:29:32.722Z</time>
      </trkpt>
      <trkpt lat="47.32098" lon="16.48406">
        <ele>370.024955</ele>
        <time>2022-09-28T11:29:34.736Z</time>
      </trkpt>
      <trkpt lat="47.32095" lon="16.48422">
        <ele>370.015437</ele>
        <time>2022-09-28T11:29:36.733Z</time>
      </trkpt>
      <trkpt lat="47.32091" lon="16.48438">
        <ele>369.90959</ele>
        <time>2022-09-28T11:29:38.723Z</time>
      </trkpt>
      <trkpt lat="47.32087" lon="16.48455">
        <ele>369.716667</ele>
        <time>2022-09-28T11:29:40.743Z</time>
      </trkpt>
      <trkpt lat="47.32082" lon="16.4847">
        <ele>369.525696</ele>
        <time>2022-09-28T11:29:42.732Z</time>
      </trkpt>
      <trkpt lat="47.32075" lon="16.48487">
        <ele>369.316235</ele>
        <time>2022-09-28T11:29:44.718Z</time>
      </trkpt>
      <trkpt lat="47.32067" lon="16.48503">
        <ele>369.105091</ele>
        <time>2022-09-28T11:29:46.717Z</time>
      </trkpt>
      <trkpt lat="47.32059" lon="16.48517">
        <ele>368.8999</ele>
        <time>2022-09-28T11:29:48.733Z</time>
      </trkpt>
      <trkpt lat="47.32051" lon="16.48532">
        <ele>368.694569</ele>
        <time>2022-09-28T11:29:50.725Z</time>
      </trkpt>
      <trkpt lat="47.32043" lon="16.48547">
        <ele>368.49489</ele>
        <time>2022-09-28T11:29:52.746Z</time>
      </trkpt>
      <trkpt lat="47.32036" lon="16.4856">
        <ele>368.307707</ele>
        <time>2022-09-28T11:29:54.715Z</time>
      </trkpt>
      <trkpt lat="47.3203" lon="16.48574">
        <ele>368.124461</ele>
        <time>2022-09-28T11:29:56.716Z</time>
      </trkpt>
      <trkpt lat="47.32023" lon="16.48587">
        <ele>367.949302</ele>
        <time>2022-09-28T11:29:58.714Z</time>
      </trkpt>
      <trkpt lat="47.32017" lon="16.48601">
        <ele>367.76787</ele>
        <time>2022-09-28T11:30:00.739Z</time>
      </trkpt>
      <trkpt lat="47.32011" lon="16.48615">
        <ele>367.585442</ele>
        <time>2022-09-28T11:30:02.725Z</time>
      </trkpt>
      <trkpt lat="47.32005" lon="16.48629">
        <ele>367.412082</ele>
        <time>2022-09-28T11:30:04.728Z</time>
      </trkpt>
      <trkpt lat="47.32002" lon="16.48644">
        <ele>367.24512</ele>
        <time>2022-09-28T11:30:06.710Z</time>
      </trkpt>
      <trkpt lat="47.31999" lon="16.48658">
        <ele>367.211705</ele>
        <time>2022-09-28T11:30:08.757Z</time>
      </trkpt>
      <trkpt lat="47.31994" lon="16.48673">
        <ele>367.512793</ele>
        <time>2022-09-28T11:30:11.747Z</time>
      </trkpt>
      <trkpt lat="47.31992" lon="16.4869">
        <ele>367.801478</ele>
        <time>2022-09-28T11:30:15.715Z</time>
      </trkpt>
      <trkpt lat="47.31999" lon="16.48701">
        <ele>368.072433</ele>
        <time>2022-09-28T11:30:19.713Z</time>
      </trkpt>
      <trkpt lat="47.32008" lon="16.48707">
        <ele>368.331613</ele>
        <time>2022-09-28T11:30:22.715Z</time>
      </trkpt>
      <trkpt lat="47.32018" lon="16.48713">
        <ele>368.598606</ele>
        <time>2022-09-28T11:30:25.745Z</time>
      </trkpt>
      <trkpt lat="47.32026" lon="16.48721">
        <ele>368.84522</ele>
        <time>2022-09-28T11:30:28.731Z</time>
      </trkpt>
      <trkpt lat="47.32035" lon="16.48731">
        <ele>369.143588</ele>
        <time>2022-09-28T11:30:32.723Z</time>
      </trkpt>
      <trkpt lat="47.32043" lon="16.48739">
        <ele>369.391898</ele>
        <time>2022-09-28T11:30:35.734Z</time>
      </trkpt>
      <trkpt lat="47.32053" lon="16.48749">
        <ele>369.699929</ele>
        <time>2022-09-28T11:30:39.732Z</time>
      </trkpt>
      <trkpt lat="47.32061" lon="16.4876">
        <ele>370.000883</ele>
        <time>2022-09-28T11:30:43.693Z</time>
      </trkpt>
      <trkpt lat="47.3207" lon="16.4877">
        <ele>370.294105</ele>
        <time>2022-09-28T11:30:47.734Z</time>
      </trkpt>
      <trkpt lat="47.32079" lon="16.4878">
        <ele>370.573833</ele>
        <time>2022-09-28T11:30:51.733Z</time>
      </trkpt>
      <trkpt lat="47.32088" lon="16.4879">
        <ele>370.880573</ele>
        <time>2022-09-28T11:30:55.722Z</time>
      </trkpt>
      <trkpt lat="47.32096" lon="16.48798">
        <ele>371.138312</ele>
        <time>2022-09-28T11:30:58.738Z</time>
      </trkpt>
      <trkpt lat="47.32104" lon="16.48806">
        <ele>371.378079</ele>
        <time>2022-09-28T11:31:01.737Z</time>
      </trkpt>
      <trkpt lat="47.32112" lon="16.48813">
        <ele>371.627258</ele>
        <time>2022-09-28T11:31:04.718Z</time>
      </trkpt>
      <trkpt lat="47.3212" lon="16.48821">
        <ele>371.823432</ele>
        <time>2022-09-28T11:31:07.746Z</time>
      </trkpt>
      <trkpt lat="47.32129" lon="16.48827">
        <ele>371.864216</ele>
        <time>2022-09-28T11:31:10.715Z</time>
      </trkpt>
      <trkpt lat="47.32137" lon="16.48833">
        <ele>371.905245</ele>
        <time>2022-09-28T11:31:13.727Z</time>
      </trkpt>
      <trkpt lat="47.32145" lon="16.48839">
        <ele>371.946418</ele>
        <time>2022-09-28T11:31:16.725Z</time>
      </trkpt>
      <trkpt lat="47.32156" lon="16.48847">
        <ele>371.999282</ele>
        <time>2022-09-28T11:31:20.737Z</time>
      </trkpt>
      <trkpt lat="47.32164" lon="16.48853">
        <ele>372.039522</ele>
        <time>2022-09-28T11:31:23.729Z</time>
      </trkpt>
      <trkpt lat="47.32173" lon="16.48859">
        <ele>372.08082</ele>
        <time>2022-09-28T11:31:26.728Z</time>
      </trkpt>
      <trkpt lat="47.32182" lon="16.48865">
        <ele>372.125012</ele>
        <time>2022-09-28T11:31:29.765Z</time>
      </trkpt>
      <trkpt lat="47.32192" lon="16.48873">
        <ele>372.175115</ele>
        <time>2022-09-28T11:31:33.758Z</time>
      </trkpt>
      <trkpt lat="47.32203" lon="16.4888">
        <ele>372.228913</ele>
        <time>2022-09-28T11:31:37.794Z</time>
      </trkpt>
      <trkpt lat="47.32212" lon="16.48886">
        <ele>372.269547</ele>
        <time>2022-09-28T11:31:40.720Z</time>
      </trkpt>
      <trkpt lat="47.3222" lon="16.48892">
        <ele>372.310754</ele>
        <time>2022-09-28T11:31:43.730Z</time>
      </trkpt>
      <trkpt lat="47.32229" lon="16.48897">
        <ele>372.352319</ele>
        <time>2022-09-28T11:31:46.731Z</time>
      </trkpt>
      <trkpt lat="47.32238" lon="16.48903">
        <ele>372.396367</ele>
        <time>2022-09-28T11:31:49.713Z</time>
      </trkpt>
      <trkpt lat="47.32248" lon="16.48908">
        <ele>372.440305</ele>
        <time>2022-09-28T11:31:52.728Z</time>
      </trkpt>
      <trkpt lat="47.32257" lon="16.48913">
        <ele>372.483821</ele>
        <time>2022-09-28T11:31:55.730Z</time>
      </trkpt>
      <trkpt lat="47.32266" lon="16.48918">
        <ele>372.525088</ele>
        <time>2022-09-28T11:31:58.722Z</time>
      </trkpt>
      <trkpt lat="47.32276" lon="16.48925">
        <ele>372.576144</ele>
        <time>2022-09-28T11:32:02.746Z</time>
      </trkpt>
      <trkpt lat="47.32286" lon="16.48933">
        <ele>372.690253</ele>
        <time>2022-09-28T11:32:06.729Z</time>
      </trkpt>
      <trkpt lat="47.32296" lon="16.4894">
        <ele>372.871361</ele>
        <time>2022-09-28T11:32:10.731Z</time>
      </trkpt>
      <trkpt lat="47.32305" lon="16.48948">
        <ele>373.037286</ele>
        <time>2022-09-28T11:32:14.733Z</time>
      </trkpt>
      <trkpt lat="47.32314" lon="16.48956">
        <ele>373.209907</ele>
        <time>2022-09-28T11:32:18.725Z</time>
      </trkpt>
      <trkpt lat="47.32323" lon="16.48964">
        <ele>373.375081</ele>
        <time>2022-09-28T11:32:22.730Z</time>
      </trkpt>
      <trkpt lat="47.32331" lon="16.48973">
        <ele>373.53859</ele>
        <time>2022-09-28T11:32:26.732Z</time>
      </trkpt>
      <trkpt lat="47.32339" lon="16.48981">
        <ele>373.696234</ele>
        <time>2022-09-28T11:32:30.772Z</time>
      </trkpt>
      <trkpt lat="47.32347" lon="16.4899">
        <ele>373.860441</ele>
        <time>2022-09-28T11:32:34.722Z</time>
      </trkpt>
      <trkpt lat="47.32356" lon="16.48999">
        <ele>374.029149</ele>
        <time>2022-09-28T11:32:38.733Z</time>
      </trkpt>
      <trkpt lat="47.32365" lon="16.49008">
        <ele>374.207417</ele>
        <time>2022-09-28T11:32:42.733Z</time>
      </trkpt>
      <trkpt lat="47.32374" lon="16.49016">
        <ele>374.379822</ele>
        <time>2022-09-28T11:32:46.718Z</time>
      </trkpt>
      <trkpt lat="47.32383" lon="16.49024">
        <ele>374.556192</ele>
        <time>2022-09-28T11:32:50.725Z</time>
      </trkpt>
      <trkpt lat="47.32394" lon="16.49031">
        <ele>374.743174</ele>
        <time>2022-09-28T11:32:54.793Z</time>
      </trkpt>
      <trkpt lat="47.32403" lon="16.49039">
        <ele>374.919176</ele>
        <time>2022-09-28T11:32:58.755Z</time>
      </trkpt>
      <trkpt lat="47.32412" lon="16.49047">
        <ele>375.084248</ele>
        <time>2022-09-28T11:33:02.736Z</time>
      </trkpt>
      <trkpt lat="47.32422" lon="16.49055">
        <ele>375.265497</ele>
        <time>2022-09-28T11:33:06.714Z</time>
      </trkpt>
      <trkpt lat="47.32431" lon="16.49063">
        <ele>375.440888</ele>
        <time>2022-09-28T11:33:10.714Z</time>
      </trkpt>
      <trkpt lat="47.3244" lon="16.49071">
        <ele>375.824538</ele>
        <time>2022-09-28T11:33:14.724Z</time>
      </trkpt>
      <trkpt lat="47.3245" lon="16.4908">
        <ele>376.39616</ele>
        <time>2022-09-28T11:33:18.737Z</time>
      </trkpt>
      <trkpt lat="47.32459" lon="16.49089">
        <ele>376.96948</ele>
        <time>2022-09-28T11:33:22.720Z</time>
      </trkpt>
      <trkpt lat="47.32466" lon="16.49102">
        <ele>377.502402</ele>
        <time>2022-09-28T11:33:27.732Z</time>
      </trkpt>
      <trkpt lat="47.32466" lon="16.49116">
        <ele>377.978418</ele>
        <time>2022-09-28T11:33:31.761Z</time>
      </trkpt>
      <trkpt lat="47.32465" lon="16.49129">
        <ele>378.44396</ele>
        <time>2022-09-28T11:33:35.732Z</time>
      </trkpt>
      <trkpt lat="47.32464" lon="16.49143">
        <ele>378.905523</ele>
        <time>2022-09-28T11:33:39.734Z</time>
      </trkpt>
      <trkpt lat="47.32463" lon="16.49159">
        <ele>379.472278</ele>
        <time>2022-09-28T11:33:44.722Z</time>
      </trkpt>
      <trkpt lat="47.32463" lon="16.49173">
        <ele>379.944872</ele>
        <time>2022-09-28T11:33:48.718Z</time>
      </trkpt>
      <trkpt lat="47.32463" lon="16.49188">
        <ele>380.455245</ele>
        <time>2022-09-28T11:33:52.714Z</time>
      </trkpt>
      <trkpt lat="47.32464" lon="16.49202">
        <ele>380.936729</ele>
        <time>2022-09-28T11:33:56.726Z</time>
      </trkpt>
      <trkpt lat="47.32464" lon="16.49216">
        <ele>381.403052</ele>
        <time>2022-09-28T11:34:00.728Z</time>
      </trkpt>
      <trkpt lat="47.32465" lon="16.49229">
        <ele>381.862537</ele>
        <time>2022-09-28T11:34:04.738Z</time>
      </trkpt>
      <trkpt lat="47.32466" lon="16.49242">
        <ele>382.323103</ele>
        <time>2022-09-28T11:34:08.726Z</time>
      </trkpt>
      <trkpt lat="47.32466" lon="16.49258">
        <ele>382.850467</ele>
        <time>2022-09-28T11:34:12.726Z</time>
      </trkpt>
      <trkpt lat="47.32466" lon="16.49272">
        <ele>383.347022</ele>
        <time>2022-09-28T11:34:16.748Z</time>
      </trkpt>
      <trkpt lat="47.32465" lon="16.49287">
        <ele>383.860817</ele>
        <time>2022-09-28T11:34:20.734Z</time>
      </trkpt>
      <trkpt lat="47.32465" lon="16.49301">
        <ele>384.336833</ele>
        <time>2022-09-28T11:34:24.740Z</time>
      </trkpt>
      <trkpt lat="47.32466" lon="16.49317">
        <ele>384.778375</ele>
        <time>2022-09-28T11:34:29.727Z</time>
      </trkpt>
      <trkpt lat="47.32466" lon="16.49333">
        <ele>385.102046</ele>
        <time>2022-09-28T11:34:33.711Z</time>
      </trkpt>
      <trkpt lat="47.32467" lon="16.49347">
        <ele>385.392144</ele>
        <time>2022-09-28T11:34:37.721Z</time>
      </trkpt>
      <trkpt lat="47.32468" lon="16.49363">
        <ele>385.722465</ele>
        <time>2022-09-28T11:34:42.738Z</time>
      </trkpt>
      <trkpt lat="47.32468" lon="16.49377">
        <ele>386.023216</ele>
        <time>2022-09-28T11:34:47.764Z</time>
      </trkpt>
      <trkpt lat="47.3247" lon="16.49392">
        <ele>386.32279</ele>
        <time>2022-09-28T11:34:52.726Z</time>
      </trkpt>
      <trkpt lat="47.32472" lon="16.49406">
        <ele>386.628529</ele>
        <time>2022-09-28T11:34:57.720Z</time>
      </trkpt>
      <trkpt lat="47.32477" lon="16.49421">
        <ele>386.967609</ele>
        <time>2022-09-28T11:35:02.726Z</time>
      </trkpt>
      <trkpt lat="47.32482" lon="16.49434">
        <ele>387.276553</ele>
        <time>2022-09-28T11:35:07.742Z</time>
      </trkpt>
      <trkpt lat="47.32488" lon="16.49446">
        <ele>387.587283</ele>
        <time>2022-09-28T11:35:13.735Z</time>
      </trkpt>
      <trkpt lat="47.32495" lon="16.49457">
        <ele>387.904754</ele>
        <time>2022-09-28T11:35:19.718Z</time>
      </trkpt>
      <trkpt lat="47.32502" lon="16.49469">
        <ele>388.231752</ele>
        <time>2022-09-28T11:35:25.732Z</time>
      </trkpt>
      <trkpt lat="47.32508" lon="16.4948">
        <ele>388.521607</ele>
        <time>2022-09-28T11:35:30.739Z</time>
      </trkpt>
      <trkpt lat="47.32515" lon="16.49491">
        <ele>388.822163</ele>
        <time>2022-09-28T11:35:35.730Z</time>
      </trkpt>
      <trkpt lat="47.32521" lon="16.49502">
        <ele>389.128849</ele>
        <time>2022-09-28T11:35:40.729Z</time>
      </trkpt>
      <trkpt lat="47.32528" lon="16.49513">
        <ele>389.440104</ele>
        <time>2022-09-28T11:35:46.740Z</time>
      </trkpt>
      <trkpt lat="47.32534" lon="16.49524">
        <ele>389.718919</ele>
        <time>2022-09-28T11:35:50.721Z</time>
      </trkpt>
      <trkpt lat="47.32541" lon="16.49536">
        <ele>390.064027</ele>
        <time>2022-09-28T11:35:55.764Z</time>
      </trkpt>
      <trkpt lat="47.32548" lon="16.49547">
        <ele>390.007298</ele>
        <time>2022-09-28T11:36:00.746Z</time>
      </trkpt>
      <trkpt lat="47.32554" lon="16.49558">
        <ele>389.914632</ele>
        <time>2022-09-28T11:36:04.718Z</time>
      </trkpt>
      <trkpt lat="47.3256" lon="16.49572">
        <ele>389.813698</ele>
        <time>2022-09-28T11:36:08.745Z</time>
      </trkpt>
      <trkpt lat="47.32566" lon="16.49586">
        <ele>389.70906</ele>
        <time>2022-09-28T11:36:12.736Z</time>
      </trkpt>
      <trkpt lat="47.32572" lon="16.496">
        <ele>389.603218</ele>
        <time>2022-09-28T11:36:16.728Z</time>
      </trkpt>
      <trkpt lat="47.32576" lon="16.49612">
        <ele>389.513031</ele>
        <time>2022-09-28T11:36:19.738Z</time>
      </trkpt>
      <trkpt lat="47.3258" lon="16.49625">
        <ele>389.423597</ele>
        <time>2022-09-28T11:36:22.729Z</time>
      </trkpt>
      <trkpt lat="47.32585" lon="16.49638">
        <ele>389.331461</ele>
        <time>2022-09-28T11:36:25.735Z</time>
      </trkpt>
      <trkpt lat="47.3259" lon="16.49651">
        <ele>389.233869</ele>
        <time>2022-09-28T11:36:28.773Z</time>
      </trkpt>
      <trkpt lat="47.32594" lon="16.49664">
        <ele>389.141873</ele>
        <time>2022-09-28T11:36:31.716Z</time>
      </trkpt>
      <trkpt lat="47.32599" lon="16.49677">
        <ele>389.050306</ele>
        <time>2022-09-28T11:36:34.738Z</time>
      </trkpt>
      <trkpt lat="47.32603" lon="16.49689">
        <ele>388.961133</ele>
        <time>2022-09-28T11:36:37.717Z</time>
      </trkpt>
      <trkpt lat="47.32607" lon="16.49701">
        <ele>388.876442</ele>
        <time>2022-09-28T11:36:40.726Z</time>
      </trkpt>
      <trkpt lat="47.32611" lon="16.49717">
        <ele>388.770237</ele>
        <time>2022-09-28T11:36:44.740Z</time>
      </trkpt>
      <trkpt lat="47.32615" lon="16.49729">
        <ele>388.683712</ele>
        <time>2022-09-28T11:36:47.738Z</time>
      </trkpt>
      <trkpt lat="47.32619" lon="16.49745">
        <ele>388.573648</ele>
        <time>2022-09-28T11:36:51.732Z</time>
      </trkpt>
      <trkpt lat="47.32623" lon="16.49759">
        <ele>388.478481</ele>
        <time>2022-09-28T11:36:55.733Z</time>
      </trkpt>
      <trkpt lat="47.32627" lon="16.49771">
        <ele>388.439609</ele>
        <time>2022-09-28T11:36:58.727Z</time>
      </trkpt>
      <trkpt lat="47.32632" lon="16.49786">
        <ele>388.813128</ele>
        <time>2022-09-28T11:37:02.731Z</time>
      </trkpt>
      <trkpt lat="47.32637" lon="16.49797">
        <ele>389.129119</ele>
        <time>2022-09-28T11:37:06.722Z</time>
      </trkpt>
      <trkpt lat="47.32642" lon="16.4981">
        <ele>389.45831</ele>
        <time>2022-09-28T11:37:10.737Z</time>
      </trkpt>
      <trkpt lat="47.32647" lon="16.49824">
        <ele>389.842002</ele>
        <time>2022-09-28T11:37:15.739Z</time>
      </trkpt>
      <trkpt lat="47.32653" lon="16.49836">
        <ele>390.182127</ele>
        <time>2022-09-28T11:37:19.729Z</time>
      </trkpt>
      <trkpt lat="47.32658" lon="16.49851">
        <ele>390.571233</ele>
        <time>2022-09-28T11:37:24.730Z</time>
      </trkpt>
      <trkpt lat="47.32664" lon="16.49864">
        <ele>390.938858</ele>
        <time>2022-09-28T11:37:29.737Z</time>
      </trkpt>
      <trkpt lat="47.32669" lon="16.49878">
        <ele>391.307053</ele>
        <time>2022-09-28T11:37:34.767Z</time>
      </trkpt>
      <trkpt lat="47.32673" lon="16.4989">
        <ele>391.619003</ele>
        <time>2022-09-28T11:37:38.731Z</time>
      </trkpt>
      <trkpt lat="47.32678" lon="16.49902">
        <ele>391.940455</ele>
        <time>2022-09-28T11:37:42.726Z</time>
      </trkpt>
      <trkpt lat="47.32683" lon="16.49914">
        <ele>392.253964</ele>
        <time>2022-09-28T11:37:46.727Z</time>
      </trkpt>
      <trkpt lat="47.32688" lon="16.49925">
        <ele>392.569105</ele>
        <time>2022-09-28T11:37:50.751Z</time>
      </trkpt>
      <trkpt lat="47.32693" lon="16.49937">
        <ele>392.909289</ele>
        <time>2022-09-28T11:37:54.721Z</time>
      </trkpt>
      <trkpt lat="47.32699" lon="16.49948">
        <ele>393.220576</ele>
        <time>2022-09-28T11:37:57.742Z</time>
      </trkpt>
      <trkpt lat="47.32705" lon="16.49961">
        <ele>393.583797</ele>
        <time>2022-09-28T11:38:00.721Z</time>
      </trkpt>
      <trkpt lat="47.3271" lon="16.49974">
        <ele>393.93953</ele>
        <time>2022-09-28T11:38:03.733Z</time>
      </trkpt>
      <trkpt lat="47.32716" lon="16.49987">
        <ele>394.30275</ele>
        <time>2022-09-28T11:38:06.727Z</time>
      </trkpt>
      <trkpt lat="47.32722" lon="16.5">
        <ele>394.560858</ele>
        <time>2022-09-28T11:38:09.726Z</time>
      </trkpt>
      <trkpt lat="47.32728" lon="16.50013">
        <ele>394.563308</ele>
        <time>2022-09-28T11:38:12.772Z</time>
      </trkpt>
      <trkpt lat="47.32734" lon="16.50027">
        <ele>394.566019</ele>
        <time>2022-09-28T11:38:15.725Z</time>
      </trkpt>
      <trkpt lat="47.32743" lon="16.50042">
        <ele>394.568998</ele>
        <time>2022-09-28T11:38:18.733Z</time>
      </trkpt>
      <trkpt lat="47.32749" lon="16.50052">
        <ele>394.57112</ele>
        <time>2022-09-28T11:38:20.728Z</time>
      </trkpt>
      <trkpt lat="47.32756" lon="16.50063">
        <ele>394.573444</ele>
        <time>2022-09-28T11:38:22.729Z</time>
      </trkpt>
      <trkpt lat="47.32764" lon="16.50074">
        <ele>394.576019</ele>
        <time>2022-09-28T11:38:24.725Z</time>
      </trkpt>
      <trkpt lat="47.32774" lon="16.50085">
        <ele>394.578827</ele>
        <time>2022-09-28T11:38:26.725Z</time>
      </trkpt>
      <trkpt lat="47.32784" lon="16.50096">
        <ele>394.581729</ele>
        <time>2022-09-28T11:38:28.726Z</time>
      </trkpt>
      <trkpt lat="47.32793" lon="16.50108">
        <ele>394.584712</ele>
        <time>2022-09-28T11:38:30.720Z</time>
      </trkpt>
      <trkpt lat="47.32804" lon="16.50123">
        <ele>394.587992</ele>
        <time>2022-09-28T11:38:32.738Z</time>
      </trkpt>
      <trkpt lat="47.32815" lon="16.50138">
        <ele>394.591463</ele>
        <time>2022-09-28T11:38:34.753Z</time>
      </trkpt>
      <trkpt lat="47.32826" lon="16.50155">
        <ele>394.595301</ele>
        <time>2022-09-28T11:38:36.727Z</time>
      </trkpt>
      <trkpt lat="47.32839" lon="16.50174">
        <ele>394.59943</ele>
        <time>2022-09-28T11:38:38.710Z</time>
      </trkpt>
      <trkpt lat="47.32852" lon="16.50192">
        <ele>394.356741</ele>
        <time>2022-09-28T11:38:40.737Z</time>
      </trkpt>
      <trkpt lat="47.32859" lon="16.50202">
        <ele>394.080187</ele>
        <time>2022-09-28T11:38:41.720Z</time>
      </trkpt>
      <trkpt lat="47.32866" lon="16.5021">
        <ele>393.799771</ele>
        <time>2022-09-28T11:38:42.724Z</time>
      </trkpt>
      <trkpt lat="47.32874" lon="16.50218">
        <ele>393.521964</ele>
        <time>2022-09-28T11:38:43.713Z</time>
      </trkpt>
      <trkpt lat="47.32882" lon="16.50226">
        <ele>393.228988</ele>
        <time>2022-09-28T11:38:44.728Z</time>
      </trkpt>
      <trkpt lat="47.32891" lon="16.50233">
        <ele>392.93091</ele>
        <time>2022-09-28T11:38:45.719Z</time>
      </trkpt>
      <trkpt lat="47.329" lon="16.5024">
        <ele>392.63148</ele>
        <time>2022-09-28T11:38:46.717Z</time>
      </trkpt>
      <trkpt lat="47.32909" lon="16.50245">
        <ele>392.327791</ele>
        <time>2022-09-28T11:38:47.718Z</time>
      </trkpt>
      <trkpt lat="47.32919" lon="16.50251">
        <ele>392.018699</ele>
        <time>2022-09-28T11:38:48.737Z</time>
      </trkpt>
      <trkpt lat="47.32928" lon="16.50255">
        <ele>391.727772</ele>
        <time>2022-09-28T11:38:49.722Z</time>
      </trkpt>
      <trkpt lat="47.32937" lon="16.5026">
        <ele>391.450122</ele>
        <time>2022-09-28T11:38:50.722Z</time>
      </trkpt>
      <trkpt lat="47.32946" lon="16.50264">
        <ele>391.177455</ele>
        <time>2022-09-28T11:38:51.753Z</time>
      </trkpt>
      <trkpt lat="47.32954" lon="16.50269">
        <ele>390.909942</ele>
        <time>2022-09-28T11:38:52.732Z</time>
      </trkpt>
      <trkpt lat="47.32968" lon="16.50284">
        <ele>390.392924</ele>
        <time>2022-09-28T11:38:54.732Z</time>
      </trkpt>
      <trkpt lat="47.32979" lon="16.50304">
        <ele>389.889144</ele>
        <time>2022-09-28T11:38:56.727Z</time>
      </trkpt>
      <trkpt lat="47.32985" lon="16.50326">
        <ele>389.387125</ele>
        <time>2022-09-28T11:38:58.728Z</time>
      </trkpt>
      <trkpt lat="47.32989" lon="16.5035">
        <ele>389.116768</ele>
        <time>2022-09-28T11:39:00.731Z</time>
      </trkpt>
      <trkpt lat="47.32991" lon="16.50373">
        <ele>388.960922</ele>
        <time>2022-09-28T11:39:02.753Z</time>
      </trkpt>
      <trkpt lat="47.32993" lon="16.50394">
        <ele>388.820437</ele>
        <time>2022-09-28T11:39:04.730Z</time>
      </trkpt>
      <trkpt lat="47.32995" lon="16.50413">
        <ele>388.692577</ele>
        <time>2022-09-28T11:39:06.721Z</time>
      </trkpt>
      <trkpt lat="47.32998" lon="16.5043">
        <ele>388.576843</ele>
        <time>2022-09-28T11:39:08.714Z</time>
      </trkpt>
      <trkpt lat="47.33001" lon="16.50445">
        <ele>388.476055</ele>
        <time>2022-09-28T11:39:10.721Z</time>
      </trkpt>
      <trkpt lat="47.33006" lon="16.50462">
        <ele>388.353985</ele>
        <time>2022-09-28T11:39:13.740Z</time>
      </trkpt>
      <trkpt lat="47.33009" lon="16.50476">
        <ele>388.255672</ele>
        <time>2022-09-28T11:39:16.722Z</time>
      </trkpt>
      <trkpt lat="47.33013" lon="16.50489">
        <ele>388.161156</ele>
        <time>2022-09-28T11:39:19.755Z</time>
      </trkpt>
      <trkpt lat="47.33017" lon="16.50504">
        <ele>388.054302</ele>
        <time>2022-09-28T11:39:23.721Z</time>
      </trkpt>
      <trkpt lat="47.33022" lon="16.50517">
        <ele>387.956418</ele>
        <time>2022-09-28T11:39:27.737Z</time>
      </trkpt>
      <trkpt lat="47.33026" lon="16.50529">
        <ele>387.865566</ele>
        <time>2022-09-28T11:39:31.730Z</time>
      </trkpt>
      <trkpt lat="47.33032" lon="16.50542">
        <ele>387.76845</ele>
        <time>2022-09-28T11:39:35.713Z</time>
      </trkpt>
      <trkpt lat="47.33037" lon="16.50554">
        <ele>387.672929</ele>
        <time>2022-09-28T11:39:39.731Z</time>
      </trkpt>
      <trkpt lat="47.33042" lon="16.50567">
        <ele>387.572429</ele>
        <time>2022-09-28T11:39:43.734Z</time>
      </trkpt>
      <trkpt lat="47.33048" lon="16.50581">
        <ele>387.483174</ele>
        <time>2022-09-28T11:39:47.750Z</time>
      </trkpt>
      <trkpt lat="47.33055" lon="16.50595">
        <ele>387.722666</ele>
        <time>2022-09-28T11:39:51.715Z</time>
      </trkpt>
      <trkpt lat="47.3306" lon="16.50607">
        <ele>387.913345</ele>
        <time>2022-09-28T11:39:54.720Z</time>
      </trkpt>
      <trkpt lat="47.33066" lon="16.50619">
        <ele>388.122181</ele>
        <time>2022-09-28T11:39:57.730Z</time>
      </trkpt>
      <trkpt lat="47.33072" lon="16.50632">
        <ele>388.332178</ele>
        <time>2022-09-28T11:40:00.722Z</time>
      </trkpt>
      <trkpt lat="47.33079" lon="16.50643">
        <ele>388.537471</ele>
        <time>2022-09-28T11:40:03.726Z</time>
      </trkpt>
      <trkpt lat="47.33086" lon="16.50656">
        <ele>388.767693</ele>
        <time>2022-09-28T11:40:06.713Z</time>
      </trkpt>
      <trkpt lat="47.33094" lon="16.50669">
        <ele>389.014578</ele>
        <time>2022-09-28T11:40:09.724Z</time>
      </trkpt>
      <trkpt lat="47.33103" lon="16.50683">
        <ele>389.275993</ele>
        <time>2022-09-28T11:40:12.730Z</time>
      </trkpt>
      <trkpt lat="47.33112" lon="16.50698">
        <ele>389.539443</ele>
        <time>2022-09-28T11:40:15.762Z</time>
      </trkpt>
      <trkpt lat="47.33118" lon="16.50707">
        <ele>389.722642</ele>
        <time>2022-09-28T11:40:17.723Z</time>
      </trkpt>
      <trkpt lat="47.33127" lon="16.50722">
        <ele>389.991564</ele>
        <time>2022-09-28T11:40:20.713Z</time>
      </trkpt>
      <trkpt lat="47.33136" lon="16.50735">
        <ele>390.251334</ele>
        <time>2022-09-28T11:40:23.720Z</time>
      </trkpt>
      <trkpt lat="47.33145" lon="16.5075">
        <ele>390.519257</ele>
        <time>2022-09-28T11:40:26.737Z</time>
      </trkpt>
      <trkpt lat="47.33155" lon="16.50763">
        <ele>390.783764</ele>
        <time>2022-09-28T11:40:29.724Z</time>
      </trkpt>
      <trkpt lat="47.33165" lon="16.50775">
        <ele>391.056167</ele>
        <time>2022-09-28T11:40:32.736Z</time>
      </trkpt>
      <trkpt lat="47.33173" lon="16.50785">
        <ele>390.995506</ele>
        <time>2022-09-28T11:40:34.728Z</time>
      </trkpt>
      <trkpt lat="47.33182" lon="16.50795">
        <ele>390.841021</ele>
        <time>2022-09-28T11:40:36.733Z</time>
      </trkpt>
      <trkpt lat="47.3319" lon="16.50805">
        <ele>390.678192</ele>
        <time>2022-09-28T11:40:38.728Z</time>
      </trkpt>
      <trkpt lat="47.332" lon="16.50817">
        <ele>390.492883</ele>
        <time>2022-09-28T11:40:40.718Z</time>
      </trkpt>
      <trkpt lat="47.3321" lon="16.50829">
        <ele>390.307067</ele>
        <time>2022-09-28T11:40:42.718Z</time>
      </trkpt>
      <trkpt lat="47.33221" lon="16.50842">
        <ele>390.109207</ele>
        <time>2022-09-28T11:40:44.720Z</time>
      </trkpt>
      <trkpt lat="47.33232" lon="16.50856">
        <ele>389.906967</ele>
        <time>2022-09-28T11:40:46.750Z</time>
      </trkpt>
      <trkpt lat="47.33243" lon="16.5087">
        <ele>389.691517</ele>
        <time>2022-09-28T11:40:48.760Z</time>
      </trkpt>
      <trkpt lat="47.33255" lon="16.50885">
        <ele>389.467599</ele>
        <time>2022-09-28T11:40:50.726Z</time>
      </trkpt>
      <trkpt lat="47.33268" lon="16.50901">
        <ele>389.224065</ele>
        <time>2022-09-28T11:40:52.723Z</time>
      </trkpt>
      <trkpt lat="47.33282" lon="16.50918">
        <ele>388.962633</ele>
        <time>2022-09-28T11:40:54.726Z</time>
      </trkpt>
      <trkpt lat="47.33295" lon="16.50934">
        <ele>388.717658</ele>
        <time>2022-09-28T11:40:56.739Z</time>
      </trkpt>
      <trkpt lat="47.33307" lon="16.50949">
        <ele>388.466975</ele>
        <time>2022-09-28T11:40:58.725Z</time>
      </trkpt>
      <trkpt lat="47.33319" lon="16.50963">
        <ele>388.003872</ele>
        <time>2022-09-28T11:41:00.729Z</time>
      </trkpt>
      <trkpt lat="47.33331" lon="16.50979">
        <ele>387.501755</ele>
        <time>2022-09-28T11:41:02.725Z</time>
      </trkpt>
      <trkpt lat="47.33344" lon="16.50997">
        <ele>386.955804</ele>
        <time>2022-09-28T11:41:04.728Z</time>
      </trkpt>
      <trkpt lat="47.33351" lon="16.51007">
        <ele>386.665309</ele>
        <time>2022-09-28T11:41:05.729Z</time>
      </trkpt>
      <trkpt lat="47.33358" lon="16.51018">
        <ele>386.35299</ele>
        <time>2022-09-28T11:41:06.724Z</time>
      </trkpt>
      <trkpt lat="47.33365" lon="16.51029">
        <ele>386.028038</ele>
        <time>2022-09-28T11:41:07.720Z</time>
      </trkpt>
      <trkpt lat="47.33372" lon="16.51042">
        <ele>385.68692</ele>
        <time>2022-09-28T11:41:08.726Z</time>
      </trkpt>
      <trkpt lat="47.33379" lon="16.51056">
        <ele>385.332902</ele>
        <time>2022-09-28T11:41:09.763Z</time>
      </trkpt>
      <trkpt lat="47.33384" lon="16.51071">
        <ele>384.989925</ele>
        <time>2022-09-28T11:41:10.757Z</time>
      </trkpt>
      <trkpt lat="47.33389" lon="16.51085">
        <ele>384.66258</ele>
        <time>2022-09-28T11:41:11.716Z</time>
      </trkpt>
      <trkpt lat="47.33394" lon="16.51099">
        <ele>384.344878</ele>
        <time>2022-09-28T11:41:12.720Z</time>
      </trkpt>
      <trkpt lat="47.33398" lon="16.51113">
        <ele>384.032366</ele>
        <time>2022-09-28T11:41:13.737Z</time>
      </trkpt>
      <trkpt lat="47.33402" lon="16.51126">
        <ele>383.714135</ele>
        <time>2022-09-28T11:41:14.738Z</time>
      </trkpt>
      <trkpt lat="47.33406" lon="16.5114">
        <ele>383.412866</ele>
        <time>2022-09-28T11:41:15.722Z</time>
      </trkpt>
      <trkpt lat="47.3341" lon="16.51153">
        <ele>383.110383</ele>
        <time>2022-09-28T11:41:16.714Z</time>
      </trkpt>
      <trkpt lat="47.33414" lon="16.51167">
        <ele>382.529777</ele>
        <time>2022-09-28T11:41:17.727Z</time>
      </trkpt>
      <trkpt lat="47.33418" lon="16.5118">
        <ele>381.914656</ele>
        <time>2022-09-28T11:41:18.736Z</time>
      </trkpt>
      <trkpt lat="47.33421" lon="16.51192">
        <ele>381.324248</ele>
        <time>2022-09-28T11:41:19.736Z</time>
      </trkpt>
      <trkpt lat="47.33429" lon="16.51216">
        <ele>380.15189</ele>
        <time>2022-09-28T11:41:21.729Z</time>
      </trkpt>
      <trkpt lat="47.33432" lon="16.51229">
        <ele>379.529121</ele>
        <time>2022-09-28T11:41:22.720Z</time>
      </trkpt>
      <trkpt lat="47.33436" lon="16.51242">
        <ele>378.877657</ele>
        <time>2022-09-28T11:41:23.712Z</time>
      </trkpt>
      <trkpt lat="47.3344" lon="16.51256">
        <ele>378.203089</ele>
        <time>2022-09-28T11:41:24.712Z</time>
      </trkpt>
      <trkpt lat="47.33445" lon="16.51271">
        <ele>377.495071</ele>
        <time>2022-09-28T11:41:25.752Z</time>
      </trkpt>
      <trkpt lat="47.33449" lon="16.51286">
        <ele>376.765395</ele>
        <time>2022-09-28T11:41:26.761Z</time>
      </trkpt>
      <trkpt lat="47.33454" lon="16.513">
        <ele>376.03842</ele>
        <time>2022-09-28T11:41:27.735Z</time>
      </trkpt>
      <trkpt lat="47.33458" lon="16.51316">
        <ele>375.299214</ele>
        <time>2022-09-28T11:41:28.738Z</time>
      </trkpt>
      <trkpt lat="47.33463" lon="16.51331">
        <ele>374.546529</ele>
        <time>2022-09-28T11:41:29.736Z</time>
      </trkpt>
      <trkpt lat="47.33468" lon="16.51346">
        <ele>373.789547</ele>
        <time>2022-09-28T11:41:30.724Z</time>
      </trkpt>
      <trkpt lat="47.33473" lon="16.51362">
        <ele>373.017907</ele>
        <time>2022-09-28T11:41:31.750Z</time>
      </trkpt>
      <trkpt lat="47.33478" lon="16.51378">
        <ele>372.228662</ele>
        <time>2022-09-28T11:41:32.750Z</time>
      </trkpt>
      <trkpt lat="47.33483" lon="16.51393">
        <ele>371.469858</ele>
        <time>2022-09-28T11:41:33.724Z</time>
      </trkpt>
      <trkpt lat="47.33488" lon="16.51408">
        <ele>370.833181</ele>
        <time>2022-09-28T11:41:34.740Z</time>
      </trkpt>
      <trkpt lat="47.33493" lon="16.51421">
        <ele>370.283029</ele>
        <time>2022-09-28T11:41:35.727Z</time>
      </trkpt>
      <trkpt lat="47.33499" lon="16.51434">
        <ele>369.740447</ele>
        <time>2022-09-28T11:41:36.728Z</time>
      </trkpt>
      <trkpt lat="47.33506" lon="16.51445">
        <ele>369.214588</ele>
        <time>2022-09-28T11:41:37.741Z</time>
      </trkpt>
      <trkpt lat="47.3352" lon="16.51455">
        <ele>368.396766</ele>
        <time>2022-09-28T11:41:39.752Z</time>
      </trkpt>
      <trkpt lat="47.33529" lon="16.51458">
        <ele>367.912201</ele>
        <time>2022-09-28T11:41:40.757Z</time>
      </trkpt>
      <trkpt lat="47.33541" lon="16.51458">
        <ele>367.300549</ele>
        <time>2022-09-28T11:41:41.717Z</time>
      </trkpt>
      <trkpt lat="47.33552" lon="16.51456">
        <ele>366.731066</ele>
        <time>2022-09-28T11:41:42.727Z</time>
      </trkpt>
      <trkpt lat="47.33562" lon="16.51452">
        <ele>366.163979</ele>
        <time>2022-09-28T11:41:43.728Z</time>
      </trkpt>
      <trkpt lat="47.33572" lon="16.51448">
        <ele>365.618192</ele>
        <time>2022-09-28T11:41:44.751Z</time>
      </trkpt>
      <trkpt lat="47.33581" lon="16.51445">
        <ele>365.146028</ele>
        <time>2022-09-28T11:41:45.724Z</time>
      </trkpt>
      <trkpt lat="47.3359" lon="16.51443">
        <ele>364.671022</ele>
        <time>2022-09-28T11:41:46.725Z</time>
      </trkpt>
      <trkpt lat="47.33599" lon="16.5144">
        <ele>364.192899</ele>
        <time>2022-09-28T11:41:47.732Z</time>
      </trkpt>
      <trkpt lat="47.33616" lon="16.51437">
        <ele>363.278526</ele>
        <time>2022-09-28T11:41:49.742Z</time>
      </trkpt>
      <trkpt lat="47.33634" lon="16.51433">
        <ele>362.327941</ele>
        <time>2022-09-28T11:41:51.744Z</time>
      </trkpt>
      <trkpt lat="47.3365" lon="16.51429">
        <ele>361.482889</ele>
        <time>2022-09-28T11:41:53.737Z</time>
      </trkpt>
      <trkpt lat="47.3366" lon="16.51427">
        <ele>360.986276</ele>
        <time>2022-09-28T11:41:54.725Z</time>
      </trkpt>
      <trkpt lat="47.33669" lon="16.51426">
        <ele>360.498289</ele>
        <time>2022-09-28T11:41:55.722Z</time>
      </trkpt>
      <trkpt lat="47.33679" lon="16.51425">
        <ele>360.016686</ele>
        <time>2022-09-28T11:41:56.735Z</time>
      </trkpt>
      <trkpt lat="47.33688" lon="16.51426">
        <ele>359.508932</ele>
        <time>2022-09-28T11:41:57.733Z</time>
      </trkpt>
      <trkpt lat="47.33697" lon="16.51427">
        <ele>359.035446</ele>
        <time>2022-09-28T11:41:58.731Z</time>
      </trkpt>
      <trkpt lat="47.33707" lon="16.51429">
        <ele>358.559821</ele>
        <time>2022-09-28T11:41:59.726Z</time>
      </trkpt>
      <trkpt lat="47.33716" lon="16.51432">
        <ele>358.086518</ele>
        <time>2022-09-28T11:42:00.713Z</time>
      </trkpt>
      <trkpt lat="47.33732" lon="16.51437">
        <ele>357.199459</ele>
        <time>2022-09-28T11:42:02.726Z</time>
      </trkpt>
      <trkpt lat="47.33748" lon="16.51445">
        <ele>356.336129</ele>
        <time>2022-09-28T11:42:04.740Z</time>
      </trkpt>
      <trkpt lat="47.33764" lon="16.51452">
        <ele>355.494327</ele>
        <time>2022-09-28T11:42:06.708Z</time>
      </trkpt>
      <trkpt lat="47.33781" lon="16.51457">
        <ele>354.579523</ele>
        <time>2022-09-28T11:42:08.750Z</time>
      </trkpt>
      <trkpt lat="47.3379" lon="16.51458">
        <ele>354.096963</ele>
        <time>2022-09-28T11:42:09.703Z</time>
      </trkpt>
      <trkpt lat="47.338" lon="16.51457">
        <ele>353.589694</ele>
        <time>2022-09-28T11:42:10.739Z</time>
      </trkpt>
      <trkpt lat="47.3381" lon="16.51456">
        <ele>353.089726</ele>
        <time>2022-09-28T11:42:11.704Z</time>
      </trkpt>
      <trkpt lat="47.33819" lon="16.51453">
        <ele>352.590335</ele>
        <time>2022-09-28T11:42:12.718Z</time>
      </trkpt>
      <trkpt lat="47.33829" lon="16.5145">
        <ele>352.158404</ele>
        <time>2022-09-28T11:42:13.725Z</time>
      </trkpt>
      <trkpt lat="47.33838" lon="16.51447">
        <ele>351.767689</ele>
        <time>2022-09-28T11:42:14.753Z</time>
      </trkpt>
      <trkpt lat="47.33847" lon="16.51443">
        <ele>351.373583</ele>
        <time>2022-09-28T11:42:15.732Z</time>
      </trkpt>
      <trkpt lat="47.33856" lon="16.5144">
        <ele>350.987588</ele>
        <time>2022-09-28T11:42:16.715Z</time>
      </trkpt>
      <trkpt lat="47.33865" lon="16.51437">
        <ele>350.604268</ele>
        <time>2022-09-28T11:42:17.745Z</time>
      </trkpt>
      <trkpt lat="47.33882" lon="16.51432">
        <ele>349.87742</ele>
        <time>2022-09-28T11:42:19.728Z</time>
      </trkpt>
      <trkpt lat="47.33899" lon="16.51429">
        <ele>349.155599</ele>
        <time>2022-09-28T11:42:21.805Z</time>
      </trkpt>
      <trkpt lat="47.33916" lon="16.51431">
        <ele>348.449503</ele>
        <time>2022-09-28T11:42:23.717Z</time>
      </trkpt>
      <trkpt lat="47.33933" lon="16.51435">
        <ele>347.730821</ele>
        <time>2022-09-28T11:42:25.715Z</time>
      </trkpt>
      <trkpt lat="47.33949" lon="16.51439">
        <ele>347.06696</ele>
        <time>2022-09-28T11:42:27.735Z</time>
      </trkpt>
      <trkpt lat="47.33962" lon="16.51444">
        <ele>346.486619</ele>
        <time>2022-09-28T11:42:29.752Z</time>
      </trkpt>
      <trkpt lat="47.33975" lon="16.51451">
        <ele>345.937671</ele>
        <time>2022-09-28T11:42:31.732Z</time>
      </trkpt>
      <trkpt lat="47.33986" lon="16.51457">
        <ele>345.433775</ele>
        <time>2022-09-28T11:42:33.735Z</time>
      </trkpt>
      <trkpt lat="47.33996" lon="16.51465">
        <ele>344.995301</ele>
        <time>2022-09-28T11:42:35.729Z</time>
      </trkpt>
      <trkpt lat="47.34005" lon="16.51476">
        <ele>344.939931</ele>
        <time>2022-09-28T11:42:37.728Z</time>
      </trkpt>
      <trkpt lat="47.34011" lon="16.51488">
        <ele>344.891738</ele>
        <time>2022-09-28T11:42:39.721Z</time>
      </trkpt>
      <trkpt lat="47.34016" lon="16.515">
        <ele>344.842701</ele>
        <time>2022-09-28T11:42:41.770Z</time>
      </trkpt>
      <trkpt lat="47.3402" lon="16.51514">
        <ele>344.794257</ele>
        <time>2022-09-28T11:42:43.734Z</time>
      </trkpt>
      <trkpt lat="47.34022" lon="16.51529">
        <ele>344.744174</ele>
        <time>2022-09-28T11:42:45.732Z</time>
      </trkpt>
      <trkpt lat="47.34023" lon="16.51546">
        <ele>344.687871</ele>
        <time>2022-09-28T11:42:47.735Z</time>
      </trkpt>
      <trkpt lat="47.34024" lon="16.51565">
        <ele>344.624656</ele>
        <time>2022-09-28T11:42:49.741Z</time>
      </trkpt>
      <trkpt lat="47.34024" lon="16.51585">
        <ele>344.558787</ele>
        <time>2022-09-28T11:42:51.732Z</time>
      </trkpt>
      <trkpt lat="47.34025" lon="16.51606">
        <ele>344.490263</ele>
        <time>2022-09-28T11:42:53.724Z</time>
      </trkpt>
      <trkpt lat="47.34026" lon="16.51626">
        <ele>344.424293</ele>
        <time>2022-09-28T11:42:55.760Z</time>
      </trkpt>
      <trkpt lat="47.34028" lon="16.51646">
        <ele>344.358891</ele>
        <time>2022-09-28T11:42:57.783Z</time>
      </trkpt>
      <trkpt lat="47.34029" lon="16.51666">
        <ele>344.293715</ele>
        <time>2022-09-28T11:42:59.729Z</time>
      </trkpt>
      <trkpt lat="47.34031" lon="16.51686">
        <ele>344.225102</ele>
        <time>2022-09-28T11:43:01.771Z</time>
      </trkpt>
      <trkpt lat="47.34032" lon="16.51707">
        <ele>344.158476</ele>
        <time>2022-09-28T11:43:03.732Z</time>
      </trkpt>
      <trkpt lat="47.34033" lon="16.51726">
        <ele>344.143989</ele>
        <time>2022-09-28T11:43:05.720Z</time>
      </trkpt>
      <trkpt lat="47.34033" lon="16.51745">
        <ele>344.174914</ele>
        <time>2022-09-28T11:43:07.712Z</time>
      </trkpt>
      <trkpt lat="47.34034" lon="16.51765">
        <ele>344.206204</ele>
        <time>2022-09-28T11:43:09.729Z</time>
      </trkpt>
      <trkpt lat="47.34034" lon="16.51784">
        <ele>344.236501</ele>
        <time>2022-09-28T11:43:11.746Z</time>
      </trkpt>
      <trkpt lat="47.34035" lon="16.51803">
        <ele>344.265856</ele>
        <time>2022-09-28T11:43:13.724Z</time>
      </trkpt>
      <trkpt lat="47.34035" lon="16.5182">
        <ele>344.293769</ele>
        <time>2022-09-28T11:43:15.726Z</time>
      </trkpt>
      <trkpt lat="47.34035" lon="16.51837">
        <ele>344.320098</ele>
        <time>2022-09-28T11:43:17.709Z</time>
      </trkpt>
      <trkpt lat="47.34034" lon="16.51853">
        <ele>344.345483</ele>
        <time>2022-09-28T11:43:19.734Z</time>
      </trkpt>
      <trkpt lat="47.34034" lon="16.51868">
        <ele>344.369587</ele>
        <time>2022-09-28T11:43:21.717Z</time>
      </trkpt>
      <trkpt lat="47.34034" lon="16.51882">
        <ele>344.392111</ele>
        <time>2022-09-28T11:43:23.765Z</time>
      </trkpt>
      <trkpt lat="47.34036" lon="16.51901">
        <ele>344.422255</ele>
        <time>2022-09-28T11:43:26.718Z</time>
      </trkpt>
      <trkpt lat="47.34037" lon="16.51918">
        <ele>344.448965</ele>
        <time>2022-09-28T11:43:29.739Z</time>
      </trkpt>
      <trkpt lat="47.3404" lon="16.51932">
        <ele>344.472286</ele>
        <time>2022-09-28T11:43:32.731Z</time>
      </trkpt>
      <trkpt lat="47.34044" lon="16.51944">
        <ele>344.493877</ele>
        <time>2022-09-28T11:43:35.725Z</time>
      </trkpt>
      <trkpt lat="47.34052" lon="16.5195">
        <ele>344.515432</ele>
        <time>2022-09-28T11:43:39.760Z</time>
      </trkpt>
      <trkpt lat="47.34063" lon="16.51949">
        <ele>344.541434</ele>
        <time>2022-09-28T11:43:43.732Z</time>
      </trkpt>
      <trkpt lat="47.34073" lon="16.51947">
        <ele>344.852593</ele>
        <time>2022-09-28T11:43:47.719Z</time>
      </trkpt>
      <trkpt lat="47.34082" lon="16.51937">
        <ele>345.341494</ele>
        <time>2022-09-28T11:43:52.725Z</time>
      </trkpt>
      <trkpt lat="47.34092" lon="16.51933">
        <ele>345.78454</ele>
        <time>2022-09-28T11:43:56.746Z</time>
      </trkpt>
      <trkpt lat="47.34102" lon="16.51932">
        <ele>346.237245</ele>
        <time>2022-09-28T11:44:01.770Z</time>
      </trkpt>
      <trkpt lat="47.34114" lon="16.51937">
        <ele>346.788106</ele>
        <time>2022-09-28T11:47:31.721Z</time>
      </trkpt>
      <trkpt lat="47.34123" lon="16.51934">
        <ele>347.227794</ele>
        <time>2022-09-28T11:47:35.729Z</time>
      </trkpt>
      <trkpt lat="47.34133" lon="16.5193">
        <ele>347.690435</ele>
        <time>2022-09-28T11:47:39.703Z</time>
      </trkpt>
      <trkpt lat="47.34143" lon="16.51927">
        <ele>348.143635</ele>
        <time>2022-09-28T11:47:43.713Z</time>
      </trkpt>
      <trkpt lat="47.34152" lon="16.51925">
        <ele>348.54436</ele>
        <time>2022-09-28T11:47:47.719Z</time>
      </trkpt>
      <trkpt lat="47.34162" lon="16.51925">
        <ele>348.995851</ele>
        <time>2022-09-28T11:47:52.722Z</time>
      </trkpt>
      <trkpt lat="47.34172" lon="16.51923">
        <ele>349.441256</ele>
        <time>2022-09-28T11:47:57.739Z</time>
      </trkpt>
      <trkpt lat="47.34182" lon="16.51921">
        <ele>349.872998</ele>
        <time>2022-09-28T11:48:01.729Z</time>
      </trkpt>
      <trkpt lat="47.34191" lon="16.51919">
        <ele>350.278548</ele>
        <time>2022-09-28T11:48:05.731Z</time>
      </trkpt>
      <trkpt lat="47.342" lon="16.51916">
        <ele>350.689891</ele>
        <time>2022-09-28T11:48:09.727Z</time>
      </trkpt>
      <trkpt lat="47.3421" lon="16.51913">
        <ele>351.156167</ele>
        <time>2022-09-28T11:48:14.727Z</time>
      </trkpt>
      <trkpt lat="47.3422" lon="16.5191">
        <ele>351.631576</ele>
        <time>2022-09-28T11:48:19.733Z</time>
      </trkpt>
      <trkpt lat="47.3423" lon="16.51908">
        <ele>352.084981</ele>
        <time>2022-09-28T11:48:24.769Z</time>
      </trkpt>
      <trkpt lat="47.34239" lon="16.51905">
        <ele>352.493365</ele>
        <time>2022-09-28T11:48:30.744Z</time>
      </trkpt>
      <trkpt lat="47.34248" lon="16.51904">
        <ele>352.898358</ele>
        <time>2022-09-28T11:48:36.741Z</time>
      </trkpt>
      <trkpt lat="47.34259" lon="16.51902">
        <ele>353.360817</ele>
        <time>2022-09-28T11:48:42.751Z</time>
      </trkpt>
      <trkpt lat="47.34269" lon="16.51899">
        <ele>353.803435</ele>
        <time>2022-09-28T11:48:49.729Z</time>
      </trkpt>
      <trkpt lat="47.34279" lon="16.51898">
        <ele>354.236821</ele>
        <time>2022-09-28T11:48:56.736Z</time>
      </trkpt>
      <trkpt lat="47.34288" lon="16.51895">
        <ele>354.664452</ele>
        <time>2022-09-28T11:49:03.724Z</time>
      </trkpt>
      <trkpt lat="47.34297" lon="16.51891">
        <ele>355.085479</ele>
        <time>2022-09-28T11:49:09.716Z</time>
      </trkpt>
      <trkpt lat="47.34307" lon="16.51888">
        <ele>355.539276</ele>
        <time>2022-09-28T11:49:16.756Z</time>
      </trkpt>
      <trkpt lat="47.34316" lon="16.51884">
        <ele>355.956382</ele>
        <time>2022-09-28T11:49:22.725Z</time>
      </trkpt>
      <trkpt lat="47.34326" lon="16.51879">
        <ele>356.416563</ele>
        <time>2022-09-28T11:49:27.725Z</time>
      </trkpt>
      <trkpt lat="47.34335" lon="16.51875">
        <ele>356.831164</ele>
        <time>2022-09-28T11:49:32.740Z</time>
      </trkpt>
      <trkpt lat="47.34345" lon="16.51871">
        <ele>357.267689</ele>
        <time>2022-09-28T11:49:38.751Z</time>
      </trkpt>
      <trkpt lat="47.34355" lon="16.51867">
        <ele>357.724533</ele>
        <time>2022-09-28T11:49:44.727Z</time>
      </trkpt>
      <trkpt lat="47.34365" lon="16.51862">
        <ele>358.185593</ele>
        <time>2022-09-28T11:49:50.725Z</time>
      </trkpt>
      <trkpt lat="47.34373" lon="16.51856">
        <ele>358.583334</ele>
        <time>2022-09-28T11:49:56.730Z</time>
      </trkpt>
      <trkpt lat="47.34381" lon="16.51849">
        <ele>359.013945</ele>
        <time>2022-09-28T11:50:01.718Z</time>
      </trkpt>
      <trkpt lat="47.3439" lon="16.51839">
        <ele>359.479698</ele>
        <time>2022-09-28T11:50:07.717Z</time>
      </trkpt>
      <trkpt lat="47.34398" lon="16.51831">
        <ele>359.929982</ele>
        <time>2022-09-28T11:50:12.725Z</time>
      </trkpt>
      <trkpt lat="47.34407" lon="16.51823">
        <ele>360.374949</ele>
        <time>2022-09-28T11:50:16.723Z</time>
      </trkpt>
      <trkpt lat="47.34417" lon="16.51813">
        <ele>360.510175</ele>
        <time>2022-09-28T11:50:20.763Z</time>
      </trkpt>
      <trkpt lat="47.34427" lon="16.51807">
        <ele>360.526343</ele>
        <time>2022-09-28T11:50:24.739Z</time>
      </trkpt>
      <trkpt lat="47.34438" lon="16.518">
        <ele>360.542907</ele>
        <time>2022-09-28T11:50:28.713Z</time>
      </trkpt>
      <trkpt lat="47.3445" lon="16.51796">
        <ele>360.559618</ele>
        <time>2022-09-28T11:50:32.753Z</time>
      </trkpt>
      <trkpt lat="47.34461" lon="16.51792">
        <ele>360.575737</ele>
        <time>2022-09-28T11:50:36.726Z</time>
      </trkpt>
      <trkpt lat="47.34473" lon="16.51788">
        <ele>360.59277</ele>
        <time>2022-09-28T11:50:40.717Z</time>
      </trkpt>
      <trkpt lat="47.34482" lon="16.51786">
        <ele>360.606408</ele>
        <time>2022-09-28T11:50:43.756Z</time>
      </trkpt>
      <trkpt lat="47.34493" lon="16.51784">
        <ele>360.621062</ele>
        <time>2022-09-28T11:50:46.722Z</time>
      </trkpt>
      <trkpt lat="47.34502" lon="16.51782">
        <ele>360.634104</ele>
        <time>2022-09-28T11:50:49.707Z</time>
      </trkpt>
      <trkpt lat="47.34514" lon="16.5178">
        <ele>360.650952</ele>
        <time>2022-09-28T11:50:53.736Z</time>
      </trkpt>
      <trkpt lat="47.34526" lon="16.51779">
        <ele>360.667639</ele>
        <time>2022-09-28T11:50:57.741Z</time>
      </trkpt>
      <trkpt lat="47.34537" lon="16.51777">
        <ele>360.683487</ele>
        <time>2022-09-28T11:51:01.709Z</time>
      </trkpt>
      <trkpt lat="47.34546" lon="16.51775">
        <ele>360.696787</ele>
        <time>2022-09-28T11:51:04.710Z</time>
      </trkpt>
      <trkpt lat="47.34556" lon="16.51773">
        <ele>360.710761</ele>
        <time>2022-09-28T11:51:07.731Z</time>
      </trkpt>
      <trkpt lat="47.34567" lon="16.51771">
        <ele>360.726503</ele>
        <time>2022-09-28T11:51:11.730Z</time>
      </trkpt>
      <trkpt lat="47.34579" lon="16.51769">
        <ele>360.743233</ele>
        <time>2022-09-28T11:51:15.741Z</time>
      </trkpt>
      <trkpt lat="47.3459" lon="16.51766">
        <ele>360.727394</ele>
        <time>2022-09-28T11:51:19.721Z</time>
      </trkpt>
      <trkpt lat="47.34599" lon="16.51765">
        <ele>360.695224</ele>
        <time>2022-09-28T11:51:22.704Z</time>
      </trkpt>
      <trkpt lat="47.34611" lon="16.51765">
        <ele>360.652786</ele>
        <time>2022-09-28T11:51:26.740Z</time>
      </trkpt>
      <trkpt lat="47.34623" lon="16.51765">
        <ele>360.60999</ele>
        <time>2022-09-28T11:51:30.729Z</time>
      </trkpt>
      <trkpt lat="47.34635" lon="16.51764">
        <ele>360.569645</ele>
        <time>2022-09-28T11:51:34.706Z</time>
      </trkpt>
      <trkpt lat="47.34645" lon="16.51765">
        <ele>360.531118</ele>
        <time>2022-09-28T11:51:38.739Z</time>
      </trkpt>
      <trkpt lat="47.34657" lon="16.51765">
        <ele>360.491175</ele>
        <time>2022-09-28T11:51:42.749Z</time>
      </trkpt>
      <trkpt lat="47.34666" lon="16.51765">
        <ele>360.459078</ele>
        <time>2022-09-28T11:51:45.728Z</time>
      </trkpt>
      <trkpt lat="47.34678" lon="16.51765">
        <ele>360.415923</ele>
        <time>2022-09-28T11:51:49.758Z</time>
      </trkpt>
      <trkpt lat="47.34687" lon="16.51765">
        <ele>360.383114</ele>
        <time>2022-09-28T11:51:52.715Z</time>
      </trkpt>
      <trkpt lat="47.34699" lon="16.51765">
        <ele>360.341739</ele>
        <time>2022-09-28T11:51:56.728Z</time>
      </trkpt>
      <trkpt lat="47.3471" lon="16.51766">
        <ele>360.301761</ele>
        <time>2022-09-28T11:52:00.727Z</time>
      </trkpt>
      <trkpt lat="47.34722" lon="16.51767">
        <ele>360.259623</ele>
        <time>2022-09-28T11:52:04.723Z</time>
      </trkpt>
      <trkpt lat="47.34731" lon="16.51767">
        <ele>360.224304</ele>
        <time>2022-09-28T11:52:07.728Z</time>
      </trkpt>
      <trkpt lat="47.34742" lon="16.51768">
        <ele>360.187831</ele>
        <time>2022-09-28T11:52:10.724Z</time>
      </trkpt>
      <trkpt lat="47.34752" lon="16.5177">
        <ele>360.149831</ele>
        <time>2022-09-28T11:52:13.781Z</time>
      </trkpt>
      <trkpt lat="47.34761" lon="16.51772">
        <ele>360.117566</ele>
        <time>2022-09-28T11:52:15.726Z</time>
      </trkpt>
      <trkpt lat="47.3477" lon="16.51776">
        <ele>359.99357</ele>
        <time>2022-09-28T11:52:17.756Z</time>
      </trkpt>
      <trkpt lat="47.34781" lon="16.51784">
        <ele>359.785875</ele>
        <time>2022-09-28T11:52:20.732Z</time>
      </trkpt>
      <trkpt lat="47.34791" lon="16.51793">
        <ele>359.59076</ele>
        <time>2022-09-28T11:52:23.729Z</time>
      </trkpt>
      <trkpt lat="47.34799" lon="16.51802">
        <ele>359.411583</ele>
        <time>2022-09-28T11:52:26.727Z</time>
      </trkpt>
      <trkpt lat="47.34809" lon="16.51813">
        <ele>359.213841</ele>
        <time>2022-09-28T11:52:29.709Z</time>
      </trkpt>
      <trkpt lat="47.34819" lon="16.51824">
        <ele>358.991632</ele>
        <time>2022-09-28T11:52:32.735Z</time>
      </trkpt>
      <trkpt lat="47.34827" lon="16.51832">
        <ele>358.827346</ele>
        <time>2022-09-28T11:52:34.723Z</time>
      </trkpt>
      <trkpt lat="47.34837" lon="16.5184">
        <ele>358.644168</ele>
        <time>2022-09-28T11:52:36.741Z</time>
      </trkpt>
      <trkpt lat="47.34848" lon="16.51848">
        <ele>358.434325</ele>
        <time>2022-09-28T11:52:38.739Z</time>
      </trkpt>
      <trkpt lat="47.3486" lon="16.51859">
        <ele>358.191518</ele>
        <time>2022-09-28T11:52:40.722Z</time>
      </trkpt>
      <trkpt lat="47.34874" lon="16.51869">
        <ele>357.920477</ele>
        <time>2022-09-28T11:52:42.745Z</time>
      </trkpt>
      <trkpt lat="47.3489" lon="16.51881">
        <ele>357.62408</ele>
        <time>2022-09-28T11:52:44.724Z</time>
      </trkpt>
      <trkpt lat="47.34899" lon="16.51888">
        <ele>357.459977</ele>
        <time>2022-09-28T11:52:45.735Z</time>
      </trkpt>
      <trkpt lat="47.34907" lon="16.51894">
        <ele>357.292821</ele>
        <time>2022-09-28T11:52:46.720Z</time>
      </trkpt>
      <trkpt lat="47.34917" lon="16.51901">
        <ele>357.115041</ele>
        <time>2022-09-28T11:52:47.748Z</time>
      </trkpt>
      <trkpt lat="47.34926" lon="16.51908">
        <ele>356.822337</ele>
        <time>2022-09-28T11:52:48.747Z</time>
      </trkpt>
      <trkpt lat="47.34936" lon="16.51917">
        <ele>356.462839</ele>
        <time>2022-09-28T11:52:49.726Z</time>
      </trkpt>
      <trkpt lat="47.34945" lon="16.51926">
        <ele>356.099437</ele>
        <time>2022-09-28T11:52:50.767Z</time>
      </trkpt>
      <trkpt lat="47.34955" lon="16.51934">
        <ele>355.739939</ele>
        <time>2022-09-28T11:52:51.748Z</time>
      </trkpt>
      <trkpt lat="47.34964" lon="16.51943">
        <ele>355.380441</ele>
        <time>2022-09-28T11:52:52.724Z</time>
      </trkpt>
      <trkpt lat="47.34974" lon="16.51951">
        <ele>355.006463</ele>
        <time>2022-09-28T11:52:53.727Z</time>
      </trkpt>
      <trkpt lat="47.34984" lon="16.51961">
        <ele>354.610207</ele>
        <time>2022-09-28T11:52:54.737Z</time>
      </trkpt>
      <trkpt lat="47.34995" lon="16.51972">
        <ele>354.209033</ele>
        <time>2022-09-28T11:52:55.719Z</time>
      </trkpt>
      <trkpt lat="47.35005" lon="16.51982">
        <ele>353.798353</ele>
        <time>2022-09-28T11:52:56.726Z</time>
      </trkpt>
      <trkpt lat="47.35016" lon="16.51993">
        <ele>353.385246</ele>
        <time>2022-09-28T11:52:57.736Z</time>
      </trkpt>
      <trkpt lat="47.35026" lon="16.52003">
        <ele>352.97639</ele>
        <time>2022-09-28T11:52:58.724Z</time>
      </trkpt>
      <trkpt lat="47.35037" lon="16.52014">
        <ele>352.559719</ele>
        <time>2022-09-28T11:52:59.733Z</time>
      </trkpt>
      <trkpt lat="47.35047" lon="16.52025">
        <ele>352.146956</ele>
        <time>2022-09-28T11:53:00.733Z</time>
      </trkpt>
      <trkpt lat="47.35057" lon="16.52036">
        <ele>351.736716</ele>
        <time>2022-09-28T11:53:01.767Z</time>
      </trkpt>
      <trkpt lat="47.35068" lon="16.52047">
        <ele>351.329127</ele>
        <time>2022-09-28T11:53:02.743Z</time>
      </trkpt>
      <trkpt lat="47.35078" lon="16.52057">
        <ele>350.827334</ele>
        <time>2022-09-28T11:53:03.718Z</time>
      </trkpt>
      <trkpt lat="47.35088" lon="16.52067">
        <ele>350.302202</ele>
        <time>2022-09-28T11:53:04.716Z</time>
      </trkpt>
      <trkpt lat="47.35098" lon="16.52077">
        <ele>349.789137</ele>
        <time>2022-09-28T11:53:05.721Z</time>
      </trkpt>
      <trkpt lat="47.35107" lon="16.52087">
        <ele>349.27961</ele>
        <time>2022-09-28T11:53:06.732Z</time>
      </trkpt>
      <trkpt lat="47.35117" lon="16.52098">
        <ele>348.766789</ele>
        <time>2022-09-28T11:53:07.735Z</time>
      </trkpt>
      <trkpt lat="47.35126" lon="16.52108">
        <ele>348.25569</ele>
        <time>2022-09-28T11:53:08.743Z</time>
      </trkpt>
      <trkpt lat="47.35136" lon="16.52119">
        <ele>347.744592</ele>
        <time>2022-09-28T11:53:09.714Z</time>
      </trkpt>
      <trkpt lat="47.35145" lon="16.52129">
        <ele>347.233494</ele>
        <time>2022-09-28T11:53:10.726Z</time>
      </trkpt>
      <trkpt lat="47.35155" lon="16.52139">
        <ele>346.737984</ele>
        <time>2022-09-28T11:53:11.727Z</time>
      </trkpt>
      <trkpt lat="47.35164" lon="16.5215">
        <ele>346.249333</ele>
        <time>2022-09-28T11:53:12.766Z</time>
      </trkpt>
      <trkpt lat="47.35173" lon="16.5216">
        <ele>345.760682</ele>
        <time>2022-09-28T11:53:13.764Z</time>
      </trkpt>
      <trkpt lat="47.35181" lon="16.5217">
        <ele>345.277224</ele>
        <time>2022-09-28T11:53:14.747Z</time>
      </trkpt>
      <trkpt lat="47.3519" lon="16.5218">
        <ele>344.797301</ele>
        <time>2022-09-28T11:53:15.723Z</time>
      </trkpt>
      <trkpt lat="47.35199" lon="16.5219">
        <ele>344.331197</ele>
        <time>2022-09-28T11:53:16.713Z</time>
      </trkpt>
      <trkpt lat="47.35208" lon="16.52199">
        <ele>343.856469</ele>
        <time>2022-09-28T11:53:17.749Z</time>
      </trkpt>
      <trkpt lat="47.35216" lon="16.52208">
        <ele>343.547268</ele>
        <time>2022-09-28T11:53:18.739Z</time>
      </trkpt>
      <trkpt lat="47.35224" lon="16.52217">
        <ele>343.817089</ele>
        <time>2022-09-28T11:53:19.732Z</time>
      </trkpt>
      <trkpt lat="47.35233" lon="16.52225">
        <ele>344.078709</ele>
        <time>2022-09-28T11:53:20.738Z</time>
      </trkpt>
      <trkpt lat="47.35241" lon="16.52232">
        <ele>344.318754</ele>
        <time>2022-09-28T11:53:21.738Z</time>
      </trkpt>
      <trkpt lat="47.35248" lon="16.52239">
        <ele>344.557417</ele>
        <time>2022-09-28T11:53:22.716Z</time>
      </trkpt>
      <trkpt lat="47.35263" lon="16.5225">
        <ele>344.993043</ele>
        <time>2022-09-28T11:53:24.733Z</time>
      </trkpt>
      <trkpt lat="47.35279" lon="16.52258">
        <ele>345.431087</ele>
        <time>2022-09-28T11:53:26.732Z</time>
      </trkpt>
      <trkpt lat="47.35293" lon="16.52268">
        <ele>345.841859</ele>
        <time>2022-09-28T11:53:28.724Z</time>
      </trkpt>
      <trkpt lat="47.35308" lon="16.52276">
        <ele>346.249884</ele>
        <time>2022-09-28T11:53:30.729Z</time>
      </trkpt>
      <trkpt lat="47.35321" lon="16.52283">
        <ele>346.609992</ele>
        <time>2022-09-28T11:53:32.735Z</time>
      </trkpt>
      <trkpt lat="47.35331" lon="16.52288">
        <ele>346.891524</ele>
        <time>2022-09-28T11:53:34.725Z</time>
      </trkpt>
      <trkpt lat="47.35342" lon="16.52293">
        <ele>347.186434</ele>
        <time>2022-09-28T11:53:37.733Z</time>
      </trkpt>
      <trkpt lat="47.35352" lon="16.52298">
        <ele>347.471581</ele>
        <time>2022-09-28T11:53:41.737Z</time>
      </trkpt>
      <trkpt lat="47.35361" lon="16.52303">
        <ele>347.711352</ele>
        <time>2022-09-28T11:53:46.722Z</time>
      </trkpt>
      <trkpt lat="47.3537" lon="16.52308">
        <ele>347.981676</ele>
        <time>2022-09-28T11:53:52.734Z</time>
      </trkpt>
      <trkpt lat="47.3538" lon="16.52313">
        <ele>348.335291</ele>
        <time>2022-09-28T11:53:58.727Z</time>
      </trkpt>
      <trkpt lat="47.35389" lon="16.52317">
        <ele>348.9791</ele>
        <time>2022-09-28T11:54:04.742Z</time>
      </trkpt>
      <trkpt lat="47.35398" lon="16.52322">
        <ele>349.616599</ele>
        <time>2022-09-28T11:54:10.728Z</time>
      </trkpt>
      <trkpt lat="47.35409" lon="16.52327">
        <ele>350.379002</ele>
        <time>2022-09-28T11:54:17.730Z</time>
      </trkpt>
      <trkpt lat="47.35418" lon="16.52331">
        <ele>351.033427</ele>
        <time>2022-09-28T11:54:23.727Z</time>
      </trkpt>
      <trkpt lat="47.35428" lon="16.52335">
        <ele>351.747048</ele>
        <time>2022-09-28T11:54:30.790Z</time>
      </trkpt>
      <trkpt lat="47.35437" lon="16.52339">
        <ele>352.434705</ele>
        <time>2022-09-28T11:54:37.750Z</time>
      </trkpt>
      <trkpt lat="47.35446" lon="16.52344">
        <ele>353.052957</ele>
        <time>2022-09-28T11:54:43.739Z</time>
      </trkpt>
      <trkpt lat="47.35455" lon="16.52348">
        <ele>353.741548</ele>
        <time>2022-09-28T11:54:49.735Z</time>
      </trkpt>
      <trkpt lat="47.35465" lon="16.52352">
        <ele>354.417015</ele>
        <time>2022-09-28T11:54:55.721Z</time>
      </trkpt>
      <trkpt lat="47.35474" lon="16.52357">
        <ele>355.091722</ele>
        <time>2022-09-28T11:55:01.730Z</time>
      </trkpt>
      <trkpt lat="47.35484" lon="16.52363">
        <ele>355.797354</ele>
        <time>2022-09-28T11:55:08.733Z</time>
      </trkpt>
      <trkpt lat="47.35492" lon="16.52369">
        <ele>356.421914</ele>
        <time>2022-09-28T11:55:14.763Z</time>
      </trkpt>
      <trkpt lat="47.355" lon="16.52376">
        <ele>357.075741</ele>
        <time>2022-09-28T11:55:20.736Z</time>
      </trkpt>
      <trkpt lat="47.35508" lon="16.52382">
        <ele>357.70811</ele>
        <time>2022-09-28T11:55:26.724Z</time>
      </trkpt>
      <trkpt lat="47.35516" lon="16.5239">
        <ele>358.385336</ele>
        <time>2022-09-28T11:55:32.750Z</time>
      </trkpt>
      <trkpt lat="47.35525" lon="16.52397">
        <ele>359.021998</ele>
        <time>2022-09-28T11:55:38.750Z</time>
      </trkpt>
      <trkpt lat="47.35534" lon="16.52402">
        <ele>359.709654</ele>
        <time>2022-09-28T11:55:44.722Z</time>
      </trkpt>
      <trkpt lat="47.35543" lon="16.52406">
        <ele>360.358947</ele>
        <time>2022-09-28T11:55:50.724Z</time>
      </trkpt>
      <trkpt lat="47.35552" lon="16.5241">
        <ele>360.952993</ele>
        <time>2022-09-28T11:55:55.733Z</time>
      </trkpt>
      <trkpt lat="47.35561" lon="16.52414">
        <ele>361.559706</ele>
        <time>2022-09-28T11:55:59.735Z</time>
      </trkpt>
      <trkpt lat="47.35571" lon="16.52417">
        <ele>362.220034</ele>
        <time>2022-09-28T11:56:04.744Z</time>
      </trkpt>
      <trkpt lat="47.35582" lon="16.5242">
        <ele>362.87065</ele>
        <time>2022-09-28T11:56:09.759Z</time>
      </trkpt>
      <trkpt lat="47.35591" lon="16.52422">
        <ele>363.438651</ele>
        <time>2022-09-28T11:56:13.733Z</time>
      </trkpt>
      <trkpt lat="47.35601" lon="16.52425">
        <ele>364.073022</ele>
        <time>2022-09-28T11:56:18.765Z</time>
      </trkpt>
      <trkpt lat="47.3561" lon="16.52427">
        <ele>364.689714</ele>
        <time>2022-09-28T11:56:23.737Z</time>
      </trkpt>
      <trkpt lat="47.35621" lon="16.5243">
        <ele>365.349432</ele>
        <time>2022-09-28T11:56:28.728Z</time>
      </trkpt>
      <trkpt lat="47.35631" lon="16.52432">
        <ele>366.004667</ele>
        <time>2022-09-28T11:56:33.720Z</time>
      </trkpt>
      <trkpt lat="47.35641" lon="16.52434">
        <ele>366.608732</ele>
        <time>2022-09-28T11:56:38.730Z</time>
      </trkpt>
      <trkpt lat="47.35652" lon="16.52436">
        <ele>367.288242</ele>
        <time>2022-09-28T11:56:44.741Z</time>
      </trkpt>
      <trkpt lat="47.35662" lon="16.52438">
        <ele>367.948643</ele>
        <time>2022-09-28T11:56:49.733Z</time>
      </trkpt>
      <trkpt lat="47.35672" lon="16.52439">
        <ele>368.5704</ele>
        <time>2022-09-28T11:56:54.773Z</time>
      </trkpt>
      <trkpt lat="47.35683" lon="16.52441">
        <ele>369.237504</ele>
        <time>2022-09-28T11:57:01.740Z</time>
      </trkpt>
      <trkpt lat="47.35692" lon="16.52442">
        <ele>369.839073</ele>
        <time>2022-09-28T11:57:06.730Z</time>
      </trkpt>
      <trkpt lat="47.35702" lon="16.52443">
        <ele>370.433329</ele>
        <time>2022-09-28T11:57:11.729Z</time>
      </trkpt>
      <trkpt lat="47.35711" lon="16.52443">
        <ele>371.008352</ele>
        <time>2022-09-28T11:57:16.806Z</time>
      </trkpt>
      <trkpt lat="47.35722" lon="16.52444">
        <ele>371.677924</ele>
        <time>2022-09-28T11:57:22.734Z</time>
      </trkpt>
      <trkpt lat="47.35732" lon="16.52445">
        <ele>371.830232</ele>
        <time>2022-09-28T11:57:28.747Z</time>
      </trkpt>
      <trkpt lat="47.35742" lon="16.52445">
        <ele>371.876493</ele>
        <time>2022-09-28T11:57:34.735Z</time>
      </trkpt>
      <trkpt lat="47.35751" lon="16.52446">
        <ele>371.918699</ele>
        <time>2022-09-28T11:57:39.731Z</time>
      </trkpt>
      <trkpt lat="47.35762" lon="16.52447">
        <ele>371.9664</ele>
        <time>2022-09-28T11:57:44.757Z</time>
      </trkpt>
      <trkpt lat="47.35771" lon="16.52447">
        <ele>372.009502</ele>
        <time>2022-09-28T11:57:49.730Z</time>
      </trkpt>
      <trkpt lat="47.35782" lon="16.52447">
        <ele>372.055763</ele>
        <time>2022-09-28T11:57:55.769Z</time>
      </trkpt>
      <trkpt lat="47.35792" lon="16.52447">
        <ele>372.10248</ele>
        <time>2022-09-28T11:58:00.734Z</time>
      </trkpt>
      <trkpt lat="47.35803" lon="16.52446">
        <ele>372.151485</ele>
        <time>2022-09-28T11:58:05.733Z</time>
      </trkpt>
      <trkpt lat="47.35813" lon="16.52447">
        <ele>372.198653</ele>
        <time>2022-09-28T11:58:10.743Z</time>
      </trkpt>
      <trkpt lat="47.35824" lon="16.52447">
        <ele>372.245901</ele>
        <time>2022-09-28T11:58:14.743Z</time>
      </trkpt>
      <trkpt lat="47.35835" lon="16.52448">
        <ele>372.298977</ele>
        <time>2022-09-28T11:58:18.752Z</time>
      </trkpt>
      <trkpt lat="47.35845" lon="16.52449">
        <ele>372.343099</ele>
        <time>2022-09-28T11:58:21.743Z</time>
      </trkpt>
      <trkpt lat="47.35856" lon="16.52451">
        <ele>372.392464</ele>
        <time>2022-09-28T11:58:24.736Z</time>
      </trkpt>
      <trkpt lat="47.35868" lon="16.52453">
        <ele>372.448733</ele>
        <time>2022-09-28T11:58:27.740Z</time>
      </trkpt>
      <trkpt lat="47.35882" lon="16.52456">
        <ele>372.510889</ele>
        <time>2022-09-28T11:58:30.724Z</time>
      </trkpt>
      <trkpt lat="47.35892" lon="16.52458">
        <ele>372.558944</ele>
        <time>2022-09-28T11:58:32.732Z</time>
      </trkpt>
      <trkpt lat="47.35903" lon="16.5246">
        <ele>372.580629</ele>
        <time>2022-09-28T11:58:34.758Z</time>
      </trkpt>
      <trkpt lat="47.35916" lon="16.52463">
        <ele>372.129556</ele>
        <time>2022-09-28T11:58:36.735Z</time>
      </trkpt>
      <trkpt lat="47.35929" lon="16.52466">
        <ele>371.664921</ele>
        <time>2022-09-28T11:58:38.718Z</time>
      </trkpt>
      <trkpt lat="47.35942" lon="16.5247">
        <ele>371.19091</ele>
        <time>2022-09-28T11:58:40.724Z</time>
      </trkpt>
      <trkpt lat="47.35956" lon="16.52474">
        <ele>370.692153</ele>
        <time>2022-09-28T11:58:42.722Z</time>
      </trkpt>
      <trkpt lat="47.3597" lon="16.52478">
        <ele>370.18167</ele>
        <time>2022-09-28T11:58:44.739Z</time>
      </trkpt>
      <trkpt lat="47.35985" lon="16.52483">
        <ele>369.63865</ele>
        <time>2022-09-28T11:58:46.732Z</time>
      </trkpt>
      <trkpt lat="47.36001" lon="16.5249">
        <ele>369.053427</ele>
        <time>2022-09-28T11:58:48.735Z</time>
      </trkpt>
      <trkpt lat="47.36017" lon="16.52499">
        <ele>368.446347</ele>
        <time>2022-09-28T11:58:50.744Z</time>
      </trkpt>
      <trkpt lat="47.36026" lon="16.52504">
        <ele>368.129791</ele>
        <time>2022-09-28T11:58:51.734Z</time>
      </trkpt>
      <trkpt lat="47.36034" lon="16.52509">
        <ele>367.80207</ele>
        <time>2022-09-28T11:58:52.737Z</time>
      </trkpt>
      <trkpt lat="47.36042" lon="16.52515">
        <ele>367.473592</ele>
        <time>2022-09-28T11:58:53.741Z</time>
      </trkpt>
      <trkpt lat="47.36051" lon="16.52522">
        <ele>367.127085</ele>
        <time>2022-09-28T11:58:54.729Z</time>
      </trkpt>
      <trkpt lat="47.3606" lon="16.52529">
        <ele>366.759385</ele>
        <time>2022-09-28T11:58:55.743Z</time>
      </trkpt>
      <trkpt lat="47.36069" lon="16.52537">
        <ele>366.390184</ele>
        <time>2022-09-28T11:58:56.724Z</time>
      </trkpt>
      <trkpt lat="47.36079" lon="16.52545">
        <ele>365.982779</ele>
        <time>2022-09-28T11:58:57.720Z</time>
      </trkpt>
      <trkpt lat="47.36088" lon="16.52553">
        <ele>365.550125</ele>
        <time>2022-09-28T11:58:58.741Z</time>
      </trkpt>
      <trkpt lat="47.36098" lon="16.52561">
        <ele>365.116803</ele>
        <time>2022-09-28T11:58:59.730Z</time>
      </trkpt>
      <trkpt lat="47.36108" lon="16.5257">
        <ele>364.674688</ele>
        <time>2022-09-28T11:59:00.741Z</time>
      </trkpt>
      <trkpt lat="47.36119" lon="16.52578">
        <ele>364.215243</ele>
        <time>2022-09-28T11:59:01.769Z</time>
      </trkpt>
      <trkpt lat="47.36129" lon="16.52587">
        <ele>363.735082</ele>
        <time>2022-09-28T11:59:02.724Z</time>
      </trkpt>
      <trkpt lat="47.36141" lon="16.52596">
        <ele>363.23788</ele>
        <time>2022-09-28T11:59:03.742Z</time>
      </trkpt>
      <trkpt lat="47.36152" lon="16.52604">
        <ele>362.755853</ele>
        <time>2022-09-28T11:59:04.736Z</time>
      </trkpt>
      <trkpt lat="47.36163" lon="16.52611">
        <ele>362.289727</ele>
        <time>2022-09-28T11:59:05.717Z</time>
      </trkpt>
      <trkpt lat="47.36174" lon="16.52618">
        <ele>361.817103</ele>
        <time>2022-09-28T11:59:06.742Z</time>
      </trkpt>
      <trkpt lat="47.36186" lon="16.52625">
        <ele>361.341892</ele>
        <time>2022-09-28T11:59:07.725Z</time>
      </trkpt>
      <trkpt lat="47.36197" lon="16.52632">
        <ele>360.85298</ele>
        <time>2022-09-28T11:59:08.726Z</time>
      </trkpt>
      <trkpt lat="47.36209" lon="16.52639">
        <ele>360.369622</ele>
        <time>2022-09-28T11:59:09.730Z</time>
      </trkpt>
      <trkpt lat="47.36221" lon="16.52646">
        <ele>359.885279</ele>
        <time>2022-09-28T11:59:10.729Z</time>
      </trkpt>
      <trkpt lat="47.36232" lon="16.52653">
        <ele>359.397357</ele>
        <time>2022-09-28T11:59:11.727Z</time>
      </trkpt>
      <trkpt lat="47.36244" lon="16.5266">
        <ele>358.844728</ele>
        <time>2022-09-28T11:59:12.774Z</time>
      </trkpt>
      <trkpt lat="47.36255" lon="16.52666">
        <ele>358.2866</ele>
        <time>2022-09-28T11:59:13.724Z</time>
      </trkpt>
      <trkpt lat="47.36267" lon="16.52672">
        <ele>357.72416</ele>
        <time>2022-09-28T11:59:14.720Z</time>
      </trkpt>
      <trkpt lat="47.36278" lon="16.52678">
        <ele>357.164854</ele>
        <time>2022-09-28T11:59:15.736Z</time>
      </trkpt>
      <trkpt lat="47.3629" lon="16.52684">
        <ele>356.605644</ele>
        <time>2022-09-28T11:59:16.733Z</time>
      </trkpt>
      <trkpt lat="47.36301" lon="16.5269">
        <ele>356.055008</ele>
        <time>2022-09-28T11:59:17.740Z</time>
      </trkpt>
      <trkpt lat="47.36312" lon="16.52696">
        <ele>355.511768</ele>
        <time>2022-09-28T11:59:18.722Z</time>
      </trkpt>
      <trkpt lat="47.36324" lon="16.52702">
        <ele>354.948253</ele>
        <time>2022-09-28T11:59:19.727Z</time>
      </trkpt>
      <trkpt lat="47.36335" lon="16.52708">
        <ele>354.383649</ele>
        <time>2022-09-28T11:59:20.742Z</time>
      </trkpt>
      <trkpt lat="47.36346" lon="16.52715">
        <ele>353.829831</ele>
        <time>2022-09-28T11:59:21.736Z</time>
      </trkpt>
      <trkpt lat="47.36358" lon="16.52721">
        <ele>353.259829</ele>
        <time>2022-09-28T11:59:22.738Z</time>
      </trkpt>
      <trkpt lat="47.3637" lon="16.52728">
        <ele>352.690924</ele>
        <time>2022-09-28T11:59:23.748Z</time>
      </trkpt>
      <trkpt lat="47.36381" lon="16.52733">
        <ele>352.12588</ele>
        <time>2022-09-28T11:59:24.747Z</time>
      </trkpt>
      <trkpt lat="47.36393" lon="16.52737">
        <ele>351.565199</ele>
        <time>2022-09-28T11:59:25.729Z</time>
      </trkpt>
      <trkpt lat="47.36406" lon="16.5274">
        <ele>351.046164</ele>
        <time>2022-09-28T11:59:26.733Z</time>
      </trkpt>
      <trkpt lat="47.36418" lon="16.52741">
        <ele>351.11123</ele>
        <time>2022-09-28T11:59:27.722Z</time>
      </trkpt>
      <trkpt lat="47.3643" lon="16.52742">
        <ele>351.177201</ele>
        <time>2022-09-28T11:59:28.748Z</time>
      </trkpt>
      <trkpt lat="47.36442" lon="16.52744">
        <ele>351.240566</ele>
        <time>2022-09-28T11:59:29.727Z</time>
      </trkpt>
      <trkpt lat="47.36454" lon="16.52745">
        <ele>351.302954</ele>
        <time>2022-09-28T11:59:30.731Z</time>
      </trkpt>
      <trkpt lat="47.36465" lon="16.52747">
        <ele>351.363756</ele>
        <time>2022-09-28T11:59:31.733Z</time>
      </trkpt>
      <trkpt lat="47.36476" lon="16.52749">
        <ele>351.423732</ele>
        <time>2022-09-28T11:59:32.727Z</time>
      </trkpt>
      <trkpt lat="47.36487" lon="16.52752">
        <ele>351.479957</ele>
        <time>2022-09-28T11:59:33.736Z</time>
      </trkpt>
      <trkpt lat="47.36497" lon="16.52756">
        <ele>351.535604</ele>
        <time>2022-09-28T11:59:34.738Z</time>
      </trkpt>
      <trkpt lat="47.36507" lon="16.5276">
        <ele>351.592875</ele>
        <time>2022-09-28T11:59:35.733Z</time>
      </trkpt>
      <trkpt lat="47.36517" lon="16.52765">
        <ele>351.647085</ele>
        <time>2022-09-28T11:59:36.725Z</time>
      </trkpt>
      <trkpt lat="47.36526" lon="16.52769">
        <ele>351.699565</ele>
        <time>2022-09-28T11:59:37.749Z</time>
      </trkpt>
      <trkpt lat="47.36535" lon="16.52773">
        <ele>351.748807</ele>
        <time>2022-09-28T11:59:38.766Z</time>
      </trkpt>
      <trkpt lat="47.3655" lon="16.52781">
        <ele>351.833656</ele>
        <time>2022-09-28T11:59:40.731Z</time>
      </trkpt>
      <trkpt lat="47.36563" lon="16.52788">
        <ele>351.908165</ele>
        <time>2022-09-28T11:59:42.727Z</time>
      </trkpt>
      <trkpt lat="47.36574" lon="16.52794">
        <ele>351.968345</ele>
        <time>2022-09-28T11:59:44.739Z</time>
      </trkpt>
      <trkpt lat="47.36584" lon="16.528">
        <ele>352.483724</ele>
        <time>2022-09-28T11:59:47.742Z</time>
      </trkpt>
      <trkpt lat="47.36593" lon="16.52805">
        <ele>353.28499</ele>
        <time>2022-09-28T11:59:51.726Z</time>
      </trkpt>
      <trkpt lat="47.36602" lon="16.52811">
        <ele>354.136267</ele>
        <time>2022-09-28T11:59:57.739Z</time>
      </trkpt>
      <trkpt lat="47.36611" lon="16.52816">
        <ele>354.939358</ele>
        <time>2022-09-28T12:00:03.735Z</time>
      </trkpt>
      <trkpt lat="47.36619" lon="16.52821">
        <ele>355.700366</ele>
        <time>2022-09-28T12:00:09.750Z</time>
      </trkpt>
      <trkpt lat="47.36629" lon="16.52826">
        <ele>356.541528</ele>
        <time>2022-09-28T12:00:15.773Z</time>
      </trkpt>
      <trkpt lat="47.36638" lon="16.52831">
        <ele>357.36857</ele>
        <time>2022-09-28T12:00:21.723Z</time>
      </trkpt>
      <trkpt lat="47.36647" lon="16.52835">
        <ele>358.162269</ele>
        <time>2022-09-28T12:00:27.721Z</time>
      </trkpt>
      <trkpt lat="47.36656" lon="16.5284">
        <ele>358.987394</ele>
        <time>2022-09-28T12:00:33.775Z</time>
      </trkpt>
      <trkpt lat="47.36666" lon="16.52845">
        <ele>359.896526</ele>
        <time>2022-09-28T12:00:40.765Z</time>
      </trkpt>
      <trkpt lat="47.36676" lon="16.5285">
        <ele>360.755585</ele>
        <time>2022-09-28T12:00:47.761Z</time>
      </trkpt>
      <trkpt lat="47.36685" lon="16.52855">
        <ele>361.578551</ele>
        <time>2022-09-28T12:00:53.714Z</time>
      </trkpt>
      <trkpt lat="47.36695" lon="16.5286">
        <ele>362.45133</ele>
        <time>2022-09-28T12:00:59.726Z</time>
      </trkpt>
      <trkpt lat="47.36704" lon="16.52866">
        <ele>363.320469</ele>
        <time>2022-09-28T12:01:04.737Z</time>
      </trkpt>
      <trkpt lat="47.36713" lon="16.52871">
        <ele>364.159592</ele>
        <time>2022-09-28T12:01:08.761Z</time>
      </trkpt>
      <trkpt lat="47.36722" lon="16.52876">
        <ele>364.970846</ele>
        <time>2022-09-28T12:01:12.730Z</time>
      </trkpt>
      <trkpt lat="47.36731" lon="16.52882">
        <ele>365.742852</ele>
        <time>2022-09-28T12:01:16.730Z</time>
      </trkpt>
      <trkpt lat="47.36741" lon="16.52889">
        <ele>366.726528</ele>
        <time>2022-09-28T12:01:20.782Z</time>
      </trkpt>
      <trkpt lat="47.36751" lon="16.52896">
        <ele>367.089696</ele>
        <time>2022-09-28T12:01:23.749Z</time>
      </trkpt>
      <trkpt lat="47.36762" lon="16.52905">
        <ele>366.695268</ele>
        <time>2022-09-28T12:01:26.777Z</time>
      </trkpt>
      <trkpt lat="47.36771" lon="16.52914">
        <ele>366.380715</ele>
        <time>2022-09-28T12:01:28.765Z</time>
      </trkpt>
      <trkpt lat="47.36782" lon="16.52925">
        <ele>365.977469</ele>
        <time>2022-09-28T12:01:30.730Z</time>
      </trkpt>
      <trkpt lat="47.36794" lon="16.52938">
        <ele>365.537701</ele>
        <time>2022-09-28T12:01:32.731Z</time>
      </trkpt>
      <trkpt lat="47.36806" lon="16.52953">
        <ele>365.049002</ele>
        <time>2022-09-28T12:01:34.718Z</time>
      </trkpt>
      <trkpt lat="47.3682" lon="16.52967">
        <ele>364.548223</ele>
        <time>2022-09-28T12:01:36.728Z</time>
      </trkpt>
      <trkpt lat="47.36834" lon="16.52981">
        <ele>364.026535</ele>
        <time>2022-09-28T12:01:38.742Z</time>
      </trkpt>
      <trkpt lat="47.36849" lon="16.52994">
        <ele>363.509154</ele>
        <time>2022-09-28T12:01:40.736Z</time>
      </trkpt>
      <trkpt lat="47.36864" lon="16.53005">
        <ele>362.999202</ele>
        <time>2022-09-28T12:01:42.732Z</time>
      </trkpt>
      <trkpt lat="47.36879" lon="16.53014">
        <ele>362.496558</ele>
        <time>2022-09-28T12:01:44.744Z</time>
      </trkpt>
      <trkpt lat="47.36894" lon="16.53023">
        <ele>362.008512</ele>
        <time>2022-09-28T12:01:46.701Z</time>
      </trkpt>
      <trkpt lat="47.36909" lon="16.53034">
        <ele>361.394063</ele>
        <time>2022-09-28T12:01:48.716Z</time>
      </trkpt>
      <trkpt lat="47.36923" lon="16.53049">
        <ele>360.678687</ele>
        <time>2022-09-28T12:01:50.699Z</time>
      </trkpt>
      <trkpt lat="47.36937" lon="16.53064">
        <ele>359.970283</ele>
        <time>2022-09-28T12:01:52.726Z</time>
      </trkpt>
      <trkpt lat="47.36949" lon="16.53079">
        <ele>359.303874</ele>
        <time>2022-09-28T12:01:54.736Z</time>
      </trkpt>
      <trkpt lat="47.36961" lon="16.53093">
        <ele>358.676894</ele>
        <time>2022-09-28T12:01:56.728Z</time>
      </trkpt>
      <trkpt lat="47.36973" lon="16.53106">
        <ele>358.060568</ele>
        <time>2022-09-28T12:01:58.898Z</time>
      </trkpt>
      <trkpt lat="47.36985" lon="16.53116">
        <ele>357.462623</ele>
        <time>2022-09-28T12:02:00.716Z</time>
      </trkpt>
      <trkpt lat="47.36997" lon="16.53127">
        <ele>356.866832</ele>
        <time>2022-09-28T12:02:02.725Z</time>
      </trkpt>
      <trkpt lat="47.37009" lon="16.53139">
        <ele>356.281286</ele>
        <time>2022-09-28T12:02:04.772Z</time>
      </trkpt>
      <trkpt lat="47.37019" lon="16.53152">
        <ele>355.710998</ele>
        <time>2022-09-28T12:02:06.723Z</time>
      </trkpt>
      <trkpt lat="47.37028" lon="16.53168">
        <ele>355.135714</ele>
        <time>2022-09-28T12:02:08.737Z</time>
      </trkpt>
      <trkpt lat="47.37035" lon="16.53186">
        <ele>354.551604</ele>
        <time>2022-09-28T12:02:10.715Z</time>
      </trkpt>
      <trkpt lat="47.37041" lon="16.53204">
        <ele>353.982014</ele>
        <time>2022-09-28T12:02:12.694Z</time>
      </trkpt>
      <trkpt lat="47.37047" lon="16.53224">
        <ele>353.397982</ele>
        <time>2022-09-28T12:02:14.723Z</time>
      </trkpt>
      <trkpt lat="47.37051" lon="16.53243">
        <ele>352.820867</ele>
        <time>2022-09-28T12:02:16.718Z</time>
      </trkpt>
      <trkpt lat="47.37056" lon="16.53263">
        <ele>352.24374</ele>
        <time>2022-09-28T12:02:18.779Z</time>
      </trkpt>
      <trkpt lat="47.3706" lon="16.53283">
        <ele>351.672847</ele>
        <time>2022-09-28T12:02:20.725Z</time>
      </trkpt>
      <trkpt lat="47.37064" lon="16.53302">
        <ele>351.115526</ele>
        <time>2022-09-28T12:02:22.728Z</time>
      </trkpt>
      <trkpt lat="47.37067" lon="16.53319">
        <ele>350.610242</ele>
        <time>2022-09-28T12:02:24.720Z</time>
      </trkpt>
      <trkpt lat="47.3707" lon="16.53335">
        <ele>350.162955</ele>
        <time>2022-09-28T12:02:26.730Z</time>
      </trkpt>
      <trkpt lat="47.37073" lon="16.5335">
        <ele>349.727913</ele>
        <time>2022-09-28T12:02:28.743Z</time>
      </trkpt>
      <trkpt lat="47.37076" lon="16.53364">
        <ele>349.315588</ele>
        <time>2022-09-28T12:02:30.724Z</time>
      </trkpt>
      <trkpt lat="47.37079" lon="16.53378">
        <ele>348.896679</ele>
        <time>2022-09-28T12:02:32.736Z</time>
      </trkpt>
      <trkpt lat="47.37082" lon="16.53392">
        <ele>348.489623</ele>
        <time>2022-09-28T12:02:34.799Z</time>
      </trkpt>
      <trkpt lat="47.37086" lon="16.5341">
        <ele>347.962686</ele>
        <time>2022-09-28T12:02:37.720Z</time>
      </trkpt>
      <trkpt lat="47.3709" lon="16.53426">
        <ele>347.477836</ele>
        <time>2022-09-28T12:02:40.738Z</time>
      </trkpt>
      <trkpt lat="47.37094" lon="16.53444">
        <ele>346.972554</ele>
        <time>2022-09-28T12:02:43.745Z</time>
      </trkpt>
      <trkpt lat="47.37097" lon="16.53462">
        <ele>346.735422</ele>
        <time>2022-09-28T12:02:46.732Z</time>
      </trkpt>
      <trkpt lat="47.37101" lon="16.53481">
        <ele>346.521102</ele>
        <time>2022-09-28T12:02:49.746Z</time>
      </trkpt>
      <trkpt lat="47.37103" lon="16.53495">
        <ele>346.368484</ele>
        <time>2022-09-28T12:02:51.766Z</time>
      </trkpt>
      <trkpt lat="47.37106" lon="16.53508">
        <ele>346.220646</ele>
        <time>2022-09-28T12:02:53.741Z</time>
      </trkpt>
      <trkpt lat="47.37109" lon="16.53521">
        <ele>346.076881</ele>
        <time>2022-09-28T12:02:55.736Z</time>
      </trkpt>
      <trkpt lat="47.37112" lon="16.53534">
        <ele>345.931573</ele>
        <time>2022-09-28T12:02:57.717Z</time>
      </trkpt>
      <trkpt lat="47.37115" lon="16.53546">
        <ele>345.788307</ele>
        <time>2022-09-28T12:02:59.709Z</time>
      </trkpt>
      <trkpt lat="47.37119" lon="16.53565">
        <ele>345.576968</ele>
        <time>2022-09-28T12:03:02.763Z</time>
      </trkpt>
      <trkpt lat="47.37123" lon="16.53578">
        <ele>345.423013</ele>
        <time>2022-09-28T12:03:04.743Z</time>
      </trkpt>
      <trkpt lat="47.37127" lon="16.53593">
        <ele>345.256655</ele>
        <time>2022-09-28T12:03:06.733Z</time>
      </trkpt>
      <trkpt lat="47.37131" lon="16.53608">
        <ele>345.077576</ele>
        <time>2022-09-28T12:03:08.739Z</time>
      </trkpt>
      <trkpt lat="47.37135" lon="16.53625">
        <ele>344.889148</ele>
        <time>2022-09-28T12:03:10.717Z</time>
      </trkpt>
      <trkpt lat="47.3714" lon="16.53643">
        <ele>344.679464</ele>
        <time>2022-09-28T12:03:12.725Z</time>
      </trkpt>
      <trkpt lat="47.37145" lon="16.5366">
        <ele>344.472145</ele>
        <time>2022-09-28T12:03:14.723Z</time>
      </trkpt>
      <trkpt lat="47.37151" lon="16.53678">
        <ele>344.263846</ele>
        <time>2022-09-28T12:03:16.728Z</time>
      </trkpt>
      <trkpt lat="47.37157" lon="16.53695">
        <ele>344.045525</ele>
        <time>2022-09-28T12:03:18.715Z</time>
      </trkpt>
      <trkpt lat="47.37165" lon="16.53714">
        <ele>343.741882</ele>
        <time>2022-09-28T12:03:20.759Z</time>
      </trkpt>
      <trkpt lat="47.37173" lon="16.53733">
        <ele>343.427564</ele>
        <time>2022-09-28T12:03:22.730Z</time>
      </trkpt>
      <trkpt lat="47.37181" lon="16.53752">
        <ele>343.116964</ele>
        <time>2022-09-28T12:03:24.790Z</time>
      </trkpt>
      <trkpt lat="47.3719" lon="16.53769">
        <ele>342.804446</ele>
        <time>2022-09-28T12:03:26.746Z</time>
      </trkpt>
      <trkpt lat="47.37201" lon="16.53786">
        <ele>342.484303</ele>
        <time>2022-09-28T12:03:28.760Z</time>
      </trkpt>
      <trkpt lat="47.37212" lon="16.53801">
        <ele>342.165991</ele>
        <time>2022-09-28T12:03:30.728Z</time>
      </trkpt>
      <trkpt lat="47.37225" lon="16.53814">
        <ele>341.844723</ele>
        <time>2022-09-28T12:03:32.718Z</time>
      </trkpt>
      <trkpt lat="47.37237" lon="16.53829">
        <ele>341.519965</ele>
        <time>2022-09-28T12:03:34.733Z</time>
      </trkpt>
      <trkpt lat="47.3725" lon="16.53844">
        <ele>341.184936</ele>
        <time>2022-09-28T12:03:36.742Z</time>
      </trkpt>
      <trkpt lat="47.37261" lon="16.53859">
        <ele>340.855434</ele>
        <time>2022-09-28T12:03:38.735Z</time>
      </trkpt>
      <trkpt lat="47.37274" lon="16.53876">
        <ele>340.505939</ele>
        <time>2022-09-28T12:03:40.744Z</time>
      </trkpt>
      <trkpt lat="47.37286" lon="16.53894">
        <ele>340.096702</ele>
        <time>2022-09-28T12:03:42.737Z</time>
      </trkpt>
      <trkpt lat="47.37297" lon="16.53913">
        <ele>339.648415</ele>
        <time>2022-09-28T12:03:44.745Z</time>
      </trkpt>
      <trkpt lat="47.37309" lon="16.53932">
        <ele>339.177674</ele>
        <time>2022-09-28T12:03:46.740Z</time>
      </trkpt>
      <trkpt lat="47.37316" lon="16.53941">
        <ele>338.929772</ele>
        <time>2022-09-28T12:03:47.737Z</time>
      </trkpt>
      <trkpt lat="47.37323" lon="16.53951">
        <ele>338.672264</ele>
        <time>2022-09-28T12:03:48.733Z</time>
      </trkpt>
      <trkpt lat="47.37331" lon="16.5396">
        <ele>338.41384</ele>
        <time>2022-09-28T12:03:49.737Z</time>
      </trkpt>
      <trkpt lat="47.37338" lon="16.53969">
        <ele>338.151477</ele>
        <time>2022-09-28T12:03:50.732Z</time>
      </trkpt>
      <trkpt lat="47.37346" lon="16.53977">
        <ele>337.894259</ele>
        <time>2022-09-28T12:03:51.729Z</time>
      </trkpt>
      <trkpt lat="47.37354" lon="16.53985">
        <ele>337.639045</ele>
        <time>2022-09-28T12:03:52.734Z</time>
      </trkpt>
      <trkpt lat="47.37362" lon="16.53992">
        <ele>337.389628</ele>
        <time>2022-09-28T12:03:53.734Z</time>
      </trkpt>
      <trkpt lat="47.3737" lon="16.53999">
        <ele>337.143423</ele>
        <time>2022-09-28T12:03:54.712Z</time>
      </trkpt>
      <trkpt lat="47.37386" lon="16.54013">
        <ele>336.662333</ele>
        <time>2022-09-28T12:03:56.776Z</time>
      </trkpt>
      <trkpt lat="47.37394" lon="16.5402">
        <ele>336.416129</ele>
        <time>2022-09-28T12:03:57.729Z</time>
      </trkpt>
      <trkpt lat="47.37401" lon="16.54027">
        <ele>336.173135</ele>
        <time>2022-09-28T12:03:58.734Z</time>
      </trkpt>
      <trkpt lat="47.37409" lon="16.54034">
        <ele>335.927863</ele>
        <time>2022-09-28T12:03:59.734Z</time>
      </trkpt>
      <trkpt lat="47.37417" lon="16.54041">
        <ele>335.675709</ele>
        <time>2022-09-28T12:04:00.743Z</time>
      </trkpt>
      <trkpt lat="47.37426" lon="16.54048">
        <ele>335.461678</ele>
        <time>2022-09-28T12:04:01.785Z</time>
      </trkpt>
      <trkpt lat="47.37435" lon="16.54054">
        <ele>335.280708</ele>
        <time>2022-09-28T12:04:02.740Z</time>
      </trkpt>
      <trkpt lat="47.37443" lon="16.5406">
        <ele>335.102355</ele>
        <time>2022-09-28T12:04:03.741Z</time>
      </trkpt>
      <trkpt lat="47.37452" lon="16.54065">
        <ele>334.927394</ele>
        <time>2022-09-28T12:04:04.714Z</time>
      </trkpt>
      <trkpt lat="47.37461" lon="16.54071">
        <ele>334.740726</ele>
        <time>2022-09-28T12:04:05.752Z</time>
      </trkpt>
      <trkpt lat="47.37471" lon="16.54078">
        <ele>334.550818</ele>
        <time>2022-09-28T12:04:06.729Z</time>
      </trkpt>
      <trkpt lat="47.3748" lon="16.54084">
        <ele>334.363197</ele>
        <time>2022-09-28T12:04:07.797Z</time>
      </trkpt>
      <trkpt lat="47.37489" lon="16.54091">
        <ele>334.179464</ele>
        <time>2022-09-28T12:04:08.738Z</time>
      </trkpt>
      <trkpt lat="47.37497" lon="16.54097">
        <ele>334.002926</ele>
        <time>2022-09-28T12:04:09.738Z</time>
      </trkpt>
      <trkpt lat="47.37505" lon="16.54102">
        <ele>333.833556</ele>
        <time>2022-09-28T12:04:10.722Z</time>
      </trkpt>
      <trkpt lat="47.37514" lon="16.54108">
        <ele>333.659233</ele>
        <time>2022-09-28T12:04:11.735Z</time>
      </trkpt>
      <trkpt lat="47.37523" lon="16.54115">
        <ele>333.478172</ele>
        <time>2022-09-28T12:04:12.735Z</time>
      </trkpt>
      <trkpt lat="47.37532" lon="16.54122">
        <ele>333.283124</ele>
        <time>2022-09-28T12:04:13.763Z</time>
      </trkpt>
      <trkpt lat="47.37542" lon="16.5413">
        <ele>333.070399</ele>
        <time>2022-09-28T12:04:14.714Z</time>
      </trkpt>
      <trkpt lat="47.37552" lon="16.54138">
        <ele>332.852752</ele>
        <time>2022-09-28T12:04:15.728Z</time>
      </trkpt>
      <trkpt lat="47.37562" lon="16.54147">
        <ele>332.638827</ele>
        <time>2022-09-28T12:04:16.747Z</time>
      </trkpt>
      <trkpt lat="47.37572" lon="16.54154">
        <ele>332.437248</ele>
        <time>2022-09-28T12:04:17.732Z</time>
      </trkpt>
      <trkpt lat="47.37581" lon="16.54161">
        <ele>332.24458</ele>
        <time>2022-09-28T12:04:18.741Z</time>
      </trkpt>
      <trkpt lat="47.3759" lon="16.54168">
        <ele>331.828851</ele>
        <time>2022-09-28T12:04:19.728Z</time>
      </trkpt>
      <trkpt lat="47.37599" lon="16.54174">
        <ele>331.385027</ele>
        <time>2022-09-28T12:04:20.738Z</time>
      </trkpt>
      <trkpt lat="47.37607" lon="16.5418">
        <ele>330.966028</ele>
        <time>2022-09-28T12:04:21.748Z</time>
      </trkpt>
      <trkpt lat="47.37623" lon="16.54191">
        <ele>330.143247</ele>
        <time>2022-09-28T12:04:23.739Z</time>
      </trkpt>
      <trkpt lat="47.37631" lon="16.54197">
        <ele>329.722906</ele>
        <time>2022-09-28T12:04:24.747Z</time>
      </trkpt>
      <trkpt lat="47.3764" lon="16.54203">
        <ele>329.294208</ele>
        <time>2022-09-28T12:04:25.738Z</time>
      </trkpt>
      <trkpt lat="47.37648" lon="16.54209">
        <ele>328.854521</ele>
        <time>2022-09-28T12:04:26.738Z</time>
      </trkpt>
      <trkpt lat="47.37656" lon="16.54216">
        <ele>328.41263</ele>
        <time>2022-09-28T12:04:27.741Z</time>
      </trkpt>
      <trkpt lat="47.37664" lon="16.54223">
        <ele>327.972856</ele>
        <time>2022-09-28T12:04:28.748Z</time>
      </trkpt>
      <trkpt lat="47.37672" lon="16.54232">
        <ele>327.522828</ele>
        <time>2022-09-28T12:04:29.814Z</time>
      </trkpt>
      <trkpt lat="47.3768" lon="16.54241">
        <ele>327.068044</ele>
        <time>2022-09-28T12:04:30.749Z</time>
      </trkpt>
      <trkpt lat="47.37687" lon="16.54252">
        <ele>326.612276</ele>
        <time>2022-09-28T12:04:31.809Z</time>
      </trkpt>
      <trkpt lat="47.37694" lon="16.54262">
        <ele>326.161931</ele>
        <time>2022-09-28T12:04:32.728Z</time>
      </trkpt>
      <trkpt lat="47.377" lon="16.54272">
        <ele>325.717992</ele>
        <time>2022-09-28T12:04:33.723Z</time>
      </trkpt>
      <trkpt lat="47.37707" lon="16.54283">
        <ele>325.264876</ele>
        <time>2022-09-28T12:04:34.741Z</time>
      </trkpt>
      <trkpt lat="47.37713" lon="16.54293">
        <ele>324.829542</ele>
        <time>2022-09-28T12:04:35.796Z</time>
      </trkpt>
      <trkpt lat="47.37719" lon="16.54303">
        <ele>324.410508</ele>
        <time>2022-09-28T12:04:36.745Z</time>
      </trkpt>
      <trkpt lat="47.37731" lon="16.54322">
        <ele>323.616409</ele>
        <time>2022-09-28T12:04:38.745Z</time>
      </trkpt>
      <trkpt lat="47.37742" lon="16.54339">
        <ele>322.843205</ele>
        <time>2022-09-28T12:04:40.726Z</time>
      </trkpt>
      <trkpt lat="47.37753" lon="16.54357">
        <ele>322.083591</ele>
        <time>2022-09-28T12:04:42.731Z</time>
      </trkpt>
      <trkpt lat="47.37765" lon="16.54373">
        <ele>321.322734</ele>
        <time>2022-09-28T12:04:44.721Z</time>
      </trkpt>
      <trkpt lat="47.37777" lon="16.54389">
        <ele>320.546548</ele>
        <time>2022-09-28T12:04:46.729Z</time>
      </trkpt>
      <trkpt lat="47.3779" lon="16.54405">
        <ele>319.745307</ele>
        <time>2022-09-28T12:04:48.758Z</time>
      </trkpt>
      <trkpt lat="47.37804" lon="16.5442">
        <ele>318.925586</ele>
        <time>2022-09-28T12:04:50.728Z</time>
      </trkpt>
      <trkpt lat="47.37818" lon="16.54436">
        <ele>318.096306</ele>
        <time>2022-09-28T12:04:52.739Z</time>
      </trkpt>
      <trkpt lat="47.37832" lon="16.54451">
        <ele>317.289861</ele>
        <time>2022-09-28T12:04:54.772Z</time>
      </trkpt>
      <trkpt lat="47.37846" lon="16.54465">
        <ele>316.496588</ele>
        <time>2022-09-28T12:04:56.698Z</time>
      </trkpt>
      <trkpt lat="47.37861" lon="16.54478">
        <ele>315.677639</ele>
        <time>2022-09-28T12:04:58.722Z</time>
      </trkpt>
      <trkpt lat="47.37877" lon="16.54489">
        <ele>315.41626</ele>
        <time>2022-09-28T12:05:00.724Z</time>
      </trkpt>
      <trkpt lat="47.37893" lon="16.54497">
        <ele>315.423036</ele>
        <time>2022-09-28T12:05:02.698Z</time>
      </trkpt>
      <trkpt lat="47.37909" lon="16.545">
        <ele>315.429515</ele>
        <time>2022-09-28T12:05:04.732Z</time>
      </trkpt>
      <trkpt lat="47.37925" lon="16.54499">
        <ele>315.435957</ele>
        <time>2022-09-28T12:05:06.727Z</time>
      </trkpt>
      <trkpt lat="47.37938" lon="16.54495">
        <ele>315.441539</ele>
        <time>2022-09-28T12:05:08.733Z</time>
      </trkpt>
      <trkpt lat="47.37952" lon="16.5449">
        <ele>315.447097</ele>
        <time>2022-09-28T12:05:10.721Z</time>
      </trkpt>
      <trkpt lat="47.37966" lon="16.54487">
        <ele>315.452743</ele>
        <time>2022-09-28T12:05:12.729Z</time>
      </trkpt>
      <trkpt lat="47.37979" lon="16.54482">
        <ele>315.458196</ele>
        <time>2022-09-28T12:05:14.734Z</time>
      </trkpt>
      <trkpt lat="47.37992" lon="16.54478">
        <ele>315.463427</ele>
        <time>2022-09-28T12:05:16.695Z</time>
      </trkpt>
      <trkpt lat="47.38003" lon="16.54474">
        <ele>315.468091</ele>
        <time>2022-09-28T12:05:18.727Z</time>
      </trkpt>
      <trkpt lat="47.38014" lon="16.5447">
        <ele>315.472605</ele>
        <time>2022-09-28T12:05:20.719Z</time>
      </trkpt>
      <trkpt lat="47.38027" lon="16.54466">
        <ele>315.477856</ele>
        <time>2022-09-28T12:05:22.719Z</time>
      </trkpt>
      <trkpt lat="47.38039" lon="16.54461">
        <ele>315.482913</ele>
        <time>2022-09-28T12:05:24.722Z</time>
      </trkpt>
      <trkpt lat="47.3805" lon="16.54458">
        <ele>315.734763</ele>
        <time>2022-09-28T12:05:26.740Z</time>
      </trkpt>
      <trkpt lat="47.38062" lon="16.54453">
        <ele>316.029743</ele>
        <time>2022-09-28T12:05:28.739Z</time>
      </trkpt>
      <trkpt lat="47.38073" lon="16.54449">
        <ele>316.312855</ele>
        <time>2022-09-28T12:05:30.747Z</time>
      </trkpt>
      <trkpt lat="47.38083" lon="16.54445">
        <ele>316.590287</ele>
        <time>2022-09-28T12:05:32.747Z</time>
      </trkpt>
      <trkpt lat="47.38094" lon="16.54441">
        <ele>316.876254</ele>
        <time>2022-09-28T12:05:34.726Z</time>
      </trkpt>
      <trkpt lat="47.38105" lon="16.54437">
        <ele>317.16304</ele>
        <time>2022-09-28T12:05:36.725Z</time>
      </trkpt>
      <trkpt lat="47.38115" lon="16.54433">
        <ele>317.431833</ele>
        <time>2022-09-28T12:05:38.725Z</time>
      </trkpt>
      <trkpt lat="47.38127" lon="16.54431">
        <ele>317.723171</ele>
        <time>2022-09-28T12:05:40.742Z</time>
      </trkpt>
      <trkpt lat="47.38137" lon="16.54427">
        <ele>317.978044</ele>
        <time>2022-09-28T12:05:42.764Z</time>
      </trkpt>
      <trkpt lat="47.38146" lon="16.54425">
        <ele>318.224767</ele>
        <time>2022-09-28T12:05:44.724Z</time>
      </trkpt>
      <trkpt lat="47.38155" lon="16.54422">
        <ele>318.460844</ele>
        <time>2022-09-28T12:05:46.753Z</time>
      </trkpt>
      <trkpt lat="47.38164" lon="16.54418">
        <ele>318.690784</ele>
        <time>2022-09-28T12:05:48.765Z</time>
      </trkpt>
      <trkpt lat="47.38177" lon="16.54413">
        <ele>319.031976</ele>
        <time>2022-09-28T12:05:51.726Z</time>
      </trkpt>
      <trkpt lat="47.38189" lon="16.54409">
        <ele>319.343365</ele>
        <time>2022-09-28T12:05:54.717Z</time>
      </trkpt>
      <trkpt lat="47.382" lon="16.54403">
        <ele>319.62626</ele>
        <time>2022-09-28T12:05:57.778Z</time>
      </trkpt>
      <trkpt lat="47.3821" lon="16.54397">
        <ele>319.913083</ele>
        <time>2022-09-28T12:06:00.738Z</time>
      </trkpt>
      <trkpt lat="47.38221" lon="16.54393">
        <ele>320.275262</ele>
        <time>2022-09-28T12:06:03.723Z</time>
      </trkpt>
      <trkpt lat="47.3823" lon="16.54388">
        <ele>320.636791</ele>
        <time>2022-09-28T12:06:05.779Z</time>
      </trkpt>
      <trkpt lat="47.38239" lon="16.54384">
        <ele>320.979439</ele>
        <time>2022-09-28T12:06:07.732Z</time>
      </trkpt>
      <trkpt lat="47.3825" lon="16.54379">
        <ele>321.407324</ele>
        <time>2022-09-28T12:06:10.709Z</time>
      </trkpt>
      <trkpt lat="47.38262" lon="16.54372">
        <ele>321.898751</ele>
        <time>2022-09-28T12:06:13.732Z</time>
      </trkpt>
      <trkpt lat="47.38272" lon="16.54365">
        <ele>322.326374</ele>
        <time>2022-09-28T12:06:15.732Z</time>
      </trkpt>
      <trkpt lat="47.38282" lon="16.54358">
        <ele>322.721341</ele>
        <time>2022-09-28T12:06:17.756Z</time>
      </trkpt>
      <trkpt lat="47.3829" lon="16.54353">
        <ele>323.062084</ele>
        <time>2022-09-28T12:06:19.724Z</time>
      </trkpt>
      <trkpt lat="47.383" lon="16.54347">
        <ele>323.466952</ele>
        <time>2022-09-28T12:06:22.745Z</time>
      </trkpt>
      <trkpt lat="47.38309" lon="16.54341">
        <ele>323.85888</ele>
        <time>2022-09-28T12:06:25.743Z</time>
      </trkpt>
      <trkpt lat="47.38319" lon="16.54335">
        <ele>324.265664</ele>
        <time>2022-09-28T12:06:28.738Z</time>
      </trkpt>
      <trkpt lat="47.38331" lon="16.54327">
        <ele>324.736284</ele>
        <time>2022-09-28T12:06:31.719Z</time>
      </trkpt>
      <trkpt lat="47.38343" lon="16.5432">
        <ele>325.21036</ele>
        <time>2022-09-28T12:06:34.722Z</time>
      </trkpt>
      <trkpt lat="47.38351" lon="16.54315">
        <ele>325.547921</ele>
        <time>2022-09-28T12:06:36.719Z</time>
      </trkpt>
      <trkpt lat="47.38359" lon="16.54309">
        <ele>325.899855</ele>
        <time>2022-09-28T12:06:38.747Z</time>
      </trkpt>
      <trkpt lat="47.38371" lon="16.54301">
        <ele>326.400698</ele>
        <time>2022-09-28T12:06:41.725Z</time>
      </trkpt>
      <trkpt lat="47.38383" lon="16.54293">
        <ele>326.779077</ele>
        <time>2022-09-28T12:06:44.726Z</time>
      </trkpt>
      <trkpt lat="47.38394" lon="16.54286">
        <ele>326.695997</ele>
        <time>2022-09-28T12:06:47.727Z</time>
      </trkpt>
      <trkpt lat="47.38405" lon="16.54279">
        <ele>326.615226</ele>
        <time>2022-09-28T12:06:50.727Z</time>
      </trkpt>
      <trkpt lat="47.38415" lon="16.54273">
        <ele>326.536812</ele>
        <time>2022-09-28T12:06:53.721Z</time>
      </trkpt>
      <trkpt lat="47.38427" lon="16.54265">
        <ele>326.453548</ele>
        <time>2022-09-28T12:06:56.728Z</time>
      </trkpt>
      <trkpt lat="47.38439" lon="16.54258">
        <ele>326.360947</ele>
        <time>2022-09-28T12:06:59.778Z</time>
      </trkpt>
      <trkpt lat="47.38451" lon="16.54251">
        <ele>326.2743</ele>
        <time>2022-09-28T12:07:02.741Z</time>
      </trkpt>
      <trkpt lat="47.38462" lon="16.54245">
        <ele>326.194041</ele>
        <time>2022-09-28T12:07:05.727Z</time>
      </trkpt>
      <trkpt lat="47.38473" lon="16.54247">
        <ele>326.121455</ele>
        <time>2022-09-28T12:07:08.767Z</time>
      </trkpt>
      <trkpt lat="47.38477" lon="16.54262">
        <ele>326.046577</ele>
        <time>2022-09-28T12:07:11.713Z</time>
      </trkpt>
      <trkpt lat="47.38485" lon="16.54277">
        <ele>325.959287</ele>
        <time>2022-09-28T12:07:14.746Z</time>
      </trkpt>
      <trkpt lat="47.38492" lon="16.54291">
        <ele>325.878265</ele>
        <time>2022-09-28T12:07:17.728Z</time>
      </trkpt>
      <trkpt lat="47.38499" lon="16.54307">
        <ele>325.791103</ele>
        <time>2022-09-28T12:07:20.717Z</time>
      </trkpt>
      <trkpt lat="47.38505" lon="16.54323">
        <ele>325.704986</ele>
        <time>2022-09-28T12:07:23.733Z</time>
      </trkpt>
      <trkpt lat="47.38511" lon="16.54339">
        <ele>325.62036</ele>
        <time>2022-09-28T12:07:26.738Z</time>
      </trkpt>
      <trkpt lat="47.38518" lon="16.54355">
        <ele>325.522129</ele>
        <time>2022-09-28T12:07:29.725Z</time>
      </trkpt>
      <trkpt lat="47.38524" lon="16.5437">
        <ele>325.402969</ele>
        <time>2022-09-28T12:07:32.715Z</time>
      </trkpt>
      <trkpt lat="47.3853" lon="16.54382">
        <ele>325.298951</ele>
        <time>2022-09-28T12:07:35.725Z</time>
      </trkpt>
      <trkpt lat="47.38537" lon="16.54394">
        <ele>325.194558</ele>
        <time>2022-09-28T12:07:39.737Z</time>
      </trkpt>
      <trkpt lat="47.38542" lon="16.54405">
        <ele>325.101205</ele>
        <time>2022-09-28T12:07:46.762Z</time>
      </trkpt>
      <trkpt lat="47.38541" lon="16.54421">
        <ele>324.995888</ele>
        <time>2022-09-28T12:07:50.724Z</time>
      </trkpt>
      <trkpt lat="47.38542" lon="16.54436">
        <ele>324.894388</ele>
        <time>2022-09-28T12:07:53.749Z</time>
      </trkpt>
      <trkpt lat="47.38548" lon="16.54447">
        <ele>324.794526</ele>
        <time>2022-09-28T12:07:56.722Z</time>
      </trkpt>
      <trkpt lat="47.3856" lon="16.5445">
        <ele>324.67624</ele>
        <time>2022-09-28T12:07:59.755Z</time>
      </trkpt>
      <trkpt lat="47.38572" lon="16.5445">
        <ele>324.556592</ele>
        <time>2022-09-28T12:08:02.727Z</time>
      </trkpt>
      <trkpt lat="47.38584" lon="16.5445">
        <ele>324.432956</ele>
        <time>2022-09-28T12:08:05.756Z</time>
      </trkpt>
      <trkpt lat="47.38597" lon="16.5445">
        <ele>324.311315</ele>
        <time>2022-09-28T12:08:08.731Z</time>
      </trkpt>
      <trkpt lat="47.38608" lon="16.54446">
        <ele>324.198005</ele>
        <time>2022-09-28T12:08:11.716Z</time>
      </trkpt>
      <trkpt lat="47.38618" lon="16.54443">
        <ele>324.088436</ele>
        <time>2022-09-28T12:08:14.726Z</time>
      </trkpt>
      <trkpt lat="47.3863" lon="16.54439">
        <ele>323.969545</ele>
        <time>2022-09-28T12:08:17.738Z</time>
      </trkpt>
      <trkpt lat="47.38642" lon="16.54435">
        <ele>323.849806</ele>
        <time>2022-09-28T12:08:20.738Z</time>
      </trkpt>
      <trkpt lat="47.38654" lon="16.54433">
        <ele>323.848245</ele>
        <time>2022-09-28T12:08:23.734Z</time>
      </trkpt>
      <trkpt lat="47.38665" lon="16.54432">
        <ele>324.047224</ele>
        <time>2022-09-28T12:08:26.741Z</time>
      </trkpt>
      <trkpt lat="47.38677" lon="16.54431">
        <ele>324.25806</ele>
        <time>2022-09-28T12:08:29.742Z</time>
      </trkpt>
      <trkpt lat="47.38688" lon="16.54427">
        <ele>324.453514</ele>
        <time>2022-09-28T12:08:32.718Z</time>
      </trkpt>
      <trkpt lat="47.38699" lon="16.54422">
        <ele>324.652138</ele>
        <time>2022-09-28T12:08:35.746Z</time>
      </trkpt>
      <trkpt lat="47.38709" lon="16.54416">
        <ele>324.847224</ele>
        <time>2022-09-28T12:08:38.723Z</time>
      </trkpt>
      <trkpt lat="47.3872" lon="16.54409">
        <ele>325.054409</ele>
        <time>2022-09-28T12:08:41.755Z</time>
      </trkpt>
      <trkpt lat="47.3873" lon="16.544">
        <ele>325.256486</ele>
        <time>2022-09-28T12:08:44.755Z</time>
      </trkpt>
      <trkpt lat="47.38739" lon="16.54391">
        <ele>325.452074</ele>
        <time>2022-09-28T12:08:47.729Z</time>
      </trkpt>
      <trkpt lat="47.3875" lon="16.54381">
        <ele>325.675998</ele>
        <time>2022-09-28T12:08:50.734Z</time>
      </trkpt>
      <trkpt lat="47.38761" lon="16.5437">
        <ele>325.905385</ele>
        <time>2022-09-28T12:08:53.718Z</time>
      </trkpt>
      <trkpt lat="47.38773" lon="16.5436">
        <ele>326.13043</ele>
        <time>2022-09-28T12:08:56.714Z</time>
      </trkpt>
      <trkpt lat="47.3878" lon="16.54354">
        <ele>326.288378</ele>
        <time>2022-09-28T12:08:58.729Z</time>
      </trkpt>
      <trkpt lat="47.38792" lon="16.54346">
        <ele>326.507018</ele>
        <time>2022-09-28T12:09:01.713Z</time>
      </trkpt>
      <trkpt lat="47.38803" lon="16.54338">
        <ele>326.715205</ele>
        <time>2022-09-28T12:09:04.721Z</time>
      </trkpt>
      <trkpt lat="47.38813" lon="16.5433">
        <ele>326.913575</ele>
        <time>2022-09-28T12:09:07.726Z</time>
      </trkpt>
      <trkpt lat="47.38823" lon="16.54322">
        <ele>327.049927</ele>
        <time>2022-09-28T12:09:10.760Z</time>
      </trkpt>
      <trkpt lat="47.38834" lon="16.54314">
        <ele>327.181604</ele>
        <time>2022-09-28T12:09:13.726Z</time>
      </trkpt>
      <trkpt lat="47.38843" lon="16.54309">
        <ele>327.294164</ele>
        <time>2022-09-28T12:09:16.722Z</time>
      </trkpt>
      <trkpt lat="47.38851" lon="16.54305">
        <ele>327.400187</ele>
        <time>2022-09-28T12:09:19.729Z</time>
      </trkpt>
      <trkpt lat="47.38861" lon="16.54302">
        <ele>327.519677</ele>
        <time>2022-09-28T12:09:22.760Z</time>
      </trkpt>
      <trkpt lat="47.3887" lon="16.54299">
        <ele>327.623708</ele>
        <time>2022-09-28T12:09:24.727Z</time>
      </trkpt>
      <trkpt lat="47.38883" lon="16.54297">
        <ele>327.777314</ele>
        <time>2022-09-28T12:09:27.727Z</time>
      </trkpt>
      <trkpt lat="47.38896" lon="16.54296">
        <ele>327.9266</ele>
        <time>2022-09-28T12:09:30.713Z</time>
      </trkpt>
      <trkpt lat="47.38908" lon="16.54292">
        <ele>328.068767</ele>
        <time>2022-09-28T12:09:33.735Z</time>
      </trkpt>
      <trkpt lat="47.38919" lon="16.54287">
        <ele>328.19823</ele>
        <time>2022-09-28T12:09:36.721Z</time>
      </trkpt>
      <trkpt lat="47.3893" lon="16.54282">
        <ele>328.331462</ele>
        <time>2022-09-28T12:09:39.735Z</time>
      </trkpt>
      <trkpt lat="47.38942" lon="16.54277">
        <ele>328.476667</ele>
        <time>2022-09-28T12:09:42.739Z</time>
      </trkpt>
      <trkpt lat="47.38954" lon="16.54272">
        <ele>328.620973</ele>
        <time>2022-09-28T12:09:45.728Z</time>
      </trkpt>
      <trkpt lat="47.38967" lon="16.54268">
        <ele>328.770423</ele>
        <time>2022-09-28T12:09:48.756Z</time>
      </trkpt>
      <trkpt lat="47.38979" lon="16.54264">
        <ele>328.914356</ele>
        <time>2022-09-28T12:09:51.723Z</time>
      </trkpt>
      <trkpt lat="47.38992" lon="16.5426">
        <ele>328.98203</ele>
        <time>2022-09-28T12:09:54.716Z</time>
      </trkpt>
      <trkpt lat="47.39005" lon="16.54256">
        <ele>328.98203</ele>
        <time>2022-09-28T12:09:57.733Z</time>
      </trkpt>
      <trkpt lat="47.39014" lon="16.54254">
        <ele>328.98203</ele>
        <time>2022-09-28T12:09:59.737Z</time>
      </trkpt>
      <trkpt lat="47.39028" lon="16.54252">
        <ele>328.98203</ele>
        <time>2022-09-28T12:10:02.767Z</time>
      </trkpt>
      <trkpt lat="47.39041" lon="16.5425">
        <ele>328.98203</ele>
        <time>2022-09-28T12:10:05.728Z</time>
      </trkpt>
      <trkpt lat="47.39054" lon="16.54249">
        <ele>328.98203</ele>
        <time>2022-09-28T12:10:08.840Z</time>
      </trkpt>
      <trkpt lat="47.39065" lon="16.54245">
        <ele>328.98203</ele>
        <time>2022-09-28T12:10:11.719Z</time>
      </trkpt>
      <trkpt lat="47.39074" lon="16.54241">
        <ele>328.98203</ele>
        <time>2022-09-28T12:10:14.748Z</time>
      </trkpt>
      <trkpt lat="47.39087" lon="16.54244">
        <ele>328.98203</ele>
        <time>2022-09-28T12:10:17.727Z</time>
      </trkpt>
      <trkpt lat="47.391" lon="16.54243">
        <ele>328.98203</ele>
        <time>2022-09-28T12:10:20.699Z</time>
      </trkpt>
      <trkpt lat="47.39112" lon="16.54242">
        <ele>328.98203</ele>
        <time>2022-09-28T12:10:23.709Z</time>
      </trkpt>
      <trkpt lat="47.39121" lon="16.54241">
        <ele>328.98203</ele>
        <time>2022-09-28T12:10:27.700Z</time>
      </trkpt>
      <trkpt lat="47.39125" lon="16.54229">
        <ele>328.98203</ele>
        <time>2022-09-28T12:10:55.715Z</time>
      </trkpt>
      <trkpt lat="47.39139" lon="16.54228">
        <ele>328.98203</ele>
        <time>2022-09-28T12:12:55.296Z</time>
      </trkpt>
    </trkseg>
  </trk>
</gpx>